# Wetter Temperatur Luftdruck Luftfeuchtigkeit Sichtweite Windgeschwindigkeit Windrichtung Zeit
1 Clouds 25 1011 94 10000 1.54 40 12:52 22.04.2021
2 Clouds 25 1011 94 10000 1.54 40 12:31 22.04.2021
3 Clouds 25 1010 94 10000 1.03 60 11:50 22.04.2021
4 Clouds 25 1010 94 10000 1.03 60 11:28 22.04.2021
5 Clouds 25 1010 94 10000 1.03 60 10:59 22.04.2021
6 Clouds 25 1010 94 10000 1.03 20 10:40 22.04.2021
7 Clouds 25 1010 94 10000 1.03 20 10:19 22.04.2021
8 Clouds 25 1010 94 10000 2.06 40 09:36 22.04.2021
9 Clouds 25 1011 94 10000 1.54 50 08:51 22.04.2021
10 Clouds 25 1011 94 10000 1.54 50 08:23 22.04.2021
11 Clouds 25 1012 88 10000 1.54 80 07:49 22.04.2021
12 Clouds 25 1012 88 10000 1.54 80 07:31 22.04.2021
13 Clear 25 1012 94 10000 1.54 20 06:44 22.04.2021
14 Clear 25 1012 94 10000 1.54 20 06:18 22.04.2021
15 Clouds 25 1013 89 10000 2.06 20 05:21 22.04.2021
16 Clouds 26 1011 83 10000 2.06 90 02:24 22.04.2021
17 Clouds 27 1010 89 10000 2.57 20 23:55 21.04.2021
18 Clouds 27 1010 89 10000 2.57 20 23:55 21.04.2021
19 Rain 27 1009 83 10000 1.03 80 23:37 21.04.2021
20 Clouds 27 1009 83 10000 1.03 80 22:59 21.04.2021
21 Clouds 29 1009 74 10000 1.03 80 22:38 21.04.2021
22 Clouds 29 1009 74 10000 1.03 80 22:18 21.04.2021
23 Clouds 31 1009 66 10000 1.03 110 21:41 21.04.2021
24 Clouds 31 1009 66 10000 1.03 110 21:19 21.04.2021
25 Clouds 28 1011 89 10000 2.57 20 20:27 21.04.2021
26 Rain 28 1011 94 9000 2.57 30 19:46 21.04.2021
27 Rain 27 1012 100 2000 4.12 40 19:27 21.04.2021
28 Rain 29 1013 83 2000 2.06 70 18:51 21.04.2021
29 Rain 29 1013 83 2000 2.06 70 18:33 21.04.2021
30 Rain 29 1013 78 10000 1.54 170 17:58 21.04.2021
31 Clouds 29 1014 79 10000 1.54 80 17:39 21.04.2021
32 Clouds 29 1014 79 10000 1.54 80 17:39 21.04.2021
33 Rain 29 1014 79 10000 1.54 80 17:20 21.04.2021
34 Clouds 28 1015 78 10000 1.54 70 16:38 21.04.2021
35 Clouds 28 1014 78 10000 1.54 60 15:47 21.04.2021
36 Clouds 28 1014 78 10000 1.54 60 15:21 21.04.2021
37 Clouds 26 1014 89 10000 1.54 60 14:44 21.04.2021
38 Clouds 26 1014 89 10000 1.54 60 14:24 21.04.2021
39 Clouds 24 1013 94 10000 1.03 100 13:49 21.04.2021
40 Clouds 24 1013 94 10000 1.03 100 13:21 21.04.2021
41 Clouds 23 1012 100 10000 1.03 100 12:41 21.04.2021
42 Clouds 23 1012 100 10000 1.03 100 12:18 21.04.2021
43 Clouds 24 1012 94 10000 1.54 320 11:41 21.04.2021
44 Clouds 24 1012 94 10000 1.54 320 11:22 21.04.2021
45 Clouds 24 1012 94 10000 1.54 10 10:39 21.04.2021
46 Clouds 24 1012 94 10000 1.54 10 09:56 21.04.2021
47 Clear 23 1011 94 10000 1.03 310 09:21 21.04.2021
48 Clear 24 1012 94 10000 1.54 10 08:44 21.04.2021
49 Clear 24 1012 94 10000 1.54 10 08:23 21.04.2021
50 Clear 24 1013 94 10000 2.21 37 07:50 21.04.2021
51 Clear 24 1013 94 10000 2.09 33 07:26 21.04.2021
52 Clear 24 1013 100 10000 1.91 33 05:57 21.04.2021
53 Clouds 25 1012 88 10000 2.06 30 01:51 21.04.2021
54 Rain 26 1011 89 10000 3.09 30 00:20 21.04.2021
55 Rain 26 1010 83 10000 3.6 10 23:38 20.04.2021
56 Rain 26 1010 78 10000 3.09 30 22:46 20.04.2021
57 Rain 26 1010 78 10000 3.09 30 22:23 20.04.2021
58 Rain 26 1010 78 10000 3.09 30 21:56 20.04.2021
59 Rain 27 1011 78 10000 3.09 360 21:29 20.04.2021
60 Rain 26 1011 94 10000 2.57 330 20:59 20.04.2021
61 Rain 27 1011 83 10000 1.03 60 20:38 20.04.2021
62 Rain 27 1011 83 10000 1.03 60 20:18 20.04.2021
63 Rain 26 1012 78 10000 1.03 70 19:45 20.04.2021
64 Rain 26 1012 78 10000 1.03 70 19:27 20.04.2021
65 Rain 27 1013 74 10000 2.06 100 18:42 20.04.2021
66 Clouds 28 1013 74 10000 2.06 100 18:22 20.04.2021
67 Clouds 29 1015 79 10000 2.06 80 17:40 20.04.2021
68 Clouds 28 1015 78 10000 1.54 80 16:50 20.04.2021
69 Clouds 28 1015 78 10000 1.54 80 16:18 20.04.2021
70 Clouds 28 1015 78 10000 1.54 90 15:30 20.04.2021
71 Clouds 28 1015 78 10000 1.54 90 14:59 20.04.2021
72 Clouds 27 1014 89 10000 1.03 60 14:35 20.04.2021
73 Clouds 26 1014 89 10000 2.06 60 13:54 20.04.2021
74 Clouds 25 1013 94 10000 0.51 70 13:26 20.04.2021
75 Clouds 24 1012 100 10000 0.51 60 12:48 20.04.2021
76 Clouds 24 1012 100 10000 0.51 60 12:23 20.04.2021
77 Clouds 24 1012 100 10000 0.51 160 11:46 20.04.2021
78 Clouds 24 1012 100 10000 0.51 160 11:24 20.04.2021
79 Clouds 24 1012 94 10000 0.63 77 10:45 20.04.2021
80 Clouds 24 1012 94 10000 0.62 56 10:23 20.04.2021
81 Clouds 24 1012 100 10000 0.51 160 09:44 20.04.2021
82 Clouds 24 1012 100 10000 0.51 160 08:56 20.04.2021
83 Clouds 24 1012 94 10000 0.95 46 08:29 20.04.2021
84 Clouds 25 1013 94 10000 1.33 50 07:49 20.04.2021
85 Clouds 25 1013 94 10000 1.51 46 06:49 20.04.2021
86 Clouds 25 1014 94 10000 1.03 70 05:40 20.04.2021
87 Clouds 25 1013 94 10000 2.06 80 04:42 20.04.2021
88 Clouds 25 1011 94 10000 1.54 170 01:58 20.04.2021
89 Clouds 25 1011 94 10000 1.03 180 00:41 20.04.2021
90 Clouds 25 1011 94 10000 0.51 170 23:38 19.04.2021
91 Clouds 25 1011 94 10000 0.51 170 22:58 19.04.2021
92 Rain 25 1011 94 10000 0.51 90 22:36 19.04.2021
93 Rain 25 1011 94 10000 1.03 90 21:52 19.04.2021
94 Rain 25 1011 94 10000 1.03 90 21:33 19.04.2021
95 Rain 25 1011 94 10000 1.03 90 20:56 19.04.2021
96 Rain 25 1012 94 10000 2.06 60 20:38 19.04.2021
97 Rain 26 1013 89 10000 2.06 80 20:19 19.04.2021
98 Rain 26 1013 89 10000 2.06 80 19:41 19.04.2021
99 Rain 26 1013 89 10000 2.06 80 19:23 19.04.2021
100 Rain 26 1014 94 4000 2.57 60 18:47 19.04.2021
101 Rain 27 1014 89 5000 1.54 90 18:22 19.04.2021
102 Rain 27 1014 89 5000 1.54 90 18:22 19.04.2021
103 Clouds 27 1015 89 10000 2.57 170 17:54 19.04.2021
104 Clouds 27 1015 89 10000 2.57 170 17:29 19.04.2021
105 Clouds 28 1015 89 10000 2.57 170 16:53 19.04.2021
106 Clouds 28 1015 78 10000 1.03 100 16:34 19.04.2021
107 Clouds 27 1015 78 10000 1.03 100 15:55 19.04.2021
108 Clouds 27 1015 83 10000 1.54 70 15:30 19.04.2021
109 Clouds 27 1015 83 10000 1.54 70 14:55 19.04.2021
110 Clouds 26 1014 89 10000 1.03 70 14:35 19.04.2021
111 Clouds 25 1014 89 10000 1.03 70 13:54 19.04.2021
112 Clouds 25 1014 89 10000 1.03 70 13:54 19.04.2021
113 Clouds 25 1013 94 10000 0.51 310 13:30 19.04.2021
114 Clouds 25 1014 100 10000 1.03 350 12:56 19.04.2021
115 Clouds 25 1013 94 10000 0.51 310 12:36 19.04.2021
116 Clouds 25 1013 94 10000 0.51 310 12:18 19.04.2021
117 Clouds 25 1012 94 10000 2.06 280 11:49 19.04.2021
118 Clouds 25 1012 94 10000 2.06 280 11:20 19.04.2021
119 Clear 25 1012 94 10000 1.03 320 10:44 19.04.2021
120 Clear 25 1012 94 10000 1.03 320 10:20 19.04.2021
121 Clouds 25 1013 88 10000 1.03 320 09:43 19.04.2021
122 Clouds 25 1013 88 10000 1.03 320 09:24 19.04.2021
123 Clear 25 1013 88 10000 1.03 320 08:41 19.04.2021
124 Clear 25 1014 89 10000 1.54 330 07:50 19.04.2021
125 Clear 25 1014 89 10000 1.54 330 07:24 19.04.2021
126 Clear 25 1014 89 10000 1.03 330 06:52 19.04.2021
127 Clear 25 1014 94 10000 1.54 10 05:30 19.04.2021
128 Clouds 25 1011 94 10000 1.54 80 01:49 19.04.2021
129 Clouds 25 1010 94 10000 1.03 80 00:42 19.04.2021
130 Clouds 26 1010 94 10000 1.54 80 23:21 18.04.2021
131 Clouds 27 1010 94 10000 1.54 80 22:58 18.04.2021
132 Clouds 27 1009 89 10000 1.03 180 22:34 18.04.2021
133 Clouds 27 1009 89 10000 1.03 180 21:56 18.04.2021
134 Clouds 27 1010 83 10000 2.57 280 21:28 18.04.2021
135 Clouds 27 1011 78 10000 2.06 40 20:44 18.04.2021
136 Clouds 27 1011 78 10000 2.06 40 20:26 18.04.2021
137 Clouds 26 1011 89 10000 3.09 310 19:59 18.04.2021
138 Clouds 25 1013 94 10000 3.09 60 19:39 18.04.2021
139 Clouds 25 1013 94 10000 3.09 60 19:19 18.04.2021
140 Rain 24 1014 94 10000 3.6 50 18:45 18.04.2021
141 Rain 24 1014 94 10000 3.6 50 18:25 18.04.2021
142 Rain 24 1014 94 10000 3.6 50 18:25 18.04.2021
143 Rain 24 1014 94 4000 4.12 50 17:46 18.04.2021
144 Rain 24 1014 94 4000 4.12 50 17:27 18.04.2021
145 Clouds 26 1014 83 10000 2.06 70 16:46 18.04.2021
146 Clouds 26 1014 83 10000 2.06 70 16:27 18.04.2021
147 Clouds 26 1014 89 10000 1.54 80 15:44 18.04.2021
148 Clouds 26 1014 89 10000 1.54 80 15:25 18.04.2021
149 Clouds 26 1013 89 10000 1.03 70 14:52 18.04.2021
150 Clouds 26 1013 89 10000 1.03 70 14:23 18.04.2021
151 Clouds 25 1013 89 10000 1.03 70 13:55 18.04.2021
152 Clouds 25 1012 100 10000 1.03 160 13:34 18.04.2021
153 Clouds 25 1011 94 10000 1.03 220 12:50 18.04.2021
154 Clouds 25 1011 94 10000 1.03 220 12:26 18.04.2021
155 Clouds 24 1012 94 10000 1.03 330 11:42 18.04.2021
156 Clouds 24 1012 94 10000 1.03 330 11:21 18.04.2021
157 Rain 24 1011 94 10000 1.03 330 10:47 18.04.2021
158 Rain 24 1011 94 10000 1.03 330 10:22 18.04.2021
159 Rain 24 1011 94 10000 1.03 330 09:53 18.04.2021
160 Rain 24 1011 100 10000 1.03 300 09:34 18.04.2021
161 Rain 25 1011 94 10000 1.03 120 08:57 18.04.2021
162 Rain 25 1011 94 10000 1.03 120 08:35 18.04.2021
163 Rain 25 1012 100 10000 1.03 140 07:58 18.04.2021
164 Rain 25 1012 100 10000 1.03 140 07:37 18.04.2021
165 Clouds 26 1013 94 10000 1.54 120 05:42 18.04.2021
166 Clouds 26 1013 94 10000 1.54 120 05:23 18.04.2021
167 Clouds 26 1010 94 10000 2.06 70 02:39 18.04.2021
168 Clouds 26 1010 94 10000 2.06 70 02:20 18.04.2021
169 Clouds 27 1008 89 10000 1.03 80 00:37 18.04.2021
170 Clouds 28 1008 83 10000 0.51 60 23:37 17.04.2021
171 Clouds 28 1008 83 10000 1.54 200 22:51 17.04.2021
172 Clouds 28 1008 83 10000 1.54 200 22:30 17.04.2021
173 Clouds 29 1009 79 10000 2.06 210 21:50 17.04.2021
174 Clouds 29 1009 79 10000 2.06 210 21:28 17.04.2021
175 Clouds 27 1011 83 10000 2.06 250 20:47 17.04.2021
176 Clouds 27 1011 83 10000 2.06 250 20:27 17.04.2021
177 Clouds 27 1012 89 10000 2.06 250 19:44 17.04.2021
178 Clouds 27 1012 89 10000 2.06 250 19:21 17.04.2021
179 Clouds 28 1012 83 10000 2.57 240 18:55 17.04.2021
180 Clouds 27 1013 83 10000 2.06 290 18:28 17.04.2021
181 Clouds 26 1014 89 10000 1.54 320 17:56 17.04.2021
182 Clouds 26 1014 89 10000 1.54 320 17:38 17.04.2021
183 Clouds 25 1014 94 10000 1.03 290 16:42 17.04.2021
184 Rain 25 1014 94 10000 1.03 290 16:24 17.04.2021
185 Rain 24 1014 100 10000 1.54 310 15:38 17.04.2021
186 Rain 24 1013 94 10000 1.54 320 14:49 17.04.2021
187 Rain 24 1013 94 10000 1.54 320 14:29 17.04.2021
188 Rain 23 1012 100 5000 1.34 49 13:45 17.04.2021
189 Rain 23 1012 100 5000 1.42 37 13:18 17.04.2021
190 Rain 23 1011 94 6000 1.03 110 12:35 17.04.2021
191 Rain 23 1011 100 8000 1.54 70 11:58 17.04.2021
192 Rain 22 1011 100 2000 2.06 70 11:38 17.04.2021
193 Rain 23 1011 100 2000 2.06 70 11:19 17.04.2021
194 Rain 29 1011 88 1000 6.17 70 10:39 17.04.2021
195 Clouds 25 1010 94 10000 1.54 260 09:51 17.04.2021
196 Clouds 25 1010 94 10000 1.54 260 09:51 17.04.2021
197 Clouds 25 1010 94 10000 1.54 260 08:55 17.04.2021
198 Clouds 25 1010 94 10000 1.54 260 08:55 17.04.2021
199 Clouds 26 1010 89 10000 1.54 280 08:33 17.04.2021
200 Clouds 26 1010 89 10000 1.54 280 08:33 17.04.2021
201 Clouds 25 1011 89 10000 1.03 250 07:51 17.04.2021
202 Clouds 25 1012 94 10000 1.03 260 06:34 17.04.2021
203 Rain 26 1010 74 10000 1.54 340 03:48 17.04.2021
204 Clouds 26 1009 74 10000 2.57 20 01:35 17.04.2021
205 Clouds 27 1008 74 10000 2.57 40 00:40 17.04.2021
206 Clouds 27 1008 74 10000 2.57 40 00:19 17.04.2021
207 Rain 28 1007 74 10000 2.06 60 23:35 16.04.2021
208 Rain 28 1007 69 10000 2.57 70 22:52 16.04.2021
209 Rain 28 1007 69 10000 2.57 70 22:25 16.04.2021
210 Rain 28 1008 70 10000 1.54 40 21:57 16.04.2021
211 Rain 28 1008 70 10000 1.54 40 21:39 16.04.2021
212 Rain 28 1007 89 10000 1.03 10 20:57 16.04.2021
213 Rain 28 1009 74 10000 1.54 60 20:38 16.04.2021
214 Rain 28 1009 74 10000 1.54 60 20:18 16.04.2021
215 Rain 27 1010 74 10000 1.54 100 19:43 16.04.2021
216 Rain 30 1010 74 10000 1.54 100 19:19 16.04.2021
217 Rain 30 1011 74 10000 2.57 70 18:27 16.04.2021
218 Clouds 30 1012 70 10000 3.6 70 17:49 16.04.2021
219 Clouds 30 1012 70 10000 3.6 70 17:20 16.04.2021
220 Clouds 30 1013 74 10000 1.54 70 16:45 16.04.2021
221 Clouds 30 1013 74 10000 1.54 70 16:26 16.04.2021
222 Clouds 29 1013 74 10000 3.6 40 15:55 16.04.2021
223 Clouds 28 1013 83 10000 1.03 90 15:29 16.04.2021
224 Clouds 27 1012 83 10000 1.03 40 14:44 16.04.2021
225 Clouds 27 1012 83 10000 1.03 40 14:23 16.04.2021
226 Clouds 26 1012 89 10000 1.03 360 13:55 16.04.2021
227 Clouds 25 1011 94 10000 1.54 10 13:22 16.04.2021
228 Clouds 25 1011 94 10000 1.54 10 12:53 16.04.2021
229 Clouds 24 1010 94 10000 2.06 20 12:34 16.04.2021
230 Clouds 24 1010 94 10000 1.03 10 11:59 16.04.2021
231 Clouds 25 1010 94 10000 1.03 240 11:39 16.04.2021
232 Clouds 25 1010 94 10000 1.03 240 11:20 16.04.2021
233 Clouds 25 1010 88 10000 1.03 180 10:41 16.04.2021
234 Clouds 25 1010 88 10000 1.03 180 10:20 16.04.2021
235 Clear 25 1010 88 10000 1.54 100 09:44 16.04.2021
236 Clear 25 1010 88 10000 1.54 100 09:21 16.04.2021
237 Clear 25 1010 88 10000 1.03 250 08:44 16.04.2021
238 Clear 25 1010 88 10000 1.03 250 08:19 16.04.2021
239 Clear 25 1011 94 10000 1.03 120 07:41 16.04.2021
240 Clear 25 1011 94 10000 1.03 120 07:18 16.04.2021
241 Clear 25 1012 94 10000 1.54 100 06:35 16.04.2021
242 Clear 26 1011 89 10000 2.06 70 05:31 16.04.2021
243 Clouds 27 1009 83 10000 3.09 60 01:40 16.04.2021
244 Clouds 27 1008 83 10000 2.57 60 00:44 16.04.2021
245 Clouds 27 1008 83 10000 2.57 60 00:20 16.04.2021
246 Clouds 28 1007 83 10000 2.57 50 23:51 15.04.2021
247 Clouds 28 1007 83 10000 2.57 50 23:27 15.04.2021
248 Clouds 30 1007 70 10000 1.03 120 22:47 15.04.2021
249 Clouds 30 1007 70 10000 1.03 120 22:23 15.04.2021
250 Clouds 30 1007 74 10000 2.57 160 21:43 15.04.2021
251 Clouds 30 1007 74 10000 2.57 160 21:24 15.04.2021
252 Clouds 30 1009 74 10000 2.57 180 20:48 15.04.2021
253 Clouds 30 1009 74 10000 2.57 180 20:25 15.04.2021
254 Clouds 29 1010 70 10000 2.57 180 19:47 15.04.2021
255 Clouds 29 1010 70 10000 2.57 180 19:28 15.04.2021
256 Clouds 29 1010 66 10000 3.6 180 18:59 15.04.2021
257 Clouds 28 1012 83 10000 1.03 80 18:37 15.04.2021
258 Rain 28 1012 83 10000 1.03 80 18:18 15.04.2021
259 Rain 28 1013 83 10000 2.06 180 17:44 15.04.2021
260 Clouds 28 1013 83 10000 2.06 180 17:24 15.04.2021
261 Clouds 28 1013 83 10000 1.54 260 16:43 15.04.2021
262 Clouds 28 1013 83 10000 1.54 260 16:24 15.04.2021
263 Clouds 28 1013 83 10000 3.09 260 15:47 15.04.2021
264 Clouds 28 1013 83 10000 3.09 260 15:27 15.04.2021
265 Clouds 27 1012 83 10000 2.57 250 14:42 15.04.2021
266 Clouds 27 1012 83 10000 2.57 250 14:24 15.04.2021
267 Clouds 25 1011 89 10000 2.57 260 13:48 15.04.2021
268 Clouds 25 1011 89 10000 2.57 260 13:23 15.04.2021
269 Clouds 25 1010 94 10000 3.09 240 12:47 15.04.2021
270 Clouds 25 1010 94 10000 3.09 240 12:26 15.04.2021
271 Clouds 25 1011 89 10000 1.54 330 11:47 15.04.2021
272 Clouds 25 1011 89 10000 1.54 330 11:26 15.04.2021
273 Clouds 25 1011 89 10000 1.54 330 10:57 15.04.2021
274 Clear 25 1011 89 10000 1.54 230 10:28 15.04.2021
275 Clear 25 1011 89 10000 1.54 230 09:56 15.04.2021
276 Clear 25 1011 89 10000 1.54 330 09:29 15.04.2021
277 Clear 25 1012 83 10000 1.03 340 08:51 15.04.2021
278 Clear 25 1012 83 10000 1.03 340 08:24 15.04.2021
279 Clear 26 1012 83 10000 1.54 340 07:30 15.04.2021
280 Clear 26 1012 83 10000 1.54 340 06:55 15.04.2021
281 Clear 26 1012 83 10000 1.03 340 06:33 15.04.2021
282 Clear 26 1012 89 10000 2.57 350 04:53 15.04.2021
283 Clouds 26 1010 89 10000 2.57 270 02:51 15.04.2021
284 Clouds 28 1009 79 10000 2.06 240 23:49 14.04.2021
285 Clouds 28 1009 79 10000 2.06 240 23:29 14.04.2021
286 Clouds 29 1009 70 10000 0.51 20 22:47 14.04.2021
287 Clouds 28 1009 74 10000 3.09 70 22:27 14.04.2021
288 Rain 28 1009 74 10000 3.09 70 21:53 14.04.2021
289 Rain 28 1009 74 10000 3.09 70 21:32 14.04.2021
290 Rain 28 1009 74 10000 3.09 70 20:58 14.04.2021
291 Rain 28 1011 74 10000 1.54 70 20:35 14.04.2021
292 Rain 29 1011 74 10000 1.54 70 19:55 14.04.2021
293 Rain 30 1012 74 10000 2.06 70 19:37 14.04.2021
294 Rain 30 1012 74 10000 2.06 70 19:18 14.04.2021
295 Clouds 29 1013 79 10000 1.54 80 18:47 14.04.2021
296 Clouds 29 1013 79 10000 1.54 80 18:18 14.04.2021
297 Rain 28 1014 78 10000 1.03 100 17:51 14.04.2021
298 Rain 28 1014 78 10000 1.03 100 17:23 14.04.2021
299 Rain 27 1014 83 10000 1.54 80 16:43 14.04.2021
300 Rain 27 1014 83 10000 1.54 80 16:22 14.04.2021
301 Clouds 26 1014 89 10000 1.03 80 15:40 14.04.2021
302 Clouds 26 1014 89 10000 1.03 80 15:18 14.04.2021
303 Clouds 24 1013 94 10000 1.03 50 14:42 14.04.2021
304 Clouds 24 1013 94 10000 1.03 50 14:21 14.04.2021
305 Clouds 23 1012 94 6000 1.54 70 13:47 14.04.2021
306 Rain 23 1012 94 4000 2.06 50 12:47 14.04.2021
307 Rain 24 1012 94 1200 3.6 50 12:24 14.04.2021
308 Rain 24 1011 94 10000 1.03 160 11:42 14.04.2021
309 Rain 24 1011 94 10000 1.03 160 11:23 14.04.2021
310 Rain 24 1011 94 10000 2.06 160 10:34 14.04.2021
311 Rain 24 1011 100 10000 0.51 170 09:46 14.04.2021
312 Rain 24 1011 100 10000 0.51 170 09:27 14.04.2021
313 Rain 24 1011 100 10000 0.51 170 08:56 14.04.2021
314 Rain 24 1011 100 10000 1.54 170 08:32 14.04.2021
315 Rain 24 1012 94 10000 1.54 160 07:51 14.04.2021
316 Clouds 24 1013 94 8000 2.06 170 06:35 14.04.2021
317 Clouds 24 1013 94 3000 3.09 90 05:50 14.04.2021
318 Rain 27 1010 83 10000 1.03 190 02:40 14.04.2021
319 Clouds 27 1009 83 10000 1.54 170 01:19 14.04.2021
320 Rain 28 1009 74 10000 1.03 70 00:32 14.04.2021
321 Rain 29 1009 79 10000 0.51 110 23:34 13.04.2021
322 Rain 30 1008 70 10000 0.51 120 22:45 13.04.2021
323 Rain 30 1008 70 10000 0.51 120 22:22 13.04.2021
324 Clouds 28 1008 78 10000 2.06 80 21:50 13.04.2021
325 Clouds 28 1008 78 10000 2.06 80 21:32 13.04.2021
326 Rain 28 1010 78 10000 1.54 70 20:52 13.04.2021
327 Rain 28 1010 78 10000 1.54 70 20:25 13.04.2021
328 Rain 27 1010 78 10000 1.54 70 19:59 13.04.2021
329 Rain 27 1010 83 10000 1.54 80 19:26 13.04.2021
330 Rain 27 1012 83 10000 3.09 80 18:57 13.04.2021
331 Rain 27 1012 83 10000 3.09 80 18:31 13.04.2021
332 Clouds 29 1013 83 7000 1.03 150 17:41 13.04.2021
333 Clouds 29 1013 83 7000 1.03 150 17:22 13.04.2021
334 Clouds 29 1014 84 10000 2.06 160 16:49 13.04.2021
335 Clouds 29 1014 84 10000 2.06 160 16:31 13.04.2021
336 Clouds 29 1014 84 10000 2.06 160 15:56 13.04.2021
337 Clouds 28 1013 89 10000 1.03 180 15:38 13.04.2021
338 Clouds 28 1013 89 10000 1.03 180 14:58 13.04.2021
339 Clouds 27 1013 89 10000 1.54 170 14:25 13.04.2021
340 Clouds 26 1013 94 10000 0.7 138 13:57 13.04.2021
341 Clouds 26 1012 100 10000 1.03 190 13:38 13.04.2021
342 Clouds 26 1012 100 10000 1.03 190 13:20 13.04.2021
343 Clouds 26 1012 100 10000 1.03 180 12:46 13.04.2021
344 Clouds 26 1012 94 10000 1.54 210 12:22 13.04.2021
345 Clouds 25 1011 89 10000 1.03 40 11:37 13.04.2021
346 Clouds 25 1011 89 10000 1.03 40 10:58 13.04.2021
347 Clouds 25 1011 89 10000 1.03 40 10:58 13.04.2021
348 Clouds 25 1010 100 10000 1.03 180 10:40 13.04.2021
349 Clouds 25 1010 100 10000 1.03 180 10:19 13.04.2021
350 Clear 26 1010 94 10000 1.54 80 09:49 13.04.2021
351 Clear 26 1010 94 10000 1.54 80 09:23 13.04.2021
352 Clear 26 1011 89 10000 2.06 20 08:43 13.04.2021
353 Clear 26 1011 89 10000 2.06 20 08:21 13.04.2021
354 Clear 26 1011 89 10000 1.54 60 07:43 13.04.2021
355 Clear 26 1011 89 10000 1.54 60 07:22 13.04.2021
356 Clouds 26 1012 89 10000 2.06 70 06:19 13.04.2021
357 Clouds 27 1011 89 10000 1.03 60 03:41 13.04.2021
358 Clouds 28 1009 83 10000 0.51 110 01:31 13.04.2021
359 Clouds 30 1008 74 10000 1.03 70 23:50 12.04.2021
360 Clouds 30 1008 74 10000 1.03 70 23:32 12.04.2021
361 Clouds 31 1008 74 10000 1.54 120 22:46 12.04.2021
362 Clouds 31 1008 74 10000 1.54 120 22:28 12.04.2021
363 Rain 31 1009 70 10000 2.57 100 21:48 12.04.2021
364 Rain 31 1009 70 10000 2.57 100 21:24 12.04.2021
365 Clouds 31 1010 58 10000 2.06 360 20:46 12.04.2021
366 Clouds 31 1010 58 10000 2.06 360 20:26 12.04.2021
367 Clouds 31 1010 58 10000 2.06 360 19:58 12.04.2021
368 Clouds 32 1011 58 10000 1.54 360 19:39 12.04.2021
369 Clouds 32 1011 58 10000 1.54 360 19:20 12.04.2021
370 Clouds 30 1013 66 10000 2.57 360 18:47 12.04.2021
371 Clouds 30 1013 66 10000 2.57 360 18:29 12.04.2021
372 Clouds 30 1013 66 10000 1.54 300 17:46 12.04.2021
373 Clouds 30 1013 66 10000 1.54 300 17:25 12.04.2021
374 Clouds 29 1013 74 10000 2.06 100 16:49 12.04.2021
375 Clouds 29 1013 74 10000 2.06 100 16:29 12.04.2021
376 Clouds 28 1013 83 10000 2.57 130 15:54 12.04.2021
377 Clouds 27 1013 89 10000 2.06 110 15:33 12.04.2021
378 Clouds 27 1013 83 10000 2.06 120 14:55 12.04.2021
379 Clouds 26 1012 94 10000 1.54 110 14:37 12.04.2021
380 Clouds 25 1012 94 10000 1.54 110 13:56 12.04.2021
381 Clouds 25 1012 94 10000 1.03 90 13:33 12.04.2021
382 Clouds 25 1012 94 10000 1.03 90 12:59 12.04.2021
383 Clouds 25 1012 100 10000 0.51 90 12:38 12.04.2021
384 Clouds 25 1010 94 10000 1.03 90 12:19 12.04.2021
385 Clouds 24 1012 94 10000 1.54 340 11:26 12.04.2021
386 Clouds 24 1011 94 10000 1.54 340 10:51 12.04.2021
387 Clouds 24 1011 94 10000 1.54 340 10:27 12.04.2021
388 Clouds 24 1011 94 10000 1.54 350 09:51 12.04.2021
389 Clouds 24 1011 94 10000 1.54 350 09:23 12.04.2021
390 Clouds 24 1012 94 10000 1.54 320 08:44 12.04.2021
391 Clouds 24 1012 94 10000 1.54 310 07:45 12.04.2021
392 Clouds 24 1012 94 10000 1.54 310 07:22 12.04.2021
393 Rain 25 1013 94 10000 1.54 330 06:28 12.04.2021
394 Rain 24 1013 100 10000 1.31 24 05:45 12.04.2021
395 Rain 24 1013 100 10000 1.31 24 05:45 12.04.2021
396 Rain 24 1010 94 10000 1.03 130 01:43 12.04.2021
397 Rain 26 1010 83 3000 5.66 300 00:27 12.04.2021
398 Rain 28 1009 83 8000 3.09 160 23:51 11.04.2021
399 Rain 28 1008 83 10000 2.57 160 23:31 11.04.2021
400 Clouds 29 1008 79 10000 4.12 180 22:49 11.04.2021
401 Rain 29 1008 79 10000 4.12 180 22:27 11.04.2021
402 Clouds 30 1008 74 10000 2.57 350 21:52 11.04.2021
403 Clouds 30 1008 74 10000 2.57 350 21:32 11.04.2021
404 Clouds 30 1008 74 10000 2.57 350 20:59 11.04.2021
405 Clouds 31 1010 70 10000 2.57 330 20:39 11.04.2021
406 Clouds 31 1010 70 10000 2.57 330 20:20 11.04.2021
407 Clouds 30 1011 79 10000 2.06 340 19:40 11.04.2021
408 Clouds 30 1011 79 10000 2.06 340 19:19 11.04.2021
409 Clouds 30 1012 70 10000 2.06 320 18:47 11.04.2021
410 Clouds 30 1012 70 10000 2.06 320 18:26 11.04.2021
411 Clouds 29 1013 79 10000 2.06 340 17:50 11.04.2021
412 Clouds 29 1013 79 10000 2.06 340 17:29 11.04.2021
413 Clouds 28 1013 83 10000 1.03 20 16:54 11.04.2021
414 Clouds 28 1013 83 10000 1.03 20 16:28 11.04.2021
415 Clouds 28 1013 83 10000 1.03 20 16:28 11.04.2021
416 Clouds 28 1013 78 10000 1.42 107 15:59 11.04.2021
417 Clouds 27 1013 78 10000 1.03 330 15:40 11.04.2021
418 Clouds 27 1013 78 10000 1.03 330 15:22 11.04.2021
419 Clouds 27 1012 83 10000 1.54 340 14:48 11.04.2021
420 Clouds 27 1012 83 10000 1.54 340 14:19 11.04.2021
421 Clouds 25 1011 100 10000 0.51 360 13:39 11.04.2021
422 Clouds 25 1011 100 10000 0.51 360 13:21 11.04.2021
423 Clouds 24 1010 100 10000 1.03 360 12:26 11.04.2021
424 Clouds 24 1010 100 10000 0.51 360 11:53 11.04.2021
425 Clouds 24 1010 100 10000 0.51 360 11:33 11.04.2021
426 Clouds 24 1010 100 10000 1.42 84 10:58 11.04.2021
427 Clouds 25 1009 88 10000 1.54 350 10:39 11.04.2021
428 Clouds 25 1009 88 10000 1.54 350 10:20 11.04.2021
429 Clouds 25 1009 94 10000 0.51 160 09:40 11.04.2021
430 Clouds 25 1009 94 10000 0.51 160 09:22 11.04.2021
431 Clouds 25 1010 94 10000 0.51 340 08:38 11.04.2021
432 Clouds 26 1010 94 10000 2.06 350 07:38 11.04.2021
433 Clouds 26 1010 94 10000 2.06 350 07:19 11.04.2021
434 Rain 26 1011 94 10000 3.6 100 05:46 11.04.2021
435 Rain 26 1011 94 10000 3.6 100 05:22 11.04.2021
436 Rain 26 1010 89 10000 2.57 310 04:35 11.04.2021
437 Clouds 27 1010 83 10000 1.54 310 03:20 11.04.2021
438 Clouds 29 1007 79 10000 2.06 210 00:49 11.04.2021
439 Clouds 29 1007 79 10000 2.06 210 00:25 11.04.2021
440 Clouds 29 1006 74 10000 1.03 140 23:33 10.04.2021
441 Rain 30 1007 74 10000 1.03 140 22:54 10.04.2021
442 Rain 30 1007 74 10000 1.03 140 22:26 10.04.2021
443 Rain 31 1007 70 10000 1.54 110 21:52 10.04.2021
444 Rain 31 1007 70 10000 1.54 110 21:24 10.04.2021
445 Rain 31 1007 70 10000 1.54 110 20:53 10.04.2021
446 Clouds 30 1009 66 10000 2.06 100 20:32 10.04.2021
447 Clouds 30 1010 70 10000 2.06 80 19:48 10.04.2021
448 Clouds 30 1010 70 10000 2.06 80 19:28 10.04.2021
449 Clouds 30 1012 70 10000 2.06 110 18:57 10.04.2021
450 Clouds 30 1012 70 10000 2.06 110 18:39 10.04.2021
451 Clouds 30 1012 70 10000 2.06 110 18:20 10.04.2021
452 Clouds 29 1013 70 10000 2.06 150 17:34 10.04.2021
453 Clouds 28 1013 83 10000 1.54 140 16:32 10.04.2021
454 Clouds 27 1013 94 10000 1.54 180 15:56 10.04.2021
455 Clouds 27 1013 94 1000 1.54 180 15:36 10.04.2021
456 Clouds 27 1012 89 10000 1.03 160 14:51 10.04.2021
457 Clouds 26 1012 89 10000 1.03 160 14:28 10.04.2021
458 Clouds 26 1012 94 8000 2.06 170 13:49 10.04.2021
459 Clouds 26 1012 94 8000 2.06 170 13:28 10.04.2021
460 Clouds 25 1012 94 8000 2.06 170 12:38 10.04.2021
461 Fog 24 1011 100 600 0.51 310 11:59 10.04.2021
462 Clouds 25 1010 94 10000 1.54 300 11:41 10.04.2021
463 Clouds 25 1010 94 10000 1.54 300 11:18 10.04.2021
464 Clouds 25 1010 94 10000 1.03 10 10:42 10.04.2021
465 Clouds 25 1010 94 10000 1.03 10 10:23 10.04.2021
466 Clear 25 1010 94 10000 1.03 20 09:29 10.04.2021
467 Clear 25 1010 94 10000 1.03 20 08:58 10.04.2021
468 Clear 25 1010 100 10000 1.58 14 08:31 10.04.2021
469 Clear 25 1011 100 10000 0.51 340 07:52 10.04.2021
470 Clear 25 1011 100 10000 0.51 340 07:25 10.04.2021
471 Clear 25 1011 94 10000 1.03 60 06:27 10.04.2021
472 Clear 25 1011 94 10000 1.03 20 04:49 10.04.2021
473 Clouds 25 1010 100 10000 1.94 11 02:57 10.04.2021
474 Clouds 25 1009 100 10000 1.94 11 02:35 10.04.2021
475 Clouds 26 1009 94 10000 1.03 100 00:53 10.04.2021
476 Clouds 26 1009 94 10000 1.56 44 00:29 10.04.2021
477 Clouds 27 1008 83 10000 1.54 240 23:44 09.04.2021
478 Clouds 27 1008 83 10000 1.54 240 23:19 09.04.2021
479 Clouds 27 1009 83 10000 1.54 330 22:42 09.04.2021
480 Clouds 27 1009 83 10000 1.54 330 22:24 09.04.2021
481 Rain 26 1010 89 10000 1.03 320 21:39 09.04.2021
482 Rain 26 1010 89 10000 1.03 320 21:19 09.04.2021
483 Rain 25 1011 94 10000 1.03 310 20:45 09.04.2021
484 Rain 25 1011 94 10000 1.03 310 20:23 09.04.2021
485 Rain 24 1012 94 10000 2.06 10 19:57 09.04.2021
486 Rain 24 1012 94 10000 2.06 10 19:38 09.04.2021
487 Rain 24 1012 94 10000 2.06 10 19:20 09.04.2021
488 Rain 24 1013 94 10000 2.06 360 18:41 09.04.2021
489 Clouds 24 1013 94 10000 2.06 360 18:19 09.04.2021
490 Clouds 28 1013 69 3000 6.17 350 17:41 09.04.2021
491 Clouds 30 1013 74 10000 2.57 310 16:57 09.04.2021
492 Clouds 29 1013 79 10000 3.6 170 16:38 09.04.2021
493 Clouds 29 1013 79 10000 3.6 170 15:57 09.04.2021
494 Clouds 29 1013 74 10000 2.57 250 15:38 09.04.2021
495 Clouds 29 1013 74 10000 2.57 250 15:19 09.04.2021
496 Clouds 28 1013 78 10000 2.57 260 14:41 09.04.2021
497 Clouds 26 1012 83 10000 3.09 270 13:54 09.04.2021
498 Clouds 26 1012 83 10000 3.09 270 13:26 09.04.2021
499 Clouds 26 1012 83 10000 3.09 270 12:58 09.04.2021
500 Clouds 26 1011 83 10000 2.06 220 12:38 09.04.2021
501 Clear 25 1010 83 10000 1.54 210 11:47 09.04.2021
502 Clear 25 1010 83 10000 1.54 210 11:23 09.04.2021
503 Clear 26 1010 78 10000 1.54 260 10:48 09.04.2021
504 Clear 26 1010 78 10000 1.54 260 10:30 09.04.2021
505 Clear 26 1010 83 10000 1.54 280 09:50 09.04.2021
506 Clear 26 1010 83 10000 1.54 280 09:24 09.04.2021
507 Clear 26 1011 83 10000 1.54 260 08:52 09.04.2021
508 Clear 26 1011 83 10000 1.54 280 07:39 09.04.2021
509 Clear 26 1011 78 10000 1.03 300 06:56 09.04.2021
510 Clear 26 1011 78 10000 1.03 300 06:21 09.04.2021
511 Clear 27 1010 83 10000 1.03 350 03:53 09.04.2021
512 Clouds 27 1008 89 10000 0.51 360 01:48 09.04.2021
513 Clouds 29 1007 79 10000 1.7 2 00:38 09.04.2021
514 Clouds 29 1007 79 10000 1.5 349 00:19 09.04.2021
515 Clouds 32 1006 62 10000 1.54 80 23:24 08.04.2021
516 Clouds 32 1007 62 10000 2.06 150 22:43 08.04.2021
517 Clouds 31 1008 62 10000 1.03 270 22:22 08.04.2021
518 Clouds 31 1008 62 10000 1.03 270 21:55 08.04.2021
519 Clouds 31 1008 62 10000 1.03 270 21:55 08.04.2021
520 Clouds 31 1008 62 10000 1.03 270 21:55 08.04.2021
521 Clouds 31 1008 62 10000 1.03 270 21:36 08.04.2021
522 Clouds 27 1010 70 10000 4.63 250 21:18 08.04.2021
523 Clouds 27 1010 70 10000 4.63 250 20:49 08.04.2021
524 Clouds 27 1010 70 10000 4.63 250 20:26 08.04.2021
525 Clouds 29 1011 58 10000 2.57 130 19:45 08.04.2021
526 Clouds 30 1011 58 10000 2.57 130 19:20 08.04.2021
527 Clouds 31 1012 58 10000 2.57 170 18:46 08.04.2021
528 Clouds 31 1012 58 10000 2.57 170 18:21 08.04.2021
529 Clouds 30 1013 58 10000 4.12 170 17:49 08.04.2021
530 Clouds 30 1013 58 10000 4.12 170 17:25 08.04.2021
531 Clouds 29 1013 70 10000 2.57 160 16:51 08.04.2021
532 Clouds 29 1013 70 10000 2.57 160 16:31 08.04.2021
533 Clouds 28 1013 78 10000 1.54 160 15:48 08.04.2021
534 Clouds 28 1013 78 10000 1.54 160 15:28 08.04.2021
535 Clouds 27 1012 89 10000 1.03 150 14:46 08.04.2021
536 Clouds 27 1012 89 10000 1.03 150 14:27 08.04.2021
537 Clouds 26 1011 94 10000 0.51 320 13:57 08.04.2021
538 Clouds 26 1011 94 10000 0.51 320 13:39 08.04.2021
539 Clouds 26 1011 94 10000 0.51 320 13:21 08.04.2021
540 Clouds 25 1011 94 10000 0.51 320 12:38 08.04.2021
541 Clouds 25 1011 94 10000 0.51 320 12:18 08.04.2021
542 Clear 25 1009 94 10000 1.54 190 11:42 08.04.2021
543 Clear 25 1009 94 10000 1.03 190 10:58 08.04.2021
544 Clear 25 1009 94 10000 1.03 190 10:32 08.04.2021
545 Clear 25 1010 94 10000 1.54 180 09:59 08.04.2021
546 Clear 25 1010 94 10000 1.54 180 09:40 08.04.2021
547 Clear 26 1010 89 10000 2.06 180 08:45 08.04.2021
548 Clear 26 1010 89 10000 2.06 180 08:27 08.04.2021
549 Clear 25 1011 94 10000 2.06 190 07:57 08.04.2021
550 Clear 25 1011 94 10000 2.06 190 07:27 08.04.2021
551 Clear 26 1010 83 10000 2.06 180 03:31 08.04.2021
552 Clouds 28 1007 74 10000 2.57 180 00:54 08.04.2021
553 Clouds 30 1007 66 10000 3.09 170 23:57 07.04.2021
554 Clouds 30 1007 66 10000 3.09 170 23:38 07.04.2021
555 Clouds 30 1007 66 10000 3.09 170 23:19 07.04.2021
556 Clouds 31 1008 62 10000 3.09 180 22:47 07.04.2021
557 Clouds 31 1008 62 10000 3.09 180 22:29 07.04.2021
558 Clouds 30 1008 62 10000 3.6 180 21:44 07.04.2021
559 Clouds 30 1008 62 10000 3.6 180 21:22 07.04.2021
560 Clouds 29 1010 65 10000 3.6 180 20:43 07.04.2021
561 Clouds 29 1010 65 10000 3.6 180 20:21 07.04.2021
562 Clouds 29 1011 79 10000 2.57 140 19:43 07.04.2021
563 Clouds 29 1011 79 10000 2.57 140 19:25 07.04.2021
564 Clouds 30 1012 74 10000 2.06 150 18:47 07.04.2021
565 Clouds 30 1012 74 10000 2.06 150 18:19 07.04.2021
566 Clouds 30 1012 79 10000 2.57 170 17:54 07.04.2021
567 Clouds 30 1012 79 10000 2.57 170 17:36 07.04.2021
568 Clouds 29 1013 83 10000 4.12 180 16:49 07.04.2021
569 Clouds 29 1013 83 10000 4.12 180 16:23 07.04.2021
570 Clouds 29 1013 79 10000 2.57 210 15:57 07.04.2021
571 Clouds 29 1013 79 10000 2.57 210 15:38 07.04.2021
572 Clouds 29 1013 79 10000 2.57 210 15:38 07.04.2021
573 Clouds 27 1012 83 10000 3.09 240 14:56 07.04.2021
574 Clouds 27 1012 83 10000 3.09 240 14:29 07.04.2021
575 Clouds 25 1011 94 10000 2.06 270 13:49 07.04.2021
576 Clouds 25 1011 94 10000 2.06 270 13:23 07.04.2021
577 Clouds 25 1011 89 10000 2.06 270 12:50 07.04.2021
578 Clouds 25 1011 89 10000 2.06 270 12:24 07.04.2021
579 Clouds 25 1010 94 10000 1.54 260 11:48 07.04.2021
580 Clouds 25 1010 94 10000 1.54 260 11:25 07.04.2021
581 Clouds 25 1010 94 10000 1.54 200 10:52 07.04.2021
582 Clouds 25 1010 94 10000 1.03 110 09:57 07.04.2021
583 Clouds 25 1010 94 10000 1.03 110 09:38 07.04.2021
584 Clouds 25 1010 94 10000 1.03 110 09:19 07.04.2021
585 Clouds 25 1010 94 10000 1.03 120 08:34 07.04.2021
586 Clouds 25 1010 94 10000 1.03 120 07:58 07.04.2021
587 Clear 25 1011 94 10000 1.03 140 07:30 07.04.2021
588 Clear 25 1011 94 10000 1.03 140 06:59 07.04.2021
589 Clear 25 1011 94 10000 1.64 355 06:21 07.04.2021
590 Clear 26 1011 89 10000 1.03 130 03:54 07.04.2021
591 Clouds 28 1007 83 10000 0.51 350 00:19 07.04.2021
592 Clouds 30 1007 74 10000 1.03 20 23:42 06.04.2021
593 Clouds 30 1007 74 10000 1.03 20 23:18 06.04.2021
594 Clouds 31 1008 66 10000 1.03 90 22:22 06.04.2021
595 Clouds 30 1008 66 10000 1.03 90 21:59 06.04.2021
596 Clouds 30 1009 66 10000 1.03 80 21:39 06.04.2021
597 Clouds 30 1009 66 10000 1.03 80 21:21 06.04.2021
598 Clouds 30 1010 70 10000 1.54 20 20:51 06.04.2021
599 Clouds 30 1010 70 10000 1.54 20 20:21 06.04.2021
600 Clouds 31 1011 66 10000 1.03 50 19:51 06.04.2021
601 Clouds 31 1011 66 10000 1.03 50 19:33 06.04.2021
602 Clouds 29 1012 74 10000 1.54 120 18:49 06.04.2021
603 Clouds 29 1012 74 10000 1.54 120 18:31 06.04.2021
604 Clouds 28 1013 83 10000 1.03 150 17:53 06.04.2021
605 Rain 28 1013 83 10000 1.03 150 17:30 06.04.2021
606 Clouds 28 1013 83 10000 2.06 170 16:59 06.04.2021
607 Clouds 28 1013 83 10000 2.06 170 16:39 06.04.2021
608 Clouds 27 1013 83 10000 1.54 190 15:44 06.04.2021
609 Rain 27 1013 83 10000 1.54 190 15:22 06.04.2021
610 Rain 26 1013 89 10000 1.54 220 14:39 06.04.2021
611 Clouds 26 1013 89 10000 1.54 220 14:19 06.04.2021
612 Clouds 25 1012 89 10000 1.54 260 13:44 06.04.2021
613 Clouds 25 1012 89 10000 1.54 260 13:25 06.04.2021
614 Clouds 25 1011 88 10000 1.54 230 12:42 06.04.2021
615 Clouds 25 1011 88 10000 1.54 230 12:22 06.04.2021
616 Clouds 24 1011 94 10000 2.06 250 11:52 06.04.2021
617 Clouds 24 1011 94 10000 2.06 250 11:21 06.04.2021
618 Clouds 24 1010 88 10000 2.06 250 10:48 06.04.2021
619 Clouds 24 1010 88 10000 2.06 250 10:29 06.04.2021
620 Clouds 24 1010 94 10000 1.03 250 09:57 06.04.2021
621 Clouds 24 1010 94 10000 1.03 250 09:36 06.04.2021
622 Clouds 25 1010 94 10000 1.03 170 08:45 06.04.2021
623 Clouds 25 1010 94 10000 1.03 170 08:19 06.04.2021
624 Clouds 25 1010 89 10000 1.03 300 06:55 06.04.2021
625 Clouds 25 1011 94 10000 1.03 260 05:41 06.04.2021
626 Clouds 25 1011 89 10000 1.54 180 02:57 06.04.2021
627 Clouds 26 1009 89 10000 1.03 30 00:45 06.04.2021
628 Clouds 26 1009 89 10000 1.03 30 00:21 06.04.2021
629 Clouds 26 1008 83 10000 1.54 10 23:43 05.04.2021
630 Clouds 26 1008 83 10000 1.54 10 23:20 05.04.2021
631 Clouds 27 1008 78 10000 2.06 20 22:48 05.04.2021
632 Clouds 27 1008 78 10000 2.06 20 22:26 05.04.2021
633 Clouds 28 1008 78 10000 1.54 30 21:44 05.04.2021
634 Clouds 28 1008 78 10000 1.54 30 21:22 05.04.2021
635 Clouds 31 1009 74 10000 3.09 20 20:45 05.04.2021
636 Clouds 31 1009 74 10000 3.09 20 20:26 05.04.2021
637 Clouds 31 1009 79 10000 1.03 40 19:43 05.04.2021
638 Clouds 31 1009 79 10000 1.03 40 19:23 05.04.2021
639 Rain 32 1010 62 10000 2.06 100 18:54 05.04.2021
640 Clouds 32 1010 62 10000 2.06 100 18:36 05.04.2021
641 Clouds 32 1010 62 10000 2.06 100 18:18 05.04.2021
642 Clouds 31 1011 66 10000 1.54 140 17:42 05.04.2021
643 Clouds 31 1011 66 10000 1.54 140 17:19 05.04.2021
644 Clouds 30 1012 74 10000 1.54 130 16:43 05.04.2021
645 Clouds 30 1012 74 10000 1.54 130 16:20 05.04.2021
646 Clouds 29 1013 84 10000 1.03 120 15:52 05.04.2021
647 Clouds 29 1013 84 10000 1.03 120 15:27 05.04.2021
648 Clear 28 1012 84 10000 1.03 160 14:50 05.04.2021
649 Clear 28 1012 84 10000 1.03 160 14:28 05.04.2021
650 Clear 25 1011 94 10000 1.03 290 13:31 05.04.2021
651 Clear 24 1010 100 10000 1.03 220 12:48 05.04.2021
652 Clear 24 1010 100 10000 1.03 220 12:26 05.04.2021
653 Clear 25 1010 100 10000 1.03 220 11:55 05.04.2021
654 Clear 25 1009 100 10000 1.54 190 11:33 05.04.2021
655 Clear 25 1009 100 10000 1.54 190 10:59 05.04.2021
656 Clear 25 1009 100 10000 1.54 190 10:59 05.04.2021
657 Clear 25 1009 94 10000 1.03 170 10:40 05.04.2021
658 Clear 25 1009 94 10000 1.03 170 10:22 05.04.2021
659 Clear 25 1009 94 10000 1.03 200 09:47 05.04.2021
660 Clear 25 1009 94 10000 1.03 200 09:22 05.04.2021
661 Clear 25 1009 94 10000 1.03 150 08:42 05.04.2021
662 Clear 25 1009 94 10000 1.03 150 08:24 05.04.2021
663 Clear 26 1010 83 10000 1.03 150 07:35 05.04.2021
664 Clear 26 1010 74 10000 2.57 330 04:25 05.04.2021
665 Clouds 28 1007 78 10000 2.06 330 01:35 05.04.2021
666 Clouds 29 1006 74 10000 3.09 10 00:36 05.04.2021
667 Clouds 29 1006 74 10000 3.09 360 23:43 04.04.2021
668 Clouds 29 1006 74 10000 3.09 360 23:23 04.04.2021
669 Clouds 31 1006 62 10000 3.6 30 22:50 04.04.2021
670 Clouds 31 1006 62 10000 3.6 30 22:28 04.04.2021
671 Clouds 32 1007 62 10000 3.09 30 21:26 04.04.2021
672 Clouds 32 1008 62 10000 2.57 30 20:56 04.04.2021
673 Clouds 32 1008 62 10000 2.57 30 20:29 04.04.2021
674 Clouds 32 1009 66 10000 1.54 30 19:44 04.04.2021
675 Clouds 32 1009 66 10000 1.54 30 19:23 04.04.2021
676 Clouds 32 1009 66 10000 1.54 30 18:59 04.04.2021
677 Clouds 31 1011 70 10000 1.54 90 18:40 04.04.2021
678 Clouds 31 1011 70 10000 1.54 90 18:40 04.04.2021
679 Clouds 31 1011 70 10000 1.54 90 18:20 04.04.2021
680 Clouds 30 1012 79 10000 1.54 90 17:37 04.04.2021
681 Clouds 30 1012 79 10000 1.54 90 17:19 04.04.2021
682 Clouds 30 1012 79 10000 1.03 90 16:41 04.04.2021
683 Clouds 28 1012 83 10000 1.54 60 15:58 04.04.2021
684 Clouds 28 1012 83 10000 1.54 60 15:33 04.04.2021
685 Clouds 26 1011 100 10000 0.51 50 14:45 04.04.2021
686 Clouds 26 1011 100 10000 0.51 50 14:26 04.04.2021
687 Clouds 25 1011 94 10000 0.51 340 13:30 04.04.2021
688 Clouds 25 1011 94 10000 0.51 340 12:55 04.04.2021
689 Clouds 25 1010 100 10000 1.54 40 12:33 04.04.2021
690 Clouds 24 1009 94 10000 0.51 10 11:53 04.04.2021
691 Clouds 24 1009 94 10000 0.51 10 11:31 04.04.2021
692 Clouds 24 1009 94 10000 1.54 130 10:56 04.04.2021
693 Clouds 24 1009 94 10000 1.54 130 10:33 04.04.2021
694 Clouds 24 1009 94 10000 1.54 130 09:53 04.04.2021
695 Clouds 24 1010 94 10000 1.03 120 09:25 04.04.2021
696 Clouds 24 1010 94 10000 1.03 120 08:53 04.04.2021
697 Clear 24 1009 94 10000 1.62 88 08:35 04.04.2021
698 Clear 24 1011 94 10000 1.03 110 07:50 04.04.2021
699 Clear 25 1011 94 10000 1.64 80 06:36 04.04.2021
700 Clear 26 1011 83 10000 1.54 50 05:32 04.04.2021
701 Clouds 27 1009 83 10000 1.54 350 01:28 04.04.2021
702 Clouds 27 1008 83 10000 3.09 360 00:19 04.04.2021
703 Clouds 27 1007 69 10000 3.09 10 23:47 03.04.2021
704 Clouds 27 1007 69 10000 3.09 10 23:23 03.04.2021
705 Clouds 28 1007 61 10000 3.09 20 22:50 03.04.2021
706 Clouds 28 1007 61 10000 3.09 20 22:21 03.04.2021
707 Clouds 29 1007 74 10000 4.12 30 21:47 03.04.2021
708 Clouds 29 1007 74 10000 4.12 30 21:24 03.04.2021
709 Clouds 32 1008 66 10000 1.54 60 20:51 03.04.2021
710 Clouds 32 1008 66 10000 1.54 60 20:28 03.04.2021
711 Clouds 31 1009 70 10000 2.57 30 19:51 03.04.2021
712 Clouds 31 1009 70 10000 2.57 30 19:25 03.04.2021
713 Clouds 30 1011 74 10000 3.09 40 18:51 03.04.2021
714 Clouds 30 1011 74 10000 3.09 40 18:32 03.04.2021
715 Clouds 30 1011 70 10000 4.12 70 17:53 03.04.2021
716 Clouds 30 1012 74 10000 2.57 50 17:26 03.04.2021
717 Clouds 29 1012 79 10000 2.06 40 16:52 03.04.2021
718 Clouds 29 1012 79 10000 2.06 40 16:25 03.04.2021
719 Clouds 28 1012 78 10000 1.54 50 15:50 03.04.2021
720 Clouds 28 1012 78 10000 1.54 50 15:23 03.04.2021
721 Clear 27 1012 83 10000 2.57 40 14:44 03.04.2021
722 Clear 27 1012 83 10000 2.57 40 14:25 03.04.2021
723 Clear 27 1012 83 10000 2.57 40 13:53 03.04.2021
724 Clouds 26 1011 89 10000 1.03 10 13:25 03.04.2021
725 Clouds 26 1011 89 10000 1.03 10 12:57 03.04.2021
726 Clouds 24 1010 94 10000 1.54 360 12:32 03.04.2021
727 Clouds 24 1010 94 10000 1.54 10 11:40 03.04.2021
728 Clouds 24 1010 94 10000 1.54 10 11:19 03.04.2021
729 Clouds 25 1010 88 10000 1.54 10 10:43 03.04.2021
730 Clouds 25 1010 88 10000 1.54 10 10:25 03.04.2021
731 Rain 25 1010 88 10000 1.54 30 09:29 03.04.2021
732 Rain 25 1010 88 10000 1.54 30 08:59 03.04.2021
733 Rain 25 1010 88 10000 2.06 20 08:31 03.04.2021
734 Clear 25 1011 88 10000 2.57 10 07:30 03.04.2021
735 Clear 26 1011 83 10000 3.6 10 06:50 03.04.2021
736 Clear 26 1010 78 10000 2.57 350 03:53 03.04.2021
737 Clear 26 1009 78 10000 2.57 350 02:53 03.04.2021
738 Rain 26 1009 78 10000 2.57 350 02:27 03.04.2021
739 Clouds 28 1008 74 10000 4.63 10 00:31 03.04.2021
740 Clouds 30 1007 70 10000 4.12 360 23:55 02.04.2021
741 Clouds 30 1007 70 10000 4.12 360 23:27 02.04.2021
742 Clouds 31 1007 66 10000 3.09 30 22:56 02.04.2021
743 Clouds 31 1007 66 10000 3.09 30 22:37 02.04.2021
744 Clouds 31 1009 66 10000 2.57 50 21:54 02.04.2021
745 Clouds 31 1009 66 10000 2.57 50 21:36 02.04.2021
746 Clouds 31 1009 66 10000 2.57 50 21:18 02.04.2021
747 Clouds 31 1009 66 10000 2.57 50 21:18 02.04.2021
748 Clouds 29 1009 70 10000 2.06 40 20:36 02.04.2021
749 Clouds 29 1009 70 10000 2.06 40 20:18 02.04.2021
750 Clouds 30 1010 70 10000 2.06 50 19:40 02.04.2021
751 Clouds 30 1010 70 10000 2.06 50 19:21 02.04.2021
752 Clouds 30 1012 74 10000 2.06 50 18:42 02.04.2021
753 Clouds 30 1012 74 10000 2.06 50 18:23 02.04.2021
754 Clouds 30 1013 74 10000 3.09 50 17:45 02.04.2021
755 Clouds 30 1013 74 10000 3.09 50 17:18 02.04.2021
756 Clouds 28 1013 78 10000 2.57 40 16:23 02.04.2021
757 Clouds 27 1013 89 10000 3.09 40 15:42 02.04.2021
758 Clouds 27 1013 78 10000 2.57 50 14:57 02.04.2021
759 Clouds 25 1012 94 10000 2.06 40 14:33 02.04.2021
760 Clouds 25 1012 88 10000 2.06 40 13:46 02.04.2021
761 Clouds 24 1011 94 10000 1.54 50 13:26 02.04.2021
762 Clouds 24 1010 94 10000 1.54 360 12:42 02.04.2021
763 Clouds 24 1010 94 10000 1.54 360 12:20 02.04.2021
764 Clouds 24 1010 94 10000 2.06 360 11:57 02.04.2021
765 Clouds 24 1010 94 10000 2.06 360 11:21 02.04.2021
766 Clouds 24 1009 94 10000 2.57 360 10:51 02.04.2021
767 Clouds 24 1009 94 10000 2.57 360 10:32 02.04.2021
768 Clouds 24 1009 94 10000 2.57 360 09:53 02.04.2021
769 Clouds 24 1009 94 10000 2.06 30 09:27 02.04.2021
770 Clouds 24 1009 94 10000 2.06 30 08:59 02.04.2021
771 Clouds 24 1010 94 10000 1.03 30 08:34 02.04.2021
772 Clouds 25 1010 88 10000 2.57 20 07:31 02.04.2021
773 Clouds 25 1010 88 10000 2.57 20 06:58 02.04.2021
774 Clouds 26 1011 83 10000 3.6 50 05:59 02.04.2021
775 Clouds 26 1011 83 10000 3.6 50 05:59 02.04.2021
776 Clouds 25 1009 94 10000 1.03 50 02:47 02.04.2021
777 Clouds 27 1008 83 10000 2.06 40 00:54 02.04.2021
778 Clouds 27 1008 83 10000 2.06 40 00:24 02.04.2021
779 Clouds 29 1007 79 10000 1.54 50 23:41 01.04.2021
780 Clouds 29 1007 79 10000 1.54 50 23:18 01.04.2021
781 Clouds 29 1007 74 10000 1.54 60 22:21 01.04.2021
782 Clouds 29 1008 74 10000 1.54 80 21:51 01.04.2021
783 Clouds 29 1008 74 10000 1.54 80 21:29 01.04.2021
784 Clouds 29 1008 79 10000 2.57 80 20:54 01.04.2021
785 Clouds 28 1009 74 10000 2.06 140 20:28 01.04.2021
786 Clouds 28 1009 78 10000 2.06 160 19:57 01.04.2021
787 Clouds 27 1010 78 10000 1.54 120 19:36 01.04.2021
788 Rain 27 1012 78 10000 1.54 120 18:47 01.04.2021
789 Rain 27 1012 78 10000 1.54 120 18:19 01.04.2021
790 Rain 27 1012 78 10000 1.54 120 17:54 01.04.2021
791 Rain 27 1012 78 10000 1.54 140 17:33 01.04.2021
792 Clouds 26 1013 83 10000 1.54 140 16:54 01.04.2021
793 Rain 26 1013 83 10000 1.54 140 16:34 01.04.2021
794 Rain 25 1012 88 10000 1.03 180 15:49 01.04.2021
795 Rain 25 1012 88 10000 1.03 180 15:20 01.04.2021
796 Clouds 25 1011 94 10000 1.54 140 14:47 01.04.2021
797 Clouds 25 1011 94 10000 1.54 140 14:27 01.04.2021
798 Clouds 25 1011 94 10000 1.54 160 13:58 01.04.2021
799 Clouds 24 1010 94 10000 1.03 160 13:31 01.04.2021
800 Clouds 24 1010 94 10000 1.03 160 12:55 01.04.2021
801 Clouds 24 1009 94 10000 1.54 190 12:33 01.04.2021
802 Clouds 24 1009 94 10000 1.54 190 11:57 01.04.2021
803 Clouds 24 1010 94 10000 1.54 170 11:38 01.04.2021
804 Clouds 24 1010 94 10000 1.54 170 11:18 01.04.2021
805 Clouds 24 1010 94 10000 1.54 110 10:45 01.04.2021
806 Clouds 24 1010 94 10000 1.54 110 10:22 01.04.2021
807 Clouds 24 1011 94 10000 0.51 110 09:31 01.04.2021
808 Clouds 25 1011 94 10000 1.03 180 08:43 01.04.2021
809 Clouds 25 1011 94 10000 1.03 180 08:24 01.04.2021
810 Clouds 25 1011 94 10000 1.03 180 07:21 01.04.2021
811 Clouds 25 1010 100 10000 1.54 310 06:55 01.04.2021
812 Clear 25 1011 94 10000 1.54 170 05:32 01.04.2021
813 Clouds 25 1009 94 10000 1.03 160 02:58 01.04.2021
814 Clouds 26 1006 83 10000 1.54 190 23:52 31.03.2021
815 Clouds 26 1006 83 10000 1.54 190 23:34 31.03.2021
816 Clouds 26 1007 83 10000 1.54 170 22:43 31.03.2021
817 Clouds 26 1007 83 10000 1.54 170 22:22 31.03.2021
818 Clouds 26 1007 83 10000 1.54 160 21:48 31.03.2021
819 Clouds 26 1008 83 10000 1.54 190 21:24 31.03.2021
820 Rain 25 1010 88 10000 1.54 150 20:58 31.03.2021
821 Rain 25 1010 88 10000 1.54 150 20:40 31.03.2021
822 Rain 25 1010 88 10000 1.54 150 20:19 31.03.2021
823 Rain 25 1010 94 10000 1.03 150 19:42 31.03.2021
824 Rain 26 1012 88 10000 1.54 170 19:19 31.03.2021
825 Rain 25 1012 88 10000 1.54 170 18:53 31.03.2021
826 Rain 25 1012 88 10000 1.54 170 18:34 31.03.2021
827 Rain 25 1013 88 10000 1.03 170 17:38 31.03.2021
828 Rain 25 1013 88 10000 1.03 170 17:19 31.03.2021
829 Rain 24 1013 94 10000 1.54 170 16:50 31.03.2021
830 Rain 24 1013 94 10000 1.54 170 16:50 31.03.2021
831 Clouds 24 1013 94 10000 2.06 170 16:31 31.03.2021
832 Rain 24 1013 94 10000 1.54 200 15:52 31.03.2021
833 Rain 24 1013 94 10000 1.54 200 15:20 31.03.2021
834 Rain 23 1012 94 10000 0.51 70 14:49 31.03.2021
835 Rain 23 1012 94 10000 0.51 70 14:24 31.03.2021
836 Rain 23 1012 94 10000 0.51 70 14:24 31.03.2021
837 Rain 23 1012 94 10000 0.51 70 13:53 31.03.2021
838 Rain 22 1011 100 10000 1.03 200 13:19 31.03.2021
839 Rain 22 1010 100 10000 2.57 270 12:37 31.03.2021
840 Rain 22 1010 100 10000 2.57 270 12:18 31.03.2021
841 Rain 22 1010 100 10000 2.57 270 12:18 31.03.2021
842 Rain 23 1010 94 10000 1.03 200 11:22 31.03.2021
843 Rain 22 1010 94 2000 2.57 20 10:48 31.03.2021
844 Rain 22 1010 94 2000 2.57 20 10:27 31.03.2021
845 Clouds 25 1010 94 10000 1.03 200 09:46 31.03.2021
846 Rain 25 1010 94 10000 1.03 200 09:27 31.03.2021
847 Clouds 25 1010 94 10000 1.03 200 08:43 31.03.2021
848 Clouds 25 1010 94 10000 1.03 200 08:25 31.03.2021
849 Clouds 25 1010 94 10000 2.06 220 07:33 31.03.2021
850 Clouds 24 1011 94 10000 1.54 200 04:34 31.03.2021
851 Clouds 25 1009 94 10000 1.03 180 02:37 31.03.2021
852 Clouds 25 1008 94 10000 1.54 200 00:54 31.03.2021
853 Rain 25 1007 94 10000 2.06 270 00:22 31.03.2021
854 Rain 25 1007 94 10000 1.54 250 23:54 30.03.2021
855 Rain 25 1007 94 10000 1.54 250 23:22 30.03.2021
856 Rain 25 1008 94 10000 3.09 280 22:49 30.03.2021
857 Rain 25 1008 94 10000 3.09 280 22:49 30.03.2021
858 Rain 25 1008 94 10000 3.09 280 22:30 30.03.2021
859 Rain 25 1009 94 10000 1.03 240 21:56 30.03.2021
860 Rain 25 1009 94 10000 1.03 240 21:25 30.03.2021
861 Rain 25 1010 94 10000 2.06 310 20:58 30.03.2021
862 Rain 25 1010 94 10000 2.06 310 20:30 30.03.2021
863 Rain 24 1011 100 5000 3.6 340 19:55 30.03.2021
864 Rain 24 1011 100 5000 3.6 340 19:36 30.03.2021
865 Rain 24 1012 100 3000 3.09 330 18:47 30.03.2021
866 Rain 24 1012 100 1500 3.6 330 18:24 30.03.2021
867 Rain 25 1012 88 4000 5.14 310 17:45 30.03.2021
868 Clouds 27 1012 89 10000 3.6 250 17:26 30.03.2021
869 Rain 27 1013 89 10000 1.54 230 16:47 30.03.2021
870 Clouds 27 1013 89 10000 1.54 230 16:25 30.03.2021
871 Rain 26 1013 94 10000 1.03 350 15:36 30.03.2021
872 Rain 26 1013 94 10000 1.03 350 15:18 30.03.2021
873 Rain 25 1012 100 7000 0.51 0 14:43 30.03.2021
874 Rain 25 1012 100 2000 2.06 320 14:19 30.03.2021
875 Clouds 25 1011 94 8000 1.54 280 13:44 30.03.2021
876 Clouds 25 1010 94 10000 2.06 240 12:58 30.03.2021
877 Clouds 25 1010 94 10000 2.06 240 12:39 30.03.2021
878 Clouds 25 1010 94 10000 2.06 240 12:20 30.03.2021
879 Clouds 25 1010 94 10000 2.06 230 11:40 30.03.2021
880 Clouds 25 1010 94 10000 2.06 230 11:18 30.03.2021
881 Clouds 25 1009 94 10000 2.57 230 10:40 30.03.2021
882 Clouds 25 1009 94 10000 2.57 230 10:18 30.03.2021
883 Clouds 25 1009 94 10000 3.09 270 09:38 30.03.2021
884 Clouds 25 1010 94 10000 2.57 240 09:20 30.03.2021
885 Clouds 25 1010 94 10000 2.57 240 08:40 30.03.2021
886 Clouds 25 1011 89 10000 2.06 270 07:53 30.03.2021
887 Clouds 25 1011 89 10000 2.06 270 07:23 30.03.2021
888 Clouds 25 1012 94 10000 2.06 240 06:19 30.03.2021
889 Clouds 25 1012 94 10000 2.06 240 05:24 30.03.2021
890 Rain 26 1009 94 10000 1.03 130 01:29 30.03.2021
891 Rain 27 1007 83 10000 1.54 70 23:51 29.03.2021
892 Rain 27 1007 83 10000 1.54 70 22:55 29.03.2021
893 Clouds 29 1007 79 10000 2.57 30 22:33 29.03.2021
894 Clouds 28 1009 83 10000 3.6 30 21:52 29.03.2021
895 Rain 27 1009 83 10000 3.6 30 21:31 29.03.2021
896 Rain 27 1009 89 6000 4.12 30 20:50 29.03.2021
897 Rain 27 1009 89 6000 4.12 30 20:28 29.03.2021
898 Clouds 29 1010 70 10000 2.06 90 19:50 29.03.2021
899 Clouds 29 1010 70 10000 2.06 90 19:27 29.03.2021
900 Clouds 30 1011 74 10000 2.06 210 18:51 29.03.2021
901 Clouds 30 1011 74 10000 2.06 210 18:27 29.03.2021
902 Clouds 28 1012 78 10000 1.54 190 17:52 29.03.2021
903 Clouds 28 1012 78 10000 1.54 190 17:33 29.03.2021
904 Clouds 28 1013 89 10000 1.54 230 16:50 29.03.2021
905 Clouds 28 1013 89 10000 1.54 230 16:24 29.03.2021
906 Clouds 26 1013 94 8000 1.03 160 15:40 29.03.2021
907 Rain 26 1013 94 8000 1.03 160 15:22 29.03.2021
908 Clouds 26 1013 94 8000 1.03 160 14:46 29.03.2021
909 Clouds 27 1012 94 10000 1.03 230 13:56 29.03.2021
910 Clouds 25 1011 94 10000 1.54 230 13:36 29.03.2021
911 Clouds 25 1011 94 10000 1.54 230 12:57 29.03.2021
912 Clouds 25 1010 100 10000 1.54 230 12:39 29.03.2021
913 Clouds 25 1010 94 10000 1.54 220 11:45 29.03.2021
914 Clouds 25 1010 94 10000 1.54 220 11:27 29.03.2021
915 Clouds 25 1010 94 10000 1.03 250 10:45 29.03.2021
916 Clouds 25 1010 94 10000 1.03 250 10:19 29.03.2021
917 Clouds 25 1010 94 10000 1.14 69 09:32 29.03.2021
918 Clouds 25 1010 100 10000 1.22 56 08:34 29.03.2021
919 Clouds 25 1010 100 10000 1.5 32 07:54 29.03.2021
920 Clouds 25 1010 100 10000 1.03 130 06:57 29.03.2021
921 Clouds 25 1011 94 10000 1.53 45 06:22 29.03.2021
922 Clouds 25 1008 89 10000 10.8 320 02:33 29.03.2021
923 Clouds 26 1007 83 10000 2.06 320 00:30 29.03.2021
924 Rain 26 1007 83 10000 2.06 320 23:58 28.03.2021
925 Rain 26 1007 89 10000 2.06 10 23:25 28.03.2021
926 Rain 25 1008 94 10000 3.6 350 22:48 28.03.2021
927 Clouds 25 1008 94 10000 3.6 350 22:28 28.03.2021
928 Clouds 24 1008 94 9000 3.09 350 21:47 28.03.2021
929 Clouds 26 1009 78 10000 5.66 330 21:25 28.03.2021
930 Clouds 26 1009 78 10000 5.66 330 20:54 28.03.2021
931 Clouds 27 1009 79 10000 3.6 250 20:35 28.03.2021
932 Clouds 29 1009 79 10000 3.6 250 20:00 28.03.2021
933 Clouds 30 1010 66 10000 2.06 160 19:41 28.03.2021
934 Clouds 30 1010 66 10000 2.06 160 19:20 28.03.2021
935 Clouds 30 1011 66 10000 3.6 80 18:49 28.03.2021
936 Clouds 30 1011 66 10000 3.6 80 18:19 28.03.2021
937 Clouds 28 1012 79 10000 3.09 80 17:37 28.03.2021
938 Clouds 29 1012 79 10000 3.09 80 16:57 28.03.2021
939 Clouds 28 1013 83 10000 2.06 90 16:29 28.03.2021
940 Clouds 28 1013 83 10000 2.06 90 15:58 28.03.2021
941 Clouds 27 1013 89 10000 1.03 100 15:24 28.03.2021
942 Clouds 26 1012 94 10000 1.03 190 14:47 28.03.2021
943 Clouds 26 1012 94 10000 1.03 190 14:18 28.03.2021
944 Clouds 25 1011 100 10000 0.51 160 13:35 28.03.2021
945 Clouds 25 1011 100 10000 0.51 160 12:57 28.03.2021
946 Clouds 25 1011 100 10000 1.78 70 12:34 28.03.2021
947 Clouds 25 1010 100 10000 1.03 130 11:55 28.03.2021
948 Clouds 25 1010 100 10000 1.03 160 11:37 28.03.2021
949 Clouds 25 1009 100 10000 1.03 150 10:49 28.03.2021
950 Clouds 25 1009 100 10000 1.03 150 10:31 28.03.2021
951 Clear 24 1010 100 10000 1.03 140 09:51 28.03.2021
952 Clear 24 1010 100 10000 1.03 140 09:28 28.03.2021
953 Rain 25 1010 88 10000 1.03 100 08:51 28.03.2021
954 Rain 25 1010 88 10000 1.03 100 08:33 28.03.2021
955 Clouds 25 1011 89 10000 1.03 10 07:41 28.03.2021
956 Clear 25 1011 83 10000 1.03 20 06:20 28.03.2021
957 Clouds 26 1010 83 10000 1.54 30 03:50 28.03.2021
958 Clouds 27 1009 83 10000 2.57 40 00:36 28.03.2021
959 Clouds 27 1009 83 10000 2.57 40 23:53 27.03.2021
960 Clouds 28 1007 78 10000 2.57 70 23:34 27.03.2021
961 Clouds 28 1007 74 10000 2.06 90 22:40 27.03.2021
962 Clouds 28 1007 74 10000 2.06 90 22:21 27.03.2021
963 Rain 29 1007 74 10000 1.03 80 21:42 27.03.2021
964 Rain 29 1007 74 10000 1.03 80 21:21 27.03.2021
965 Rain 29 1007 74 10000 1.03 80 20:56 27.03.2021
966 Rain 29 1007 70 10000 2.06 80 20:37 27.03.2021
967 Rain 29 1007 70 10000 2.06 80 20:37 27.03.2021
968 Rain 27 1008 89 10000 1.54 70 19:47 27.03.2021
969 Clouds 27 1008 89 10000 1.54 70 19:27 27.03.2021
970 Rain 29 1008 89 10000 1.54 70 18:58 27.03.2021
971 Clouds 31 1010 74 10000 2.57 80 18:39 27.03.2021
972 Clouds 31 1010 74 10000 2.57 80 18:20 27.03.2021
973 Clouds 30 1012 74 10000 2.57 80 17:29 27.03.2021
974 Clouds 30 1012 74 10000 2.57 80 16:57 27.03.2021
975 Clouds 30 1012 74 10000 2.06 80 16:38 27.03.2021
976 Clouds 29 1013 78 10000 3.09 80 16:19 27.03.2021
977 Clouds 29 1013 78 10000 3.09 80 15:38 27.03.2021
978 Clouds 29 1013 78 10000 3.09 80 14:55 27.03.2021
979 Clouds 28 1012 78 10000 2.57 80 14:23 27.03.2021
980 Clouds 27 1012 83 10000 1.54 70 13:37 27.03.2021
981 Clouds 27 1012 83 10000 1.54 70 13:19 27.03.2021
982 Clouds 25 1012 89 10000 1.54 20 12:39 27.03.2021
983 Clouds 25 1011 94 10000 1.03 350 11:48 27.03.2021
984 Clouds 25 1011 94 10000 1.03 350 11:30 27.03.2021
985 Clouds 24 1011 94 10000 2.06 80 10:48 27.03.2021
986 Clouds 24 1011 94 10000 2.06 80 10:29 27.03.2021
987 Clouds 24 1012 94 10000 1.54 80 09:42 27.03.2021
988 Clouds 24 1012 94 10000 1.54 80 09:18 27.03.2021
989 Clouds 24 1012 94 10000 1.54 80 09:18 27.03.2021
990 Clouds 24 1012 94 10000 1.54 80 09:18 27.03.2021
991 Clouds 24 1012 94 10000 1.54 80 08:36 27.03.2021
992 Clouds 24 1012 94 10000 2.06 50 07:42 27.03.2021
993 Clouds 24 1011 94 10000 0.51 320 06:59 27.03.2021
994 Rain 25 1012 94 10000 2.06 70 06:37 27.03.2021
995 Rain 25 1013 94 8000 2.06 70 04:41 27.03.2021
996 Clouds 27 1010 78 10000 2.57 40 01:36 27.03.2021
997 Clouds 27 1009 83 10000 2.06 40 00:32 27.03.2021
998 Clouds 27 1009 83 10000 2.06 40 23:59 26.03.2021
999 Clouds 28 1008 83 10000 1.72 87 23:23 26.03.2021
1000 Clouds 29 1007 83 10000 1.03 160 22:37 26.03.2021
1001 Rain 31 1007 62 10000 1.03 150 21:41 26.03.2021
1002 Rain 31 1007 62 10000 1.03 150 21:22 26.03.2021
1003 Clouds 33 1011 55 10000 1.54 150 20:49 26.03.2021
1004 Rain 33 1011 55 10000 1.54 150 20:31 26.03.2021
1005 Clouds 32 1009 58 10000 2.06 160 19:50 26.03.2021
1006 Clouds 32 1009 58 10000 2.06 160 19:32 26.03.2021
1007 Clouds 31 1011 66 10000 1.54 110 18:47 26.03.2021
1008 Clouds 31 1011 66 10000 1.54 110 18:28 26.03.2021
1009 Clouds 31 1013 66 10000 2.06 80 17:50 26.03.2021
1010 Clouds 31 1013 66 10000 2.06 80 17:50 26.03.2021
1011 Clouds 31 1013 66 10000 2.06 80 17:22 26.03.2021
1012 Clouds 30 1013 70 10000 1.03 90 16:34 26.03.2021
1013 Clouds 30 1013 70 10000 1.03 90 15:59 26.03.2021
1014 Clouds 29 1014 74 10000 2.06 70 15:28 26.03.2021
1015 Clear 28 1013 78 10000 1.54 70 14:43 26.03.2021
1016 Clear 27 1013 78 10000 3.09 80 13:46 26.03.2021
1017 Clear 27 1013 78 10000 3.09 80 13:46 26.03.2021
1018 Clear 27 1013 78 10000 3.09 80 13:22 26.03.2021
1019 Clear 25 1012 88 10000 3.09 70 12:35 26.03.2021
1020 Clear 25 1011 88 10000 2.57 80 11:47 26.03.2021
1021 Clear 25 1011 88 10000 2.57 80 11:27 26.03.2021
1022 Clear 25 1011 88 10000 2.57 80 10:42 26.03.2021
1023 Clear 25 1011 88 10000 2.57 80 10:19 26.03.2021
1024 Clear 25 1011 88 10000 1.54 60 09:41 26.03.2021
1025 Clear 25 1011 88 10000 2.06 60 08:48 26.03.2021
1026 Clear 25 1011 88 10000 2.06 60 08:26 26.03.2021
1027 Clear 25 1012 88 10000 2.06 40 07:43 26.03.2021
1028 Clear 25 1012 88 10000 2.06 40 07:21 26.03.2021
1029 Clear 25 1012 88 10000 2.06 40 06:55 26.03.2021
1030 Clear 26 1013 89 10000 2.06 60 05:32 26.03.2021
1031 Clear 26 1013 83 10000 3.09 60 03:19 26.03.2021
1032 Clouds 27 1010 83 10000 2.57 80 00:33 26.03.2021
1033 Clouds 28 1009 78 10000 1.54 80 23:49 25.03.2021
1034 Clouds 28 1009 78 10000 1.54 80 23:30 25.03.2021
1035 Clouds 30 1009 70 10000 1.03 70 22:40 25.03.2021
1036 Clouds 30 1009 70 10000 1.54 80 21:55 25.03.2021
1037 Clouds 30 1009 70 10000 1.54 80 21:35 25.03.2021
1038 Clouds 31 1009 66 10000 3.6 180 20:59 25.03.2021
1039 Clouds 30 1010 70 10000 1.54 90 20:37 25.03.2021
1040 Clouds 30 1010 70 10000 1.54 90 20:18 25.03.2021
1041 Clouds 30 1012 70 10000 2.06 180 19:39 25.03.2021
1042 Clouds 30 1012 70 10000 2.06 180 19:21 25.03.2021
1043 Clouds 29 1013 74 10000 2.57 160 18:40 25.03.2021
1044 Clouds 29 1013 74 10000 2.57 160 18:22 25.03.2021
1045 Clouds 29 1014 70 10000 1.03 140 17:38 25.03.2021
1046 Clouds 29 1014 70 10000 1.03 140 16:58 25.03.2021
1047 Clouds 28 1015 78 10000 1.03 90 16:35 25.03.2021
1048 Clouds 28 1015 78 10000 1.03 110 15:49 25.03.2021
1049 Clouds 28 1015 78 10000 1.03 110 15:27 25.03.2021
1050 Clouds 28 1015 78 10000 1.03 110 14:57 25.03.2021
1051 Rain 26 1015 89 10000 1.54 70 14:38 25.03.2021
1052 Rain 25 1014 88 10000 2.15 57 13:29 25.03.2021
1053 Clouds 24 1013 94 10000 2.22 49 12:46 25.03.2021
1054 Clouds 24 1013 94 10000 2.21 45 12:22 25.03.2021
1055 Clouds 24 1013 94 10000 2.21 45 11:58 25.03.2021
1056 Clouds 24 1012 94 10000 1.03 310 11:40 25.03.2021
1057 Clouds 24 1012 94 10000 1.03 310 11:21 25.03.2021
1058 Clouds 25 1011 88 10000 2.06 350 10:48 25.03.2021
1059 Clouds 25 1011 88 10000 2.06 350 10:21 25.03.2021
1060 Clouds 24 1011 94 10000 2.06 340 09:48 25.03.2021
1061 Clouds 24 1011 94 10000 2.06 340 09:29 25.03.2021
1062 Clouds 24 1012 94 10000 1.54 360 08:36 25.03.2021
1063 Clouds 24 1012 94 10000 2.06 70 07:43 25.03.2021
1064 Rain 25 1013 94 10000 2.06 70 06:48 25.03.2021
1065 Clouds 25 1013 94 10000 2.06 70 06:24 25.03.2021
1066 Clouds 25 1014 100 10000 2.57 80 04:52 25.03.2021
1067 Clear 24 1012 100 10000 1.03 70 02:28 25.03.2021
1068 Rain 26 1010 89 10000 1.09 263 00:20 25.03.2021
1069 Rain 26 1010 89 10000 1.09 263 23:40 24.03.2021
1070 Rain 26 1010 89 10000 1.47 266 23:20 24.03.2021
1071 Rain 27 1010 83 10000 1.03 170 22:40 24.03.2021
1072 Rain 27 1010 83 10000 1.03 170 21:57 24.03.2021
1073 Rain 27 1010 83 10000 1.03 160 21:39 24.03.2021
1074 Clouds 27 1010 83 10000 1.03 160 21:19 24.03.2021
1075 Rain 27 1011 78 10000 1.03 200 20:41 24.03.2021
1076 Rain 27 1011 78 10000 1.03 200 20:18 24.03.2021
1077 Rain 27 1012 78 10000 2.57 230 19:34 24.03.2021
1078 Rain 27 1012 78 10000 2.57 230 18:56 24.03.2021
1079 Rain 27 1014 83 10000 1.54 210 18:37 24.03.2021
1080 Rain 27 1014 83 10000 1.54 210 18:19 24.03.2021
1081 Rain 27 1015 78 10000 0.51 200 17:32 24.03.2021
1082 Rain 26 1015 83 10000 2.57 310 16:57 24.03.2021
1083 Rain 26 1015 78 10000 1.54 280 16:39 24.03.2021
1084 Rain 26 1015 78 10000 1.54 280 16:19 24.03.2021
1085 Rain 26 1016 83 10000 2.57 360 15:37 24.03.2021
1086 Rain 26 1016 83 10000 2.57 360 15:18 24.03.2021
1087 Rain 25 1015 83 10000 2.06 330 14:29 24.03.2021
1088 Rain 24 1014 94 10000 1.54 340 13:58 24.03.2021
1089 Rain 24 1014 94 10000 1.54 340 13:28 24.03.2021
1090 Rain 23 1013 100 10000 2.06 320 12:50 24.03.2021
1091 Rain 23 1013 100 10000 2.06 320 12:30 24.03.2021
1092 Rain 23 1013 100 10000 2.06 320 11:54 24.03.2021
1093 Rain 23 1013 100 10000 2.06 320 11:36 24.03.2021
1094 Rain 22 1012 100 10000 2.57 270 10:49 24.03.2021
1095 Rain 22 1012 100 10000 2.57 270 10:28 24.03.2021
1096 Rain 22 1012 100 10000 2.57 270 09:54 24.03.2021
1097 Rain 22 1013 94 10000 0.51 50 09:29 24.03.2021
1098 Rain 22 1013 100 1000 3.09 90 08:57 24.03.2021
1099 Rain 22 1013 100 1000 3.09 90 08:34 24.03.2021
1100 Rain 23 1012 100 5000 4.63 270 07:45 24.03.2021
1101 Rain 23 1012 100 5000 4.63 270 07:18 24.03.2021
1102 Rain 25 1013 94 1000 2.57 170 06:41 24.03.2021
1103 Rain 26 1011 89 10000 3.6 290 01:26 24.03.2021
1104 Rain 26 1010 89 10000 3.6 300 00:36 24.03.2021
1105 Rain 26 1010 89 10000 3.6 290 23:43 23.03.2021
1106 Rain 26 1010 89 10000 3.6 290 23:18 23.03.2021
1107 Clouds 26 1009 78 10000 3.09 300 22:44 23.03.2021
1108 Clouds 26 1009 78 10000 3.09 300 22:24 23.03.2021
1109 Clouds 26 1009 78 10000 2.57 290 21:41 23.03.2021
1110 Clouds 26 1009 78 10000 2.57 290 21:22 23.03.2021
1111 Clouds 27 1009 83 10000 1.54 310 20:43 23.03.2021
1112 Clouds 27 1009 83 10000 1.54 310 20:25 23.03.2021
1113 Clouds 29 1010 79 10000 1.03 90 19:45 23.03.2021
1114 Clouds 29 1010 79 10000 1.03 90 19:25 23.03.2021
1115 Rain 29 1011 70 10000 2.06 80 18:43 23.03.2021
1116 Clouds 29 1011 70 10000 2.06 80 18:22 23.03.2021
1117 Clouds 29 1013 74 10000 2.06 80 17:45 23.03.2021
1118 Clouds 29 1013 74 10000 2.06 80 17:21 23.03.2021
1119 Clouds 29 1013 74 10000 2.06 80 17:21 23.03.2021
1120 Clouds 28 1014 83 10000 1.54 100 16:26 23.03.2021
1121 Clouds 28 1014 83 10000 1.54 100 15:59 23.03.2021
1122 Rain 27 1014 83 10000 1.54 90 15:38 23.03.2021
1123 Clouds 25 1013 94 10000 2.57 20 14:52 23.03.2021
1124 Clouds 25 1013 94 10000 2.57 20 14:21 23.03.2021
1125 Rain 24 1013 94 8000 2.57 30 13:50 23.03.2021
1126 Rain 24 1013 94 8000 2.57 30 13:26 23.03.2021
1127 Rain 24 1013 94 8000 2.57 30 13:26 23.03.2021
1128 Rain 25 1013 94 6000 3.6 70 12:47 23.03.2021
1129 Rain 25 1012 94 10000 1.03 80 12:27 23.03.2021
1130 Rain 25 1012 94 10000 1.03 80 11:56 23.03.2021
1131 Rain 24 1010 94 10000 2.06 70 11:36 23.03.2021
1132 Clouds 24 1010 94 10000 2.06 80 10:44 23.03.2021
1133 Clouds 24 1010 94 10000 2.06 80 10:22 23.03.2021
1134 Clouds 24 1010 94 10000 2.06 80 09:57 23.03.2021
1135 Clouds 24 1010 88 10000 3.09 80 09:29 23.03.2021
1136 Clouds 24 1010 88 10000 3.09 80 08:58 23.03.2021
1137 Clouds 24 1010 88 5000 5.66 70 08:39 23.03.2021
1138 Rain 24 1010 88 5000 5.66 70 08:20 23.03.2021
1139 Clouds 26 1010 89 10000 3.09 70 07:28 23.03.2021
1140 Clouds 26 1010 89 10000 3.09 70 06:57 23.03.2021
1141 Clouds 26 1010 89 10000 3.09 70 06:57 23.03.2021
1142 Clouds 26 1011 89 10000 2.06 80 06:18 23.03.2021
1143 Clear 26 1012 83 10000 1.54 70 03:20 23.03.2021
1144 Clouds 28 1008 74 10000 2.06 80 00:42 23.03.2021
1145 Clouds 28 1008 74 10000 2.06 80 23:24 22.03.2021
1146 Clouds 31 1007 66 10000 2.06 90 22:46 22.03.2021
1147 Clouds 31 1007 66 10000 2.06 90 22:22 22.03.2021
1148 Clouds 32 1006 62 10000 1.54 80 21:52 22.03.2021
1149 Clouds 32 1006 62 10000 1.54 80 21:52 22.03.2021
1150 Clouds 32 1006 62 10000 1.54 80 21:29 22.03.2021
1151 Clouds 32 1006 62 10000 1.54 80 20:54 22.03.2021
1152 Clouds 32 1007 62 10000 1.54 90 20:30 22.03.2021
1153 Clouds 30 1007 62 10000 1.54 90 19:59 22.03.2021
1154 Clouds 30 1007 62 10000 1.54 90 19:59 22.03.2021
1155 Clouds 30 1009 66 10000 1.54 100 19:40 22.03.2021
1156 Clouds 30 1009 66 10000 1.54 100 19:21 22.03.2021
1157 Clouds 30 1011 66 10000 2.57 70 18:42 22.03.2021
1158 Clouds 30 1011 66 10000 2.57 70 18:23 22.03.2021
1159 Clouds 31 1013 70 10000 2.06 110 17:51 22.03.2021
1160 Clouds 31 1013 70 10000 2.06 110 17:23 22.03.2021
1161 Clouds 31 1012 58 10000 3.09 30 16:58 22.03.2021
1162 Clouds 30 1013 66 10000 3.09 80 16:39 22.03.2021
1163 Clouds 30 1013 66 10000 3.09 80 15:55 22.03.2021
1164 Clouds 29 1014 74 10000 2.57 60 15:37 22.03.2021
1165 Clouds 29 1014 74 10000 2.57 60 15:18 22.03.2021
1166 Clouds 29 1014 74 10000 2.57 60 15:18 22.03.2021
1167 Clouds 28 1013 74 10000 1.54 40 14:44 22.03.2021
1168 Clouds 28 1013 74 10000 1.54 40 14:24 22.03.2021
1169 Clouds 24 1013 88 10000 2.57 30 13:38 22.03.2021
1170 Clouds 24 1013 88 10000 2.57 30 13:18 22.03.2021
1171 Clear 24 1012 88 10000 2.06 30 12:41 22.03.2021
1172 Clear 24 1012 88 10000 2.06 30 12:19 22.03.2021
1173 Clouds 23 1012 94 10000 2.57 80 11:44 22.03.2021
1174 Clouds 23 1012 94 10000 2.57 80 11:21 22.03.2021
1175 Clouds 23 1011 94 10000 2.57 80 10:43 22.03.2021
1176 Clouds 23 1011 94 10000 2.57 80 10:24 22.03.2021
1177 Clouds 23 1011 94 10000 2.57 80 09:39 22.03.2021
1178 Clouds 23 1011 94 10000 2.57 80 09:20 22.03.2021
1179 Clear 23 1012 94 10000 2.57 40 08:42 22.03.2021
1180 Clear 23 1012 94 10000 2.57 40 08:24 22.03.2021
1181 Clear 24 1012 94 10000 2.57 20 07:44 22.03.2021
1182 Clear 24 1013 94 10000 2.06 20 06:52 22.03.2021
1183 Clear 24 1013 94 10000 2.06 20 05:43 22.03.2021
1184 Clear 25 1012 94 10000 2.57 20 01:58 22.03.2021
1185 Clouds 26 1010 89 10000 3.09 20 00:27 22.03.2021
1186 Clouds 26 1010 89 10000 3.09 20 23:53 21.03.2021
1187 Clouds 27 1009 83 10000 2.06 50 23:19 21.03.2021
1188 Clouds 28 1009 78 10000 2.06 60 22:55 21.03.2021
1189 Clouds 28 1010 78 10000 2.06 80 21:58 21.03.2021
1190 Clouds 28 1010 78 10000 2.06 80 21:39 21.03.2021
1191 Clouds 28 1010 78 10000 2.06 80 21:21 21.03.2021
1192 Clouds 26 1011 89 10000 2.06 70 20:41 21.03.2021
1193 Clouds 26 1011 89 10000 2.06 70 20:23 21.03.2021
1194 Clouds 24 1012 88 10000 3.09 40 19:52 21.03.2021
1195 Rain 24 1012 88 10000 3.09 40 19:21 21.03.2021
1196 Rain 25 1012 94 10000 3.09 70 18:46 21.03.2021
1197 Rain 27 1013 89 3000 1.54 140 18:27 21.03.2021
1198 Rain 27 1014 83 10000 3.6 70 17:45 21.03.2021
1199 Rain 27 1014 83 10000 3.6 70 17:20 21.03.2021
1200 Clouds 27 1014 83 10000 3.6 70 16:54 21.03.2021
1201 Clouds 27 1015 83 10000 2.06 70 16:29 21.03.2021
1202 Clouds 27 1015 83 10000 2.06 70 15:55 21.03.2021
1203 Clouds 27 1015 89 10000 2.57 70 15:36 21.03.2021
1204 Clouds 27 1015 89 10000 2.57 70 15:18 21.03.2021
1205 Clouds 26 1014 89 10000 1.54 70 14:41 21.03.2021
1206 Clouds 26 1014 89 10000 1.54 70 14:23 21.03.2021
1207 Clouds 24 1013 94 10000 2.06 80 13:52 21.03.2021
1208 Clouds 24 1012 94 10000 0.51 360 12:46 21.03.2021
1209 Clouds 24 1012 94 10000 0.51 360 12:27 21.03.2021
1210 Clouds 24 1012 94 10000 0.51 360 12:27 21.03.2021
1211 Clouds 23 1011 100 10000 0.51 60 11:51 21.03.2021
1212 Clouds 23 1011 100 10000 2.06 80 11:27 21.03.2021
1213 Clouds 23 1011 100 10000 2.06 80 10:55 21.03.2021
1214 Rain 23 1010 100 10000 1.03 30 10:35 21.03.2021
1215 Clouds 23 1010 100 10000 1.03 30 09:58 21.03.2021
1216 Clouds 23 1010 100 10000 1.03 140 09:38 21.03.2021
1217 Clouds 23 1010 100 10000 1.03 140 09:19 21.03.2021
1218 Clouds 23 1010 100 10000 1.03 80 08:39 21.03.2021
1219 Clouds 23 1010 100 10000 1.03 80 08:20 21.03.2021
1220 Clouds 23 1011 100 10000 0.51 150 07:36 21.03.2021
1221 Rain 23 1011 94 10000 1.03 160 06:50 21.03.2021
1222 Rain 24 1012 94 10000 1.54 170 04:58 21.03.2021
1223 Rain 24 1012 94 10000 1.54 170 04:58 21.03.2021
1224 Rain 23 1012 100 1000 7.2 290 01:00 21.03.2021
1225 Rain 23 1012 100 1000 7.2 290 00:39 21.03.2021
1226 Rain 25 1011 94 8000 3.09 230 00:21 21.03.2021
1227 Rain 25 1010 100 8000 3.6 230 23:47 20.03.2021
1228 Rain 26 1010 94 7000 2.06 150 23:20 20.03.2021
1229 Rain 26 1010 94 5000 2.57 170 22:47 20.03.2021
1230 Rain 30 1009 66 8000 2.06 250 22:18 20.03.2021
1231 Clouds 31 1009 66 10000 1.03 100 21:44 20.03.2021
1232 Clouds 31 1009 66 10000 1.03 100 21:24 20.03.2021
1233 Clouds 31 1009 66 10000 2.06 70 20:42 20.03.2021
1234 Rain 31 1009 66 10000 2.06 70 20:22 20.03.2021
1235 Clouds 30 1010 66 10000 2.06 90 19:47 20.03.2021
1236 Clouds 30 1010 66 10000 2.06 90 19:26 20.03.2021
1237 Clouds 30 1011 70 10000 3.09 70 18:48 20.03.2021
1238 Clouds 30 1011 70 10000 3.09 70 18:25 20.03.2021
1239 Clouds 30 1011 70 10000 3.09 70 17:53 20.03.2021
1240 Clouds 30 1012 66 10000 3.09 70 17:29 20.03.2021
1241 Clouds 30 1013 70 10000 3.6 80 16:45 20.03.2021
1242 Clouds 30 1013 70 10000 3.6 80 16:21 20.03.2021
1243 Clouds 29 1013 70 10000 4.12 10 15:57 20.03.2021
1244 Clouds 29 1013 78 10000 4.12 70 15:39 20.03.2021
1245 Clouds 28 1013 78 10000 5.14 60 14:46 20.03.2021
1246 Clouds 28 1013 78 10000 5.14 60 14:28 20.03.2021
1247 Clouds 26 1012 89 10000 3.6 70 13:40 20.03.2021
1248 Clouds 25 1011 88 10000 3.09 70 12:52 20.03.2021
1249 Clouds 25 1011 88 10000 3.09 70 12:26 20.03.2021
1250 Clear 24 1010 94 10000 2.06 60 11:46 20.03.2021
1251 Clear 24 1010 94 10000 2.06 60 11:28 20.03.2021
1252 Clear 24 1010 94 10000 2.06 60 10:55 20.03.2021
1253 Clouds 24 1009 94 10000 1.54 80 10:28 20.03.2021
1254 Clouds 24 1009 94 10000 1.54 80 09:56 20.03.2021
1255 Clouds 24 1009 94 10000 1.54 40 09:27 20.03.2021
1256 Clear 24 1009 88 10000 1.54 30 08:56 20.03.2021
1257 Clouds 24 1010 94 10000 2.06 40 08:30 20.03.2021
1258 Clouds 24 1009 94 10000 2.06 70 07:52 20.03.2021
1259 Clouds 24 1009 94 10000 2.06 70 07:31 20.03.2021
1260 Clear 25 1009 88 10000 2.06 40 06:52 20.03.2021
1261 Clear 25 1009 88 10000 2.06 40 06:19 20.03.2021
1262 Clear 25 1010 88 10000 2.06 50 03:59 20.03.2021
1263 Clear 25 1010 94 10000 2.06 60 03:41 20.03.2021
1264 Rain 26 1008 78 10000 2.57 60 23:58 19.03.2021
1265 Clouds 27 1008 69 10000 1.54 20 23:30 19.03.2021
1266 Clouds 27 1008 69 10000 3.6 10 22:49 19.03.2021
1267 Clouds 27 1008 69 10000 3.6 10 22:28 19.03.2021
1268 Clouds 26 1008 69 10000 3.6 10 21:56 19.03.2021
1269 Clouds 27 1008 79 10000 1.03 50 21:22 19.03.2021
1270 Clouds 29 1008 79 10000 1.03 50 20:59 19.03.2021
1271 Clouds 29 1009 74 10000 1.54 360 20:39 19.03.2021
1272 Clouds 29 1009 74 10000 1.54 360 20:21 19.03.2021
1273 Clouds 31 1009 70 10000 2.06 80 19:45 19.03.2021
1274 Clouds 30 1009 74 10000 2.06 80 19:20 19.03.2021
1275 Clouds 30 1009 74 10000 2.06 80 19:20 19.03.2021
1276 Clouds 29 1011 74 10000 1.54 160 18:40 19.03.2021
1277 Clouds 29 1011 74 10000 1.54 160 18:19 19.03.2021
1278 Clouds 30 1012 74 10000 1.54 90 17:52 19.03.2021
1279 Clouds 30 1012 74 10000 1.54 90 17:28 19.03.2021
1280 Clouds 28 1012 78 10000 1.54 90 16:52 19.03.2021
1281 Clouds 28 1012 78 10000 1.54 90 16:27 19.03.2021
1282 Clouds 28 1013 78 10000 1.54 130 15:47 19.03.2021
1283 Clouds 28 1013 78 10000 1.54 130 15:22 19.03.2021
1284 Clouds 26 1013 89 10000 2.06 160 14:46 19.03.2021
1285 Clouds 26 1013 89 10000 2.06 160 14:26 19.03.2021
1286 Clouds 25 1012 94 10000 1.54 150 13:40 19.03.2021
1287 Clouds 24 1011 100 10000 0.51 180 12:51 19.03.2021
1288 Clouds 24 1011 100 10000 0.51 180 12:33 19.03.2021
1289 Clouds 24 1010 94 10000 1.03 170 11:42 19.03.2021
1290 Clouds 24 1010 94 10000 1.03 170 10:53 19.03.2021
1291 Clouds 24 1010 100 10000 1.03 170 10:30 19.03.2021
1292 Clouds 24 1009 100 10000 1.38 165 09:49 19.03.2021
1293 Clouds 24 1009 100 10000 1.38 165 09:30 19.03.2021
1294 Clouds 24 1009 100 10000 1.68 189 08:54 19.03.2021
1295 Clear 24 1009 100 10000 0.51 150 08:36 19.03.2021
1296 Clear 24 1009 100 10000 0.51 150 07:58 19.03.2021
1297 Clouds 24 1010 100 10000 1.37 211 07:36 19.03.2021
1298 Clouds 24 1010 94 10000 0.63 201 06:48 19.03.2021
1299 Rain 24 1010 88 10000 1.03 300 02:45 19.03.2021
1300 Clouds 25 1009 94 10000 1.03 20 00:52 19.03.2021
1301 Clouds 25 1009 88 10000 1.54 40 23:30 18.03.2021
1302 Clouds 25 1009 88 10000 1.54 40 23:30 18.03.2021
1303 Clouds 25 1009 94 10000 2.06 360 22:58 18.03.2021
1304 Clouds 26 1009 83 10000 1.54 250 22:38 18.03.2021
1305 Clouds 26 1009 83 10000 1.54 250 22:18 18.03.2021
1306 Rain 26 1010 89 10000 2.06 260 21:39 18.03.2021
1307 Rain 26 1010 89 10000 2.06 240 20:47 18.03.2021
1308 Rain 26 1011 83 9000 3.6 250 20:27 18.03.2021
1309 Rain 26 1012 89 9000 3.6 250 19:45 18.03.2021
1310 Clouds 26 1012 89 9000 3.6 250 19:27 18.03.2021
1311 Rain 26 1012 89 9000 3.6 250 18:57 18.03.2021
1312 Rain 25 1012 94 10000 3.09 250 18:33 18.03.2021
1313 Rain 25 1013 88 10000 2.06 290 17:50 18.03.2021
1314 Rain 25 1013 88 10000 2.06 290 17:25 18.03.2021
1315 Rain 24 1013 94 10000 3.09 310 16:48 18.03.2021
1316 Rain 24 1013 94 10000 3.09 310 16:29 18.03.2021
1317 Rain 24 1013 94 10000 2.06 320 15:47 18.03.2021
1318 Rain 24 1013 94 10000 2.06 320 15:24 18.03.2021
1319 Rain 24 1013 94 10000 2.06 320 14:55 18.03.2021
1320 Rain 24 1013 94 10000 2.06 320 14:32 18.03.2021
1321 Rain 23 1013 94 10000 2.06 320 13:53 18.03.2021
1322 Rain 23 1013 94 10000 1.54 10 13:26 18.03.2021
1323 Rain 23 1012 94 9000 1.54 320 12:44 18.03.2021
1324 Rain 23 1012 94 9000 1.54 320 12:25 18.03.2021
1325 Rain 23 1012 94 9000 1.54 320 11:53 18.03.2021
1326 Rain 23 1011 94 7000 2.06 290 11:32 18.03.2021
1327 Rain 22 1010 100 8000 2.06 290 10:46 18.03.2021
1328 Rain 22 1010 100 8000 2.06 290 10:27 18.03.2021
1329 Rain 22 1010 100 8000 2.06 290 09:54 18.03.2021
1330 Rain 22 1011 94 6000 2.06 340 09:29 18.03.2021
1331 Rain 22 1010 94 5000 2.57 340 08:50 18.03.2021
1332 Rain 22 1010 94 5000 2.57 340 08:31 18.03.2021
1333 Rain 22 1010 94 5000 2.57 310 07:53 18.03.2021
1334 Rain 22 1011 100 800 5.14 30 07:25 18.03.2021
1335 Rain 26 1011 94 10000 2.06 220 06:29 18.03.2021
1336 Clouds 26 1011 94 10000 2.06 220 05:54 18.03.2021
1337 Rain 27 1010 89 10000 2.06 230 02:29 18.03.2021
1338 Clouds 28 1009 83 10000 3.09 290 23:59 17.03.2021
1339 Clouds 27 1007 83 10000 2.06 80 22:56 17.03.2021
1340 Clouds 28 1007 78 10000 1.03 60 22:27 17.03.2021
1341 Rain 28 1007 78 10000 1.03 60 21:57 17.03.2021
1342 Clouds 30 1007 70 10000 3.6 30 21:39 17.03.2021
1343 Rain 30 1007 70 10000 3.6 30 21:19 17.03.2021
1344 Clouds 30 1007 70 10000 4.63 40 20:43 17.03.2021
1345 Clouds 30 1007 70 10000 4.63 40 20:24 17.03.2021
1346 Clouds 29 1009 70 10000 4.63 30 19:46 17.03.2021
1347 Clouds 29 1009 70 10000 4.63 30 19:22 17.03.2021
1348 Rain 29 1009 70 10000 4.63 30 18:55 17.03.2021
1349 Rain 28 1010 78 10000 4.12 60 18:37 17.03.2021
1350 Rain 30 1011 70 10000 3.09 10 17:49 17.03.2021
1351 Rain 30 1011 70 10000 3.09 10 17:27 17.03.2021
1352 Clouds 29 1012 74 10000 3.6 30 16:47 17.03.2021
1353 Clouds 29 1012 74 10000 3.6 30 16:25 17.03.2021
1354 Clouds 29 1013 74 10000 2.57 360 15:56 17.03.2021
1355 Clouds 29 1013 74 10000 2.57 360 15:36 17.03.2021
1356 Clouds 28 1012 78 10000 3.09 20 14:45 17.03.2021
1357 Clouds 28 1012 78 10000 3.09 20 14:27 17.03.2021
1358 Clouds 27 1012 83 10000 3.09 320 13:55 17.03.2021
1359 Clouds 26 1012 83 10000 2.57 10 13:31 17.03.2021
1360 Clouds 25 1012 88 10000 1.54 340 12:54 17.03.2021
1361 Clear 24 1011 88 10000 1.54 40 12:34 17.03.2021
1362 Clear 24 1010 88 10000 3.09 60 11:51 17.03.2021
1363 Clear 24 1010 88 10000 3.09 60 11:23 17.03.2021
1364 Clear 24 1010 88 10000 3.09 60 10:55 17.03.2021
1365 Clouds 23 1011 94 10000 3.09 30 10:31 17.03.2021
1366 Clouds 24 1011 94 10000 3.09 80 09:49 17.03.2021
1367 Clouds 24 1011 94 10000 3.09 80 09:28 17.03.2021
1368 Clouds 24 1011 94 10000 3.09 80 08:59 17.03.2021
1369 Rain 25 1010 78 10000 3.09 60 08:39 17.03.2021
1370 Clear 25 1010 78 10000 3.09 40 07:50 17.03.2021
1371 Rain 25 1010 78 10000 3.09 40 07:32 17.03.2021
1372 Clear 25 1010 78 10000 2.57 30 06:47 17.03.2021
1373 Clear 26 1010 83 10000 3.09 20 04:26 17.03.2021
1374 Clear 26 1010 83 10000 3.09 30 03:25 17.03.2021
1375 Rain 28 1007 83 10000 2.57 60 00:40 17.03.2021
1376 Rain 28 1006 83 10000 2.1 58 23:38 16.03.2021
1377 Rain 28 1006 83 10000 1.8 58 23:18 16.03.2021
1378 Rain 29 1006 79 10000 1.03 70 22:40 16.03.2021
1379 Rain 29 1006 79 10000 1.03 70 22:21 16.03.2021
1380 Clouds 31 1008 70 10000 2.57 70 21:39 16.03.2021
1381 Clouds 31 1008 70 10000 2.57 70 21:21 16.03.2021
1382 Clouds 27 1008 100 10000 2.06 120 20:46 16.03.2021
1383 Clouds 27 1008 100 10000 2.06 120 20:18 16.03.2021
1384 Clouds 30 1009 74 10000 2.06 90 19:43 16.03.2021
1385 Clouds 30 1009 74 10000 2.06 90 19:24 16.03.2021
1386 Clouds 29 1010 79 10000 1.03 40 18:47 16.03.2021
1387 Clouds 29 1010 79 10000 1.03 40 18:29 16.03.2021
1388 Clouds 27 1012 89 10000 1.03 140 17:51 16.03.2021
1389 Clouds 27 1012 89 10000 1.03 140 17:32 16.03.2021
1390 Rain 27 1012 89 10000 1.03 140 16:53 16.03.2021
1391 Rain 27 1012 89 10000 1.03 140 16:53 16.03.2021
1392 Clouds 28 1013 83 10000 2.57 190 16:31 16.03.2021
1393 Clouds 28 1013 83 10000 1.54 160 15:48 16.03.2021
1394 Clouds 27 1013 89 10000 2.06 160 15:22 16.03.2021
1395 Clouds 27 1013 89 10000 2.06 160 15:22 16.03.2021
1396 Clouds 27 1013 89 10000 2.06 160 15:22 16.03.2021
1397 Clouds 27 1013 83 10000 1.54 190 14:59 16.03.2021
1398 Clouds 27 1013 83 10000 1.54 190 14:40 16.03.2021
1399 Clouds 27 1013 83 10000 1.54 190 14:21 16.03.2021
1400 Clouds 26 1013 89 10000 3.09 180 13:55 16.03.2021
1401 Clouds 26 1012 89 10000 1.54 170 13:28 16.03.2021
1402 Clouds 26 1012 89 10000 1.54 170 12:54 16.03.2021
1403 Clouds 25 1011 94 10000 2.06 180 12:35 16.03.2021
1404 Clouds 25 1011 94 10000 2.06 180 11:55 16.03.2021
1405 Clouds 25 1010 94 10000 1.54 170 11:29 16.03.2021
1406 Clouds 25 1011 94 10000 0.78 132 10:46 16.03.2021
1407 Clouds 25 1011 94 10000 0.5 128 10:20 16.03.2021
1408 Clouds 24 1010 94 10000 1.03 300 09:40 16.03.2021
1409 Clouds 24 1010 94 10000 1.03 300 09:19 16.03.2021
1410 Clear 25 1010 94 10000 0.63 140 08:51 16.03.2021
1411 Clear 25 1010 94 10000 0.63 140 08:32 16.03.2021
1412 Clear 25 1011 94 10000 1.03 310 07:50 16.03.2021
1413 Clear 25 1011 94 10000 1.03 310 06:57 16.03.2021
1414 Clear 25 1011 94 10000 1.03 280 06:37 16.03.2021
1415 Clear 25 1012 94 10000 1.03 230 05:35 16.03.2021
1416 Clouds 27 1011 89 10000 2.06 260 02:46 16.03.2021
1417 Clouds 27 1011 89 10000 2.06 260 02:25 16.03.2021
1418 Rain 26 1009 94 10000 0.51 210 00:25 16.03.2021
1419 Rain 26 1009 94 10000 0.51 210 00:25 16.03.2021
1420 Clouds 28 1008 78 10000 1.03 160 23:29 15.03.2021
1421 Clouds 28 1008 78 10000 1.03 160 22:56 15.03.2021
1422 Clouds 28 1007 83 10000 1.54 80 22:36 15.03.2021
1423 Clouds 28 1007 83 10000 1.54 80 22:18 15.03.2021
1424 Clouds 29 1008 74 10000 2.57 70 21:39 15.03.2021
1425 Clouds 29 1008 74 10000 2.57 70 21:21 15.03.2021
1426 Clouds 27 1009 83 10000 2.06 60 20:44 15.03.2021
1427 Clouds 27 1009 83 10000 2.06 60 20:25 15.03.2021
1428 Clouds 27 1009 83 10000 2.06 60 19:53 15.03.2021
1429 Clouds 25 1010 94 8000 4.12 70 19:34 15.03.2021
1430 Rain 26 1010 94 8000 4.12 70 18:57 15.03.2021
1431 Rain 29 1011 70 8000 4.12 60 18:33 15.03.2021
1432 Rain 29 1011 70 8000 4.12 60 17:56 15.03.2021
1433 Clouds 31 1012 70 10000 2.57 80 17:38 15.03.2021
1434 Clouds 31 1012 70 10000 2.57 80 17:19 15.03.2021
1435 Clouds 31 1013 70 10000 2.06 90 16:41 15.03.2021
1436 Clouds 29 1014 79 10000 2.06 60 15:48 15.03.2021
1437 Clouds 29 1014 79 10000 2.06 60 15:27 15.03.2021
1438 Clouds 28 1014 83 10000 1.54 100 14:46 15.03.2021
1439 Clouds 28 1014 83 10000 1.54 100 14:28 15.03.2021
1440 Clouds 28 1014 83 10000 1.54 100 14:28 15.03.2021
1441 Clouds 28 1014 83 10000 1.54 100 13:58 15.03.2021
1442 Clouds 27 1013 89 10000 0.51 80 13:35 15.03.2021
1443 Clouds 25 1013 94 10000 0.51 100 12:51 15.03.2021
1444 Clouds 25 1013 94 10000 0.51 100 12:20 15.03.2021
1445 Clouds 24 1012 100 10000 1.03 60 11:59 15.03.2021
1446 Clouds 24 1012 94 10000 1.54 70 11:40 15.03.2021
1447 Clouds 24 1012 94 10000 1.54 70 11:21 15.03.2021
1448 Clouds 24 1012 94 10000 1.03 40 10:39 15.03.2021
1449 Clouds 24 1012 94 10000 1.03 40 10:21 15.03.2021
1450 Clouds 24 1011 94 10000 1.03 20 09:40 15.03.2021
1451 Clouds 24 1011 94 10000 1.03 20 09:20 15.03.2021
1452 Clouds 24 1011 94 10000 1.03 20 08:42 15.03.2021
1453 Clouds 24 1011 94 10000 1.03 20 08:21 15.03.2021
1454 Clear 24 1011 100 10000 1.03 10 07:33 15.03.2021
1455 Clear 24 1012 100 10000 1.33 77 06:52 15.03.2021
1456 Clear 25 1013 94 10000 1.16 70 05:36 15.03.2021
1457 Clear 25 1012 100 10000 1.03 140 03:20 15.03.2021
1458 Rain 25 1010 89 10000 1.03 310 00:27 15.03.2021
1459 Clouds 26 1009 83 10000 2.06 290 23:23 14.03.2021
1460 Clouds 26 1009 83 10000 2.06 40 22:49 14.03.2021
1461 Clouds 26 1009 83 10000 2.06 40 22:28 14.03.2021
1462 Rain 28 1009 83 10000 1.54 20 21:52 14.03.2021
1463 Clouds 28 1009 83 10000 1.54 20 21:23 14.03.2021
1464 Clouds 28 1009 74 8000 4.12 10 20:52 14.03.2021
1465 Rain 30 1009 70 10000 1.54 210 20:29 14.03.2021
1466 Rain 30 1009 70 10000 1.54 210 19:58 14.03.2021
1467 Clouds 30 1011 74 10000 2.57 160 19:40 14.03.2021
1468 Clouds 30 1011 74 10000 2.57 160 19:18 14.03.2021
1469 Clouds 30 1012 70 10000 2.06 110 18:36 14.03.2021
1470 Clouds 29 1014 70 10000 1.03 120 17:47 14.03.2021
1471 Clouds 29 1014 70 10000 1.03 120 17:27 14.03.2021
1472 Clouds 29 1014 70 10000 1.03 120 16:56 14.03.2021
1473 Clouds 28 1015 78 10000 1.03 140 16:37 14.03.2021
1474 Clouds 28 1015 78 10000 1.03 140 15:59 14.03.2021
1475 Clouds 28 1015 83 10000 0.8 180 15:40 14.03.2021
1476 Clouds 26 1015 89 10000 1.03 40 14:51 14.03.2021
1477 Clouds 26 1015 89 10000 1.03 40 14:30 14.03.2021
1478 Clouds 25 1014 94 10000 1.03 50 13:52 14.03.2021
1479 Clouds 25 1014 94 10000 1.03 50 13:52 14.03.2021
1480 Clouds 25 1014 94 10000 1.03 50 13:33 14.03.2021
1481 Clouds 25 1013 94 10000 1.03 20 12:49 14.03.2021
1482 Clouds 25 1013 94 10000 1.03 20 12:29 14.03.2021
1483 Rain 25 1013 94 10000 1.03 20 11:59 14.03.2021
1484 Clouds 25 1012 94 10000 1.03 30 11:37 14.03.2021
1485 Clouds 25 1012 94 10000 1.03 30 10:59 14.03.2021
1486 Clouds 25 1012 94 10000 2.06 10 10:38 14.03.2021
1487 Clouds 25 1012 94 10000 2.06 10 10:38 14.03.2021
1488 Rain 25 1012 94 10000 2.06 10 10:19 14.03.2021
1489 Rain 25 1011 94 10000 1.54 360 09:44 14.03.2021
1490 Rain 25 1011 94 10000 1.54 360 09:23 14.03.2021
1491 Clouds 25 1011 94 10000 1.54 10 08:51 14.03.2021
1492 Clouds 25 1011 94 10000 1.54 10 08:32 14.03.2021
1493 Clouds 25 1012 94 10000 1.54 350 07:52 14.03.2021
1494 Clouds 25 1012 94 10000 1.54 350 07:20 14.03.2021
1495 Rain 25 1013 89 10000 1.54 30 05:33 14.03.2021
1496 Rain 25 1013 89 10000 1.54 30 05:33 14.03.2021
1497 Clouds 26 1011 89 10000 0.51 100 00:59 14.03.2021
1498 Clouds 26 1011 89 10000 0.51 100 00:20 14.03.2021
1499 Clouds 26 1011 89 10000 0.51 100 00:20 14.03.2021
1500 Clouds 26 1011 89 10000 0.51 100 23:57 13.03.2021
1501 Clouds 27 1009 83 10000 0.51 90 23:36 13.03.2021
1502 Rain 27 1009 83 10000 0.51 90 22:55 13.03.2021
1503 Clouds 28 1010 78 10000 1.03 200 22:36 13.03.2021
1504 Clouds 29 1010 74 10000 2.57 270 21:49 13.03.2021
1505 Clouds 29 1010 74 10000 2.57 270 21:27 13.03.2021
1506 Clouds 29 1010 74 10000 2.57 270 20:54 13.03.2021
1507 Clouds 29 1011 74 10000 3.09 250 20:31 13.03.2021
1508 Clouds 28 1011 74 10000 3.09 250 19:56 13.03.2021
1509 Clouds 28 1012 74 10000 2.06 200 19:32 13.03.2021
1510 Clouds 28 1012 74 10000 2.06 200 18:58 13.03.2021
1511 Clouds 28 1014 74 10000 1.03 210 18:39 13.03.2021
1512 Clouds 28 1014 74 10000 1.03 210 18:18 13.03.2021
1513 Clouds 28 1014 78 10000 1.03 100 17:42 13.03.2021
1514 Clouds 28 1014 78 10000 1.03 100 17:24 13.03.2021
1515 Clouds 25 1016 89 10000 0.51 30 16:44 13.03.2021
1516 Clouds 25 1016 89 10000 0.51 30 16:24 13.03.2021
1517 Clouds 24 1016 100 10000 1.54 20 15:39 13.03.2021
1518 Rain 24 1015 94 5000 2.06 10 14:51 13.03.2021
1519 Rain 24 1015 94 5000 2.06 10 14:29 13.03.2021
1520 Rain 24 1015 94 5000 2.06 30 13:51 13.03.2021
1521 Rain 24 1015 94 4000 2.06 10 13:24 13.03.2021
1522 Rain 24 1013 100 3000 2.06 20 12:43 13.03.2021
1523 Rain 24 1013 100 3000 2.06 20 12:20 13.03.2021
1524 Rain 24 1013 94 3500 2.06 360 11:49 13.03.2021
1525 Rain 24 1012 94 8000 2.57 350 11:28 13.03.2021
1526 Rain 25 1012 88 10000 2.06 320 10:50 13.03.2021
1527 Rain 25 1012 88 10000 2.06 320 10:29 13.03.2021
1528 Clouds 25 1011 88 10000 2.57 310 09:47 13.03.2021
1529 Clouds 25 1011 88 10000 2.57 310 08:58 13.03.2021
1530 Clouds 25 1012 94 10000 2.57 320 08:39 13.03.2021
1531 Clouds 25 1012 94 10000 2.57 320 08:19 13.03.2021
1532 Clouds 25 1012 89 10000 2.57 310 07:41 13.03.2021
1533 Clear 25 1014 94 10000 1.54 240 05:50 13.03.2021
1534 Clouds 26 1013 78 10000 1.54 280 02:54 13.03.2021
1535 Clouds 27 1010 74 10000 2.57 30 00:50 13.03.2021
1536 Clouds 28 1009 69 10000 1.54 70 23:51 12.03.2021
1537 Clouds 28 1009 69 10000 1.54 70 23:32 12.03.2021
1538 Clouds 30 1009 62 10000 1.54 80 22:42 12.03.2021
1539 Clouds 30 1009 62 10000 1.54 80 22:23 12.03.2021
1540 Clouds 30 1009 66 10000 1.03 160 21:42 12.03.2021
1541 Clouds 30 1009 66 10000 1.03 160 21:21 12.03.2021
1542 Clouds 30 1009 66 10000 1.03 160 20:55 12.03.2021
1543 Clouds 30 1010 62 10000 2.06 160 20:32 12.03.2021
1544 Clouds 30 1010 62 10000 2.06 160 19:55 12.03.2021
1545 Clouds 30 1012 70 10000 3.09 140 19:36 12.03.2021
1546 Clouds 29 1012 70 10000 3.09 140 18:55 12.03.2021
1547 Clouds 29 1013 74 10000 2.57 180 18:34 12.03.2021
1548 Clouds 29 1015 74 10000 2.57 130 17:47 12.03.2021
1549 Clouds 29 1015 74 10000 2.57 130 17:29 12.03.2021
1550 Clouds 29 1015 74 10000 2.57 130 16:54 12.03.2021
1551 Clouds 28 1015 74 10000 1.54 130 16:33 12.03.2021
1552 Clouds 28 1015 74 10000 1.54 150 15:50 12.03.2021
1553 Clouds 27 1015 78 10000 1.54 160 15:21 12.03.2021
1554 Clouds 26 1015 89 10000 1.03 80 14:46 12.03.2021
1555 Clouds 26 1015 89 10000 1.03 80 14:19 12.03.2021
1556 Clouds 24 1015 100 10000 1.54 160 13:41 12.03.2021
1557 Clouds 24 1015 100 10000 1.54 160 13:20 12.03.2021
1558 Clouds 24 1014 100 7000 1.03 170 12:52 12.03.2021
1559 Clouds 24 1014 100 7000 1.03 170 12:30 12.03.2021
1560 Clouds 24 1014 100 7000 1.03 170 11:58 12.03.2021
1561 Clouds 24 1013 94 10000 1.03 80 11:40 12.03.2021
1562 Clouds 24 1013 94 10000 1.03 80 11:18 12.03.2021
1563 Clouds 24 1012 94 10000 1.54 70 10:44 12.03.2021
1564 Clouds 24 1012 94 10000 1.54 70 10:22 12.03.2021
1565 Clouds 24 1012 94 10000 1.03 20 09:29 12.03.2021
1566 Clouds 24 1012 94 10000 1.03 20 08:57 12.03.2021
1567 Clouds 24 1012 94 10000 2.06 10 08:39 12.03.2021
1568 Clouds 24 1012 94 10000 2.06 360 07:41 12.03.2021
1569 Clouds 24 1012 94 10000 2.06 360 07:19 12.03.2021
1570 Clouds 24 1012 94 10000 1.54 10 06:41 12.03.2021
1571 Clouds 24 1013 94 10000 3.09 340 05:43 12.03.2021
1572 Clouds 25 1010 83 10000 2.06 20 00:52 12.03.2021
1573 Clouds 25 1010 83 10000 2.06 60 23:40 11.03.2021
1574 Clouds 25 1010 83 10000 2.06 60 22:58 11.03.2021
1575 Clouds 26 1010 83 10000 1.54 70 22:38 11.03.2021
1576 Clouds 26 1010 83 10000 1.54 70 22:18 11.03.2021
1577 Clouds 27 1010 83 10000 2.06 70 21:42 11.03.2021
1578 Clouds 27 1010 83 10000 2.06 70 21:21 11.03.2021
1579 Clouds 27 1011 83 10000 1.54 90 20:49 11.03.2021
1580 Clouds 27 1011 83 10000 1.54 90 20:22 11.03.2021
1581 Clouds 25 1013 94 10000 2.06 80 19:48 11.03.2021
1582 Clouds 25 1013 94 10000 2.06 80 19:30 11.03.2021
1583 Rain 26 1014 89 10000 1.54 80 18:51 11.03.2021
1584 Rain 26 1014 89 10000 1.54 80 18:33 11.03.2021
1585 Rain 26 1014 89 10000 1.54 80 17:50 11.03.2021
1586 Rain 26 1015 89 10000 1.03 130 17:30 11.03.2021
1587 Clouds 25 1015 94 10000 1.54 100 16:31 11.03.2021
1588 Clouds 25 1015 94 10000 2.06 90 15:53 11.03.2021
1589 Clouds 25 1015 94 10000 2.06 90 15:35 11.03.2021
1590 Clouds 25 1015 94 10000 4.63 80 14:58 11.03.2021
1591 Clouds 24 1014 94 10000 1.54 80 14:38 11.03.2021
1592 Clouds 24 1014 94 10000 1.54 80 14:18 11.03.2021
1593 Clouds 24 1014 94 10000 1.54 80 13:43 11.03.2021
1594 Rain 24 1014 94 10000 1.54 70 13:21 11.03.2021
1595 Clouds 23 1012 100 10000 0.51 50 12:49 11.03.2021
1596 Clouds 23 1012 100 10000 0.51 50 12:27 11.03.2021
1597 Clouds 23 1012 100 7000 3.09 250 11:45 11.03.2021
1598 Rain 23 1012 100 7000 3.09 250 11:27 11.03.2021
1599 Rain 23 1011 94 10000 2.57 250 10:48 11.03.2021
1600 Rain 23 1011 94 10000 2.57 250 10:22 11.03.2021
1601 Rain 23 1011 100 10000 2.57 250 09:45 11.03.2021
1602 Rain 23 1011 100 10000 2.57 250 09:25 11.03.2021
1603 Rain 23 1011 100 7000 3.09 250 08:48 11.03.2021
1604 Rain 23 1011 100 7000 3.09 250 08:23 11.03.2021
1605 Rain 24 1011 94 8000 2.57 280 07:44 11.03.2021
1606 Rain 24 1012 94 10000 3.6 270 06:50 11.03.2021
1607 Rain 24 1012 94 10000 3.6 270 06:31 11.03.2021
1608 Rain 23 1013 100 10000 4.12 260 04:45 11.03.2021
1609 Clouds 24 1011 100 10000 1.54 270 01:23 11.03.2021
1610 -273 0 0 0 0 0 23:52 10.03.2021
1611 Clouds 25 1009 88 10000 2.57 260 23:51 10.03.2021
1612 Rain 25 1009 88 10000 2.57 260 23:20 10.03.2021
1613 Rain 24 1009 88 10000 2.57 260 22:39 10.03.2021
1614 Rain 24 1009 88 10000 2.57 260 22:39 10.03.2021
1615 Rain 24 1009 94 10000 2.06 280 21:47 10.03.2021
1616 Rain 24 1009 94 10000 2.06 280 21:26 10.03.2021
1617 Rain 23 1010 100 7000 3.09 320 20:51 10.03.2021
1618 Rain 23 1010 100 7000 3.09 320 20:33 10.03.2021
1619 Rain 24 1010 100 10000 2.57 270 19:54 10.03.2021
1620 Rain 24 1010 88 3000 7.2 350 19:34 10.03.2021
1621 Rain 25 1010 88 3000 7.2 350 18:56 10.03.2021
1622 Clouds 29 1011 78 10000 3.09 260 18:37 10.03.2021
1623 Clouds 29 1011 78 10000 3.09 260 18:18 10.03.2021
1624 Clouds 28 1013 78 10000 3.09 260 17:41 10.03.2021
1625 Clouds 28 1013 78 10000 3.09 260 17:19 10.03.2021
1626 Clouds 29 1014 70 10000 2.57 30 16:48 10.03.2021
1627 Clouds 29 1014 70 10000 2.57 30 16:25 10.03.2021
1628 Clouds 27 1014 78 10000 2.06 350 15:51 10.03.2021
1629 Clouds 27 1014 78 10000 2.06 350 15:25 10.03.2021
1630 Clouds 26 1014 78 10000 2.06 350 14:57 10.03.2021
1631 Clouds 25 1013 88 10000 2.57 360 14:22 10.03.2021
1632 Clouds 25 1013 88 10000 2.57 360 13:54 10.03.2021
1633 Clear 24 1013 94 10000 1.03 360 13:31 10.03.2021
1634 Clear 23 1011 94 10000 1.03 30 12:48 10.03.2021
1635 Clear 23 1011 94 10000 1.03 30 12:24 10.03.2021
1636 Clouds 23 1011 94 10000 2.06 40 11:50 10.03.2021
1637 Clouds 23 1011 94 10000 2.06 40 11:25 10.03.2021
1638 Rain 23 1011 100 10000 1.54 40 10:51 10.03.2021
1639 Rain 23 1011 100 10000 1.54 40 10:32 10.03.2021
1640 Rain 23 1011 100 10000 1.54 40 09:55 10.03.2021
1641 Clear 23 1011 100 10000 0.56 99 09:37 10.03.2021
1642 Clear 23 1011 100 10000 0.36 353 09:18 10.03.2021
1643 Clear 23 1011 94 10000 0.36 353 08:43 10.03.2021
1644 Clear 23 1011 94 10000 0.72 358 08:25 10.03.2021
1645 Clear 23 1011 94 10000 1.54 320 07:42 10.03.2021
1646 Clear 23 1011 94 10000 1.54 320 07:24 10.03.2021
1647 Clear 23 1012 94 10000 1.54 360 06:51 10.03.2021
1648 Rain 23 1011 94 10000 1.03 10 02:43 10.03.2021
1649 Clouds 23 1009 94 10000 2.06 20 00:27 10.03.2021
1650 Clouds 23 1009 88 10000 3.6 20 23:27 09.03.2021
1651 Clouds 23 1009 88 9000 5.14 30 22:50 09.03.2021
1652 Clouds 23 1009 88 9000 5.14 30 22:31 09.03.2021
1653 Rain 25 1009 88 10000 3.09 60 21:58 09.03.2021
1654 Rain 25 1009 88 10000 3.09 60 21:37 09.03.2021
1655 Rain 24 1010 94 10000 2.06 80 21:18 09.03.2021
1656 Rain 24 1010 94 10000 2.06 80 20:43 09.03.2021
1657 Rain 24 1011 94 10000 3.09 80 20:22 09.03.2021
1658 Rain 24 1011 94 10000 3.09 80 19:56 09.03.2021
1659 Rain 24 1011 94 10000 3.09 80 19:29 09.03.2021
1660 Rain 24 1011 94 10000 3.09 80 18:54 09.03.2021
1661 Rain 23 1012 94 7000 3.09 70 18:29 09.03.2021
1662 Rain 23 1012 94 7000 3.09 70 17:58 09.03.2021
1663 Rain 24 1013 100 1000 4.12 110 17:37 09.03.2021
1664 Clouds 26 1013 83 10000 2.06 150 16:57 09.03.2021
1665 Clouds 27 1013 83 10000 2.06 150 16:39 09.03.2021
1666 Clouds 27 1013 83 10000 2.06 150 16:19 09.03.2021
1667 Clouds 27 1014 83 10000 2.06 170 15:44 09.03.2021
1668 Clouds 27 1014 83 10000 2.06 170 15:23 09.03.2021
1669 Clouds 27 1013 83 10000 2.57 160 14:40 09.03.2021
1670 Clouds 27 1013 89 10000 2.06 190 14:22 09.03.2021
1671 Clouds 25 1013 94 10000 1.54 180 13:39 09.03.2021
1672 Clouds 25 1013 94 10000 1.54 180 13:20 09.03.2021
1673 Clouds 25 1012 94 10000 1.54 180 12:42 09.03.2021
1674 Clouds 25 1012 94 10000 1.54 180 12:22 09.03.2021
1675 Clouds 25 1011 94 10000 1.54 180 11:42 09.03.2021
1676 Clouds 25 1011 94 10000 1.54 180 11:21 09.03.2021
1677 Clouds 25 1011 94 10000 1.54 180 11:21 09.03.2021
1678 Clouds 25 1011 94 10000 1.54 180 10:56 09.03.2021
1679 Clouds 24 1012 94 10000 1.03 150 10:38 09.03.2021
1680 Clouds 24 1012 94 10000 1.03 150 10:19 09.03.2021
1681 Clouds 24 1012 94 10000 1.03 120 09:43 09.03.2021
1682 Clouds 24 1012 94 10000 1.03 120 09:24 09.03.2021
1683 Clouds 24 1012 94 10000 1.03 150 08:46 09.03.2021
1684 Clouds 24 1012 94 10000 1.03 150 08:23 09.03.2021
1685 Clouds 24 1012 94 10000 1.03 180 07:40 09.03.2021
1686 Clouds 24 1012 94 10000 1.03 180 07:21 09.03.2021
1687 Clouds 24 1013 100 10000 1.03 150 05:55 09.03.2021
1688 Clouds 24 1013 100 10000 0.51 247 05:37 09.03.2021
1689 Rain 24 1010 94 10000 1.54 220 00:30 09.03.2021
1690 Rain 24 1009 94 10000 1.03 260 23:43 08.03.2021
1691 Rain 24 1009 94 10000 1.03 260 23:25 08.03.2021
1692 Rain 24 1009 94 8000 2.57 10 22:48 08.03.2021
1693 Rain 24 1009 94 8000 2.57 10 22:29 08.03.2021
1694 Rain 24 1009 94 8000 2.57 10 21:56 08.03.2021
1695 Rain 24 1009 94 8000 2.57 30 21:35 08.03.2021
1696 Rain 25 1011 94 1000 3.09 340 20:48 08.03.2021
1697 Rain 25 1011 94 1000 3.09 340 20:27 08.03.2021
1698 Rain 26 1010 89 5000 3.6 330 19:59 08.03.2021
1699 Rain 26 1010 94 10000 3.09 310 19:36 08.03.2021
1700 Rain 25 1011 94 800 3.6 310 18:42 08.03.2021
1701 Rain 26 1011 89 10000 5.66 280 18:23 08.03.2021
1702 Rain 26 1013 94 10000 4.12 260 17:51 08.03.2021
1703 Rain 26 1013 94 10000 4.12 260 17:51 08.03.2021
1704 Rain 26 1013 94 10000 4.12 260 17:32 08.03.2021
1705 Rain 27 1013 83 10000 1.03 10 16:49 08.03.2021
1706 Rain 27 1013 83 10000 1.03 10 16:29 08.03.2021
1707 Rain 26 1014 89 10000 1.54 80 15:52 08.03.2021
1708 Rain 26 1014 89 10000 1.54 80 15:29 08.03.2021
1709 Rain 26 1013 89 10000 2.06 70 14:49 08.03.2021
1710 Rain 26 1013 89 10000 2.06 70 14:20 08.03.2021
1711 Rain 25 1012 94 10000 3.09 70 13:43 08.03.2021
1712 Clouds 25 1012 94 10000 3.09 70 13:20 08.03.2021
1713 Clouds 25 1011 94 10000 1.54 160 12:46 08.03.2021
1714 Clouds 26 1011 94 10000 1.54 160 12:27 08.03.2021
1715 Clouds 25 1011 94 10000 1.03 30 11:40 08.03.2021
1716 Clouds 25 1011 94 10000 1.03 30 11:19 08.03.2021
1717 Clouds 25 1010 94 10000 0.78 103 10:43 08.03.2021
1718 Clouds 25 1010 94 10000 0.73 84 10:25 08.03.2021
1719 Clouds 26 1010 89 10000 0.73 84 09:41 08.03.2021
1720 Clouds 26 1010 89 10000 0.76 157 09:23 08.03.2021
1721 Clouds 26 1010 89 10000 0.76 157 09:23 08.03.2021
1722 Clear 26 1010 89 10000 1.03 60 08:29 08.03.2021
1723 Clear 26 1010 89 10000 1.03 60 07:24 08.03.2021
1724 Clear 26 1011 83 10000 1.54 50 06:45 08.03.2021
1725 Clouds 27 1012 83 10000 1.54 50 04:28 08.03.2021
1726 Clouds 28 1008 74 10000 2.06 50 00:45 08.03.2021
1727 Clouds 28 1008 74 10000 2.06 50 00:20 08.03.2021
1728 Clouds 28 1007 78 10000 2.06 60 23:39 07.03.2021
1729 Clouds 28 1007 78 10000 2.06 60 23:20 07.03.2021
1730 Clouds 29 1007 79 10000 3.09 80 22:44 07.03.2021
1731 Clouds 29 1007 79 10000 3.09 80 22:26 07.03.2021
1732 Clouds 31 1007 66 10000 2.06 80 21:45 07.03.2021
1733 Clouds 31 1007 66 10000 2.06 80 21:26 07.03.2021
1734 Clouds 31 1008 70 10000 1.54 90 20:49 07.03.2021
1735 Clouds 31 1008 70 10000 1.54 90 20:31 07.03.2021
1736 Clouds 31 1008 70 10000 1.54 90 19:57 07.03.2021
1737 Clouds 30 1010 74 10000 2.57 80 19:38 07.03.2021
1738 Clouds 30 1010 74 10000 2.57 80 19:20 07.03.2021
1739 Clouds 30 1012 74 10000 2.57 90 18:42 07.03.2021
1740 Clouds 30 1012 74 10000 2.57 90 18:19 07.03.2021
1741 Clouds 30 1013 79 10000 2.06 90 17:41 07.03.2021
1742 Clouds 30 1013 79 10000 2.06 90 17:20 07.03.2021
1743 Clouds 30 1013 79 10000 2.06 90 16:58 07.03.2021
1744 Clouds 29 1014 74 10000 2.06 80 16:38 07.03.2021
1745 Clouds 29 1014 74 10000 2.06 80 16:19 07.03.2021
1746 Clouds 28 1014 83 10000 2.06 70 15:43 07.03.2021
1747 Clouds 28 1014 83 10000 2.06 70 15:22 07.03.2021
1748 Clouds 27 1014 83 10000 1.54 100 14:30 07.03.2021
1749 Clouds 27 1014 83 10000 1.54 100 13:59 07.03.2021
1750 Clouds 25 1013 94 10000 1.54 160 13:40 07.03.2021
1751 Clouds 25 1013 94 10000 1.54 160 13:21 07.03.2021
1752 Clouds 24 1012 100 10000 1.03 150 12:45 07.03.2021
1753 Clouds 24 1012 100 10000 1.03 150 12:27 07.03.2021
1754 Clouds 24 1012 94 10000 1.03 180 11:41 07.03.2021
1755 Clouds 24 1012 94 10000 1.03 180 11:21 07.03.2021
1756 Clouds 24 1011 94 10000 1.03 190 10:39 07.03.2021
1757 Clouds 24 1011 94 10000 1.03 190 10:21 07.03.2021
1758 Clouds 24 1010 94 10000 0.67 90 09:41 07.03.2021
1759 Clouds 24 1010 94 10000 0.56 92 09:21 07.03.2021
1760 Clear 24 1011 94 10000 1.03 300 08:45 07.03.2021
1761 Clear 24 1011 94 10000 1.03 300 08:23 07.03.2021
1762 Clear 24 1011 94 10000 0.74 76 07:25 07.03.2021
1763 Clouds 24 1012 94 10000 1.29 76 02:40 07.03.2021
1764 Clouds 24 1009 94 10000 2.06 70 00:38 07.03.2021
1765 Clouds 25 1008 88 10000 2.06 70 23:41 06.03.2021
1766 Clouds 25 1008 88 10000 2.06 70 23:23 06.03.2021
1767 Clouds 25 1008 88 10000 2.06 60 22:47 06.03.2021
1768 Clouds 25 1008 88 10000 2.06 60 22:27 06.03.2021
1769 Clouds 25 1008 88 10000 2.06 60 21:57 06.03.2021
1770 Clouds 25 1009 94 10000 1.54 80 21:21 06.03.2021
1771 Clouds 24 1010 94 10000 3.09 80 20:49 06.03.2021
1772 Clouds 24 1010 94 10000 3.09 80 20:26 06.03.2021
1773 Clouds 24 1011 100 9000 4.12 80 19:49 06.03.2021
1774 Rain 24 1011 100 9000 4.12 80 19:20 06.03.2021
1775 Rain 24 1012 94 10000 3.09 80 18:45 06.03.2021
1776 Rain 24 1012 94 10000 3.09 80 18:24 06.03.2021
1777 Rain 25 1012 94 10000 3.09 80 17:56 06.03.2021
1778 Rain 25 1013 94 5000 2.06 80 17:38 06.03.2021
1779 Rain 25 1013 94 1000 6.17 70 17:18 06.03.2021
1780 Rain 27 1014 94 2000 2.57 120 16:41 06.03.2021
1781 Rain 27 1014 94 2000 2.57 120 16:41 06.03.2021
1782 Rain 27 1014 94 2000 2.57 120 16:21 06.03.2021
1783 Clouds 28 1014 83 10000 2.06 180 15:47 06.03.2021
1784 Clouds 28 1014 83 10000 2.06 180 15:47 06.03.2021
1785 Clouds 28 1014 83 10000 2.06 180 15:29 06.03.2021
1786 Clouds 27 1013 83 10000 1.03 190 14:49 06.03.2021
1787 Clouds 27 1013 83 10000 1.03 190 14:25 06.03.2021
1788 Clouds 25 1013 94 10000 1.54 210 13:39 06.03.2021
1789 Clouds 25 1013 94 10000 1.54 210 13:20 06.03.2021
1790 Clouds 24 1012 100 10000 1.03 230 12:44 06.03.2021
1791 Clouds 24 1012 94 10000 1.03 230 12:19 06.03.2021
1792 Clouds 24 1011 100 10000 0.59 75 11:48 06.03.2021
1793 Clouds 24 1011 100 10000 0.64 83 11:21 06.03.2021
1794 Clouds 24 1010 94 10000 2.06 250 10:48 06.03.2021
1795 Clouds 24 1010 94 10000 2.06 250 10:19 06.03.2021
1796 Clouds 25 1010 94 10000 1.03 220 09:41 06.03.2021
1797 Clouds 25 1010 94 10000 1.03 220 09:19 06.03.2021
1798 Clouds 25 1010 94 10000 1.03 180 08:36 06.03.2021
1799 Clouds 25 1010 94 10000 1.03 320 07:57 06.03.2021
1800 Clouds 25 1011 94 10000 0.64 104 07:23 06.03.2021
1801 Rain 25 1011 94 10000 1.03 50 06:48 06.03.2021
1802 Rain 25 1011 94 10000 0.51 80 05:34 06.03.2021
1803 Rain 25 1011 94 10000 0.51 80 05:34 06.03.2021
1804 Clouds 25 1011 94 10000 1.13 125 02:25 06.03.2021
1805 Clouds 25 1010 94 10000 1.54 190 00:47 06.03.2021
1806 Clouds 26 1008 89 10000 1.03 30 23:52 05.03.2021
1807 Rain 26 1008 89 10000 1.03 30 23:28 05.03.2021
1808 Rain 26 1008 89 10000 1.03 70 22:45 05.03.2021
1809 Rain 26 1008 89 10000 1.03 70 22:22 05.03.2021
1810 Rain 26 1009 89 10000 1.03 170 21:52 05.03.2021
1811 Clouds 26 1009 89 10000 1.03 170 21:33 05.03.2021
1812 Rain 26 1009 89 10000 1.03 170 20:54 05.03.2021
1813 Rain 26 1009 89 10000 2.06 160 20:27 05.03.2021
1814 Rain 26 1009 89 10000 2.06 160 19:56 05.03.2021
1815 Rain 27 1010 83 10000 1.03 90 19:26 05.03.2021
1816 Rain 27 1010 83 10000 1.03 90 18:57 05.03.2021
1817 Rain 27 1011 83 10000 1.03 120 18:39 05.03.2021
1818 Rain 27 1011 83 10000 1.03 120 18:19 05.03.2021
1819 Clouds 31 1012 66 10000 2.06 90 17:35 05.03.2021
1820 Clouds 30 1013 70 10000 1.03 130 16:49 05.03.2021
1821 Clouds 30 1013 70 10000 1.03 130 16:25 05.03.2021
1822 Clouds 29 1013 79 10000 1.03 210 15:58 05.03.2021
1823 Clouds 29 1013 79 10000 1.03 210 15:39 05.03.2021
1824 Clouds 29 1013 79 10000 1.03 210 15:20 05.03.2021
1825 Clouds 28 1013 78 10000 1.54 230 14:38 05.03.2021
1826 Clouds 28 1013 78 10000 1.54 230 14:38 05.03.2021
1827 Clouds 27 1013 89 10000 1.54 160 13:55 05.03.2021
1828 Clouds 27 1013 89 10000 1.54 160 13:55 05.03.2021
1829 Clouds 26 1012 94 10000 1.54 230 13:22 05.03.2021
1830 Clouds 26 1012 94 10000 1.54 230 12:55 05.03.2021
1831 Clear 24 1011 94 10000 0.51 330 11:56 05.03.2021
1832 Clear 24 1010 94 10000 0.51 360 11:36 05.03.2021
1833 Clear 24 1010 94 10000 0.51 360 11:18 05.03.2021
1834 Clear 24 1010 94 10000 0.51 360 11:18 05.03.2021
1835 Clouds 24 1011 100 10000 1.03 280 10:40 05.03.2021
1836 Clouds 24 1011 100 10000 1.03 280 10:21 05.03.2021
1837 Clouds 24 1011 100 10000 1.03 280 09:47 05.03.2021
1838 Clouds 24 1011 100 10000 1.03 280 09:26 05.03.2021
1839 Clouds 24 1011 100 10000 1.03 280 09:26 05.03.2021
1840 Clear 24 1011 100 10000 1.54 280 08:41 05.03.2021
1841 Clear 24 1011 100 10000 1.54 280 08:22 05.03.2021
1842 Clear 24 1011 94 10000 1.54 320 07:39 05.03.2021
1843 Clear 24 1011 94 10000 1.03 330 06:49 05.03.2021
1844 Clear 24 1011 94 10000 1.03 330 06:30 05.03.2021
1845 Clear 25 1010 83 10000 1.03 40 01:47 05.03.2021
1846 Clear 25 1010 83 10000 1.03 40 01:47 05.03.2021
1847 Clouds 26 1009 83 10000 1.54 20 00:26 05.03.2021
1848 Clouds 27 1009 78 10000 1.54 60 23:26 04.03.2021
1849 Clouds 28 1009 74 10000 2.06 80 22:37 04.03.2021
1850 Clouds 28 1009 74 10000 2.06 80 21:56 04.03.2021
1851 Clouds 28 1009 74 10000 1.54 60 21:34 04.03.2021
1852 Clouds 28 1009 74 10000 1.54 60 21:34 04.03.2021
1853 Clouds 27 1010 78 10000 2.57 40 20:59 04.03.2021
1854 Clouds 27 1010 78 10000 2.57 40 20:59 04.03.2021
1855 Clouds 27 1010 78 10000 2.57 40 20:40 04.03.2021
1856 Clouds 27 1010 78 10000 2.57 40 20:21 04.03.2021
1857 Clouds 27 1010 78 10000 2.57 40 19:53 04.03.2021
1858 Clouds 26 1011 78 10000 2.57 60 19:26 04.03.2021
1859 Clouds 25 1012 94 8000 2.06 80 18:54 04.03.2021
1860 Clouds 25 1012 94 8000 2.06 80 18:30 04.03.2021
1861 Clouds 25 1013 100 3000 3.6 80 17:57 04.03.2021
1862 Clouds 25 1013 100 3000 3.6 80 17:39 04.03.2021
1863 Clouds 27 1013 78 10000 2.06 100 17:18 04.03.2021
1864 Clouds 28 1014 78 10000 1.54 140 16:42 04.03.2021
1865 Clouds 28 1014 78 10000 1.54 140 16:23 04.03.2021
1866 Clouds 27 1015 83 10000 1.03 150 15:45 04.03.2021
1867 Clouds 27 1015 83 10000 1.03 150 15:25 04.03.2021
1868 Clouds 26 1015 89 10000 1.54 150 14:42 04.03.2021
1869 Clouds 26 1015 89 10000 1.54 150 14:18 04.03.2021
1870 Clouds 25 1014 94 10000 1.54 150 13:40 04.03.2021
1871 Clouds 25 1014 94 10000 1.54 150 13:19 04.03.2021
1872 Clouds 24 1014 94 10000 2.06 170 12:42 04.03.2021
1873 Clouds 24 1013 94 10000 0.51 160 11:52 04.03.2021
1874 Clouds 24 1013 94 10000 0.51 160 11:32 04.03.2021
1875 Clouds 23 1011 94 10000 1.03 20 10:58 04.03.2021
1876 Clouds 23 1011 94 10000 1.03 20 10:36 04.03.2021
1877 Clouds 23 1011 94 10000 1.03 20 09:53 04.03.2021
1878 Clouds 23 1011 94 10000 0.51 10 09:28 04.03.2021
1879 Clouds 23 1012 94 10000 1.91 126 08:51 04.03.2021
1880 Clouds 23 1012 94 10000 1.96 116 08:25 04.03.2021
1881 Clouds 23 1012 100 10000 1.03 360 07:37 04.03.2021
1882 Clear 23 1012 100 10000 1.03 10 06:41 04.03.2021
1883 Clear 23 1012 100 10000 1.03 10 06:21 04.03.2021
1884 Clouds 24 1012 94 10000 0.51 70 02:38 04.03.2021
1885 Clouds 24 1011 94 9000 1.54 70 23:57 03.03.2021
1886 Rain 24 1011 94 10000 3.09 60 22:39 03.03.2021
1887 Rain 24 1011 94 10000 3.09 60 22:20 03.03.2021
1888 Rain 24 1011 94 8000 3.09 50 21:41 03.03.2021
1889 Rain 24 1011 94 8000 3.09 50 21:23 03.03.2021
1890 Rain 24 1011 94 8000 3.09 50 20:53 03.03.2021
1891 Rain 24 1011 94 5000 3.09 80 20:35 03.03.2021
1892 Rain 26 1011 83 3000 3.09 60 19:48 03.03.2021
1893 Rain 26 1011 83 3000 3.09 60 19:30 03.03.2021
1894 Clouds 29 1011 70 10000 2.06 190 18:55 03.03.2021
1895 Clouds 28 1013 78 10000 2.57 190 18:35 03.03.2021
1896 Clouds 28 1013 78 10000 2.57 190 17:58 03.03.2021
1897 Clouds 27 1014 83 10000 1.03 70 17:21 03.03.2021
1898 Rain 25 1015 88 10000 2.06 60 16:52 03.03.2021
1899 Rain 25 1015 88 10000 2.06 60 16:27 03.03.2021
1900 Rain 25 1015 88 10000 2.06 60 15:53 03.03.2021
1901 Rain 25 1015 88 10000 2.57 60 15:32 03.03.2021
1902 Rain 24 1015 94 10000 2.06 40 14:45 03.03.2021
1903 Rain 24 1015 94 10000 2.06 40 14:26 03.03.2021
1904 Rain 24 1013 94 10000 1.54 20 13:42 03.03.2021
1905 Rain 24 1013 94 10000 1.54 20 13:21 03.03.2021
1906 Rain 23 1013 100 10000 1.03 40 12:43 03.03.2021
1907 Rain 23 1013 100 10000 1.03 40 12:23 03.03.2021
1908 Rain 23 1011 94 10000 2.57 40 11:45 03.03.2021
1909 Rain 23 1011 94 10000 2.57 40 11:27 03.03.2021
1910 Clouds 23 1010 94 10000 2.57 40 10:45 03.03.2021
1911 Clouds 23 1010 94 10000 2.57 40 10:22 03.03.2021
1912 Clouds 23 1010 94 10000 2.57 20 09:42 03.03.2021
1913 Clouds 23 1010 94 10000 2.57 20 08:53 03.03.2021
1914 Clouds 23 1009 94 10000 2.57 20 08:24 03.03.2021
1915 Rain 23 1009 94 10000 2.57 20 07:55 03.03.2021
1916 Rain 23 1009 94 10000 2.57 30 07:28 03.03.2021
1917 Clouds 23 1010 94 10000 2.57 30 06:22 03.03.2021
1918 Rain 23 1011 94 10000 2.57 40 05:44 03.03.2021
1919 Rain 23 1011 94 10000 2.57 50 04:36 03.03.2021
1920 Rain 24 1012 94 10000 2.57 70 03:53 03.03.2021
1921 Rain 24 1010 94 5000 1.54 360 00:19 03.03.2021
1922 Rain 24 1009 100 1000 3.09 320 23:32 02.03.2021
1923 Rain 24 1008 94 3000 0.51 130 22:50 02.03.2021
1924 Rain 24 1008 94 3000 0.51 130 22:21 02.03.2021
1925 Rain 24 1008 100 1500 5.14 50 21:51 02.03.2021
1926 Rain 25 1008 100 1500 5.14 50 21:32 02.03.2021
1927 Clouds 27 1007 94 2000 3.6 70 20:55 02.03.2021
1928 Clouds 29 1008 70 10000 2.06 230 20:37 02.03.2021
1929 Rain 29 1008 70 10000 2.06 230 20:19 02.03.2021
1930 Clouds 30 1009 70 10000 1.54 210 19:43 02.03.2021
1931 Clouds 30 1009 70 10000 1.54 210 19:25 02.03.2021
1932 Clouds 29 1010 74 10000 1.03 200 18:41 02.03.2021
1933 Clouds 29 1010 74 10000 1.03 200 18:21 02.03.2021
1934 Clouds 29 1010 74 10000 1.03 200 17:54 02.03.2021
1935 Clouds 28 1011 83 10000 1.03 180 17:36 02.03.2021
1936 Clouds 28 1011 83 10000 1.03 180 17:36 02.03.2021
1937 Clouds 28 1011 83 10000 1.03 180 17:18 02.03.2021
1938 Rain 27 1012 78 10000 1.03 120 16:38 02.03.2021
1939 Rain 26 1012 89 10000 1.03 120 15:52 02.03.2021
1940 Rain 26 1012 89 10000 1.03 120 15:25 02.03.2021
1941 Rain 25 1012 94 10000 1.03 110 14:29 02.03.2021
1942 Rain 25 1011 88 10000 0.68 243 13:59 02.03.2021
1943 Rain 24 1011 88 9000 1.03 340 13:39 02.03.2021
1944 Rain 24 1011 88 9000 1.03 340 13:21 02.03.2021
1945 Clouds 23 1010 94 6000 1.03 30 12:31 02.03.2021
1946 Clouds 23 1010 94 6000 1.03 30 11:59 02.03.2021
1947 Rain 23 1009 94 6000 2.06 30 11:38 02.03.2021
1948 Rain 23 1009 94 6000 2.06 30 11:19 02.03.2021
1949 Rain 23 1009 94 6000 2.06 50 10:39 02.03.2021
1950 Rain 23 1009 94 6000 2.06 50 10:20 02.03.2021
1951 Rain 24 1008 94 5000 2.57 60 09:40 02.03.2021
1952 Rain 24 1008 94 5000 2.57 60 09:19 02.03.2021
1953 Rain 24 1008 100 10000 2.06 70 08:38 02.03.2021
1954 Clouds 24 1008 100 10000 1.54 20 07:58 02.03.2021
1955 Clouds 25 1008 94 7000 1.87 66 07:38 02.03.2021
1956 Rain 25 1009 94 8000 1.76 81 06:34 02.03.2021
1957 Clouds 25 1009 94 6000 1.03 10 05:46 02.03.2021
1958 Rain 25 1009 94 6000 1.03 10 05:27 02.03.2021
1959 Clouds 25 1007 100 10000 1.54 230 01:44 02.03.2021
1960 Clouds 25 1007 100 10000 1.54 230 01:26 02.03.2021
1961 Clouds 25 1006 94 10000 0.51 30 00:28 02.03.2021
1962 Clouds 25 1006 94 6000 2.06 260 23:26 01.03.2021
1963 Clouds 26 1006 89 10000 4.63 270 22:42 01.03.2021
1964 Clouds 26 1006 89 10000 4.63 270 22:21 01.03.2021
1965 Clouds 28 1006 78 10000 2.57 80 21:45 01.03.2021
1966 Rain 28 1006 78 10000 2.57 80 21:23 01.03.2021
1967 Rain 28 1006 78 10000 2.57 80 21:23 01.03.2021
1968 Clouds 28 1006 78 10000 2.57 80 20:47 01.03.2021
1969 Rain 28 1006 78 10000 2.57 80 20:27 01.03.2021
1970 Clouds 29 1007 78 10000 2.06 70 19:54 01.03.2021
1971 Clouds 29 1007 78 10000 2.06 70 19:33 01.03.2021
1972 Clouds 28 1007 83 10000 1.54 30 18:46 01.03.2021
1973 Clouds 28 1008 74 4000 4.63 30 18:24 01.03.2021
1974 Clouds 29 1008 70 10000 3.6 30 17:53 01.03.2021
1975 Clouds 29 1009 70 10000 3.6 50 17:30 01.03.2021
1976 Clouds 29 1009 70 10000 3.6 50 16:59 01.03.2021
1977 Clouds 28 1010 74 10000 3.6 40 16:40 01.03.2021
1978 Clouds 28 1010 74 10000 3.6 40 16:22 01.03.2021
1979 Clouds 27 1010 78 10000 2.06 20 15:40 01.03.2021
1980 Clouds 27 1010 78 10000 2.06 20 15:19 01.03.2021
1981 Clouds 25 1010 88 10000 2.57 50 14:44 01.03.2021
1982 Clouds 25 1010 88 10000 2.57 50 14:26 01.03.2021
1983 Clouds 24 1010 94 9000 2.06 30 13:39 01.03.2021
1984 Clouds 24 1010 94 9000 2.06 30 13:20 01.03.2021
1985 Clouds 24 1010 94 9000 2.06 30 13:20 01.03.2021
1986 Clouds 24 1009 94 10000 1.03 30 12:44 01.03.2021
1987 Clouds 24 1009 94 10000 1.03 30 12:26 01.03.2021
1988 Clouds 24 1009 94 10000 1.03 30 11:57 01.03.2021
1989 Clouds 24 1008 94 10000 1.03 50 11:32 01.03.2021
1990 Clouds 24 1007 94 10000 1.54 20 10:44 01.03.2021
1991 Clouds 24 1007 94 10000 1.54 20 10:22 01.03.2021
1992 Clouds 24 1007 94 10000 1.54 20 09:56 01.03.2021
1993 Clouds 24 1007 94 10000 1.54 360 09:36 01.03.2021
1994 Clouds 24 1007 94 10000 1.54 360 08:58 01.03.2021
1995 Clouds 25 1007 88 10000 2.06 350 08:36 01.03.2021
1996 Clouds 25 1007 94 10000 1.03 310 07:34 01.03.2021
1997 Clouds 25 1008 94 10000 1.54 310 06:31 01.03.2021
1998 Clouds 25 1008 83 10000 1.54 340 02:40 01.03.2021
1999 Rain 26 1007 94 10000 2.06 310 23:54 28.02.2021
2000 Clouds 27 1006 78 10000 2.57 10 23:21 28.02.2021
2001 Clouds 27 1006 78 10000 1.54 360 22:44 28.02.2021
2002 Clouds 27 1006 78 10000 1.54 360 22:21 28.02.2021
2003 Clouds 25 1007 94 8000 2.06 80 21:46 28.02.2021
2004 Clouds 25 1007 94 8000 2.06 80 21:23 28.02.2021
2005 Clouds 26 1007 83 10000 3.09 10 20:46 28.02.2021
2006 Clouds 26 1007 83 10000 3.09 10 20:27 28.02.2021
2007 Clouds 26 1008 89 10000 3.09 30 19:47 28.02.2021
2008 Rain 26 1008 89 10000 3.09 30 19:27 28.02.2021
2009 Clouds 26 1009 89 10000 1.54 50 18:47 28.02.2021
2010 Rain 25 1010 94 10000 1.54 60 18:28 28.02.2021
2011 Rain 25 1010 94 10000 1.54 60 18:28 28.02.2021
2012 Rain 25 1010 94 10000 1.54 60 17:58 28.02.2021
2013 Rain 25 1011 94 10000 2.06 40 17:38 28.02.2021
2014 Rain 25 1011 94 10000 2.06 40 17:38 28.02.2021
2015 Rain 25 1011 94 10000 2.06 40 17:20 28.02.2021
2016 Clouds 24 1011 100 10000 2.57 70 16:48 28.02.2021
2017 Clouds 24 1011 100 10000 2.57 70 16:29 28.02.2021
2018 Clouds 24 1012 94 4000 1.54 50 15:51 28.02.2021
2019 Rain 24 1012 94 4000 1.54 50 15:28 28.02.2021
2020 Rain 24 1012 94 4000 1.54 50 14:58 28.02.2021
2021 Rain 24 1012 94 1000 3.6 50 14:35 28.02.2021
2022 Clouds 24 1010 100 10000 1.54 250 13:58 28.02.2021
2023 Clouds 24 1010 100 10000 1.54 250 13:37 28.02.2021
2024 Rain 24 1010 100 10000 1.54 250 13:18 28.02.2021
2025 Rain 24 1010 100 6000 2.06 260 12:51 28.02.2021
2026 Rain 24 1010 100 6000 2.06 260 12:31 28.02.2021
2027 Rain 24 1009 94 6000 1.54 250 11:55 28.02.2021
2028 Rain 24 1009 94 6000 1.54 250 11:36 28.02.2021
2029 Rain 24 1009 94 7000 1.03 350 11:18 28.02.2021
2030 Rain 24 1009 100 6000 3.09 320 10:30 28.02.2021
2031 Rain 25 1008 94 5000 3.09 320 09:58 28.02.2021
2032 Rain 25 1008 94 5000 3.09 340 09:36 28.02.2021
2033 Rain 25 1008 94 3000 3.6 310 08:59 28.02.2021
2034 Clouds 25 1008 94 3000 3.6 310 08:37 28.02.2021
2035 Clouds 25 1008 94 3000 3.6 310 08:19 28.02.2021
2036 Clouds 26 1009 89 10000 1.03 220 07:43 28.02.2021
2037 Clouds 26 1009 89 10000 1.03 220 07:43 28.02.2021
2038 Clouds 26 1009 89 10000 1.03 220 07:24 28.02.2021
2039 Clouds 26 1009 78 10000 1.54 20 06:23 28.02.2021
2040 Clouds 26 1010 78 10000 2.06 10 03:48 28.02.2021
2041 Clouds 27 1009 78 10000 1.03 20 02:25 28.02.2021
2042 Clouds 27 1008 78 10000 1.54 60 01:20 28.02.2021
2043 Clouds 27 1007 78 10000 1.03 80 00:38 28.02.2021
2044 Clouds 28 1006 78 10000 2.06 80 23:50 27.02.2021
2045 Clouds 28 1006 78 10000 2.06 80 23:21 27.02.2021
2046 Clouds 29 1005 74 10000 1.03 90 22:49 27.02.2021
2047 Clouds 29 1005 74 10000 1.03 90 22:23 27.02.2021
2048 Clouds 29 1005 74 10000 1.03 90 21:55 27.02.2021
2049 Clouds 30 1006 70 10000 2.06 90 21:35 27.02.2021
2050 Clouds 30 1006 70 10000 2.06 90 20:54 27.02.2021
2051 Clouds 29 1007 70 10000 2.06 70 20:35 27.02.2021
2052 Clouds 29 1007 70 10000 2.06 70 20:35 27.02.2021
2053 Clouds 29 1007 70 10000 2.06 70 19:58 27.02.2021
2054 Clouds 29 1009 74 10000 2.57 70 19:39 27.02.2021
2055 Clouds 29 1009 74 10000 2.57 70 19:21 27.02.2021
2056 Clouds 28 1010 74 10000 4.12 50 18:38 27.02.2021
2057 Clouds 28 1010 74 10000 4.12 50 18:18 27.02.2021
2058 Clouds 27 1011 78 10000 5.14 60 17:43 27.02.2021
2059 Clouds 27 1011 78 10000 5.14 60 17:20 27.02.2021
2060 Clouds 27 1012 89 4000 4.12 80 16:50 27.02.2021
2061 Clouds 27 1012 89 4000 4.12 80 16:30 27.02.2021
2062 Clouds 27 1013 83 10000 4.63 60 15:49 27.02.2021
2063 Clouds 27 1013 83 10000 4.63 60 15:30 27.02.2021
2064 Clouds 27 1012 83 10000 4.63 50 14:41 27.02.2021
2065 Clouds 27 1012 83 10000 4.63 50 14:23 27.02.2021
2066 Clouds 27 1011 89 10000 1.54 80 13:49 27.02.2021
2067 Clouds 27 1011 89 10000 1.54 80 13:26 27.02.2021
2068 Clear 24 1010 100 10000 1.03 20 12:51 27.02.2021
2069 Clear 24 1010 100 10000 1.03 20 12:27 27.02.2021
2070 Clear 24 1010 100 10000 1.03 20 11:55 27.02.2021
2071 Clear 24 1009 100 10000 0.51 310 11:31 27.02.2021
2072 Clouds 23 1009 100 10000 1.3 76 10:59 27.02.2021
2073 Clear 24 1009 100 10000 0.51 130 10:41 27.02.2021
2074 Clear 24 1009 100 10000 0.51 130 10:18 27.02.2021
2075 Clear 23 1010 100 10000 1.03 130 09:35 27.02.2021
2076 Clear 24 1010 94 10000 0.51 330 08:45 27.02.2021
2077 Clear 24 1010 94 10000 0.51 330 08:24 27.02.2021
2078 Clear 24 1009 94 10000 1.13 100 07:59 27.02.2021
2079 Clear 24 1011 94 10000 0.51 350 07:31 27.02.2021
2080 Clouds 24 1009 94 10000 0.51 300 02:31 27.02.2021
2081 Clouds 25 1007 88 10000 1.03 90 00:32 27.02.2021
2082 Clouds 26 1007 83 10000 1.54 80 23:43 26.02.2021
2083 Clouds 26 1007 83 10000 1.54 80 23:23 26.02.2021
2084 Clouds 26 1007 83 10000 1.54 90 22:38 26.02.2021
2085 Clouds 26 1007 83 10000 1.54 90 22:19 26.02.2021
2086 Clouds 26 1007 83 10000 1.03 80 21:36 26.02.2021
2087 Clouds 26 1007 83 10000 1.03 80 20:57 26.02.2021
2088 Clouds 27 1008 78 10000 1.54 50 20:37 26.02.2021
2089 Clouds 27 1008 78 10000 1.54 50 20:37 26.02.2021
2090 Clouds 27 1008 78 10000 1.54 50 20:18 26.02.2021
2091 Clouds 26 1009 78 10000 2.57 60 19:27 26.02.2021
2092 Rain 26 1009 78 10000 2.06 360 18:57 26.02.2021
2093 Rain 26 1011 83 10000 3.6 70 18:25 26.02.2021
2094 Clouds 25 1012 88 10000 3.09 70 17:59 26.02.2021
2095 Rain 25 1012 88 10000 3.09 70 17:38 26.02.2021
2096 Rain 25 1012 88 10000 3.09 70 17:18 26.02.2021
2097 Rain 24 1013 94 10000 3.09 70 16:46 26.02.2021
2098 Rain 24 1013 94 10000 3.09 70 16:27 26.02.2021
2099 Clouds 24 1013 94 4000 3.09 60 15:44 26.02.2021
2100 Clouds 24 1013 94 4000 3.09 60 15:24 26.02.2021
2101 Clouds 25 1012 88 10000 4.12 30 14:57 26.02.2021
2102 Clouds 25 1012 88 10000 4.12 30 14:35 26.02.2021
2103 Clouds 25 1012 94 10000 1.03 110 13:54 26.02.2021
2104 Clouds 25 1012 94 10000 1.03 110 13:34 26.02.2021
2105 Clouds 25 1011 94 5000 1.54 30 12:58 26.02.2021
2106 Clouds 24 1010 100 10000 1.03 50 12:31 26.02.2021
2107 Clouds 24 1009 100 10000 0.82 100 11:47 26.02.2021
2108 Clouds 24 1009 100 10000 0.58 125 11:20 26.02.2021
2109 Rain 24 1009 94 10000 0.58 125 10:43 26.02.2021
2110 Rain 24 1008 94 10000 1.03 70 09:48 26.02.2021
2111 Clouds 24 1008 94 10000 1.03 70 09:28 26.02.2021
2112 Clouds 24 1009 100 10000 0.51 130 08:39 26.02.2021
2113 Clouds 24 1009 100 10000 0.51 130 07:58 26.02.2021
2114 Clouds 24 1009 100 10000 1.07 1 07:24 26.02.2021
2115 Clouds 24 1009 100 10000 1.07 1 06:35 26.02.2021
2116 Clouds 24 1010 94 10000 0.88 14 05:19 26.02.2021
2117 Clouds 25 1010 94 10000 0.51 90 02:39 26.02.2021
2118 Clouds 25 1009 94 10000 1.03 190 00:33 26.02.2021
2119 Clouds 26 1008 83 10000 1.03 120 23:40 25.02.2021
2120 Clouds 26 1008 83 10000 1.03 120 23:19 25.02.2021
2121 Clouds 26 1008 89 10000 1.03 160 22:38 25.02.2021
2122 Clouds 26 1008 89 10000 1.03 160 21:53 25.02.2021
2123 Rain 27 1009 78 10000 1.03 200 21:33 25.02.2021
2124 Rain 26 1009 83 10000 0.51 30 20:56 25.02.2021
2125 Rain 26 1009 83 10000 2.57 240 20:37 25.02.2021
2126 Rain 26 1009 83 10000 2.57 240 20:18 25.02.2021
2127 Clouds 26 1011 78 10000 2.57 300 19:47 25.02.2021
2128 Clouds 26 1011 78 10000 2.57 300 19:19 25.02.2021
2129 Clouds 25 1012 88 10000 2.57 320 18:44 25.02.2021
2130 Clouds 25 1012 88 10000 2.57 320 18:18 25.02.2021
2131 Rain 25 1013 88 8000 2.57 360 17:35 25.02.2021
2132 Rain 24 1013 94 10000 1.54 340 16:59 25.02.2021
2133 Rain 24 1014 94 3000 3.6 10 16:33 25.02.2021
2134 Rain 23 1014 100 2000 4.63 30 15:49 25.02.2021
2135 Clouds 23 1014 100 2000 4.63 30 15:28 25.02.2021
2136 Clouds 23 1014 100 2000 4.63 30 15:28 25.02.2021
2137 Clouds 26 1014 83 10000 2.57 360 14:37 25.02.2021
2138 Clouds 26 1014 83 10000 2.57 360 14:18 25.02.2021
2139 Rain 25 1012 94 10000 3.09 340 13:41 25.02.2021
2140 Rain 25 1012 94 10000 3.09 340 13:20 25.02.2021
2141 Clouds 24 1011 94 8000 1.03 260 12:38 25.02.2021
2142 Clouds 24 1011 94 8000 1.03 260 12:38 25.02.2021
2143 Clouds 24 1011 94 8000 1.03 260 12:20 25.02.2021
2144 Clouds 23 1011 94 5000 1.54 300 11:42 25.02.2021
2145 Clouds 23 1010 94 8000 2.06 350 10:51 25.02.2021
2146 Rain 23 1010 94 8000 2.06 350 10:33 25.02.2021
2147 Clouds 25 1010 94 2000 2.57 60 09:45 25.02.2021
2148 Clouds 24 1009 94 10000 0.51 300 09:23 25.02.2021
2149 Clouds 24 1009 94 10000 1.03 280 08:32 25.02.2021
2150 Clouds 24 1009 94 10000 1.03 280 07:59 25.02.2021
2151 Clear 25 1010 94 10000 1.38 340 07:39 25.02.2021
2152 Clear 25 1010 94 10000 1.15 319 06:57 25.02.2021
2153 Clear 25 1010 94 10000 1.15 319 06:57 25.02.2021
2154 Clear 25 1011 94 10000 0.51 340 05:24 25.02.2021
2155 Clear 27 1009 78 10000 2.57 300 01:45 25.02.2021
2156 Clouds 27 1008 78 10000 1.54 360 00:48 25.02.2021
2157 Rain 27 1008 78 10000 1.54 360 00:19 25.02.2021
2158 Clouds 28 1008 74 10000 1.54 10 23:35 24.02.2021
2159 Clouds 29 1007 84 10000 2.06 210 22:47 24.02.2021
2160 Clouds 29 1007 84 10000 2.06 210 22:29 24.02.2021
2161 Clouds 30 1007 74 10000 3.09 250 21:49 24.02.2021
2162 Clouds 30 1007 74 10000 3.09 250 21:25 24.02.2021
2163 Clouds 30 1008 70 10000 2.57 60 20:48 24.02.2021
2164 Clouds 30 1008 70 10000 2.57 60 20:26 24.02.2021
2165 Clouds 30 1010 70 10000 2.06 40 19:40 24.02.2021
2166 Clouds 30 1010 70 10000 2.06 40 19:20 24.02.2021
2167 Clouds 30 1012 74 10000 2.06 80 18:50 24.02.2021
2168 Clouds 30 1012 74 10000 2.06 80 18:50 24.02.2021
2169 Clouds 30 1012 74 10000 2.06 80 18:29 24.02.2021
2170 Clouds 30 1013 74 10000 3.09 60 17:39 24.02.2021
2171 Clouds 30 1013 74 10000 3.09 60 17:21 24.02.2021
2172 Clouds 29 1013 74 10000 2.57 60 16:46 24.02.2021
2173 Clouds 29 1013 74 10000 2.57 60 16:20 24.02.2021
2174 Clouds 29 1014 74 10000 3.6 40 15:49 24.02.2021
2175 Clouds 29 1014 74 10000 3.6 40 15:26 24.02.2021
2176 Clouds 28 1014 83 10000 1.54 70 14:43 24.02.2021
2177 Clouds 28 1014 83 10000 1.54 70 14:25 24.02.2021
2178 Clouds 27 1013 89 10000 1.54 40 13:41 24.02.2021
2179 Clouds 27 1013 89 10000 1.54 40 13:22 24.02.2021
2180 Clouds 26 1012 94 5000 0.51 180 12:45 24.02.2021
2181 Clouds 26 1012 94 5000 0.51 180 12:27 24.02.2021
2182 Clouds 25 1011 94 10000 0.51 140 11:50 24.02.2021
2183 Clouds 25 1011 94 10000 0.51 140 11:21 24.02.2021
2184 Clouds 25 1010 94 10000 1.33 67 10:32 24.02.2021
2185 Clouds 25 1010 94 10000 1.23 69 09:56 24.02.2021
2186 Clouds 25 1010 89 10000 0.51 110 09:22 24.02.2021
2187 Clear 25 1010 94 10000 1.01 63 08:37 24.02.2021
2188 Clear 25 1010 94 10000 1.19 66 08:19 24.02.2021
2189 Clear 25 1011 83 10000 0.51 40 07:20 24.02.2021
2190 Clouds 25 1011 83 10000 1.03 40 06:42 24.02.2021
2191 Clear 26 1011 89 10000 1.03 70 03:40 24.02.2021
2192 Clouds 28 1008 78 10000 1.54 50 00:37 24.02.2021
2193 Clouds 29 1008 74 10000 2.06 80 23:29 23.02.2021
2194 Clouds 29 1008 70 10000 2.57 70 22:40 23.02.2021
2195 Clouds 29 1008 70 10000 2.57 70 22:20 23.02.2021
2196 Clouds 29 1008 70 10000 2.57 70 22:20 23.02.2021
2197 Clouds 30 1009 70 10000 3.09 80 21:44 23.02.2021
2198 Clouds 30 1009 70 10000 3.09 80 21:24 23.02.2021
2199 Clouds 29 1009 74 10000 2.06 90 20:48 23.02.2021
2200 Clouds 29 1009 74 10000 2.06 90 20:29 23.02.2021
2201 Clouds 29 1011 74 10000 2.57 70 19:48 23.02.2021
2202 Clouds 29 1011 74 10000 2.57 70 19:27 23.02.2021
2203 Clouds 29 1011 74 10000 2.57 70 18:56 23.02.2021
2204 Clouds 29 1012 79 10000 1.54 60 18:32 23.02.2021
2205 Clouds 29 1012 79 10000 1.54 60 17:54 23.02.2021
2206 Rain 28 1013 74 10000 4.12 70 17:33 23.02.2021
2207 Clouds 28 1013 74 10000 4.12 70 16:56 23.02.2021
2208 Clouds 28 1014 74 10000 5.14 70 16:28 23.02.2021
2209 Clouds 28 1014 74 10000 5.14 70 15:58 23.02.2021
2210 Clouds 28 1014 78 10000 5.66 70 15:38 23.02.2021
2211 Clouds 28 1014 78 10000 5.66 70 15:18 23.02.2021
2212 Clouds 27 1014 83 10000 4.63 70 14:43 23.02.2021
2213 Clouds 27 1014 83 10000 4.63 70 14:25 23.02.2021
2214 Clouds 27 1013 83 10000 4.63 50 13:44 23.02.2021
2215 Clouds 27 1013 83 10000 4.63 50 13:24 23.02.2021
2216 Clouds 25 1012 88 10000 4.12 50 12:51 23.02.2021
2217 Clouds 25 1012 88 10000 4.12 50 12:20 23.02.2021
2218 Clear 25 1012 88 10000 3.09 70 11:48 23.02.2021
2219 Clear 25 1012 88 10000 3.09 70 11:21 23.02.2021
2220 Clear 25 1011 94 10000 2.06 60 10:49 23.02.2021
2221 Clear 25 1011 94 10000 2.06 60 10:30 23.02.2021
2222 Clear 25 1011 94 10000 2.06 30 09:43 23.02.2021
2223 Clear 25 1011 94 10000 2.06 30 09:24 23.02.2021
2224 Clear 25 1011 94 10000 2.57 30 08:49 23.02.2021
2225 Clear 25 1011 94 10000 2.57 30 08:22 23.02.2021
2226 Clear 26 1011 89 10000 2.57 50 07:49 23.02.2021
2227 Clear 26 1012 89 10000 2.57 50 05:31 23.02.2021
2228 Clouds 27 1012 89 10000 1.03 80 04:46 23.02.2021
2229 Rain 27 1012 83 10000 2.06 70 02:34 23.02.2021
2230 Clouds 27 1009 78 10000 2.06 70 00:20 23.02.2021
2231 Clouds 29 1008 70 10000 2.06 50 23:47 22.02.2021
2232 Clouds 29 1008 70 10000 2.06 50 23:20 22.02.2021
2233 Clouds 29 1008 74 10000 3.09 70 22:40 22.02.2021
2234 Clouds 29 1008 74 10000 3.09 70 22:20 22.02.2021
2235 Clouds 29 1008 79 10000 1.03 80 21:41 22.02.2021
2236 Clouds 29 1008 79 10000 1.03 80 21:22 22.02.2021
2237 Clouds 30 1009 70 10000 1.54 80 20:51 22.02.2021
2238 Clouds 30 1009 70 10000 1.54 80 20:27 22.02.2021
2239 Rain 31 1010 62 10000 3.6 60 19:51 22.02.2021
2240 Clouds 31 1010 62 10000 3.6 60 19:31 22.02.2021
2241 Clouds 31 1010 62 10000 3.6 60 18:56 22.02.2021
2242 Clouds 31 1011 70 10000 3.6 70 18:37 22.02.2021
2243 Clouds 31 1011 70 10000 3.6 70 18:18 22.02.2021
2244 Clouds 31 1013 66 10000 4.63 50 17:22 22.02.2021
2245 Clouds 31 1013 66 10000 4.63 50 17:22 22.02.2021
2246 Clouds 29 1013 70 10000 4.63 60 16:54 22.02.2021
2247 Clouds 29 1013 70 10000 4.63 60 16:31 22.02.2021
2248 Clouds 28 1013 78 10000 3.6 50 15:42 22.02.2021
2249 Clouds 28 1013 78 10000 3.6 50 15:21 22.02.2021
2250 Clouds 27 1013 78 10000 4.12 50 14:44 22.02.2021
2251 Clouds 27 1013 78 10000 4.12 50 14:22 22.02.2021
2252 Clouds 26 1012 83 10000 3.6 60 13:45 22.02.2021
2253 Clouds 26 1012 83 10000 3.6 60 12:56 22.02.2021
2254 Clouds 25 1011 83 10000 2.57 60 12:23 22.02.2021
2255 Clouds 25 1011 83 10000 2.57 60 11:57 22.02.2021
2256 Clear 24 1011 94 10000 1.54 50 11:33 22.02.2021
2257 Clear 24 1011 94 10000 2.57 40 10:59 22.02.2021
2258 Clear 24 1011 94 10000 2.57 40 10:59 22.02.2021
2259 Clear 25 1011 83 10000 2.06 50 10:41 22.02.2021
2260 Clear 25 1011 83 10000 2.06 50 10:20 22.02.2021
2261 Clear 25 1011 88 10000 1.54 50 09:39 22.02.2021
2262 Clear 25 1011 88 10000 1.54 50 09:21 22.02.2021
2263 Clear 25 1011 88 10000 1.54 50 09:21 22.02.2021
2264 Clear 25 1011 83 10000 1.54 50 08:49 22.02.2021
2265 Clear 25 1011 83 10000 1.54 50 08:21 22.02.2021
2266 Clear 25 1011 88 10000 2.57 30 07:48 22.02.2021
2267 Clear 25 1011 88 10000 2.57 30 07:22 22.02.2021
2268 Clear 25 1011 88 10000 2.57 30 06:27 22.02.2021
2269 Clear 26 1012 83 10000 2.57 30 04:28 22.02.2021
2270 Clear 26 1012 83 10000 2.06 30 03:23 22.02.2021
2271 Clouds 27 1009 78 10000 1.54 60 00:56 22.02.2021
2272 Clouds 27 1009 78 10000 1.54 60 00:30 22.02.2021
2273 Clouds 27 1009 78 10000 1.54 60 23:57 21.02.2021
2274 Clouds 29 1009 70 10000 3.09 60 23:25 21.02.2021
2275 Clouds 30 1009 66 10000 2.57 30 22:30 21.02.2021
2276 Clouds 30 1009 66 10000 2.57 30 21:52 21.02.2021
2277 Clouds 30 1009 66 10000 2.57 30 21:52 21.02.2021
2278 Clouds 29 1009 74 10000 2.57 70 21:34 21.02.2021
2279 Clouds 29 1009 74 10000 2.57 70 21:34 21.02.2021
2280 Clouds 29 1009 74 10000 2.57 70 20:58 21.02.2021
2281 Clouds 31 1010 66 10000 2.06 70 20:38 21.02.2021
2282 Clouds 31 1010 66 10000 2.06 70 20:18 21.02.2021
2283 Clouds 29 1012 70 10000 3.09 70 19:44 21.02.2021
2284 Clouds 29 1012 70 10000 3.09 70 19:24 21.02.2021
2285 Clouds 29 1013 78 10000 2.57 70 18:29 21.02.2021
2286 Clouds 29 1013 78 10000 2.57 70 17:58 21.02.2021
2287 Clouds 29 1013 74 10000 2.06 70 17:26 21.02.2021
2288 Clouds 29 1013 62 10000 3.09 340 16:53 21.02.2021
2289 Clouds 28 1014 74 10000 2.06 90 16:31 21.02.2021
2290 Clouds 26 1014 83 10000 2.57 40 15:47 21.02.2021
2291 Clouds 26 1014 83 10000 2.57 40 15:19 21.02.2021
2292 Clouds 25 1014 88 10000 2.57 40 14:41 21.02.2021
2293 Clouds 25 1014 88 10000 2.57 40 14:20 21.02.2021
2294 Clouds 24 1013 88 10000 2.57 40 13:43 21.02.2021
2295 Clouds 24 1013 88 10000 2.57 40 13:22 21.02.2021
2296 Clouds 23 1012 94 10000 2.57 20 12:29 21.02.2021
2297 Clouds 23 1012 94 10000 2.06 30 11:43 21.02.2021
2298 Clouds 23 1012 94 10000 1.54 360 10:58 21.02.2021
2299 Rain 23 1010 94 10000 2.06 80 10:23 21.02.2021
2300 Rain 23 1011 94 10000 2.06 70 09:53 21.02.2021
2301 Rain 23 1011 94 10000 2.06 70 09:28 21.02.2021
2302 Rain 23 1011 94 10000 1.03 50 08:49 21.02.2021
2303 Rain 23 1011 94 10000 1.03 50 08:19 21.02.2021
2304 Rain 24 1011 88 10000 2.06 50 07:33 21.02.2021
2305 Rain 24 1012 88 10000 1.54 50 06:52 21.02.2021
2306 Clouds 24 1010 88 10000 2.06 40 02:49 21.02.2021
2307 Clouds 24 1010 88 10000 2.06 40 02:29 21.02.2021
2308 Rain 23 1011 94 10000 0.51 350 00:42 21.02.2021
2309 Rain 23 1011 94 10000 0.51 350 00:18 21.02.2021
2310 Clouds 25 1011 83 10000 2.06 20 23:18 20.02.2021
2311 Clouds 25 1011 88 10000 1.54 20 22:41 20.02.2021
2312 Clouds 25 1011 88 10000 1.54 20 22:21 20.02.2021
2313 Clouds 25 1011 83 10000 1.03 130 21:41 20.02.2021
2314 Rain 25 1011 83 10000 1.03 130 21:20 20.02.2021
2315 Rain 25 1012 83 10000 1.03 80 20:42 20.02.2021
2316 Clouds 25 1012 83 10000 1.03 80 20:21 20.02.2021
2317 Rain 24 1013 94 10000 1.54 120 19:52 20.02.2021
2318 Rain 24 1013 94 10000 1.54 120 19:23 20.02.2021
2319 Rain 24 1015 94 10000 1.54 60 18:38 20.02.2021
2320 Rain 24 1015 94 10000 1.54 60 18:19 20.02.2021
2321 Clouds 24 1016 88 8000 1.54 340 17:37 20.02.2021
2322 Rain 24 1016 88 8000 1.03 310 16:55 20.02.2021
2323 Rain 23 1016 94 5000 2.06 210 16:32 20.02.2021
2324 Rain 23 1016 94 4000 4.63 260 15:47 20.02.2021
2325 Rain 23 1016 94 4000 4.63 260 15:23 20.02.2021
2326 Rain 23 1016 94 10000 2.57 240 14:46 20.02.2021
2327 Rain 23 1016 94 10000 2.57 240 14:23 20.02.2021
2328 Rain 23 1015 94 8000 2.57 220 13:41 20.02.2021
2329 Rain 23 1015 94 8000 2.57 220 13:23 20.02.2021
2330 Rain 22 1013 94 5000 3.09 230 12:49 20.02.2021
2331 Rain 22 1013 94 5000 3.09 230 12:22 20.02.2021
2332 Rain 23 1012 94 5000 4.12 230 11:42 20.02.2021
2333 Rain 23 1012 94 5000 4.12 230 11:23 20.02.2021
2334 Rain 22 1012 100 5000 3.6 250 10:43 20.02.2021
2335 Rain 21 1011 26 5000 4.63 240 09:50 20.02.2021
2336 Rain 21 1011 26 5000 4.63 240 09:20 20.02.2021
2337 Rain 22 1012 94 10000 4.12 230 08:34 20.02.2021
2338 Clouds 22 1012 100 3000 4.12 190 07:54 20.02.2021
2339 Clouds 26 1011 78 10000 1.03 90 02:45 20.02.2021
2340 Clouds 26 1011 78 10000 1.03 90 02:21 20.02.2021
2341 Clouds 27 1010 74 10000 2.06 360 01:47 20.02.2021
2342 Clouds 28 1009 70 10000 2.57 340 00:45 20.02.2021
2343 Clouds 29 1008 66 10000 2.06 60 23:45 19.02.2021
2344 Rain 29 1008 66 10000 2.06 60 22:56 19.02.2021
2345 Rain 31 1007 62 10000 3.09 30 22:26 19.02.2021
2346 Clouds 31 1007 58 10000 1.54 20 21:48 19.02.2021
2347 Clouds 31 1007 58 10000 1.54 20 21:28 19.02.2021
2348 Clouds 30 1008 62 10000 2.57 30 20:47 19.02.2021
2349 Clouds 30 1008 62 10000 2.57 30 20:27 19.02.2021
2350 Clouds 33 1009 58 10000 2.06 90 19:51 19.02.2021
2351 Rain 33 1009 58 10000 2.06 90 19:23 19.02.2021
2352 Clouds 33 1009 58 10000 2.06 90 18:56 19.02.2021
2353 Clouds 31 1011 70 10000 2.06 70 18:33 19.02.2021
2354 Clouds 32 1011 58 10000 3.09 70 17:48 19.02.2021
2355 Clouds 31 1012 66 10000 3.6 40 16:51 19.02.2021
2356 Clouds 31 1012 66 10000 3.6 40 16:23 19.02.2021
2357 Clouds 31 1012 66 10000 3.6 40 15:57 19.02.2021
2358 Clouds 30 1012 70 10000 3.6 60 15:30 19.02.2021
2359 Clouds 30 1012 70 10000 3.6 60 14:56 19.02.2021
2360 Clear 29 1013 74 10000 4.63 40 14:36 19.02.2021
2361 Clear 29 1013 74 10000 4.63 40 13:57 19.02.2021
2362 Clear 28 1012 74 10000 2.57 40 13:37 19.02.2021
2363 Clear 28 1012 74 10000 2.57 40 12:59 19.02.2021
2364 Clear 26 1011 83 10000 2.57 40 12:41 19.02.2021
2365 Clear 26 1011 83 10000 2.57 40 12:20 19.02.2021
2366 Clear 24 1011 88 10000 2.06 50 11:44 19.02.2021
2367 Clear 24 1011 88 10000 2.06 50 11:19 19.02.2021
2368 Clouds 24 1010 94 10000 1.54 40 10:38 19.02.2021
2369 Clouds 24 1010 94 10000 1.54 40 10:19 19.02.2021
2370 Clouds 24 1009 94 10000 0.51 20 09:37 19.02.2021
2371 Clouds 24 1009 94 10000 0.51 20 09:37 19.02.2021
2372 Clouds 24 1009 94 10000 0.51 20 09:18 19.02.2021
2373 Clear 25 1009 88 10000 1.03 350 08:42 19.02.2021
2374 Clear 25 1009 88 10000 1.03 350 08:21 19.02.2021
2375 Clear 25 1010 88 10000 1.54 10 07:45 19.02.2021
2376 Clear 25 1010 88 10000 1.54 10 07:25 19.02.2021
2377 Clear 25 1010 88 10000 1.03 60 06:44 19.02.2021
2378 Clouds 26 1011 83 10000 2.06 50 04:42 19.02.2021
2379 Clouds 28 1010 74 10000 2.57 80 02:50 19.02.2021
2380 Clouds 29 1010 70 10000 1.54 30 01:33 19.02.2021
2381 Clouds 29 1009 74 10000 2.06 80 00:35 19.02.2021
2382 Clouds 30 1008 66 10000 2.06 90 23:47 18.02.2021
2383 Clouds 30 1008 66 10000 2.06 90 23:29 18.02.2021
2384 Clouds 32 1008 58 10000 2.06 80 22:38 18.02.2021
2385 Clouds 32 1008 58 10000 2.06 80 22:18 18.02.2021
2386 Clouds 32 1008 58 10000 1.54 90 21:40 18.02.2021
2387 Clouds 32 1008 58 10000 1.54 90 21:21 18.02.2021
2388 Clouds 32 1009 55 10000 3.09 50 20:39 18.02.2021
2389 Clouds 32 1009 55 10000 3.09 50 20:39 18.02.2021
2390 Clouds 32 1010 62 10000 2.06 80 20:21 18.02.2021
2391 Clouds 32 1010 62 10000 2.06 80 19:43 18.02.2021
2392 Clouds 32 1010 62 10000 2.06 80 19:20 18.02.2021
2393 Clouds 31 1011 66 10000 3.09 80 18:50 18.02.2021
2394 Clouds 31 1011 66 10000 3.09 80 18:26 18.02.2021
2395 Clouds 32 1012 62 10000 3.6 60 17:49 18.02.2021
2396 Clouds 32 1012 62 10000 3.6 60 17:24 18.02.2021
2397 Clouds 31 1013 62 10000 3.6 60 16:46 18.02.2021
2398 Clouds 31 1013 62 10000 3.6 60 16:28 18.02.2021
2399 Clouds 29 1013 74 10000 3.09 60 15:43 18.02.2021
2400 Clouds 29 1013 74 10000 3.09 60 15:23 18.02.2021
2401 Clouds 29 1013 74 10000 3.09 60 14:53 18.02.2021
2402 Clouds 28 1013 83 10000 2.57 70 14:33 18.02.2021
2403 Clouds 27 1012 89 10000 1.03 80 13:50 18.02.2021
2404 Clouds 27 1012 89 10000 1.03 80 13:22 18.02.2021
2405 Clouds 26 1012 89 10000 1.03 80 12:55 18.02.2021
2406 Clouds 25 1012 100 10000 1.03 70 12:31 18.02.2021
2407 Clouds 25 1011 94 10000 1.03 100 11:47 18.02.2021
2408 Clear 25 1010 94 10000 1.03 80 11:28 18.02.2021
2409 Clouds 25 1011 94 10000 1.54 50 10:58 18.02.2021
2410 Clear 25 1010 94 10000 1.03 80 10:37 18.02.2021
2411 Clear 25 1010 94 10000 1.03 80 10:18 18.02.2021
2412 Clouds 25 1010 94 10000 1.03 80 09:28 18.02.2021
2413 Clouds 24 1010 100 10000 1.44 126 08:50 18.02.2021
2414 Clouds 24 1010 100 10000 1.44 126 08:31 18.02.2021
2415 Clouds 25 1010 94 10000 1.52 127 07:48 18.02.2021
2416 Clouds 25 1010 94 10000 1.54 90 07:23 18.02.2021
2417 Clouds 25 1011 94 10000 1.03 110 05:42 18.02.2021
2418 Clouds 25 1011 94 10000 1.03 110 05:42 18.02.2021
2419 Clouds 25 1011 94 10000 1.03 110 05:42 18.02.2021
2420 Rain 26 1009 83 10000 2.06 20 00:29 18.02.2021
2421 Clouds 25 1009 89 10000 3.6 350 23:38 17.02.2021
2422 Clouds 25 1009 89 10000 3.6 350 23:38 17.02.2021
2423 Clouds 25 1009 89 10000 3.6 350 22:59 17.02.2021
2424 Clouds 27 1008 89 5000 3.6 300 22:39 17.02.2021
2425 Clouds 27 1008 89 5000 3.6 300 22:19 17.02.2021
2426 Clouds 31 1008 70 10000 1.03 90 21:42 17.02.2021
2427 Clouds 31 1008 70 10000 1.03 90 21:19 17.02.2021
2428 Clouds 32 1009 58 10000 3.09 50 20:40 17.02.2021
2429 Clouds 32 1009 58 10000 3.09 50 20:22 17.02.2021
2430 Clouds 33 1009 55 10000 4.12 20 19:38 17.02.2021
2431 Clouds 33 1009 55 10000 4.12 20 18:58 17.02.2021
2432 Clouds 31 1011 62 10000 2.57 60 18:37 17.02.2021
2433 Clouds 31 1011 66 10000 3.09 70 17:47 17.02.2021
2434 Clouds 31 1011 66 10000 3.09 70 17:23 17.02.2021
2435 Clouds 31 1011 66 10000 3.09 70 16:54 17.02.2021
2436 Clouds 30 1012 66 10000 4.12 40 16:29 17.02.2021
2437 Clouds 30 1012 66 10000 4.12 40 15:59 17.02.2021
2438 Clouds 29 1012 70 10000 3.09 50 15:40 17.02.2021
2439 Clouds 29 1012 70 10000 3.09 50 15:21 17.02.2021
2440 Clouds 27 1012 78 10000 2.57 50 14:44 17.02.2021
2441 Clouds 27 1012 78 10000 2.57 50 14:25 17.02.2021
2442 Clouds 25 1012 88 10000 2.06 70 13:43 17.02.2021
2443 Clouds 25 1012 88 10000 2.06 70 12:59 17.02.2021
2444 Clouds 25 1011 88 10000 1.03 110 12:26 17.02.2021
2445 Clouds 24 1010 88 10000 1.54 60 11:50 17.02.2021
2446 Clouds 24 1010 88 10000 1.54 60 11:30 17.02.2021
2447 Clouds 25 1010 88 10000 1.54 60 10:59 17.02.2021
2448 Clouds 25 1010 83 10000 1.7 68 10:40 17.02.2021
2449 Clouds 25 1010 83 10000 1.4 70 10:20 17.02.2021
2450 Clouds 25 1010 83 10000 1.03 310 09:41 17.02.2021
2451 Clouds 25 1010 83 10000 1.03 310 09:18 17.02.2021
2452 Clouds 26 1010 83 10000 0.51 360 08:42 17.02.2021
2453 Clouds 26 1010 83 10000 0.51 360 08:20 17.02.2021
2454 Clouds 26 1011 83 10000 1.03 10 07:24 17.02.2021
2455 Clear 26 1012 83 10000 2.57 40 03:55 17.02.2021
2456 Clear 27 1010 78 10000 3.6 30 02:33 17.02.2021
2457 Clouds 27 1009 78 10000 3.09 40 01:49 17.02.2021
2458 Clouds 28 1009 74 10000 2.06 20 00:30 17.02.2021
2459 Clouds 29 1008 74 10000 2.57 40 23:50 16.02.2021
2460 Clouds 29 1008 74 10000 2.57 40 23:32 16.02.2021
2461 Clouds 30 1008 70 10000 2.57 20 22:42 16.02.2021
2462 Clouds 30 1008 70 10000 2.57 20 22:22 16.02.2021
2463 Clouds 30 1009 66 10000 2.57 360 21:40 16.02.2021
2464 Clouds 30 1009 66 10000 2.57 360 21:40 16.02.2021
2465 Clouds 30 1009 66 10000 2.57 360 21:22 16.02.2021
2466 Clouds 30 1009 66 10000 2.57 360 20:58 16.02.2021
2467 Clouds 30 1009 74 10000 4.63 60 20:38 16.02.2021
2468 Clouds 30 1009 74 10000 4.63 60 20:20 16.02.2021
2469 Clouds 31 1011 66 10000 3.09 50 19:40 16.02.2021
2470 Clouds 31 1011 66 10000 3.09 50 19:21 16.02.2021
2471 Clouds 30 1012 70 10000 3.6 350 18:38 16.02.2021
2472 Clouds 30 1012 70 10000 3.6 350 18:19 16.02.2021
2473 Clouds 29 1013 79 10000 3.09 30 17:49 16.02.2021
2474 Clouds 29 1013 79 10000 3.09 30 17:23 16.02.2021
2475 Clouds 28 1014 74 10000 3.6 40 16:47 16.02.2021
2476 Clouds 28 1014 74 10000 3.6 40 16:24 16.02.2021
2477 Clouds 28 1013 78 10000 3.6 40 15:47 16.02.2021
2478 Clouds 27 1013 89 10000 2.57 60 15:26 16.02.2021
2479 Clouds 25 1013 94 10000 0.51 110 14:48 16.02.2021
2480 Clouds 25 1013 94 10000 0.51 110 14:29 16.02.2021
2481 Clouds 25 1013 94 10000 0.51 110 13:57 16.02.2021
2482 Clouds 25 1013 94 6000 1.03 110 13:34 16.02.2021
2483 Clouds 24 1012 100 6000 1.03 70 12:46 16.02.2021
2484 Clouds 24 1012 100 6000 1.03 70 12:24 16.02.2021
2485 Clouds 24 1011 94 7000 1.74 90 11:49 16.02.2021
2486 Clouds 24 1011 94 7000 1.51 91 11:23 16.02.2021
2487 Clouds 24 1011 100 10000 0.51 310 10:55 16.02.2021
2488 Clouds 24 1010 100 10000 1.51 91 10:36 16.02.2021
2489 Clouds 24 1010 100 10000 1.37 64 10:18 16.02.2021
2490 Rain 24 1010 100 10000 1.54 70 09:44 16.02.2021
2491 Rain 24 1010 100 10000 1.54 70 09:25 16.02.2021
2492 Clouds 24 1010 100 10000 1.03 90 08:42 16.02.2021
2493 Clouds 24 1010 100 10000 1.03 90 08:19 16.02.2021
2494 Clouds 24 1011 100 10000 1.03 90 07:21 16.02.2021
2495 Rain 24 1011 94 10000 1.03 120 05:28 16.02.2021
2496 Rain 24 1011 94 10000 1.03 70 00:45 16.02.2021
2497 Rain 24 1010 94 10000 2.57 80 23:39 15.02.2021
2498 Rain 24 1010 94 10000 2.57 80 23:20 15.02.2021
2499 Rain 24 1010 94 5000 3.09 70 22:43 15.02.2021
2500 Rain 24 1010 94 5000 3.09 70 22:21 15.02.2021
2501 Rain 24 1010 94 10000 3.09 80 21:42 15.02.2021
2502 Rain 24 1010 94 10000 3.09 80 21:21 15.02.2021
2503 Rain 25 1010 88 4000 4.12 30 20:45 15.02.2021
2504 Rain 25 1010 88 4000 4.12 30 20:45 15.02.2021
2505 Rain 25 1010 88 4000 4.12 30 20:26 15.02.2021
2506 Rain 25 1010 88 4000 4.12 30 20:26 15.02.2021
2507 Clouds 29 1011 83 10000 1.54 140 19:44 15.02.2021
2508 Clouds 29 1011 83 10000 1.54 140 19:23 15.02.2021
2509 Clouds 27 1012 89 10000 1.54 160 18:46 15.02.2021
2510 Rain 27 1012 89 10000 1.54 160 18:26 15.02.2021
2511 Clouds 26 1013 89 10000 1.03 80 17:42 15.02.2021
2512 Clouds 26 1013 89 10000 1.03 80 17:24 15.02.2021
2513 Clouds 26 1013 89 10000 1.03 80 16:57 15.02.2021
2514 Clouds 26 1014 89 9000 1.03 80 16:28 15.02.2021
2515 Clouds 25 1013 94 10000 1.3 37 15:52 15.02.2021
2516 Rain 25 1013 94 10000 0.63 91 15:25 15.02.2021
2517 Rain 25 1013 94 10000 1.03 100 14:59 15.02.2021
2518 Rain 25 1013 94 10000 1.03 160 14:36 15.02.2021
2519 Rain 25 1013 94 10000 1.03 160 14:18 15.02.2021
2520 Rain 24 1013 100 10000 1.54 190 13:45 15.02.2021
2521 Clouds 24 1013 100 10000 1.54 190 13:19 15.02.2021
2522 Clouds 24 1011 94 10000 1.54 210 12:44 15.02.2021
2523 Rain 24 1011 94 10000 1.54 210 12:20 15.02.2021
2524 Rain 24 1011 94 10000 1.54 210 12:20 15.02.2021
2525 Clouds 24 1010 94 10000 1.54 270 11:42 15.02.2021
2526 Clouds 24 1010 94 10000 1.54 270 11:19 15.02.2021
2527 Clouds 24 1010 94 10000 1.54 270 10:46 15.02.2021
2528 Clouds 24 1010 94 10000 1.54 270 10:23 15.02.2021
2529 Clouds 24 1010 94 10000 1.54 270 09:54 15.02.2021
2530 Clouds 25 1010 94 10000 1.03 280 09:33 15.02.2021
2531 Clouds 24 1010 94 10000 1.54 250 08:44 15.02.2021
2532 Clouds 24 1010 94 10000 1.03 250 07:39 15.02.2021
2533 Clouds 24 1010 94 10000 1.03 250 06:53 15.02.2021
2534 Clouds 25 1011 94 10000 0.51 280 06:34 15.02.2021
2535 Clouds 24 1010 94 10000 0.51 320 02:29 15.02.2021
2536 Rain 24 1009 100 10000 1.03 10 00:41 15.02.2021
2537 Rain 24 1009 94 10000 1.03 110 23:33 14.02.2021
2538 Rain 24 1009 94 10000 1.03 110 22:54 14.02.2021
2539 Rain 24 1009 94 10000 1.03 80 22:36 14.02.2021
2540 Rain 24 1009 94 10000 1.03 80 22:18 14.02.2021
2541 Rain 24 1009 94 10000 1.03 80 22:18 14.02.2021
2542 Rain 24 1009 94 10000 1.03 70 21:42 14.02.2021
2543 Rain 24 1009 94 10000 1.03 70 21:21 14.02.2021
2544 Rain 24 1010 94 7000 1.54 10 20:39 14.02.2021
2545 Rain 24 1010 94 7000 1.54 10 20:20 14.02.2021
2546 Rain 24 1011 94 5000 2.06 30 19:40 14.02.2021
2547 Rain 23 1011 100 5000 1.54 40 18:51 14.02.2021
2548 Rain 23 1012 100 5000 2.57 40 18:29 14.02.2021
2549 Rain 23 1013 94 4000 2.57 30 17:51 14.02.2021
2550 Rain 23 1013 94 4000 2.57 30 17:32 14.02.2021
2551 Rain 23 1014 94 4000 2.57 40 16:44 14.02.2021
2552 Rain 23 1014 94 4000 2.57 40 16:25 14.02.2021
2553 Rain 23 1014 94 2000 3.6 60 15:47 14.02.2021
2554 Rain 23 1014 94 2000 3.6 60 15:29 14.02.2021
2555 Rain 23 1014 100 1000 5.14 60 14:45 14.02.2021
2556 Rain 23 1014 100 1000 5.14 60 14:25 14.02.2021
2557 Clouds 25 1012 94 10000 1.03 210 13:42 14.02.2021
2558 Clouds 25 1012 94 10000 1.03 210 13:23 14.02.2021
2559 Clouds 25 1010 94 10000 1.54 220 12:24 14.02.2021
2560 Clouds 25 1010 94 10000 1.54 220 11:59 14.02.2021
2561 Clouds 25 1010 94 10000 2.06 240 11:40 14.02.2021
2562 Clouds 25 1010 94 10000 2.06 240 11:20 14.02.2021
2563 Clouds 25 1010 94 10000 1.03 280 10:24 14.02.2021
2564 Clouds 25 1010 94 10000 1.03 250 09:40 14.02.2021
2565 Clouds 25 1010 94 10000 1.03 250 09:21 14.02.2021
2566 Clouds 25 1010 94 10000 1.03 250 08:57 14.02.2021
2567 Clouds 24 1010 94 10000 1.03 250 07:59 14.02.2021
2568 Clouds 24 1010 94 10000 1.03 220 06:59 14.02.2021
2569 Clouds 24 1011 100 10000 1.03 240 05:44 14.02.2021
2570 Clouds 24 1011 100 10000 1.03 270 03:57 14.02.2021
2571 Clouds 24 1010 100 10000 1.54 290 02:29 14.02.2021
2572 Rain 24 1008 94 10000 1.54 350 00:59 14.02.2021
2573 Rain 24 1008 94 10000 1.54 350 00:41 14.02.2021
2574 Rain 24 1008 94 10000 2.06 360 23:49 13.02.2021
2575 Rain 24 1008 94 10000 1.54 360 23:25 13.02.2021
2576 Rain 24 1008 94 5000 1.54 40 22:50 13.02.2021
2577 Rain 24 1008 94 5000 1.54 40 22:21 13.02.2021
2578 Rain 24 1008 94 5000 3.09 60 21:49 13.02.2021
2579 Rain 24 1009 94 2000 4.12 60 21:26 13.02.2021
2580 Rain 24 1009 100 1500 2.06 80 20:43 13.02.2021
2581 Rain 25 1009 94 4000 2.57 350 20:22 13.02.2021
2582 Rain 25 1009 94 10000 2.06 260 19:47 13.02.2021
2583 Rain 25 1009 94 10000 2.06 260 19:23 13.02.2021
2584 Rain 25 1011 94 2000 4.12 70 18:49 13.02.2021
2585 Rain 25 1011 94 2000 4.12 70 18:24 13.02.2021
2586 Rain 25 1011 94 2000 3.6 70 17:43 13.02.2021
2587 Clouds 26 1011 94 5000 3.6 80 17:23 13.02.2021
2588 Clouds 28 1011 78 3000 2.06 90 16:44 13.02.2021
2589 Clouds 29 1011 79 10000 2.06 210 16:26 13.02.2021
2590 Clouds 28 1012 78 10000 1.54 210 15:41 13.02.2021
2591 Clouds 28 1012 78 10000 1.54 210 15:22 13.02.2021
2592 Clouds 27 1012 83 10000 2.98 47 14:33 13.02.2021
2593 Clouds 26 1011 94 10000 2.06 220 13:48 13.02.2021
2594 Clouds 26 1011 94 10000 2.06 220 13:25 13.02.2021
2595 Clouds 25 1010 94 10000 1.51 69 12:50 13.02.2021
2596 Clouds 25 1010 94 10000 1.48 68 12:19 13.02.2021
2597 Clouds 25 1010 94 10000 1.48 68 12:19 13.02.2021
2598 Clouds 25 1010 94 10000 0.51 120 11:45 13.02.2021
2599 Clouds 25 1010 94 10000 0.51 120 11:45 13.02.2021
2600 Clouds 25 1010 94 10000 0.51 170 11:20 13.02.2021
2601 Clouds 24 1011 94 10000 1.03 80 10:47 13.02.2021
2602 Clouds 24 1011 94 10000 1.03 80 10:26 13.02.2021
2603 Clouds 24 1011 94 10000 1.03 80 09:56 13.02.2021
2604 Clouds 25 1010 94 10000 0.82 92 09:30 13.02.2021
2605 Clouds 25 1010 94 10000 0.58 101 08:59 13.02.2021
2606 Clouds 24 1010 100 10000 1.54 80 08:39 13.02.2021
2607 Clouds 24 1010 100 10000 1.54 80 07:53 13.02.2021
2608 Clouds 24 1010 94 10000 1.03 110 06:41 13.02.2021
2609 Clouds 24 1011 100 10000 1.26 82 05:27 13.02.2021
2610 Clear 24 1010 100 10000 1.03 100 03:59 13.02.2021
2611 Clouds 25 1009 94 10000 0.51 160 01:49 13.02.2021
2612 Clouds 25 1008 94 10000 1.1 80 00:51 13.02.2021
2613 Rain 26 1008 94 10000 0.88 86 23:54 12.02.2021
2614 Rain 26 1007 83 10000 2.57 80 23:28 12.02.2021
2615 Rain 27 1007 83 10000 2.06 80 22:45 12.02.2021
2616 Clouds 27 1007 83 10000 2.06 80 22:26 12.02.2021
2617 Rain 27 1007 83 10000 2.06 80 21:50 12.02.2021
2618 Rain 27 1007 83 10000 2.06 80 21:29 12.02.2021
2619 Rain 27 1008 83 10000 3.6 60 20:49 12.02.2021
2620 Clouds 27 1008 83 10000 3.6 60 20:30 12.02.2021
2621 Clouds 27 1008 83 10000 3.6 60 19:58 12.02.2021
2622 Clouds 28 1009 78 10000 4.63 70 19:38 12.02.2021
2623 Clouds 27 1009 78 10000 4.63 70 18:58 12.02.2021
2624 Clouds 27 1010 78 10000 4.12 60 18:30 12.02.2021
2625 Clouds 28 1011 78 10000 0.51 50 17:47 12.02.2021
2626 Clouds 28 1011 78 10000 0.51 50 17:22 12.02.2021
2627 Clouds 27 1012 83 10000 4.12 30 16:35 12.02.2021
2628 Clouds 27 1012 78 10000 2.06 40 15:47 12.02.2021
2629 Clouds 27 1012 78 10000 2.06 40 15:21 12.02.2021
2630 Clouds 27 1012 78 10000 2.06 40 15:21 12.02.2021
2631 Clouds 25 1012 94 8000 2.57 50 14:42 12.02.2021
2632 Clouds 25 1012 94 8000 2.57 50 14:23 12.02.2021
2633 Clouds 25 1011 88 10000 3.6 30 13:41 12.02.2021
2634 Clouds 25 1011 88 10000 3.6 30 13:22 12.02.2021
2635 Clouds 24 1010 100 10000 2.06 30 12:47 12.02.2021
2636 Clouds 24 1010 100 10000 2.06 30 12:28 12.02.2021
2637 Clouds 24 1010 94 8000 1.54 20 11:42 12.02.2021
2638 Clouds 24 1010 100 3000 2.06 50 11:19 12.02.2021
2639 Clouds 25 1011 94 10000 1.54 300 10:41 12.02.2021
2640 Clouds 24 1011 94 10000 1.54 310 09:49 12.02.2021
2641 Clouds 24 1011 94 10000 1.54 310 09:29 12.02.2021
2642 Clouds 24 1010 88 10000 2.57 300 08:49 12.02.2021
2643 Clouds 24 1010 88 10000 2.57 300 08:28 12.02.2021
2644 Clouds 24 1010 88 10000 2.57 300 07:57 12.02.2021
2645 Clouds 24 1010 94 10000 2.06 320 07:32 12.02.2021
2646 Clouds 24 1010 94 10000 2.06 320 06:55 12.02.2021
2647 Clouds 24 1010 94 10000 2.06 320 06:55 12.02.2021
2648 Clouds 24 1010 94 10000 2.06 320 06:55 12.02.2021
2649 Clouds 25 1011 94 9000 2.06 340 05:47 12.02.2021
2650 Rain 26 1011 89 10000 2.06 360 04:31 12.02.2021
2651 Rain 25 1008 94 10000 2.06 50 01:32 12.02.2021
2652 Clouds 25 1008 94 10000 2.06 80 23:41 11.02.2021
2653 Rain 25 1008 94 10000 2.06 80 23:22 11.02.2021
2654 Rain 26 1007 94 5000 5.14 70 22:46 11.02.2021
2655 Rain 26 1007 94 5000 5.14 70 22:24 11.02.2021
2656 Rain 30 1007 66 10000 2.06 80 21:57 11.02.2021
2657 Clouds 30 1007 66 10000 2.06 80 21:36 11.02.2021
2658 Clouds 30 1007 66 10000 2.06 80 21:18 11.02.2021
2659 Clouds 31 1007 66 10000 2.57 80 20:41 11.02.2021
2660 Clouds 31 1007 66 10000 2.57 80 20:21 11.02.2021
2661 Clouds 30 1009 74 10000 1.54 80 19:47 11.02.2021
2662 Clouds 30 1009 74 10000 1.54 80 19:27 11.02.2021
2663 Clouds 30 1010 66 10000 3.09 30 18:49 11.02.2021
2664 Clouds 30 1010 66 10000 3.09 30 18:25 11.02.2021
2665 Clouds 29 1011 70 10000 3.09 70 17:51 11.02.2021
2666 Clouds 29 1011 70 10000 3.09 70 17:22 11.02.2021
2667 Clouds 29 1011 70 10000 3.09 70 16:53 11.02.2021
2668 Clouds 29 1012 79 10000 2.57 60 16:34 11.02.2021
2669 Clouds 29 1012 79 10000 2.57 60 15:58 11.02.2021
2670 Clouds 28 1012 78 10000 2.57 80 15:38 11.02.2021
2671 Clouds 28 1012 78 10000 2.57 80 15:20 11.02.2021
2672 Clouds 27 1012 83 10000 3.09 70 14:38 11.02.2021
2673 Clouds 27 1012 83 10000 3.09 70 14:19 11.02.2021
2674 Clouds 26 1011 83 10000 2.57 70 13:37 11.02.2021
2675 Clouds 26 1011 83 10000 2.57 70 13:18 11.02.2021
2676 Clouds 25 1010 88 10000 3.6 70 12:37 11.02.2021
2677 Clouds 25 1010 88 10000 3.6 70 11:58 11.02.2021
2678 Clouds 25 1009 94 10000 2.57 70 11:40 11.02.2021
2679 Clouds 25 1009 94 10000 2.57 70 11:20 11.02.2021
2680 Clouds 25 1009 88 10000 3.09 60 10:42 11.02.2021
2681 Clouds 25 1009 88 10000 3.09 60 10:22 11.02.2021
2682 Rain 25 1009 88 10000 2.57 60 09:42 11.02.2021
2683 Rain 25 1009 88 10000 2.57 60 09:19 11.02.2021
2684 Rain 25 1009 88 10000 2.57 60 09:19 11.02.2021
2685 Rain 25 1009 94 10000 2.57 50 08:49 11.02.2021
2686 Clouds 25 1009 94 10000 2.57 50 07:54 11.02.2021
2687 Clouds 26 1010 89 10000 2.06 80 06:48 11.02.2021
2688 Clouds 26 1010 89 10000 2.06 80 06:25 11.02.2021
2689 Clouds 26 1010 89 10000 2.06 60 03:47 11.02.2021
2690 Clouds 26 1009 89 10000 2.06 70 02:26 11.02.2021
2691 Clouds 27 1008 83 10000 2.57 80 00:24 11.02.2021
2692 Clouds 27 1008 83 10000 2.57 80 23:59 10.02.2021
2693 Clouds 29 1007 74 10000 3.09 70 23:28 10.02.2021
2694 Clouds 31 1006 66 10000 3.09 50 22:48 10.02.2021
2695 Clouds 31 1006 66 10000 3.09 50 22:24 10.02.2021
2696 Clouds 31 1007 70 10000 2.06 70 21:40 10.02.2021
2697 Clouds 31 1007 70 10000 2.06 70 21:21 10.02.2021
2698 Clouds 32 1007 62 10000 4.12 50 20:52 10.02.2021
2699 Clouds 32 1007 62 10000 4.12 50 20:29 10.02.2021
2700 Clouds 31 1007 62 10000 3.6 10 19:57 10.02.2021
2701 Clouds 31 1009 62 10000 4.63 40 19:39 10.02.2021
2702 Clouds 31 1009 62 10000 4.63 40 19:18 10.02.2021
2703 Clouds 29 1010 70 10000 3.09 70 18:36 10.02.2021
2704 Clouds 29 1010 70 10000 3.09 70 18:18 10.02.2021
2705 Clouds 30 1011 70 10000 4.12 70 17:44 10.02.2021
2706 Clouds 30 1011 70 10000 4.12 70 17:20 10.02.2021
2707 Clouds 30 1011 74 10000 3.6 60 16:46 10.02.2021
2708 Clouds 30 1011 74 10000 3.6 60 16:25 10.02.2021
2709 Clouds 28 1012 83 10000 1.54 90 15:25 10.02.2021
2710 Clouds 28 1012 83 10000 1.54 90 14:58 10.02.2021
2711 Clouds 27 1012 83 10000 1.54 80 14:39 10.02.2021
2712 Clouds 27 1012 74 10000 3.09 60 13:55 10.02.2021
2713 Clouds 25 1011 94 10000 1.54 80 13:31 10.02.2021
2714 Clouds 25 1011 94 10000 1.54 80 12:55 10.02.2021
2715 Clouds 24 1010 94 10000 0.51 120 12:31 10.02.2021
2716 Clouds 23 1010 100 10000 1.54 80 11:59 10.02.2021
2717 Clouds 23 1010 100 10000 1.54 80 11:40 10.02.2021
2718 Clouds 23 1010 100 10000 1.54 80 11:22 10.02.2021
2719 Rain 23 1009 100 10000 2.06 30 10:37 10.02.2021
2720 Rain 23 1009 100 10000 2.06 30 10:18 10.02.2021
2721 Rain 23 1009 100 10000 1.03 60 09:33 10.02.2021
2722 Rain 23 1009 100 10000 2.06 10 08:57 10.02.2021
2723 Rain 23 1009 100 10000 2.06 350 08:39 10.02.2021
2724 Rain 23 1010 100 10000 2.06 60 07:41 10.02.2021
2725 Rain 23 1011 100 10000 1.03 20 06:33 10.02.2021
2726 Rain 25 1011 94 2000 5.14 60 02:26 10.02.2021
2727 Clouds 27 1009 83 10000 2.06 240 00:24 10.02.2021
2728 Clouds 28 1008 78 10000 1.54 250 23:34 09.02.2021
2729 Clouds 28 1008 78 10000 1.54 250 22:54 09.02.2021
2730 Clouds 28 1008 78 10000 3.6 250 22:24 09.02.2021
2731 Rain 29 1008 74 10000 3.09 260 21:52 09.02.2021
2732 Clouds 29 1008 74 10000 3.09 260 21:27 09.02.2021
2733 Rain 30 1008 70 10000 2.57 320 20:46 09.02.2021
2734 Rain 30 1008 70 10000 2.57 320 20:26 09.02.2021
2735 Rain 29 1008 79 10000 2.06 270 19:55 09.02.2021
2736 Rain 29 1009 74 10000 2.06 20 19:31 09.02.2021
2737 Rain 29 1010 74 10000 2.57 300 18:58 09.02.2021
2738 Rain 29 1011 70 10000 2.57 20 18:36 09.02.2021
2739 Rain 29 1011 70 10000 2.57 20 17:57 09.02.2021
2740 Rain 29 1012 74 10000 3.6 30 17:36 09.02.2021
2741 Rain 29 1012 74 10000 3.6 30 17:18 09.02.2021
2742 Rain 29 1012 74 10000 3.6 360 16:39 09.02.2021
2743 Clouds 29 1012 74 10000 3.6 360 16:18 09.02.2021
2744 Clouds 28 1013 78 10000 2.57 360 15:47 09.02.2021
2745 Clouds 28 1013 78 10000 2.57 360 15:24 09.02.2021
2746 Clouds 26 1012 83 10000 1.03 340 14:49 09.02.2021
2747 Clouds 26 1012 83 10000 1.03 340 14:26 09.02.2021
2748 Clouds 25 1012 89 10000 1.54 320 13:45 09.02.2021
2749 Clouds 25 1012 89 10000 1.54 320 13:21 09.02.2021
2750 Clouds 25 1011 88 10000 1.54 350 12:48 09.02.2021
2751 Clouds 25 1011 88 10000 1.54 350 12:28 09.02.2021
2752 Clouds 25 1010 88 10000 1.54 330 11:44 09.02.2021
2753 Clouds 25 1010 88 10000 1.54 330 11:44 09.02.2021
2754 Clouds 25 1010 88 10000 1.54 330 11:23 09.02.2021
2755 Clouds 25 1010 88 10000 1.54 330 10:58 09.02.2021
2756 Clouds 24 1009 94 10000 1.54 330 10:23 09.02.2021
2757 Clouds 24 1009 94 10000 1.54 330 09:59 09.02.2021
2758 Rain 24 1009 94 10000 1.54 320 09:40 09.02.2021
2759 Clouds 24 1009 94 10000 1.54 320 09:20 09.02.2021
2760 Clouds 24 1009 94 10000 2.06 340 08:30 09.02.2021
2761 Clouds 24 1009 94 10000 2.06 340 07:54 09.02.2021
2762 Clouds 25 1010 88 10000 2.57 360 05:35 09.02.2021
2763 Clouds 26 1010 83 10000 3.09 30 03:49 09.02.2021
2764 Clouds 26 1010 89 10000 3.6 20 01:57 09.02.2021
2765 Clouds 27 1008 83 10000 1.03 90 00:31 09.02.2021
2766 Clouds 28 1007 78 10000 1.54 50 23:44 08.02.2021
2767 Clouds 28 1007 78 10000 1.54 50 23:19 08.02.2021
2768 Clouds 28 1007 74 10000 2.06 10 22:43 08.02.2021
2769 Clouds 28 1007 74 10000 2.06 10 22:22 08.02.2021
2770 Clouds 26 1008 83 10000 2.57 30 21:46 08.02.2021
2771 Clouds 26 1008 83 10000 2.57 30 21:23 08.02.2021
2772 Clouds 27 1009 78 10000 4.63 40 20:44 08.02.2021
2773 Clouds 27 1009 78 10000 4.63 40 20:25 08.02.2021
2774 Clouds 27 1010 78 10000 4.12 350 19:59 08.02.2021
2775 Clouds 27 1010 78 10000 4.12 350 19:41 08.02.2021
2776 Clouds 27 1010 78 10000 4.12 350 19:21 08.02.2021
2777 Rain 27 1011 79 10000 1.54 180 18:42 08.02.2021
2778 Rain 27 1011 79 10000 1.54 180 18:19 08.02.2021
2779 Clouds 29 1012 79 10000 1.03 100 17:43 08.02.2021
2780 Clouds 29 1012 79 10000 1.03 100 17:23 08.02.2021
2781 Clouds 28 1013 89 10000 0.51 150 16:41 08.02.2021
2782 Clouds 28 1013 89 10000 0.51 150 16:21 08.02.2021
2783 Clouds 28 1013 74 10000 1.03 180 15:41 08.02.2021
2784 Clouds 28 1013 74 10000 1.03 180 15:19 08.02.2021
2785 Clouds 27 1013 83 10000 1.03 350 14:51 08.02.2021
2786 Clouds 27 1013 83 10000 1.03 350 14:30 08.02.2021
2787 Clouds 27 1013 83 10000 1.03 350 13:56 08.02.2021
2788 Clouds 25 1013 88 10000 0.51 130 13:32 08.02.2021
2789 Clouds 24 1011 94 10000 2.06 20 12:51 08.02.2021
2790 Clouds 24 1011 94 10000 2.06 20 12:33 08.02.2021
2791 Clear 24 1011 94 10000 2.06 350 11:43 08.02.2021
2792 Clear 24 1011 94 10000 2.06 350 11:18 08.02.2021
2793 Clear 23 1010 94 10000 1.54 50 10:42 08.02.2021
2794 Clear 23 1010 94 10000 1.54 50 10:23 08.02.2021
2795 Clear 23 1009 94 10000 1.54 50 09:50 08.02.2021
2796 Clear 23 1009 94 10000 1.54 50 09:22 08.02.2021
2797 Clear 24 1010 94 10000 1.54 20 08:31 08.02.2021
2798 Clear 24 1010 94 10000 1.54 40 07:49 08.02.2021
2799 Clear 24 1010 94 10000 1.54 40 07:21 08.02.2021
2800 Clear 24 1011 94 10000 2.06 20 05:28 08.02.2021
2801 Clear 25 1011 88 10000 1.54 20 02:27 08.02.2021
2802 Rain 25 1009 88 10000 1.54 80 00:26 08.02.2021
2803 Rain 25 1009 88 10000 1.54 80 23:56 07.02.2021
2804 Rain 26 1009 83 10000 1.54 60 23:37 07.02.2021
2805 Rain 26 1009 83 10000 1.54 60 23:18 07.02.2021
2806 Clouds 26 1009 83 10000 2.57 40 22:42 07.02.2021
2807 Rain 26 1009 83 10000 2.57 40 22:24 07.02.2021
2808 Clouds 26 1009 83 10000 4.12 20 21:51 07.02.2021
2809 Rain 26 1009 83 10000 4.12 20 21:26 07.02.2021
2810 Rain 27 1010 83 10000 4.63 30 20:51 07.02.2021
2811 Clouds 27 1010 83 10000 4.63 30 20:33 07.02.2021
2812 Clouds 26 1011 83 9000 5.66 50 19:54 07.02.2021
2813 Clouds 26 1011 83 9000 5.66 50 19:30 07.02.2021
2814 Clouds 29 1011 78 10000 2.57 90 18:52 07.02.2021
2815 Clouds 29 1011 78 10000 2.57 90 18:52 07.02.2021
2816 Clouds 29 1011 78 10000 2.57 90 18:34 07.02.2021
2817 Clouds 29 1011 79 10000 1.54 240 17:59 07.02.2021
2818 Rain 28 1012 83 10000 2.06 190 17:40 07.02.2021
2819 Clouds 28 1012 83 10000 2.06 190 17:18 07.02.2021
2820 Clouds 28 1012 83 10000 2.06 190 17:18 07.02.2021
2821 Clouds 28 1013 78 10000 1.54 50 16:44 07.02.2021
2822 Clouds 28 1013 78 10000 1.54 50 16:22 07.02.2021
2823 Clouds 28 1013 78 10000 1.54 50 16:22 07.02.2021
2824 Clouds 28 1013 94 10000 1.03 80 15:47 07.02.2021
2825 Clouds 28 1014 89 7000 2.06 240 15:28 07.02.2021
2826 Rain 27 1013 89 10000 3.09 220 14:47 07.02.2021
2827 Rain 27 1013 89 10000 3.09 220 14:29 07.02.2021
2828 Rain 26 1013 94 10000 1.54 180 13:52 07.02.2021
2829 Rain 26 1013 94 10000 1.54 180 13:34 07.02.2021
2830 Rain 25 1012 94 10000 1.54 210 12:45 07.02.2021
2831 Rain 25 1012 94 10000 1.54 210 12:22 07.02.2021
2832 Rain 25 1012 94 10000 1.03 20 11:50 07.02.2021
2833 Rain 25 1011 94 10000 1.03 190 11:27 07.02.2021
2834 Rain 25 1011 94 10000 1.03 170 10:49 07.02.2021
2835 Rain 25 1011 94 10000 1.03 170 10:49 07.02.2021
2836 Clouds 25 1011 94 10000 1.03 170 10:25 07.02.2021
2837 Clear 24 1011 100 10000 1.03 10 09:48 07.02.2021
2838 Clear 24 1011 100 10000 1.03 10 09:21 07.02.2021
2839 Clear 24 1011 100 10000 1.03 10 09:21 07.02.2021
2840 Clear 25 1011 83 10000 1.03 350 08:26 07.02.2021
2841 Clear 25 1011 89 10000 1.03 330 07:32 07.02.2021
2842 Clouds 25 1012 94 10000 1.03 280 05:57 07.02.2021
2843 Clouds 25 1012 94 10000 1.03 350 03:52 07.02.2021
2844 Clouds 26 1010 89 10000 3.09 360 01:37 07.02.2021
2845 Rain 26 1010 89 10000 3.09 340 00:35 07.02.2021
2846 Rain 26 1009 89 10000 2.06 10 23:46 06.02.2021
2847 Clouds 26 1009 83 10000 2.57 350 22:41 06.02.2021
2848 Rain 26 1009 89 10000 3.6 20 21:42 06.02.2021
2849 Rain 26 1009 89 10000 3.6 20 21:22 06.02.2021
2850 Rain 25 1010 89 10000 4.63 350 20:52 06.02.2021
2851 Rain 25 1010 89 10000 4.63 350 20:25 06.02.2021
2852 Rain 25 1010 89 10000 4.63 350 19:57 06.02.2021
2853 Rain 25 1011 94 10000 2.06 20 19:32 06.02.2021
2854 Clouds 24 1012 94 3000 0.51 10 18:52 06.02.2021
2855 Rain 24 1012 94 3000 0.51 10 18:32 06.02.2021
2856 Rain 27 1012 74 3000 5.14 10 17:49 06.02.2021
2857 Rain 27 1012 74 3000 5.14 10 17:49 06.02.2021
2858 Clouds 30 1012 70 10000 2.57 240 17:22 06.02.2021
2859 Clouds 29 1013 74 10000 3.09 270 16:59 06.02.2021
2860 Clouds 29 1013 74 10000 3.09 270 16:41 06.02.2021
2861 Clouds 29 1013 74 10000 3.09 270 16:22 06.02.2021
2862 Clouds 28 1014 78 10000 3.09 240 15:48 06.02.2021
2863 Clouds 28 1014 78 10000 3.09 240 15:22 06.02.2021
2864 Clouds 27 1013 83 10000 2.06 230 14:45 06.02.2021
2865 Clouds 27 1013 83 10000 2.06 230 14:26 06.02.2021
2866 Clouds 25 1013 94 10000 2.06 220 13:49 06.02.2021
2867 Clouds 25 1013 94 10000 2.06 220 13:29 06.02.2021
2868 Clouds 25 1012 94 8000 3.09 240 12:22 06.02.2021
2869 Clouds 25 1011 100 10000 2.57 220 11:48 06.02.2021
2870 Clouds 25 1011 100 10000 2.57 220 11:25 06.02.2021
2871 Clouds 25 1011 94 10000 2.57 260 10:57 06.02.2021
2872 Clouds 26 1010 94 10000 0.51 150 10:39 06.02.2021
2873 Clouds 26 1010 94 10000 0.51 150 10:20 06.02.2021
2874 Clouds 26 1010 94 10000 1.03 150 09:37 06.02.2021
2875 Clouds 26 1010 94 10000 1.03 150 09:18 06.02.2021
2876 Clouds 26 1010 94 10000 1.03 150 09:18 06.02.2021
2877 Clouds 26 1011 89 10000 0.51 160 08:39 06.02.2021
2878 Clouds 26 1011 89 10000 0.51 160 08:20 06.02.2021
2879 Clouds 27 1012 89 10000 0.51 180 05:44 06.02.2021
2880 Rain 27 1012 89 10000 0.51 190 04:36 06.02.2021
2881 Rain 28 1010 78 10000 1.03 30 02:26 06.02.2021
2882 Clouds 29 1008 74 10000 1.54 60 00:48 06.02.2021
2883 Clouds 29 1008 74 10000 1.54 60 00:20 06.02.2021
2884 Clouds 30 1007 70 9000 2.57 70 23:44 05.02.2021
2885 Clouds 30 1007 70 9000 2.57 70 23:26 05.02.2021
2886 Clouds 32 1006 66 10000 3.09 50 22:47 05.02.2021
2887 Clouds 32 1006 66 10000 3.09 50 22:23 05.02.2021
2888 Clouds 31 1006 66 10000 2.57 70 21:47 05.02.2021
2889 Clouds 31 1006 66 10000 2.57 70 21:28 05.02.2021
2890 Clouds 31 1007 70 10000 2.57 60 20:46 05.02.2021
2891 Clouds 31 1008 70 10000 2.57 70 19:52 05.02.2021
2892 Clouds 31 1008 70 10000 2.57 70 19:20 05.02.2021
2893 Clouds 31 1008 70 10000 2.57 70 18:53 05.02.2021
2894 Clouds 32 1010 66 10000 2.57 80 18:27 05.02.2021
2895 Clouds 32 1011 66 10000 3.6 20 17:44 05.02.2021
2896 Clouds 32 1011 66 10000 3.6 20 17:22 05.02.2021
2897 Clouds 30 1012 74 10000 4.12 20 16:49 05.02.2021
2898 Clouds 30 1012 74 10000 4.12 20 16:24 05.02.2021
2899 Clouds 29 1012 74 10000 4.12 20 15:54 05.02.2021
2900 Clouds 29 1012 79 10000 4.63 10 15:26 05.02.2021
2901 Clouds 28 1012 79 10000 3.6 40 14:41 05.02.2021
2902 Clouds 28 1012 79 10000 3.6 40 14:23 05.02.2021
2903 Clouds 28 1012 79 10000 3.6 40 14:23 05.02.2021
2904 Clouds 28 1012 79 10000 3.6 40 13:59 05.02.2021
2905 Clouds 28 1012 79 10000 3.6 40 13:59 05.02.2021
2906 Clouds 27 1011 89 10000 1.54 40 13:36 05.02.2021
2907 Clouds 27 1011 89 10000 1.54 40 12:55 05.02.2021
2908 Clear 25 1010 89 10000 1.03 10 12:36 05.02.2021
2909 Clear 25 1009 89 10000 1.54 310 11:41 05.02.2021
2910 Clear 25 1009 89 10000 1.54 310 11:21 05.02.2021
2911 Clear 25 1009 89 10000 1.54 310 10:58 05.02.2021
2912 Clear 25 1008 89 10000 1.54 330 10:27 05.02.2021
2913 Clear 25 1008 89 10000 1.54 20 09:47 05.02.2021
2914 Clear 25 1008 89 10000 1.54 20 09:28 05.02.2021
2915 Clear 25 1008 89 10000 1.54 20 08:53 05.02.2021
2916 Clear 25 1009 94 10000 1.54 360 08:22 05.02.2021
2917 Clear 25 1010 89 10000 1.03 320 07:36 05.02.2021
2918 Clear 26 1011 89 10000 1.03 350 06:52 05.02.2021
2919 Clear 26 1011 94 10000 1.03 260 05:37 05.02.2021
2920 Clouds 26 1010 89 10000 1.04 69 03:18 05.02.2021
2921 Clouds 27 1009 78 10000 2.06 70 02:24 05.02.2021
2922 Clouds 27 1007 74 10000 2.06 40 00:40 05.02.2021
2923 Clouds 27 1007 74 10000 2.06 40 00:20 05.02.2021
2924 Clouds 27 1007 74 10000 2.06 40 23:57 04.02.2021
2925 Clouds 29 1006 70 10000 2.06 70 23:39 04.02.2021
2926 Clouds 29 1006 70 10000 2.06 70 23:20 04.02.2021
2927 Clouds 29 1006 70 10000 2.06 70 23:20 04.02.2021
2928 Clouds 28 1007 74 10000 2.57 60 22:51 04.02.2021
2929 Clouds 28 1007 74 10000 2.57 60 22:51 04.02.2021
2930 Clouds 28 1007 74 10000 2.57 60 22:26 04.02.2021
2931 Clouds 30 1008 66 10000 2.06 70 21:42 04.02.2021
2932 Clouds 30 1008 66 10000 2.06 70 21:20 04.02.2021
2933 Clouds 31 1008 66 10000 1.54 130 20:48 04.02.2021
2934 Clouds 31 1008 66 10000 1.54 130 20:29 04.02.2021
2935 Clouds 32 1010 66 10000 2.57 80 19:43 04.02.2021
2936 Clouds 32 1010 66 10000 2.57 80 18:57 04.02.2021
2937 Clouds 32 1011 66 10000 2.57 70 18:26 04.02.2021
2938 Clouds 32 1011 66 10000 2.57 70 17:53 04.02.2021
2939 Clouds 31 1012 70 10000 2.57 70 17:27 04.02.2021
2940 Clouds 31 1012 70 10000 2.57 70 16:56 04.02.2021
2941 Clouds 30 1012 74 10000 1.54 140 16:38 04.02.2021
2942 Clouds 30 1012 74 10000 1.54 140 16:18 04.02.2021
2943 Clouds 29 1013 79 10000 1.03 110 15:40 04.02.2021
2944 Clouds 29 1013 79 10000 1.03 110 15:20 04.02.2021
2945 Clouds 28 1013 83 10000 1.03 130 14:47 04.02.2021
2946 Clouds 28 1013 83 10000 1.03 130 14:20 04.02.2021
2947 Clouds 27 1013 89 10000 1.54 180 13:45 04.02.2021
2948 Clouds 27 1013 89 10000 1.54 180 13:25 04.02.2021
2949 Clouds 26 1012 94 10000 1.03 180 12:52 04.02.2021
2950 Clouds 26 1012 94 10000 1.54 170 11:57 04.02.2021
2951 Clouds 25 1011 94 10000 1.03 170 11:37 04.02.2021
2952 Clouds 25 1011 94 10000 1.03 170 10:58 04.02.2021
2953 Clouds 25 1010 100 10000 1.03 160 10:34 04.02.2021
2954 Clouds 25 1010 100 10000 1.03 160 09:45 04.02.2021
2955 Clouds 25 1010 100 10000 1.03 160 09:22 04.02.2021
2956 Clouds 25 1010 100 10000 1.03 160 09:22 04.02.2021
2957 Clear 25 1010 100 10000 1.11 170 08:51 04.02.2021
2958 Clear 25 1010 100 10000 1.16 182 08:26 04.02.2021
2959 Clear 25 1010 100 10000 1.16 182 07:56 04.02.2021
2960 Clouds 25 1011 100 10000 1.16 182 07:33 04.02.2021
2961 Clear 25 1011 100 10000 0.74 176 06:45 04.02.2021
2962 Clear 25 1012 100 10000 0.53 193 05:45 04.02.2021
2963 Clear 25 1010 94 10000 0.21 219 02:40 04.02.2021
2964 Clear 25 1010 94 10000 0.34 157 02:18 04.02.2021
2965 Clouds 26 1009 89 10000 1.54 80 00:20 04.02.2021
2966 Clouds 28 1008 78 10000 1.03 100 23:30 03.02.2021
2967 Clouds 28 1008 83 10000 1.54 90 22:38 03.02.2021
2968 Clouds 28 1008 83 10000 1.54 90 22:20 03.02.2021
2969 Clouds 28 1008 78 10000 3.09 80 21:51 03.02.2021
2970 Clouds 28 1008 78 10000 3.09 80 21:24 03.02.2021
2971 Clouds 29 1010 70 10000 3.09 70 20:51 03.02.2021
2972 Clouds 29 1010 70 10000 3.09 70 20:31 03.02.2021
2973 Clouds 29 1010 70 10000 3.09 70 19:55 03.02.2021
2974 Clouds 29 1011 74 10000 4.63 60 19:25 03.02.2021
2975 Clouds 29 1011 74 10000 4.63 60 18:58 03.02.2021
2976 Clouds 28 1012 78 10000 2.06 70 18:38 03.02.2021
2977 Rain 28 1012 78 10000 2.06 70 18:19 03.02.2021
2978 Rain 27 1013 83 10000 1.54 80 17:44 03.02.2021
2979 Rain 27 1013 83 10000 1.54 80 17:24 03.02.2021
2980 Clouds 27 1013 83 10000 1.54 100 16:42 03.02.2021
2981 Clouds 27 1013 83 10000 1.54 100 16:22 03.02.2021
2982 Rain 27 1014 83 10000 2.06 80 15:40 03.02.2021
2983 Clouds 27 1014 83 10000 2.06 80 15:22 03.02.2021
2984 Rain 26 1013 89 10000 2.57 70 14:45 03.02.2021
2985 Rain 26 1013 89 10000 2.57 70 14:22 03.02.2021
2986 Rain 25 1013 94 10000 1.54 30 13:47 03.02.2021
2987 Rain 25 1013 94 10000 1.54 30 13:21 03.02.2021
2988 Rain 24 1012 94 10000 1.54 30 12:42 03.02.2021
2989 Rain 24 1012 94 10000 1.54 30 12:20 03.02.2021
2990 Rain 24 1011 94 10000 1.54 50 11:42 03.02.2021
2991 Rain 24 1011 94 10000 1.54 50 11:23 03.02.2021
2992 Clouds 24 1011 94 10000 2.57 10 10:41 03.02.2021
2993 Clouds 24 1011 94 10000 2.57 10 10:19 03.02.2021
2994 Clouds 24 1010 94 10000 1.54 310 09:40 03.02.2021
2995 Clouds 24 1010 94 10000 1.54 310 09:20 03.02.2021
2996 Clouds 24 1010 94 10000 1.54 310 08:46 03.02.2021
2997 Clouds 24 1010 94 10000 1.54 310 07:58 03.02.2021
2998 Clouds 24 1011 94 10000 1.03 210 06:43 03.02.2021
2999 Clouds 24 1011 94 10000 1.03 210 06:20 03.02.2021
3000 Clear 24 1012 100 10000 1.03 250 04:45 03.02.2021
3001 Clear 24 1012 100 10000 1.03 250 03:53 03.02.2021
3002 Clouds 25 1011 88 10000 2.06 240 02:42 03.02.2021
3003 Clouds 25 1010 88 10000 2.06 230 01:48 03.02.2021
3004 Rain 25 1009 94 10000 1.54 260 00:24 03.02.2021
3005 Rain 26 1008 83 10000 1.54 290 23:44 02.02.2021
3006 Rain 26 1008 83 10000 1.54 290 23:26 02.02.2021
3007 Rain 25 1008 94 10000 0.81 95 22:47 02.02.2021
3008 Rain 25 1008 94 10000 1.22 110 22:21 02.02.2021
3009 Rain 25 1008 88 10000 1.03 20 21:46 02.02.2021
3010 Clouds 25 1008 88 10000 1.03 20 21:27 02.02.2021
3011 Rain 25 1008 88 9000 3.6 50 20:49 02.02.2021
3012 Rain 25 1008 88 9000 3.6 50 20:23 02.02.2021
3013 Rain 25 1009 88 10000 6.69 40 19:55 02.02.2021
3014 Rain 25 1009 88 10000 6.69 40 19:37 02.02.2021
3015 Rain 25 1009 88 10000 6.69 40 19:18 02.02.2021
3016 Clouds 26 1010 89 6000 6.69 50 18:41 02.02.2021
3017 Clouds 27 1010 83 10000 4.63 30 18:22 02.02.2021
3018 Clouds 28 1011 83 10000 3.09 30 17:39 02.02.2021
3019 Clouds 27 1011 83 10000 3.09 30 17:21 02.02.2021
3020 Clouds 25 1011 94 8000 4.12 360 16:50 02.02.2021
3021 Clouds 25 1011 94 8000 4.12 360 16:30 02.02.2021
3022 Clouds 26 1011 88 10000 1.54 130 15:57 02.02.2021
3023 Clouds 26 1011 88 10000 1.54 130 15:57 02.02.2021
3024 Clouds 28 1011 83 10000 3.6 280 15:32 02.02.2021
3025 Clouds 28 1012 89 10000 1.54 220 14:55 02.02.2021
3026 Clouds 28 1011 89 10000 1.03 210 14:34 02.02.2021
3027 Clouds 28 1011 83 10000 1.03 10 13:59 02.02.2021
3028 Clouds 27 1011 94 10000 0.51 220 13:41 02.02.2021
3029 Clouds 27 1011 94 10000 0.51 220 13:22 02.02.2021
3030 Clouds 26 1010 100 10000 1.03 240 12:51 02.02.2021
3031 Clouds 26 1010 100 10000 1.03 240 11:56 02.02.2021
3032 Clouds 25 1009 94 10000 1.03 220 11:38 02.02.2021
3033 Clouds 25 1009 94 10000 1.03 220 11:18 02.02.2021
3034 Clouds 25 1010 94 10000 1.03 80 10:43 02.02.2021
3035 Clouds 25 1010 94 10000 1.03 80 10:25 02.02.2021
3036 Clouds 25 1009 94 10000 1.03 70 09:41 02.02.2021
3037 Clouds 25 1009 94 10000 1.03 70 09:20 02.02.2021
3038 Clouds 25 1009 94 10000 1.03 70 08:36 02.02.2021
3039 Clouds 25 1009 94 10000 1.03 50 07:46 02.02.2021
3040 Clouds 26 1010 94 10000 1.03 50 06:49 02.02.2021
3041 Clouds 26 1010 94 10000 1.03 50 06:31 02.02.2021
3042 Clouds 26 1010 94 10000 1.02 328 05:50 02.02.2021
3043 Rain 27 1010 94 10000 1.54 280 02:57 02.02.2021
3044 Rain 27 1009 83 10000 2.06 300 02:24 02.02.2021
3045 Clouds 28 1007 83 10000 1.54 240 00:38 02.02.2021
3046 Clouds 29 1006 74 10000 1.03 60 23:47 01.02.2021
3047 Clouds 29 1006 74 10000 1.03 60 22:53 01.02.2021
3048 Clouds 31 1006 62 10000 2.57 50 22:35 01.02.2021
3049 Clouds 31 1006 62 10000 2.57 50 21:57 01.02.2021
3050 Clouds 31 1006 66 10000 3.09 70 21:39 01.02.2021
3051 Clouds 31 1006 66 10000 3.09 70 21:20 01.02.2021
3052 Clouds 30 1008 79 10000 3.6 270 20:41 01.02.2021
3053 Clouds 30 1008 79 10000 3.6 270 20:22 01.02.2021
3054 Clouds 30 1009 70 10000 3.6 20 19:41 01.02.2021
3055 Clouds 30 1009 70 10000 3.6 20 19:21 01.02.2021
3056 Clouds 30 1010 70 10000 2.57 60 18:49 01.02.2021
3057 Clouds 30 1010 70 10000 2.57 60 18:29 01.02.2021
3058 Clouds 31 1011 70 10000 2.06 190 17:48 01.02.2021
3059 Clouds 31 1011 70 10000 2.06 190 17:26 01.02.2021
3060 Clouds 30 1011 70 10000 2.06 190 16:58 01.02.2021
3061 Clouds 29 1012 74 10000 2.06 70 16:30 01.02.2021
3062 Clouds 29 1012 79 10000 2.06 20 15:48 01.02.2021
3063 Clouds 29 1012 79 10000 2.06 20 15:19 01.02.2021
3064 Clouds 27 1012 83 10000 1.03 150 14:52 01.02.2021
3065 Clouds 27 1012 83 10000 1.03 150 14:52 01.02.2021
3066 Clouds 27 1012 83 10000 1.03 150 14:33 01.02.2021
3067 Clouds 26 1011 89 10000 1.54 80 13:51 01.02.2021
3068 Clouds 26 1011 89 10000 1.54 80 13:28 01.02.2021
3069 Clouds 26 1011 89 10000 1.54 80 12:58 01.02.2021
3070 Clouds 25 1010 94 10000 1.03 140 12:40 01.02.2021
3071 Clouds 25 1010 94 10000 1.03 140 12:40 01.02.2021
3072 Clouds 25 1010 94 10000 1.03 140 12:21 01.02.2021
3073 Clouds 24 1010 100 10000 1.03 160 11:40 01.02.2021
3074 Clouds 24 1010 100 10000 1.03 160 11:19 01.02.2021
3075 Clouds 24 1009 100 10000 1.03 150 10:44 01.02.2021
3076 Clouds 24 1009 100 10000 1.03 150 10:19 01.02.2021
3077 Clouds 24 1009 100 10000 1.03 160 09:43 01.02.2021
3078 Clouds 24 1009 100 10000 1.03 160 09:20 01.02.2021
3079 Clouds 24 1009 100 10000 1.03 160 08:44 01.02.2021
3080 Clouds 25 1009 94 10000 1.03 160 07:37 01.02.2021
3081 Clouds 25 1010 94 10000 1.03 160 06:20 01.02.2021
3082 Clear 25 1010 94 10000 1.03 60 03:21 01.02.2021
3083 Clear 27 1007 83 10000 0.51 40 00:58 01.02.2021
3084 Clouds 29 1007 74 10000 2.06 80 23:42 31.01.2021
3085 Clouds 31 1007 66 10000 2.57 70 22:43 31.01.2021
3086 Clouds 31 1007 66 10000 2.57 70 22:24 31.01.2021
3087 Clouds 31 1007 70 10000 2.06 80 21:50 31.01.2021
3088 Clouds 31 1007 70 10000 2.06 80 21:23 31.01.2021
3089 Clouds 31 1007 70 10000 2.06 80 21:23 31.01.2021
3090 Clouds 32 1008 66 10000 1.54 90 20:50 31.01.2021
3091 Clouds 32 1008 66 10000 1.54 90 20:50 31.01.2021
3092 Clouds 32 1008 66 10000 1.54 90 20:22 31.01.2021
3093 Clouds 31 1008 66 9000 3.09 40 19:56 31.01.2021
3094 Clouds 31 1010 70 10000 2.57 80 19:37 31.01.2021
3095 Clouds 31 1010 70 10000 2.57 80 19:19 31.01.2021
3096 Clouds 31 1011 70 10000 1.54 110 18:41 31.01.2021
3097 Clouds 31 1011 70 10000 1.54 110 18:41 31.01.2021
3098 Clouds 31 1011 70 10000 1.54 110 18:21 31.01.2021
3099 Clouds 31 1012 66 10000 3.6 70 17:47 31.01.2021
3100 Clouds 31 1012 66 10000 3.6 70 17:23 31.01.2021
3101 Clouds 29 1013 74 10000 3.09 80 16:51 31.01.2021
3102 Clouds 29 1013 74 10000 3.09 80 16:51 31.01.2021
3103 Clouds 29 1013 74 10000 3.09 80 16:33 31.01.2021
3104 Clouds 28 1013 78 10000 3.09 70 15:52 31.01.2021
3105 Clouds 28 1013 78 10000 3.09 70 15:34 31.01.2021
3106 Clouds 28 1013 78 10000 1.03 80 14:44 31.01.2021
3107 Clouds 28 1013 78 10000 1.03 80 14:24 31.01.2021
3108 Clouds 28 1013 78 10000 1.03 80 13:53 31.01.2021
3109 Clouds 26 1013 89 10000 1.54 80 13:35 31.01.2021
3110 Clear 25 1012 88 10000 1.54 80 12:49 31.01.2021
3111 Clear 25 1012 88 10000 1.54 80 12:23 31.01.2021
3112 Clouds 24 1011 88 10000 2.06 80 11:47 31.01.2021
3113 Clouds 24 1011 88 10000 2.06 80 11:29 31.01.2021
3114 Clouds 24 1011 88 10000 2.06 80 10:59 31.01.2021
3115 Clouds 24 1011 94 10000 1.03 70 10:35 31.01.2021
3116 Clouds 24 1011 94 10000 1.03 70 09:55 31.01.2021
3117 Clouds 24 1011 94 10000 1.03 70 09:27 31.01.2021
3118 Clouds 24 1011 94 10000 1.03 50 08:34 31.01.2021
3119 Clouds 24 1011 94 10000 1.03 30 06:58 31.01.2021
3120 Clear 25 1012 94 10000 1.03 40 05:40 31.01.2021
3121 Rain 26 1009 89 10000 2.06 40 00:47 31.01.2021
3122 Clouds 26 1009 89 10000 2.06 40 00:22 31.01.2021
3123 Clouds 26 1008 94 10000 2.06 70 23:34 30.01.2021
3124 Clouds 26 1008 94 10000 1.54 60 22:57 30.01.2021
3125 Clouds 26 1009 94 10000 1.54 90 22:30 30.01.2021
3126 Clouds 26 1009 94 10000 1.54 90 22:30 30.01.2021
3127 Clouds 27 1009 89 10000 1.54 160 21:40 30.01.2021
3128 Clouds 27 1009 89 10000 1.54 160 21:22 30.01.2021
3129 Clouds 28 1009 83 10000 1.03 120 20:48 30.01.2021
3130 Clouds 28 1009 83 10000 1.03 120 20:29 30.01.2021
3131 Clouds 27 1011 83 10000 1.54 80 19:46 30.01.2021
3132 Clouds 27 1011 83 10000 1.54 80 19:26 30.01.2021
3133 Rain 27 1012 89 10000 2.06 70 18:43 30.01.2021
3134 Rain 27 1012 89 10000 2.06 70 18:22 30.01.2021
3135 Rain 27 1012 89 10000 2.06 70 17:59 30.01.2021
3136 Clouds 27 1013 78 10000 5.14 50 17:20 30.01.2021
3137 Clouds 27 1014 83 10000 3.6 40 16:47 30.01.2021
3138 Clouds 27 1014 83 10000 3.6 40 16:25 30.01.2021
3139 Clouds 27 1014 83 10000 3.6 40 15:59 30.01.2021
3140 Clouds 27 1014 83 10000 3.6 60 15:40 30.01.2021
3141 Clouds 27 1014 83 10000 3.6 60 15:20 30.01.2021
3142 Clouds 24 1013 94 10000 3.09 30 14:50 30.01.2021
3143 Clouds 24 1013 94 10000 3.09 30 14:22 30.01.2021
3144 Clouds 25 1013 94 1500 2.57 80 13:33 30.01.2021
3145 Clear 24 1011 94 10000 1.03 60 12:49 30.01.2021
3146 Clear 24 1011 94 10000 1.03 60 12:29 30.01.2021
3147 Clear 24 1011 94 10000 1.03 60 12:29 30.01.2021
3148 Clear 24 1011 94 10000 1.03 60 11:59 30.01.2021
3149 Clear 23 1010 100 10000 1.64 52 11:31 30.01.2021
3150 Clear 24 1010 94 10000 2.06 10 10:48 30.01.2021
3151 Clouds 24 1009 94 10000 1.03 350 09:51 30.01.2021
3152 Clouds 24 1009 94 10000 1.03 350 09:30 30.01.2021
3153 Clouds 24 1010 94 10000 1.03 350 08:47 30.01.2021
3154 Clouds 24 1010 100 10000 1.54 350 07:49 30.01.2021
3155 Clouds 24 1010 94 10000 1.03 360 06:51 30.01.2021
3156 Clouds 24 1011 94 10000 1.44 66 05:43 30.01.2021
3157 Clear 24 1011 100 10000 1.03 350 03:35 30.01.2021
3158 Clouds 24 1010 94 10000 1.03 270 02:24 30.01.2021
3159 Clouds 24 1009 100 10000 1.03 360 01:29 30.01.2021
3160 Clouds 25 1009 88 10000 2.06 10 00:39 30.01.2021
3161 Clouds 25 1009 88 10000 2.06 10 00:20 30.01.2021
3162 Clouds 25 1007 94 10000 1.54 70 23:45 29.01.2021
3163 Clouds 25 1007 94 10000 1.54 70 23:21 29.01.2021
3164 Rain 25 1007 94 10000 0.51 320 22:44 29.01.2021
3165 Rain 25 1007 94 10000 0.51 320 22:19 29.01.2021
3166 Rain 25 1008 94 10000 1.03 20 21:28 29.01.2021
3167 Rain 24 1009 94 8000 2.06 30 20:45 29.01.2021
3168 Rain 24 1009 94 8000 2.06 30 20:26 29.01.2021
3169 Rain 24 1009 94 8000 2.06 30 19:57 29.01.2021
3170 Rain 24 1010 94 5000 3.6 50 19:38 29.01.2021
3171 Rain 24 1007 23 5000 3.6 50 19:18 29.01.2021
3172 Rain 25 1011 94 2000 3.6 70 18:21 29.01.2021
3173 Rain 26 1011 94 10000 1.03 140 17:39 29.01.2021
3174 Rain 26 1011 94 10000 1.03 140 17:20 29.01.2021
3175 Rain 27 1012 89 10000 1.54 200 16:45 29.01.2021
3176 Clouds 27 1012 89 10000 1.54 200 16:23 29.01.2021
3177 Clouds 26 1012 89 3000 1.03 310 15:42 29.01.2021
3178 Clouds 25 1012 94 3000 0.51 160 15:24 29.01.2021
3179 Clouds 25 1012 88 10000 1.03 130 14:32 29.01.2021
3180 Clouds 25 1012 88 10000 1.03 130 13:59 29.01.2021
3181 Clouds 25 1011 88 9000 1.03 90 13:37 29.01.2021
3182 Clouds 25 1011 88 9000 1.03 90 13:18 29.01.2021
3183 Clouds 24 1010 94 10000 1.03 90 12:24 29.01.2021
3184 Clouds 24 1009 88 10000 1.03 350 11:47 29.01.2021
3185 Clouds 24 1009 88 10000 1.03 350 11:19 29.01.2021
3186 Clouds 24 1009 88 10000 1.03 350 11:19 29.01.2021
3187 Clouds 24 1009 94 10000 1.54 20 10:48 29.01.2021
3188 Clouds 24 1009 94 10000 1.54 20 10:27 29.01.2021
3189 Clouds 24 1009 88 10000 1.54 350 09:45 29.01.2021
3190 Clouds 24 1009 88 10000 1.54 350 08:57 29.01.2021
3191 Clouds 25 1009 88 10000 2.06 330 08:33 29.01.2021
3192 Clouds 24 1009 94 10000 1.54 330 07:58 29.01.2021
3193 Clouds 25 1010 94 10000 1.03 360 07:40 29.01.2021
3194 Clouds 25 1010 94 10000 1.03 360 07:19 29.01.2021
3195 Clouds 25 1011 94 10000 1.54 330 05:20 29.01.2021
3196 Rain 25 1011 100 10000 1.64 58 02:53 29.01.2021
3197 Rain 25 1009 94 10000 1.03 90 00:39 29.01.2021
3198 Rain 25 1009 94 10000 1.03 90 00:20 29.01.2021
3199 Clouds 25 1008 89 10000 1.54 80 23:43 28.01.2021
3200 Clouds 25 1008 89 10000 1.54 80 23:24 28.01.2021
3201 Clouds 26 1008 83 10000 1.54 70 22:46 28.01.2021
3202 Clouds 26 1008 83 10000 1.54 70 22:26 28.01.2021
3203 Clouds 27 1008 83 10000 1.54 80 21:56 28.01.2021
3204 Clouds 27 1008 83 10000 1.54 80 21:34 28.01.2021
3205 Clouds 27 1008 89 10000 1.54 90 20:57 28.01.2021
3206 Clouds 27 1008 89 10000 1.54 90 20:39 28.01.2021
3207 Clouds 27 1008 89 10000 1.54 90 20:18 28.01.2021
3208 Clouds 27 1009 83 10000 1.54 10 19:40 28.01.2021
3209 Clouds 27 1009 83 10000 1.54 10 19:19 28.01.2021
3210 Clouds 27 1011 83 10000 1.03 310 18:43 28.01.2021
3211 Clouds 27 1011 83 10000 1.03 310 18:20 28.01.2021
3212 Clouds 26 1012 89 10000 2.06 340 17:45 28.01.2021
3213 Clouds 26 1012 89 10000 2.06 340 17:45 28.01.2021
3214 Clouds 26 1012 89 10000 2.06 340 17:26 28.01.2021
3215 Rain 25 1012 89 9000 1.03 40 16:45 28.01.2021
3216 Rain 25 1012 89 9000 1.03 40 16:23 28.01.2021
3217 Rain 24 1013 100 5000 1.03 160 15:44 28.01.2021
3218 Rain 24 1013 100 5000 1.03 160 15:19 28.01.2021
3219 Clouds 24 1012 94 5000 1.03 40 14:42 28.01.2021
3220 Rain 24 1012 94 5000 1.03 40 14:23 28.01.2021
3221 Rain 23 1012 100 8000 1.54 10 13:48 28.01.2021
3222 Rain 23 1012 94 3000 2.57 30 12:59 28.01.2021
3223 Rain 23 1011 94 3000 3.09 60 12:40 28.01.2021
3224 Rain 23 1011 94 3000 3.09 60 12:21 28.01.2021
3225 Rain 23 1010 94 2000 2.06 60 11:43 28.01.2021
3226 Rain 23 1010 94 2000 2.06 60 11:20 28.01.2021
3227 Rain 23 1010 94 2000 2.06 60 10:54 28.01.2021
3228 Rain 24 1009 94 2000 3.09 50 10:34 28.01.2021
3229 Clouds 24 1009 94 10000 1.03 70 09:50 28.01.2021
3230 Clouds 24 1009 94 10000 1.03 70 09:25 28.01.2021
3231 Clouds 24 1009 94 10000 1.03 70 08:56 28.01.2021
3232 Clouds 24 1009 94 10000 1.03 90 08:38 28.01.2021
3233 Clouds 24 1009 94 10000 1.03 70 07:45 28.01.2021
3234 Clouds 25 1009 94 10000 1.03 60 06:50 28.01.2021
3235 Clouds 25 1009 94 10000 1.03 60 06:29 28.01.2021
3236 Clear 26 1010 89 10000 1.54 80 04:28 28.01.2021
3237 Clear 25 1009 94 10000 1.03 80 01:39 28.01.2021
3238 Clouds 27 1008 83 10000 1.54 80 23:49 27.01.2021
3239 Clouds 27 1008 83 10000 1.54 80 23:24 27.01.2021
3240 Clouds 28 1008 83 10000 1.03 70 22:42 27.01.2021
3241 Clouds 28 1008 83 10000 1.03 70 22:22 27.01.2021
3242 Rain 29 1008 79 10000 1.03 100 21:43 27.01.2021
3243 Rain 29 1008 79 10000 1.03 100 21:24 27.01.2021
3244 Rain 29 1009 79 10000 2.06 170 20:55 27.01.2021
3245 Clouds 29 1009 79 10000 2.06 170 20:30 27.01.2021
3246 Clouds 29 1010 74 10000 2.06 190 19:50 27.01.2021
3247 Clouds 29 1010 74 10000 2.06 190 19:26 27.01.2021
3248 Clouds 29 1010 66 10000 3.6 340 18:57 27.01.2021
3249 Clouds 28 1011 74 10000 2.06 220 18:38 27.01.2021
3250 Clouds 28 1011 74 10000 2.06 220 18:20 27.01.2021
3251 Clouds 28 1013 78 10000 1.03 110 17:39 27.01.2021
3252 Clouds 28 1013 78 10000 1.03 110 16:58 27.01.2021
3253 Clouds 26 1013 78 10000 2.57 40 16:39 27.01.2021
3254 Clouds 26 1014 83 10000 3.6 10 16:21 27.01.2021
3255 Clouds 26 1014 83 10000 3.6 10 15:49 27.01.2021
3256 Clouds 26 1014 83 10000 3.6 10 15:29 27.01.2021
3257 Clouds 24 1013 88 10000 2.57 340 14:38 27.01.2021
3258 Clouds 24 1013 94 8000 0.51 10 14:18 27.01.2021
3259 Clouds 24 1013 94 8000 0.51 10 13:35 27.01.2021
3260 Clouds 24 1012 94 10000 2.06 40 12:42 27.01.2021
3261 Clouds 24 1012 94 10000 2.06 40 12:42 27.01.2021
3262 Clouds 24 1011 94 10000 1.54 20 12:24 27.01.2021
3263 Clouds 24 1011 94 10000 1.54 20 11:50 27.01.2021
3264 Clouds 24 1011 94 10000 1.54 20 11:26 27.01.2021
3265 Clear 24 1010 94 10000 1.54 20 10:48 27.01.2021
3266 Clear 24 1010 94 10000 1.54 20 10:26 27.01.2021
3267 Clear 24 1009 94 10000 1.03 330 09:56 27.01.2021
3268 Clear 24 1009 94 10000 1.03 330 09:29 27.01.2021
3269 Clear 24 1009 94 10000 1.03 330 09:29 27.01.2021
3270 Clear 24 1010 94 10000 1.54 20 08:47 27.01.2021
3271 Clear 24 1011 94 10000 1.54 30 07:58 27.01.2021
3272 Clear 24 1011 94 10000 1.54 30 07:38 27.01.2021
3273 Clear 24 1011 94 10000 2.06 30 06:45 27.01.2021
3274 Clear 24 1011 94 10000 2.06 30 05:56 27.01.2021
3275 Clear 24 1011 94 10000 2.06 30 05:34 27.01.2021
3276 Clouds 24 1010 94 10000 1.54 90 02:46 27.01.2021
3277 Clouds 24 1009 94 10000 1.03 40 02:20 27.01.2021
3278 Clouds 24 1009 94 10000 1.03 40 01:32 27.01.2021
3279 Rain 24 1008 94 10000 1.54 20 00:27 27.01.2021
3280 Rain 24 1007 94 10000 2.57 350 23:40 26.01.2021
3281 Rain 24 1007 94 10000 2.57 350 23:40 26.01.2021
3282 Rain 24 1008 94 10000 2.57 20 23:19 26.01.2021
3283 Rain 24 1008 94 10000 2.57 20 22:39 26.01.2021
3284 Rain 24 1009 94 5000 2.57 40 22:19 26.01.2021
3285 Rain 24 1009 94 5000 2.57 40 21:51 26.01.2021
3286 Rain 24 1009 94 5000 2.57 40 21:24 26.01.2021
3287 Rain 24 1009 94 2000 2.06 40 20:43 26.01.2021
3288 Rain 24 1010 100 1000 5.66 60 20:24 26.01.2021
3289 Rain 26 1010 89 2000 5.66 350 19:51 26.01.2021
3290 Rain 26 1010 89 2000 5.66 350 19:30 26.01.2021
3291 Rain 26 1010 89 2000 5.66 350 19:30 26.01.2021
3292 Rain 28 1011 74 10000 2.57 310 18:59 26.01.2021
3293 Rain 28 1011 74 10000 2.57 310 18:41 26.01.2021
3294 Rain 28 1011 74 10000 2.57 310 18:22 26.01.2021
3295 Clouds 27 1012 83 7000 4.12 340 17:47 26.01.2021
3296 Clouds 27 1012 83 7000 4.12 340 17:22 26.01.2021
3297 Clouds 28 1012 74 10000 3.09 310 16:51 26.01.2021
3298 Clouds 28 1012 74 10000 3.09 310 16:21 26.01.2021
3299 Clouds 28 1013 74 10000 1.03 30 15:51 26.01.2021
3300 Clouds 28 1013 74 10000 1.03 30 15:51 26.01.2021
3301 Clouds 28 1013 74 10000 1.03 30 15:33 26.01.2021
3302 Clouds 28 1013 74 10000 2.06 360 14:49 26.01.2021
3303 Clouds 28 1013 74 10000 2.06 360 14:30 26.01.2021
3304 Clouds 28 1013 74 10000 2.06 360 14:30 26.01.2021
3305 Clouds 26 1012 89 10000 1.03 20 13:48 26.01.2021
3306 Clouds 26 1012 89 10000 1.03 20 13:27 26.01.2021
3307 Clouds 25 1011 88 10000 1.03 30 12:45 26.01.2021
3308 Clouds 25 1011 88 10000 1.03 30 12:25 26.01.2021
3309 Clouds 24 1011 88 10000 1.03 30 11:59 26.01.2021
3310 Clouds 24 1010 94 10000 1.54 30 11:39 26.01.2021
3311 Clouds 24 1010 94 10000 0.51 60 10:50 26.01.2021
3312 Clouds 24 1010 94 10000 0.51 60 10:31 26.01.2021
3313 Clouds 24 1009 94 10000 0.52 48 09:48 26.01.2021
3314 Clouds 24 1009 94 10000 0.32 6 09:28 26.01.2021
3315 Clouds 24 1009 94 10000 0.32 6 08:53 26.01.2021
3316 Clouds 24 1009 94 10000 0.51 80 08:33 26.01.2021
3317 Clouds 24 1009 100 10000 0.36 5 07:47 26.01.2021
3318 Clear 25 1009 88 10000 0.47 91 06:23 26.01.2021
3319 Rain 25 1010 94 10000 1.03 10 05:43 26.01.2021
3320 Rain 25 1010 94 10000 1.03 10 05:23 26.01.2021
3321 Clouds 26 1010 83 10000 2.06 30 02:46 26.01.2021
3322 Clouds 27 1008 83 10000 2.06 60 00:57 26.01.2021
3323 Clouds 28 1007 74 10000 1.54 70 23:40 25.01.2021
3324 Clouds 28 1007 74 10000 1.54 70 23:18 25.01.2021
3325 Clouds 30 1007 70 10000 2.06 60 22:39 25.01.2021
3326 Clouds 30 1007 66 10000 2.57 60 21:52 25.01.2021
3327 Clouds 30 1007 66 10000 2.57 60 21:33 25.01.2021
3328 Clouds 30 1008 70 10000 2.57 70 20:52 25.01.2021
3329 Clouds 30 1008 70 10000 2.57 70 20:33 25.01.2021
3330 Clouds 29 1010 66 10000 2.57 70 19:52 25.01.2021
3331 Clouds 29 1010 66 10000 2.57 70 19:32 25.01.2021
3332 Clouds 30 1011 66 10000 2.06 80 18:49 25.01.2021
3333 Clouds 30 1011 66 10000 2.06 80 18:28 25.01.2021
3334 Clouds 30 1011 66 10000 2.06 80 17:59 25.01.2021
3335 Clouds 28 1012 74 10000 1.54 50 17:41 25.01.2021
3336 Clouds 28 1012 74 10000 1.54 50 17:23 25.01.2021
3337 Clouds 26 1013 78 10000 1.54 340 16:41 25.01.2021
3338 Clouds 26 1013 78 10000 1.54 340 16:22 25.01.2021
3339 Clouds 25 1013 83 10000 1.03 160 15:50 25.01.2021
3340 Clouds 25 1013 83 10000 1.03 160 15:50 25.01.2021
3341 Clouds 25 1013 83 10000 1.03 160 15:31 25.01.2021
3342 Clouds 24 1013 94 8000 1.03 130 14:50 25.01.2021
3343 Rain 24 1013 94 8000 1.03 130 14:20 25.01.2021
3344 Clouds 25 1013 94 4000 1.54 160 13:54 25.01.2021
3345 Clouds 25 1013 94 4000 1.54 160 13:54 25.01.2021
3346 Clouds 25 1012 94 10000 1.54 190 13:34 25.01.2021
3347 Clouds 25 1012 94 10000 1.54 180 12:46 25.01.2021
3348 Clouds 25 1012 94 10000 1.54 180 12:24 25.01.2021
3349 Clouds 25 1011 94 10000 1.54 190 11:55 25.01.2021
3350 Clouds 25 1010 94 10000 2.06 220 11:19 25.01.2021
3351 Clouds 24 1010 94 10000 1.03 210 10:42 25.01.2021
3352 Clouds 24 1010 94 10000 1.03 210 10:20 25.01.2021
3353 Clouds 24 1009 94 10000 1.03 230 09:46 25.01.2021
3354 Clouds 24 1009 94 10000 1.03 230 09:27 25.01.2021
3355 Clouds 24 1009 94 10000 0.51 210 08:30 25.01.2021
3356 Clouds 24 1010 94 10000 1.03 210 07:45 25.01.2021
3357 Clouds 24 1010 94 10000 1.03 210 07:25 25.01.2021
3358 Clouds 25 1011 94 10000 1.54 230 04:58 25.01.2021
3359 Clouds 26 1010 94 10000 1.54 190 01:33 25.01.2021
3360 Clouds 27 1008 83 10000 2.06 230 23:52 24.01.2021
3361 Clouds 27 1008 83 10000 2.06 230 23:20 24.01.2021
3362 Clouds 28 1008 83 10000 2.06 210 22:44 24.01.2021
3363 Clouds 28 1008 83 10000 2.06 210 22:21 24.01.2021
3364 Rain 28 1008 78 10000 3.6 260 21:51 24.01.2021
3365 Rain 28 1008 78 10000 3.6 260 21:24 24.01.2021
3366 Rain 28 1009 83 10000 2.57 260 20:46 24.01.2021
3367 Rain 28 1009 83 10000 2.57 260 20:22 24.01.2021
3368 Rain 28 1009 83 10000 2.57 260 19:53 24.01.2021
3369 Rain 28 1009 83 10000 2.57 260 19:53 24.01.2021
3370 Rain 29 1010 74 10000 0.51 130 19:27 24.01.2021
3371 Rain 29 1010 74 10000 2.06 260 18:58 24.01.2021
3372 Rain 30 1010 70 10000 2.06 60 18:39 24.01.2021
3373 Rain 30 1010 70 10000 2.06 60 18:20 24.01.2021
3374 Clouds 29 1011 70 10000 4.12 30 17:50 24.01.2021
3375 Rain 29 1011 70 10000 4.12 30 17:29 24.01.2021
3376 Clouds 29 1011 70 10000 3.09 10 16:59 24.01.2021
3377 Clouds 30 1012 66 10000 3.6 30 16:39 24.01.2021
3378 Rain 30 1012 66 10000 3.6 30 16:19 24.01.2021
3379 Clouds 28 1012 70 10000 4.63 20 15:43 24.01.2021
3380 Clouds 28 1012 70 10000 4.63 20 15:19 24.01.2021
3381 Clouds 27 1012 78 10000 3.6 30 14:43 24.01.2021
3382 Clouds 27 1012 83 10000 0.51 80 13:48 24.01.2021
3383 Clouds 27 1012 83 10000 0.51 80 13:30 24.01.2021
3384 Clouds 25 1011 100 10000 0.51 330 12:50 24.01.2021
3385 Clouds 25 1011 100 10000 0.51 330 12:21 24.01.2021
3386 Clouds 25 1011 100 10000 0.51 330 11:54 24.01.2021
3387 Clouds 25 1010 94 10000 1.15 14 11:25 24.01.2021
3388 Clear 25 1010 94 10000 1.15 14 10:50 24.01.2021
3389 Clear 25 1010 94 10000 0.95 19 10:29 24.01.2021
3390 Clear 25 1009 89 10000 1.03 10 09:44 24.01.2021
3391 Clear 25 1009 89 10000 1.03 10 09:18 24.01.2021
3392 Clear 25 1009 89 10000 1.03 10 08:26 24.01.2021
3393 Clear 26 1010 83 10000 1.03 30 03:37 24.01.2021
3394 Clear 26 1009 89 10000 1.03 70 02:18 24.01.2021
3395 Clouds 27 1008 83 10000 1.54 80 00:27 24.01.2021
3396 Clouds 27 1008 83 10000 1.54 80 23:57 23.01.2021
3397 Clouds 29 1007 74 10000 2.06 80 23:29 23.01.2021
3398 Clouds 29 1007 74 10000 2.06 80 22:57 23.01.2021
3399 Clouds 30 1007 66 10000 3.09 70 22:38 23.01.2021
3400 Clouds 30 1007 66 10000 3.09 70 21:57 23.01.2021
3401 Clouds 30 1008 70 10000 3.09 70 21:23 23.01.2021
3402 Clouds 30 1008 74 10000 2.57 70 20:50 23.01.2021
3403 Clouds 30 1008 74 10000 2.57 70 20:29 23.01.2021
3404 Clouds 26 1010 83 10000 5.14 70 19:47 23.01.2021
3405 Clouds 26 1010 83 10000 5.14 70 19:25 23.01.2021
3406 Clouds 28 1011 70 10000 2.57 90 18:52 23.01.2021
3407 Clouds 28 1011 70 10000 2.57 90 18:28 23.01.2021
3408 Clouds 30 1011 70 10000 2.57 90 17:56 23.01.2021
3409 Clouds 29 1012 74 10000 3.6 50 17:28 23.01.2021
3410 Clouds 29 1013 74 10000 4.63 70 16:52 23.01.2021
3411 Clouds 29 1013 74 10000 4.63 70 16:32 23.01.2021
3412 Clouds 28 1013 74 10000 5.14 60 15:49 23.01.2021
3413 Clouds 28 1013 74 10000 5.14 60 15:27 23.01.2021
3414 Clouds 27 1013 78 10000 3.09 80 14:38 23.01.2021
3415 Clouds 27 1013 78 10000 3.09 80 14:19 23.01.2021
3416 Clouds 26 1013 83 10000 2.57 60 13:40 23.01.2021
3417 Clouds 26 1013 83 10000 2.57 60 13:22 23.01.2021
3418 Clouds 24 1012 94 10000 2.06 50 12:42 23.01.2021
3419 Clouds 24 1012 94 10000 2.06 50 12:22 23.01.2021
3420 Clear 24 1011 94 10000 2.06 70 11:35 23.01.2021
3421 Clouds 24 1011 94 10000 1.03 10 10:54 23.01.2021
3422 Clear 24 1011 94 10000 1.54 30 10:23 23.01.2021
3423 Clear 23 1010 94 10000 1.03 50 09:51 23.01.2021
3424 Clear 23 1010 94 10000 1.03 50 09:24 23.01.2021
3425 Clear 24 1010 88 10000 1.54 60 08:39 23.01.2021
3426 Clear 24 1010 88 10000 1.03 40 07:48 23.01.2021
3427 Clear 24 1011 94 10000 1.54 60 06:48 23.01.2021
3428 Clouds 25 1010 88 10000 3.09 70 01:44 23.01.2021
3429 Rain 26 1010 83 10000 3.09 80 00:23 23.01.2021
3430 Clouds 28 1009 69 10000 5.14 50 23:35 22.01.2021
3431 Clouds 30 1009 66 10000 3.09 70 22:41 22.01.2021
3432 Clouds 30 1009 66 10000 3.09 70 21:56 22.01.2021
3433 Clouds 31 1009 62 10000 2.06 80 21:37 22.01.2021
3434 Clouds 31 1009 62 10000 2.06 80 21:19 22.01.2021
3435 Clouds 31 1010 66 10000 2.06 70 20:44 22.01.2021
3436 Clouds 31 1010 66 10000 2.06 70 20:25 22.01.2021
3437 Clouds 31 1011 62 10000 1.54 90 19:37 22.01.2021
3438 Clouds 31 1011 62 10000 1.54 90 19:18 22.01.2021
3439 Clouds 30 1012 62 10000 2.06 100 18:43 22.01.2021
3440 Clouds 30 1012 62 10000 2.06 100 18:23 22.01.2021
3441 Clouds 29 1013 79 10000 2.57 70 17:44 22.01.2021
3442 Clouds 29 1013 79 10000 2.57 70 17:25 22.01.2021
3443 Clouds 29 1014 74 10000 1.54 100 16:45 22.01.2021
3444 Clouds 29 1014 74 10000 1.54 100 16:24 22.01.2021
3445 Clouds 27 1014 78 10000 1.54 60 15:41 22.01.2021
3446 Clouds 27 1014 78 10000 1.54 60 15:18 22.01.2021
3447 Clouds 27 1014 74 10000 1.54 80 14:31 22.01.2021
3448 Clouds 25 1013 88 10000 1.03 10 13:51 22.01.2021
3449 Clouds 25 1013 88 10000 1.03 10 13:31 22.01.2021
3450 Clouds 24 1012 94 10000 1.03 10 12:52 22.01.2021
3451 Clouds 24 1012 94 10000 1.03 10 12:26 22.01.2021
3452 Clear 23 1012 94 10000 1.22 136 11:47 22.01.2021
3453 Clear 23 1012 94 10000 0.96 148 11:25 22.01.2021
3454 Clear 23 1011 100 10000 1.03 360 10:45 22.01.2021
3455 Clear 23 1011 100 10000 1.03 360 10:20 22.01.2021
3456 Clear 23 1010 94 10000 1.03 60 09:35 22.01.2021
3457 Clear 24 1010 88 10000 1.54 50 08:51 22.01.2021
3458 Clear 24 1010 88 10000 1.54 50 08:30 22.01.2021
3459 Clouds 24 1011 88 10000 1.54 40 07:38 22.01.2021
3460 Clouds 24 1011 94 10000 1.03 80 03:40 22.01.2021
3461 Clouds 24 1010 94 10000 1.92 139 00:41 22.01.2021
3462 Clouds 24 1010 94 10000 2.17 132 23:56 21.01.2021
3463 Clouds 26 1010 83 10000 0.51 140 23:38 21.01.2021
3464 Clouds 26 1010 83 10000 1.03 100 22:54 21.01.2021
3465 Clouds 26 1010 83 10000 1.03 100 22:36 21.01.2021
3466 Clouds 25 1011 83 10000 2.06 80 21:44 21.01.2021
3467 Clouds 25 1011 83 10000 2.06 80 21:44 21.01.2021
3468 Clouds 25 1011 83 10000 2.06 80 21:22 21.01.2021
3469 Clouds 26 1011 83 10000 2.06 70 20:51 21.01.2021
3470 Clouds 26 1011 83 10000 2.06 70 20:31 21.01.2021
3471 Clouds 26 1012 83 7000 3.6 30 19:56 21.01.2021
3472 Clouds 26 1012 83 7000 3.6 30 19:38 21.01.2021
3473 Clouds 26 1012 83 7000 3.6 30 19:19 21.01.2021
3474 Clouds 25 1013 88 5000 2.57 30 18:40 21.01.2021
3475 Clouds 24 1013 94 3000 3.09 60 18:20 21.01.2021
3476 Clouds 24 1014 94 4000 3.09 70 17:53 21.01.2021
3477 Clouds 24 1014 94 4000 3.09 70 17:21 21.01.2021
3478 Clouds 25 1014 88 6000 2.57 30 16:50 21.01.2021
3479 Clouds 25 1014 88 6000 2.57 30 16:28 21.01.2021
3480 Rain 25 1014 88 6000 2.57 30 15:59 21.01.2021
3481 Rain 25 1014 88 6000 2.57 30 15:59 21.01.2021
3482 Clouds 25 1014 88 10000 1.54 70 15:35 21.01.2021
3483 Clouds 25 1014 94 7000 1.54 70 14:54 21.01.2021
3484 Clouds 25 1014 94 7000 1.54 70 14:35 21.01.2021
3485 Clouds 24 1014 100 10000 1.03 170 13:52 21.01.2021
3486 Clouds 24 1014 100 10000 1.03 170 13:33 21.01.2021
3487 Clouds 24 1013 94 10000 1.03 130 12:58 21.01.2021
3488 Clouds 24 1013 94 10000 1.03 130 12:39 21.01.2021
3489 Clouds 24 1013 94 10000 1.03 80 12:20 21.01.2021
3490 Clouds 24 1012 100 10000 1.79 86 11:45 21.01.2021
3491 Clouds 24 1012 100 10000 1.81 84 11:24 21.01.2021
3492 Clouds 23 1010 94 10000 1.03 30 10:51 21.01.2021
3493 Clouds 23 1010 94 10000 1.03 30 10:28 21.01.2021
3494 Clouds 23 1009 94 10000 1.03 30 09:43 21.01.2021
3495 Clouds 23 1009 94 10000 1.03 30 09:24 21.01.2021
3496 Clouds 23 1009 94 10000 1.03 30 08:39 21.01.2021
3497 Clouds 23 1009 94 10000 1.03 30 07:59 21.01.2021
3498 Clouds 23 1009 94 10000 1.03 40 07:26 21.01.2021
3499 Clear 23 1010 94 10000 1.03 40 06:46 21.01.2021
3500 Clear 23 1010 94 10000 1.03 30 05:19 21.01.2021
3501 Clear 24 1011 94 10000 1.03 30 02:27 21.01.2021
3502 Clouds 25 1010 88 10000 1.54 60 00:47 21.01.2021
3503 Rain 25 1010 88 10000 1.54 60 23:53 20.01.2021
3504 Clouds 26 1009 83 10000 2.06 80 23:32 20.01.2021
3505 Clouds 26 1009 83 10000 2.06 10 22:57 20.01.2021
3506 Clouds 26 1009 89 10000 1.03 80 22:36 20.01.2021
3507 Clouds 27 1009 78 10000 1.54 320 21:56 20.01.2021
3508 Rain 26 1009 83 10000 1.54 80 21:24 20.01.2021
3509 Clouds 26 1009 83 10000 2.06 20 20:55 20.01.2021
3510 Clouds 26 1010 83 10000 2.06 70 20:36 20.01.2021
3511 Clouds 26 1010 83 10000 2.06 70 20:18 20.01.2021
3512 Clouds 25 1011 88 9000 2.06 60 19:40 20.01.2021
3513 Clouds 25 1011 88 9000 2.06 60 19:21 20.01.2021
3514 Clouds 24 1012 94 5000 1.54 50 18:41 20.01.2021
3515 Rain 24 1012 94 5000 1.54 50 17:56 20.01.2021
3516 Rain 23 1013 94 2000 2.06 280 17:37 20.01.2021
3517 Clouds 23 1013 94 1500 1.03 190 16:52 20.01.2021
3518 Clouds 23 1013 94 1500 1.03 190 16:32 20.01.2021
3519 Mist 23 1014 100 2000 3.6 320 15:48 20.01.2021
3520 Mist 23 1014 100 2000 3.6 320 15:19 20.01.2021
3521 Mist 23 1014 94 2000 2.06 320 14:46 20.01.2021
3522 Rain 23 1014 94 2000 2.06 320 14:22 20.01.2021
3523 Clouds 23 1013 94 1500 3.09 300 13:41 20.01.2021
3524 Clouds 23 1013 94 1500 3.09 300 13:21 20.01.2021
3525 Rain 23 1012 94 1500 4.12 320 12:35 20.01.2021
3526 Rain 23 1012 94 1500 4.12 320 11:54 20.01.2021
3527 Clouds 23 1011 94 1700 3.6 330 11:35 20.01.2021
3528 Clouds 24 1010 94 4000 4.63 250 10:55 20.01.2021
3529 Clouds 24 1010 94 5000 4.63 270 10:28 20.01.2021
3530 Drizzle 24 1010 100 10000 4.12 260 09:48 20.01.2021
3531 Drizzle 24 1010 100 10000 4.12 260 09:24 20.01.2021
3532 Clouds 25 1010 94 10000 4.12 250 08:49 20.01.2021
3533 Clouds 25 1010 94 10000 4.12 250 08:27 20.01.2021
3534 Clouds 25 1010 94 10000 4.12 250 07:56 20.01.2021
3535 Clouds 24 1010 100 10000 2.57 250 07:25 20.01.2021
3536 Clouds 25 1011 94 10000 1.54 180 05:50 20.01.2021
3537 Clouds 24 1012 100 10000 1.03 150 03:27 20.01.2021
3538 Clouds 24 1010 100 10000 1.54 80 00:59 20.01.2021
3539 Clouds 24 1010 100 10000 1.54 80 00:31 20.01.2021
3540 Clouds 25 1009 94 6000 2.57 80 23:46 19.01.2021
3541 Clouds 25 1009 94 6000 2.57 80 23:19 19.01.2021
3542 Clouds 25 1008 94 10000 4.12 70 22:42 19.01.2021
3543 Clouds 26 1008 94 10000 4.12 70 22:22 19.01.2021
3544 Clouds 29 1007 83 10000 1.54 80 21:59 19.01.2021
3545 Clouds 29 1007 83 10000 1.54 80 21:59 19.01.2021
3546 Clouds 29 1007 83 10000 1.54 80 21:40 19.01.2021
3547 Clouds 29 1007 83 10000 1.54 80 21:19 19.01.2021
3548 Clouds 30 1008 79 10000 3.09 80 20:42 19.01.2021
3549 Clouds 30 1008 79 10000 3.09 80 20:22 19.01.2021
3550 Clouds 29 1009 74 10000 3.6 60 19:41 19.01.2021
3551 Clouds 29 1009 74 10000 3.6 60 19:20 19.01.2021
3552 Clouds 28 1010 83 10000 3.09 70 18:43 19.01.2021
3553 Clouds 28 1010 83 10000 3.09 70 18:25 19.01.2021
3554 Clouds 27 1011 89 10000 4.12 50 17:45 19.01.2021
3555 Clouds 27 1011 89 10000 4.12 50 17:24 19.01.2021
3556 Clouds 26 1012 89 7000 3.09 60 16:48 19.01.2021
3557 Clouds 26 1012 89 7000 3.09 60 16:25 19.01.2021
3558 Rain 26 1012 89 7000 3.09 60 15:56 19.01.2021
3559 Rain 26 1012 94 3000 2.06 40 15:35 19.01.2021
3560 Rain 26 1012 94 10000 1.03 110 14:51 19.01.2021
3561 Clouds 27 1012 89 10000 1.03 110 14:31 19.01.2021
3562 Clouds 26 1012 89 10000 1.54 40 13:56 19.01.2021
3563 Clouds 26 1012 89 10000 1.03 30 13:37 19.01.2021
3564 Clouds 26 1012 89 10000 1.03 30 13:19 19.01.2021
3565 Clouds 25 1010 94 10000 1.52 44 12:36 19.01.2021
3566 Clouds 25 1010 94 10000 1.52 44 12:36 19.01.2021
3567 Clouds 25 1010 94 10000 2.07 84 12:18 19.01.2021
3568 Clouds 25 1010 94 10000 2.07 84 11:43 19.01.2021
3569 Clouds 25 1010 94 10000 2.12 94 11:22 19.01.2021
3570 Clouds 25 1009 94 10000 1.03 80 10:50 19.01.2021
3571 Clouds 25 1009 94 10000 1.03 80 10:29 19.01.2021
3572 Clouds 24 1009 100 10000 1.36 95 09:51 19.01.2021
3573 Clouds 24 1009 100 10000 0.65 44 09:20 19.01.2021
3574 Clouds 24 1009 100 10000 0.65 44 08:45 19.01.2021
3575 Clouds 24 1009 94 10000 0.71 41 07:57 19.01.2021
3576 Clouds 24 1009 100 10000 0.78 74 07:19 19.01.2021
3577 Clouds 24 1011 100 10000 1.03 100 04:50 19.01.2021
3578 Rain 24 1010 100 10000 1.03 80 02:24 19.01.2021
3579 Clear 24 1009 100 10000 1.54 80 00:45 19.01.2021
3580 Clear 24 1009 100 10000 1.54 80 23:57 18.01.2021
3581 Clouds 25 1008 94 10000 2.06 80 23:29 18.01.2021
3582 Clouds 25 1008 94 10000 1.03 80 22:46 18.01.2021
3583 Clouds 25 1008 94 10000 1.03 80 22:24 18.01.2021
3584 Rain 24 1008 100 8000 1.03 60 21:48 18.01.2021
3585 Rain 24 1008 100 5000 1.03 30 21:23 18.01.2021
3586 Rain 24 1009 100 3000 3.09 70 20:57 18.01.2021
3587 Rain 24 1009 100 3000 3.09 70 20:57 18.01.2021
3588 Rain 24 1009 100 3000 3.09 70 20:34 18.01.2021
3589 Rain 24 1010 94 1200 7.72 30 19:54 18.01.2021
3590 Rain 24 1010 94 1200 7.72 30 19:54 18.01.2021
3591 Rain 25 1010 94 1200 7.72 30 19:35 18.01.2021
3592 Rain 28 1011 78 10000 3.09 30 18:53 18.01.2021
3593 Clouds 28 1011 78 10000 3.09 30 18:33 18.01.2021
3594 Clouds 26 1011 89 10000 2.57 310 17:52 18.01.2021
3595 Clouds 26 1011 89 10000 2.57 310 17:32 18.01.2021
3596 Rain 26 1011 89 10000 2.57 310 16:55 18.01.2021
3597 Rain 24 1012 100 5000 1.03 40 16:33 18.01.2021
3598 Rain 24 1012 94 9000 1.03 290 15:56 18.01.2021
3599 Rain 24 1012 94 5000 1.03 60 15:37 18.01.2021
3600 Rain 24 1013 94 3000 2.57 60 15:19 18.01.2021
3601 Rain 24 1012 94 3000 1.03 50 14:42 18.01.2021
3602 Rain 24 1012 94 3000 1.03 50 14:24 18.01.2021
3603 Rain 24 1011 100 3000 1.54 100 13:45 18.01.2021
3604 Rain 24 1011 94 5000 2.06 60 13:22 18.01.2021
3605 Rain 24 1010 94 5000 3.6 360 12:47 18.01.2021
3606 Rain 24 1010 94 3000 2.06 340 12:19 18.01.2021
3607 Clouds 24 1009 94 10000 3.6 280 11:48 18.01.2021
3608 Rain 24 1009 94 10000 3.6 280 11:27 18.01.2021
3609 Clouds 26 1008 89 5000 4.12 10 10:51 18.01.2021
3610 Clouds 26 1008 89 5000 4.12 10 10:30 18.01.2021
3611 Clear 25 1009 88 10000 1.03 280 09:43 18.01.2021
3612 Clear 25 1009 88 10000 1.03 280 09:18 18.01.2021
3613 Clear 26 1008 89 10000 0.51 260 08:31 18.01.2021
3614 Clear 26 1008 89 10000 0.51 260 07:55 18.01.2021
3615 Clear 26 1009 83 10000 0.51 250 06:35 18.01.2021
3616 Clear 27 1010 83 10000 0.51 260 04:46 18.01.2021
3617 Clear 27 1010 83 10000 0.51 260 04:27 18.01.2021
3618 Clear 28 1009 74 10000 1.54 320 03:52 18.01.2021
3619 Clear 28 1009 74 10000 1.54 320 03:29 18.01.2021
3620 Clear 28 1008 74 10000 1.54 30 02:59 18.01.2021
3621 Clear 28 1008 74 10000 1.54 30 02:20 18.01.2021
3622 Clouds 29 1006 79 10000 1.03 100 00:41 18.01.2021
3623 Clouds 29 1006 79 10000 1.03 100 00:19 18.01.2021
3624 Clouds 31 1005 66 10000 1.03 90 23:41 17.01.2021
3625 Clouds 31 1005 66 10000 1.03 90 23:19 17.01.2021
3626 Clouds 32 1005 62 10000 1.54 90 22:24 17.01.2021
3627 Clouds 32 1005 62 10000 1.54 90 21:57 17.01.2021
3628 Clouds 32 1005 58 10000 3.6 70 21:37 17.01.2021
3629 Clouds 32 1005 58 10000 3.6 70 21:18 17.01.2021
3630 Clouds 32 1006 62 10000 1.54 90 20:40 17.01.2021
3631 Clouds 32 1006 62 10000 1.54 90 20:18 17.01.2021
3632 Clouds 32 1008 62 10000 2.57 40 19:40 17.01.2021
3633 Clouds 32 1008 62 10000 2.57 40 18:58 17.01.2021
3634 Clouds 31 1009 66 10000 1.03 90 18:30 17.01.2021
3635 Clouds 31 1009 66 10000 1.03 90 17:54 17.01.2021
3636 Clouds 31 1010 66 10000 2.57 50 17:35 17.01.2021
3637 Clouds 30 1010 70 10000 2.57 360 16:57 17.01.2021
3638 Clouds 30 1011 74 10000 1.03 180 16:39 17.01.2021
3639 Clouds 30 1011 74 10000 1.03 180 16:19 17.01.2021
3640 Clouds 29 1011 74 10000 1.54 50 15:38 17.01.2021
3641 Clouds 29 1011 74 10000 1.54 50 15:19 17.01.2021
3642 Clouds 28 1011 74 10000 2.06 360 14:42 17.01.2021
3643 Clouds 28 1011 74 10000 2.06 360 14:23 17.01.2021
3644 Clear 26 1011 83 10000 2.06 350 13:43 17.01.2021
3645 Clear 26 1011 83 10000 2.06 350 13:43 17.01.2021
3646 Clear 26 1011 83 10000 2.06 350 13:24 17.01.2021
3647 Clear 24 1010 94 10000 2.06 350 12:46 17.01.2021
3648 Clear 24 1010 94 10000 2.06 350 12:25 17.01.2021
3649 Clear 24 1009 94 10000 2.06 340 11:26 17.01.2021
3650 Fog 23 1009 100 10000 0.51 320 10:57 17.01.2021
3651 Clear 24 1008 94 10000 1.54 340 10:37 17.01.2021
3652 Clear 24 1008 94 10000 1.54 340 10:18 17.01.2021
3653 Clear 24 1008 94 10000 1.03 320 09:18 17.01.2021
3654 Clear 24 1008 88 10000 1.54 280 08:41 17.01.2021
3655 Clear 25 1009 83 10000 2.06 360 04:39 17.01.2021
3656 Clear 25 1009 83 10000 2.06 360 04:20 17.01.2021
3657 Clear 26 1008 83 10000 2.57 360 01:37 17.01.2021
3658 Clouds 26 1006 78 10000 3.09 10 00:21 17.01.2021
3659 Clouds 26 1006 78 10000 3.09 10 23:54 16.01.2021
3660 Clouds 27 1006 74 10000 4.12 10 23:26 16.01.2021
3661 Clouds 27 1006 74 10000 4.12 10 22:58 16.01.2021
3662 Clouds 27 1006 74 10000 4.12 50 22:26 16.01.2021
3663 Clouds 30 1006 70 10000 2.06 230 21:50 16.01.2021
3664 Clouds 30 1006 70 10000 3.09 240 21:23 16.01.2021
3665 Clouds 28 1007 66 10000 1.54 50 20:52 16.01.2021
3666 Clouds 28 1007 66 10000 1.54 50 20:28 16.01.2021
3667 Clouds 30 1008 66 10000 1.54 160 19:50 16.01.2021
3668 Clouds 30 1008 66 10000 1.54 160 19:31 16.01.2021
3669 Clouds 30 1009 70 10000 3.09 220 18:47 16.01.2021
3670 Clouds 30 1009 70 10000 3.09 220 18:28 16.01.2021
3671 Clouds 30 1009 70 10000 3.09 220 17:59 16.01.2021
3672 Clouds 30 1010 70 10000 2.06 200 17:39 16.01.2021
3673 Clouds 30 1010 70 10000 2.06 200 17:21 16.01.2021
3674 Clouds 28 1011 83 10000 2.57 260 16:42 16.01.2021
3675 Clouds 28 1011 83 10000 2.57 260 16:18 16.01.2021
3676 Clouds 28 1011 83 10000 2.06 210 15:41 16.01.2021
3677 Clouds 28 1011 83 10000 1.03 230 14:34 16.01.2021
3678 Clouds 27 1011 83 10000 1.54 330 13:54 16.01.2021
3679 Clouds 26 1011 83 10000 1.54 300 13:32 16.01.2021
3680 Clouds 24 1010 100 10000 1.03 20 12:49 16.01.2021
3681 Clouds 24 1010 100 10000 1.03 20 12:31 16.01.2021
3682 Clouds 24 1010 100 10000 1.03 20 11:59 16.01.2021
3683 Clear 24 1009 94 10000 1.03 30 11:39 16.01.2021
3684 Clear 24 1009 94 10000 1.03 30 11:18 16.01.2021
3685 Clouds 24 1010 94 10000 1.03 360 10:41 16.01.2021
3686 Clouds 24 1010 94 10000 1.03 360 09:57 16.01.2021
3687 Clouds 24 1009 94 10000 1.03 340 09:21 16.01.2021
3688 Clouds 23 1008 100 10000 1.03 320 08:19 16.01.2021
3689 Clear 24 1009 94 10000 1.03 320 06:52 16.01.2021
3690 Clear 24 1010 94 10000 0.64 66 05:32 16.01.2021
3691 Clouds 24 1010 94 10000 1.03 120 03:44 16.01.2021
3692 Clouds 24 1009 94 10000 0.95 56 02:47 16.01.2021
3693 Clouds 25 1008 88 10000 1.03 80 00:47 16.01.2021
3694 Clouds 25 1008 88 10000 1.03 80 00:23 16.01.2021
3695 Clouds 26 1007 83 10000 1.03 90 23:39 15.01.2021
3696 Clouds 26 1007 89 10000 0.51 110 22:41 15.01.2021
3697 Clouds 26 1007 89 10000 0.51 110 22:21 15.01.2021
3698 Clouds 26 1007 83 10000 1.54 80 21:43 15.01.2021
3699 Clouds 26 1007 83 10000 2.57 60 20:49 15.01.2021
3700 Clouds 26 1007 83 10000 2.57 60 20:24 15.01.2021
3701 Clouds 24 1009 94 9000 2.57 60 19:48 15.01.2021
3702 Clouds 24 1009 94 9000 2.57 60 19:48 15.01.2021
3703 Rain 24 1009 94 9000 2.57 60 19:29 15.01.2021
3704 Rain 25 1009 94 9000 4.12 70 18:54 15.01.2021
3705 Rain 25 1011 88 1000 4.63 70 18:21 15.01.2021
3706 Rain 24 1011 88 1000 4.63 70 17:59 15.01.2021
3707 Clouds 27 1011 78 10000 1.54 160 17:40 15.01.2021
3708 Clouds 27 1011 78 10000 1.54 160 17:40 15.01.2021
3709 Rain 27 1011 78 10000 1.54 160 17:21 15.01.2021
3710 Clouds 28 1011 78 10000 1.54 180 16:46 15.01.2021
3711 Clouds 28 1011 78 10000 1.54 180 16:23 15.01.2021
3712 Clouds 27 1012 83 10000 1.54 200 15:41 15.01.2021
3713 Clouds 27 1012 83 10000 1.54 200 15:21 15.01.2021
3714 Clouds 26 1011 83 10000 1.54 170 14:43 15.01.2021
3715 Clouds 26 1011 83 10000 1.54 170 14:24 15.01.2021
3716 Clouds 25 1011 94 10000 1.03 170 13:41 15.01.2021
3717 Clouds 25 1011 94 10000 1.03 170 13:21 15.01.2021
3718 Clouds 24 1011 94 10000 1.03 200 12:49 15.01.2021
3719 Clouds 24 1011 94 10000 1.03 200 12:31 15.01.2021
3720 Clouds 24 1010 100 10000 1.54 190 11:46 15.01.2021
3721 Clouds 24 1010 100 10000 1.54 190 11:23 15.01.2021
3722 Clouds 25 1009 94 10000 1.54 150 10:53 15.01.2021
3723 Clouds 25 1009 94 10000 1.54 150 10:34 15.01.2021
3724 Clouds 25 1009 94 10000 1.54 150 09:53 15.01.2021
3725 Clouds 25 1009 94 10000 2.06 150 09:34 15.01.2021
3726 Clouds 25 1009 94 10000 1.54 250 08:37 15.01.2021
3727 Clouds 24 1010 94 10000 1.54 180 08:18 15.01.2021
3728 Clouds 24 1010 94 10000 1.03 220 07:39 15.01.2021
3729 Clouds 24 1010 94 10000 1.03 220 07:18 15.01.2021
3730 Clouds 25 1011 94 10000 1.03 190 04:33 15.01.2021
3731 Clouds 25 1009 100 10000 1.03 220 01:39 15.01.2021
3732 Rain 25 1018 94 10000 1.03 190 23:50 14.01.2021
3733 Rain 25 1018 94 10000 1.03 190 23:21 14.01.2021
3734 Clouds 25 1007 94 10000 0.55 245 22:42 14.01.2021
3735 Clouds 25 1007 94 10000 0.3 302 22:24 14.01.2021
3736 Clouds 25 1007 94 10000 1.54 230 21:44 14.01.2021
3737 Rain 25 1007 94 10000 1.54 230 21:21 14.01.2021
3738 Rain 24 1008 94 5000 1.54 20 20:49 14.01.2021
3739 Rain 24 1008 94 5000 1.54 20 20:26 14.01.2021
3740 Rain 24 1009 94 5000 5.14 40 19:46 14.01.2021
3741 Rain 24 1009 94 5000 5.14 40 19:27 14.01.2021
3742 Rain 24 1010 100 2000 5.14 20 18:55 14.01.2021
3743 Rain 24 1010 100 2000 5.14 20 18:30 14.01.2021
3744 Rain 28 1009 70 10000 1.54 230 17:50 14.01.2021
3745 Clouds 29 1009 74 10000 2.57 240 17:27 14.01.2021
3746 Clouds 29 1010 79 10000 2.06 240 16:44 14.01.2021
3747 Clouds 29 1010 79 10000 2.06 240 16:23 14.01.2021
3748 Clouds 27 1011 89 10000 1.54 200 15:45 14.01.2021
3749 Clouds 27 1011 89 10000 1.54 200 14:59 14.01.2021
3750 Clouds 27 1011 89 10000 1.03 210 14:39 14.01.2021
3751 Clouds 27 1011 89 10000 1.03 210 14:19 14.01.2021
3752 Clouds 27 1011 89 10000 1.03 210 13:53 14.01.2021
3753 Clouds 26 1011 94 10000 0.51 100 13:22 14.01.2021
3754 Clouds 25 1009 100 10000 1.67 23 12:51 14.01.2021
3755 Clouds 25 1009 100 10000 1.49 24 12:20 14.01.2021
3756 Clouds 25 1009 100 10000 1.49 24 11:50 14.01.2021
3757 Clouds 25 1009 100 10000 0.99 10 11:21 14.01.2021
3758 Clouds 25 1009 100 10000 0.99 10 10:54 14.01.2021
3759 Clouds 25 1008 100 10000 0.86 357 10:29 14.01.2021
3760 Clouds 25 1008 100 10000 1.03 10 09:48 14.01.2021
3761 Clouds 25 1008 100 10000 1.03 10 09:23 14.01.2021
3762 Clear 25 1008 100 10000 1.54 70 08:52 14.01.2021
3763 Clear 25 1008 100 10000 1.54 70 08:28 14.01.2021
3764 Clear 25 1009 94 10000 1.54 40 07:50 14.01.2021
3765 Clear 25 1009 94 10000 1.54 40 06:59 14.01.2021
3766 Clear 25 1009 94 10000 1.54 60 05:56 14.01.2021
3767 Rain 25 1010 100 10000 1.03 270 01:55 14.01.2021
3768 Rain 26 1009 89 10000 1.03 270 23:56 13.01.2021
3769 Rain 26 1008 83 10000 2.06 330 23:23 13.01.2021
3770 Rain 27 1007 78 10000 3.09 350 22:30 13.01.2021
3771 Rain 27 1007 78 10000 3.09 350 21:59 13.01.2021
3772 Rain 27 1007 78 10000 3.09 350 21:59 13.01.2021
3773 Rain 26 1008 83 10000 4.63 340 21:41 13.01.2021
3774 Rain 26 1008 83 10000 4.63 340 21:19 13.01.2021
3775 Clouds 26 1008 89 9000 4.12 10 20:38 13.01.2021
3776 Clouds 26 1008 89 9000 4.12 10 20:19 13.01.2021
3777 Clouds 28 1009 78 8000 6.17 60 19:42 13.01.2021
3778 Clouds 30 1009 70 10000 1.54 170 19:21 13.01.2021
3779 Clouds 29 1010 74 10000 2.06 230 18:41 13.01.2021
3780 Clouds 28 1011 79 10000 2.06 60 17:51 13.01.2021
3781 Clouds 28 1011 79 10000 2.06 60 17:26 13.01.2021
3782 Clouds 27 1012 89 7000 1.03 200 16:59 13.01.2021
3783 Clouds 28 1012 83 10000 2.06 160 16:23 13.01.2021
3784 Clouds 28 1013 83 10000 1.03 110 15:59 13.01.2021
3785 Clouds 27 1013 89 9000 1.03 150 15:39 13.01.2021
3786 Clouds 27 1013 78 10000 1.54 180 14:52 13.01.2021
3787 Clouds 27 1013 89 10000 1.54 220 14:18 13.01.2021
3788 Clouds 25 1012 94 10000 1.54 220 13:37 13.01.2021
3789 Clouds 25 1012 94 10000 1.54 220 13:18 13.01.2021
3790 Clouds 25 1011 94 10000 1.03 20 12:43 13.01.2021
3791 Clouds 25 1011 94 10000 1.03 20 12:22 13.01.2021
3792 Clouds 25 1011 94 10000 1.03 200 11:47 13.01.2021
3793 Clouds 25 1011 94 10000 1.03 200 11:26 13.01.2021
3794 Clouds 25 1012 88 10000 1.54 80 10:43 13.01.2021
3795 Clouds 25 1012 88 10000 1.54 80 10:24 13.01.2021
3796 Clouds 25 1012 88 10000 1.03 60 09:38 13.01.2021
3797 Clouds 25 1012 88 10000 1.03 60 08:57 13.01.2021
3798 Clouds 24 1012 94 10000 1.03 70 08:33 13.01.2021
3799 Clouds 24 1012 94 10000 1.03 70 07:53 13.01.2021
3800 Clouds 24 1012 94 10000 1.54 60 07:24 13.01.2021
3801 Clear 25 1012 94 10000 1.03 80 04:21 13.01.2021
3802 Clouds 25 1011 94 10000 1.03 80 03:52 13.01.2021
3803 Clouds 25 1011 94 10000 1.03 80 03:31 13.01.2021
3804 Clouds 25 1011 94 10000 1.03 280 02:46 13.01.2021
3805 Clouds 26 1009 89 10000 1.03 180 00:38 13.01.2021
3806 Clouds 26 1009 89 10000 2.25 59 23:31 12.01.2021
3807 Rain 27 1009 83 10000 1.03 70 22:47 12.01.2021
3808 Rain 27 1009 83 10000 1.03 70 22:25 12.01.2021
3809 Rain 27 1009 83 10000 1.03 70 21:53 12.01.2021
3810 Clouds 27 1008 89 10000 2.57 170 21:35 12.01.2021
3811 Clouds 27 1008 89 10000 2.57 170 21:35 12.01.2021
3812 Rain 27 1008 89 10000 2.57 170 20:56 12.01.2021
3813 Clouds 27 1009 94 10000 2.57 150 20:37 12.01.2021
3814 Clouds 28 1009 89 10000 2.57 70 20:19 12.01.2021
3815 Clouds 28 1010 78 10000 3.6 40 19:37 12.01.2021
3816 Clouds 27 1011 83 9000 4.12 40 18:52 12.01.2021
3817 Clouds 27 1011 83 9000 4.12 40 18:25 12.01.2021
3818 Rain 26 1011 83 9000 4.12 40 17:55 12.01.2021
3819 Rain 28 1012 70 10000 3.09 20 17:31 12.01.2021
3820 Rain 28 1012 70 10000 3.09 20 17:31 12.01.2021
3821 Clouds 28 1013 78 10000 3.09 90 16:44 12.01.2021
3822 Clouds 28 1013 78 10000 3.09 90 16:25 12.01.2021
3823 Clouds 28 1014 78 10000 2.06 10 15:45 12.01.2021
3824 Clouds 28 1014 78 10000 2.06 10 15:22 12.01.2021
3825 Clouds 27 1014 83 10000 2.06 330 14:47 12.01.2021
3826 Clouds 27 1014 83 10000 2.06 330 14:26 12.01.2021
3827 Clouds 27 1014 83 10000 2.06 330 13:53 12.01.2021
3828 Clouds 26 1013 83 10000 1.03 10 13:29 12.01.2021
3829 Clouds 25 1012 94 10000 1.03 330 12:29 12.01.2021
3830 Clear 25 1011 88 10000 1.03 250 11:42 12.01.2021
3831 Clear 25 1011 94 10000 1.54 16 10:55 12.01.2021
3832 Clouds 25 1010 88 10000 1.03 250 10:26 12.01.2021
3833 Clouds 25 1010 88 10000 1.03 250 09:59 12.01.2021
3834 Clear 25 1010 88 10000 1.03 270 09:39 12.01.2021
3835 Clear 25 1010 88 10000 1.03 270 09:20 12.01.2021
3836 Clear 25 1011 88 10000 1.35 9 08:26 12.01.2021
3837 Clear 25 1011 88 10000 1.03 320 07:37 12.01.2021
3838 Clear 25 1011 88 10000 1.03 320 06:59 12.01.2021
3839 Clear 25 1011 88 10000 1.54 40 05:35 12.01.2021
3840 Clouds 26 1012 89 10000 1.54 30 03:33 12.01.2021
3841 Clouds 26 1011 83 10000 1.54 10 02:21 12.01.2021
3842 Rain 26 1010 89 10000 0.79 37 01:31 12.01.2021
3843 Clouds 26 1009 89 10000 1.03 160 00:19 12.01.2021
3844 Clouds 29 1008 74 10000 1.03 150 23:37 11.01.2021
3845 Clouds 29 1008 74 10000 1.03 150 23:18 11.01.2021
3846 Clouds 29 1008 74 10000 1.03 150 23:18 11.01.2021
3847 Clouds 29 1008 74 10000 1.03 210 22:45 11.01.2021
3848 Clouds 29 1008 74 10000 1.03 210 22:27 11.01.2021
3849 Clouds 29 1009 74 10000 1.54 220 21:43 11.01.2021
3850 Clouds 29 1009 74 10000 1.54 220 21:25 11.01.2021
3851 Clouds 29 1009 74 10000 1.54 220 21:25 11.01.2021
3852 Clouds 28 1009 78 10000 2.57 240 20:49 11.01.2021
3853 Clouds 28 1009 78 10000 2.57 240 20:30 11.01.2021
3854 Clouds 28 1009 78 10000 2.57 240 19:58 11.01.2021
3855 Clouds 29 1012 74 10000 1.54 200 19:35 11.01.2021
3856 Clouds 27 1013 78 10000 4.12 350 18:47 11.01.2021
3857 Clouds 27 1013 78 10000 4.12 350 18:28 11.01.2021
3858 Clouds 27 1013 78 10000 4.12 350 17:57 11.01.2021
3859 Clouds 28 1014 78 10000 2.06 350 17:39 11.01.2021
3860 Rain 28 1014 78 10000 2.06 350 17:20 11.01.2021
3861 Rain 28 1014 74 10000 2.57 330 16:43 11.01.2021
3862 Rain 28 1014 74 10000 2.57 330 16:25 11.01.2021
3863 Clouds 27 1015 78 10000 1.03 300 15:50 11.01.2021
3864 Clouds 27 1015 78 10000 1.03 300 15:31 11.01.2021
3865 Rain 26 1015 78 10000 1.03 340 14:41 11.01.2021
3866 Rain 26 1015 78 10000 1.03 340 14:41 11.01.2021
3867 Clouds 26 1015 78 10000 1.03 340 14:20 11.01.2021
3868 Clouds 25 1014 88 10000 1.54 40 13:44 11.01.2021
3869 Clouds 25 1014 88 10000 1.54 40 13:20 11.01.2021
3870 Clear 24 1012 88 10000 0.51 270 12:41 11.01.2021
3871 Clear 24 1012 88 10000 0.51 270 12:22 11.01.2021
3872 Clear 23 1012 94 10000 1.03 360 11:44 11.01.2021
3873 Clear 23 1012 100 10000 0.39 28 10:55 11.01.2021
3874 Clouds 23 1011 88 10000 1.03 320 10:32 11.01.2021
3875 Clouds 23 1011 88 10000 1.03 330 09:48 11.01.2021
3876 Clouds 23 1011 88 10000 1.03 330 09:25 11.01.2021
3877 Clouds 24 1011 88 10000 1.54 330 08:47 11.01.2021
3878 Clouds 24 1011 88 10000 1.54 330 08:22 11.01.2021
3879 Clouds 24 1011 88 10000 1.03 320 07:40 11.01.2021
3880 Clouds 24 1011 88 10000 1.03 320 07:19 11.01.2021
3881 Clouds 24 1012 88 10000 1.03 300 06:47 11.01.2021
3882 Clouds 25 1012 94 10000 0.44 23 01:53 11.01.2021
3883 Clouds 24 1010 88 10000 2.06 320 00:40 11.01.2021
3884 Clouds 25 1009 83 10000 1.03 310 23:46 10.01.2021
3885 Clouds 26 1008 78 10000 1.54 20 22:49 10.01.2021
3886 Clouds 26 1008 78 10000 1.54 20 22:28 10.01.2021
3887 Clouds 26 1009 83 10000 1.54 320 21:57 10.01.2021
3888 Clouds 26 1009 78 10000 1.03 30 21:37 10.01.2021
3889 Clouds 26 1009 78 10000 1.03 30 21:18 10.01.2021
3890 Clouds 26 1009 78 10000 1.03 30 21:18 10.01.2021
3891 Clouds 25 1010 88 10000 2.06 330 20:39 10.01.2021
3892 Clouds 25 1010 88 10000 2.06 330 20:21 10.01.2021
3893 Clouds 25 1012 88 10000 3.6 360 19:38 10.01.2021
3894 Rain 25 1012 88 10000 3.6 360 19:20 10.01.2021
3895 Rain 24 1013 94 8000 3.6 360 18:43 10.01.2021
3896 Rain 24 1013 94 8000 3.6 360 18:20 10.01.2021
3897 Rain 23 1015 100 7000 2.57 40 17:23 10.01.2021
3898 Rain 22 1015 94 3000 2.57 10 16:46 10.01.2021
3899 Rain 22 1015 94 3000 2.57 10 16:28 10.01.2021
3900 Rain 22 1016 94 2000 7.2 60 15:39 10.01.2021
3901 Rain 22 1016 94 2000 7.2 60 15:39 10.01.2021
3902 Rain 22 1016 94 2000 7.2 60 15:20 10.01.2021
3903 Rain 25 1015 88 10000 3.6 60 14:40 10.01.2021
3904 Rain 25 1015 83 10000 4.12 10 14:22 10.01.2021
3905 Clouds 25 1014 88 10000 3.09 340 13:39 10.01.2021
3906 Clouds 25 1014 88 10000 3.09 340 13:20 10.01.2021
3907 Clouds 25 1012 88 10000 3.09 300 12:50 10.01.2021
3908 Clouds 25 1012 88 10000 3.09 300 12:32 10.01.2021
3909 Clouds 25 1012 88 10000 3.09 300 11:54 10.01.2021
3910 Clouds 24 1012 88 10000 3.09 320 11:20 10.01.2021
3911 Clouds 24 1012 88 10000 3.09 320 11:20 10.01.2021
3912 Clouds 24 1011 88 10000 1.54 320 10:47 10.01.2021
3913 Clouds 24 1011 88 10000 1.54 320 10:22 10.01.2021
3914 Clouds 24 1011 88 10000 2.57 330 09:36 10.01.2021
3915 Clouds 24 1012 88 10000 2.06 340 08:26 10.01.2021
3916 Clouds 24 1012 88 10000 2.06 340 07:38 10.01.2021
3917 Clouds 24 1012 88 10000 1.54 340 06:21 10.01.2021
3918 Clouds 25 1012 88 10000 1.54 340 05:42 10.01.2021
3919 Clouds 25 1012 88 10000 2.06 350 03:57 10.01.2021
3920 Rain 25 1011 88 10000 2.06 320 01:30 10.01.2021
3921 Clouds 26 1009 89 10000 3.6 350 23:59 09.01.2021
3922 Rain 28 1008 74 10000 4.63 300 23:41 09.01.2021
3923 Rain 28 1008 74 10000 4.63 300 22:57 09.01.2021
3924 Clouds 29 1008 74 10000 4.12 280 22:19 09.01.2021
3925 Clouds 29 1008 74 10000 4.12 280 21:58 09.01.2021
3926 Clouds 29 1008 74 10000 4.12 260 21:39 09.01.2021
3927 Clouds 29 1008 74 10000 4.12 260 21:20 09.01.2021
3928 Clouds 28 1009 78 10000 4.12 250 20:46 09.01.2021
3929 Clouds 28 1009 78 10000 4.12 250 20:27 09.01.2021
3930 Clouds 28 1011 78 10000 3.09 240 19:39 09.01.2021
3931 Clouds 28 1011 78 10000 3.09 240 19:19 09.01.2021
3932 Clouds 28 1012 78 10000 2.06 230 18:36 09.01.2021
3933 Clouds 27 1013 78 10000 1.54 200 17:51 09.01.2021
3934 Clouds 27 1013 78 10000 1.54 200 17:32 09.01.2021
3935 Clouds 27 1013 78 10000 1.54 200 16:55 09.01.2021
3936 Clouds 26 1014 83 10000 1.54 190 16:22 09.01.2021
3937 Clouds 25 1014 88 10000 1.03 80 15:41 09.01.2021
3938 Clouds 25 1014 88 10000 1.03 80 14:56 09.01.2021
3939 Clouds 24 1014 94 10000 1.03 160 14:36 09.01.2021
3940 Clouds 24 1014 94 10000 1.03 160 14:18 09.01.2021
3941 Rain 23 1013 94 10000 0.51 30 13:43 09.01.2021
3942 Rain 23 1013 94 10000 0.51 30 13:24 09.01.2021
3943 Rain 23 1012 94 10000 1.03 20 12:28 09.01.2021
3944 Clouds 23 1012 94 10000 1.03 20 11:58 09.01.2021
3945 Rain 23 1010 94 10000 1.54 350 11:37 09.01.2021
3946 Clouds 23 1010 94 10000 1.54 350 10:57 09.01.2021
3947 Rain 23 1011 94 10000 1.54 30 10:38 09.01.2021
3948 Clouds 23 1011 94 10000 1.54 30 10:19 09.01.2021
3949 Clouds 23 1010 94 10000 2.06 50 09:43 09.01.2021
3950 Clouds 23 1010 94 10000 2.06 50 09:19 09.01.2021
3951 Rain 23 1013 94 10000 3.09 100 07:48 09.01.2021
3952 Rain 23 1013 94 10000 3.09 160 06:42 09.01.2021
3953 Rain 23 1013 94 10000 3.09 160 06:23 09.01.2021
3954 Rain 22 1014 100 4000 3.09 80 03:49 09.01.2021
3955 Rain 23 1013 100 1000 2.57 90 02:40 09.01.2021
3956 Rain 23 1013 100 1000 2.57 90 02:22 09.01.2021
3957 Rain 24 1012 88 6000 3.6 170 01:24 09.01.2021
3958 Clouds 27 1010 83 10000 1.03 80 00:28 09.01.2021
3959 Clouds 27 1009 78 10000 2.06 360 23:41 08.01.2021
3960 Rain 28 1008 74 10000 0.51 170 22:39 08.01.2021
3961 Rain 31 1008 70 10000 2.06 240 21:52 08.01.2021
3962 Clouds 31 1008 70 10000 2.06 240 20:59 08.01.2021
3963 Clouds 30 1008 74 10000 3.09 250 20:33 08.01.2021
3964 Clouds 30 1008 74 10000 3.09 250 19:57 08.01.2021
3965 Clouds 30 1010 74 10000 3.09 250 19:24 08.01.2021
3966 Clouds 30 1010 74 10000 3.09 250 18:53 08.01.2021
3967 Clouds 29 1011 79 10000 3.6 260 18:31 08.01.2021
3968 Clouds 27 1013 89 10000 3.09 230 17:50 08.01.2021
3969 Clouds 27 1013 89 10000 3.09 230 17:24 08.01.2021
3970 Clouds 27 1013 83 10000 2.57 220 16:47 08.01.2021
3971 Clouds 26 1013 89 10000 3.6 240 15:45 08.01.2021
3972 Clouds 26 1013 89 10000 3.6 240 15:25 08.01.2021
3973 Clouds 26 1013 89 10000 3.09 240 14:36 08.01.2021
3974 Clouds 25 1013 94 10000 2.57 230 13:47 08.01.2021
3975 Clouds 25 1013 94 10000 2.57 230 13:21 08.01.2021
3976 Clouds 25 1012 94 10000 2.57 230 12:49 08.01.2021
3977 Clouds 25 1012 94 10000 2.57 230 12:20 08.01.2021
3978 Clouds 25 1012 94 10000 2.57 250 11:46 08.01.2021
3979 Clouds 25 1012 94 10000 2.57 250 11:27 08.01.2021
3980 Clouds 24 1011 94 10000 1.54 200 10:53 08.01.2021
3981 Clouds 24 1011 94 10000 1.54 200 10:34 08.01.2021
3982 Clouds 24 1011 94 10000 2.06 250 09:46 08.01.2021
3983 Clouds 24 1011 94 10000 2.06 250 09:28 08.01.2021
3984 Clouds 25 1011 94 10000 2.06 250 08:38 08.01.2021
3985 Clouds 25 1011 94 10000 2.06 240 07:27 08.01.2021
3986 Clouds 25 1011 100 10000 2.06 240 05:55 08.01.2021
3987 Clouds 26 1009 83 10000 1.54 300 23:48 07.01.2021
3988 Rain 26 1009 83 10000 1.54 300 23:30 07.01.2021
3989 Rain 26 1009 89 10000 1.03 340 22:47 07.01.2021
3990 Rain 26 1009 89 10000 1.03 340 22:26 07.01.2021
3991 Rain 26 1009 83 10000 1.54 20 21:45 07.01.2021
3992 Rain 26 1009 83 10000 1.54 20 21:26 07.01.2021
3993 Rain 26 1009 94 10000 2.06 30 20:47 07.01.2021
3994 Rain 26 1009 94 10000 2.06 30 20:28 07.01.2021
3995 Clouds 26 1011 94 10000 2.06 360 19:45 07.01.2021
3996 Rain 26 1011 94 10000 2.06 360 19:23 07.01.2021
3997 Rain 29 1011 79 10000 1.03 160 18:30 07.01.2021
3998 Clouds 29 1011 79 10000 1.03 160 17:58 07.01.2021
3999 Clouds 28 1012 83 10000 1.54 220 17:28 07.01.2021
4000 Clouds 28 1012 83 10000 1.54 220 16:53 07.01.2021
4001 Rain 27 1013 89 10000 1.03 190 16:28 07.01.2021
4002 Rain 27 1013 83 10000 1.03 170 15:41 07.01.2021
4003 Rain 27 1013 83 10000 1.03 170 15:22 07.01.2021
4004 Clouds 26 1013 89 10000 1.03 180 14:27 07.01.2021
4005 Rain 26 1013 89 10000 1.54 180 13:46 07.01.2021
4006 Clouds 26 1013 89 10000 1.54 180 13:18 07.01.2021
4007 Clear 24 1012 100 10000 1 150 12:43 07.01.2021
4008 Clear 24 1012 100 10000 1 150 11:57 07.01.2021
4009 Clear 24 1012 100 10000 1 150 11:57 07.01.2021
4010 Clouds 23 1011 100 10000 0.5 140 11:36 07.01.2021
4011 Clouds 24 1010 94 10000 0.86 152 10:51 07.01.2021
4012 Clouds 24 1010 94 10000 0.86 152 10:31 07.01.2021
4013 Clouds 24 1009 94 10000 1 180 09:48 07.01.2021
4014 Clouds 24 1009 94 10000 1 180 09:19 07.01.2021
4015 Clear 24 1009 94 10000 1.5 200 08:29 07.01.2021
4016 Clear 24 1010 94 10000 1.5 190 07:51 07.01.2021
4017 Clear 24 1010 94 10000 1.5 190 07:26 07.01.2021
4018 Clouds 25 1011 94 10000 0.76 144 04:31 07.01.2021
4019 Thunderstorm 28 1008 78 10000 2.1 80 00:30 07.01.2021
4020 Clouds 29 1007 74 10000 2.1 90 23:48 06.01.2021
4021 Clouds 31 1007 66 10000 2.6 90 22:39 06.01.2021
4022 Clouds 30 1007 66 10000 4.1 70 21:44 06.01.2021
4023 Clouds 30 1007 66 10000 4.1 70 21:23 06.01.2021
4024 Clouds 30 1007 66 10000 4.1 70 20:58 06.01.2021
4025 Clouds 31 1009 70 10000 2.1 70 20:25 06.01.2021
4026 Clouds 31 1009 70 10000 2.1 70 19:59 06.01.2021
4027 Clouds 31 1009 70 10000 2.1 70 19:36 06.01.2021
4028 Clouds 31 1009 70 10000 2.1 70 19:18 06.01.2021
4029 Clouds 30 1010 70 10000 2.1 70 18:41 06.01.2021
4030 Clouds 30 1010 70 10000 2.1 70 18:22 06.01.2021
4031 Clouds 30 1011 70 10000 2.1 80 17:42 06.01.2021
4032 Clouds 30 1011 70 10000 2.1 80 17:23 06.01.2021
4033 Clouds 29 1012 74 10000 2.6 70 16:41 06.01.2021
4034 Clear 29 1012 78 10000 1.5 90 16:19 06.01.2021
4035 Clear 29 1012 78 10000 1.5 90 15:52 06.01.2021
4036 Clear 28 1012 78 10000 1.5 90 15:31 06.01.2021
4037 Clouds 27 1012 83 10000 1.5 90 14:46 06.01.2021
4038 Clouds 27 1012 83 10000 1.5 90 14:20 06.01.2021
4039 Clouds 27 1012 83 10000 1.5 90 14:20 06.01.2021
4040 Clouds 25 1012 88 10000 1.5 80 13:42 06.01.2021
4041 Clouds 24 1012 88 10000 1.5 80 13:21 06.01.2021
4042 Clouds 24 1011 88 10000 1.5 70 12:47 06.01.2021
4043 Clouds 23 1010 94 10000 1 60 11:51 06.01.2021
4044 Clouds 23 1010 94 10000 1 30 11:25 06.01.2021
4045 Clear 23 1010 94 10000 1 20 10:57 06.01.2021
4046 Clouds 23 1009 94 10000 1 70 10:18 06.01.2021
4047 Clouds 23 1009 94 10000 1 70 10:18 06.01.2021
4048 Rain 23 1009 94 10000 1 70 09:47 06.01.2021
4049 Rain 23 1009 94 10000 1 70 08:57 06.01.2021
4050 Rain 23 1009 94 10000 1 50 08:26 06.01.2021
4051 Clear 23 1009 94 10000 1 50 07:54 06.01.2021
4052 Rain 24 1010 88 10000 2.1 80 06:46 06.01.2021
4053 Rain 24 1010 88 10000 1.5 60 05:33 06.01.2021
4054 Rain 24 1011 88 10000 3.1 40 04:34 06.01.2021
4055 Rain 24 1010 94 10000 1.5 70 02:46 06.01.2021
4056 Rain 24 1009 94 10000 2.1 60 02:23 06.01.2021
4057 Rain 24 1008 94 10000 2.1 40 00:31 06.01.2021
4058 Rain 25 1008 88 10000 2.1 70 23:28 05.01.2021
4059 Rain 26 1007 83 10000 2.6 30 22:41 05.01.2021
4060 Clouds 26 1007 83 10000 2.6 30 22:20 05.01.2021
4061 Clouds 24 1007 88 10000 4.6 30 21:52 05.01.2021
4062 Rain 24 1008 94 5000 8.2 40 20:41 05.01.2021
4063 Rain 24 1008 94 5000 8.2 40 20:41 05.01.2021
4064 Rain 24 1008 94 5000 8.2 40 20:23 05.01.2021
4065 Clouds 31 1007 70 10000 1.5 80 19:42 05.01.2021
4066 Clouds 31 1007 70 10000 1.5 80 19:21 05.01.2021
4067 Rain 31 1009 70 10000 2.1 80 18:43 05.01.2021
4068 Clouds 31 1009 70 10000 2.1 80 18:24 05.01.2021
4069 Clouds 31 1010 70 10000 1.5 80 17:49 05.01.2021
4070 Clouds 31 1010 70 10000 1.5 80 17:27 05.01.2021
4071 Clouds 30 1011 74 10000 2.6 70 16:52 05.01.2021
4072 Clouds 30 1011 74 10000 2.1 70 16:21 05.01.2021
4073 Clouds 30 1011 74 10000 2.1 70 15:50 05.01.2021
4074 Clouds 28 1011 83 10000 1 130 14:56 05.01.2021
4075 Clouds 28 1011 83 10000 1 130 14:26 05.01.2021
4076 Clouds 26 1011 94 10000 1 40 13:49 05.01.2021
4077 Clouds 26 1011 94 10000 1 40 13:23 05.01.2021
4078 Clouds 25 1010 94 10000 1 40 12:48 05.01.2021
4079 Clouds 25 1010 94 10000 1 40 12:24 05.01.2021
4080 Clouds 25 1009 94 10000 0.5 30 11:39 05.01.2021
4081 Clear 25 1009 94 10000 1 10 10:55 05.01.2021
4082 Clear 25 1009 94 10000 1 10 10:36 05.01.2021
4083 Clouds 25 1009 94 10000 1 10 09:50 05.01.2021
4084 Rain 25 1009 94 10000 1 10 09:29 05.01.2021
4085 Clear 25 1009 88 10000 1 30 08:27 05.01.2021
4086 Clear 25 1009 88 10000 0.55 81 07:45 05.01.2021
4087 Clouds 26 1010 94 10000 1 320 04:55 05.01.2021
4088 Clouds 26 1008 83 10000 1.5 70 00:51 05.01.2021
4089 Clouds 27 1008 78 10000 1.5 90 23:46 04.01.2021
4090 Clouds 27 1008 78 10000 1.5 90 23:26 04.01.2021
4091 Clouds 28 1008 70 10000 2.1 70 22:54 04.01.2021
4092 Clouds 28 1008 70 10000 2.1 70 22:34 04.01.2021
4093 Clouds 28 1008 79 10000 2.1 80 21:52 04.01.2021
4094 Clouds 28 1008 79 10000 2.1 80 21:34 04.01.2021
4095 Clouds 28 1008 78 10000 1.5 90 20:48 04.01.2021
4096 Clouds 28 1008 78 10000 1.5 90 20:29 04.01.2021
4097 Clouds 27 1009 88 10000 2.1 50 19:52 04.01.2021
4098 Clouds 27 1009 88 10000 2.1 50 19:25 04.01.2021
4099 Clouds 26 1010 94 10000 3.1 50 18:55 04.01.2021
4100 Clouds 26 1010 94 10000 3.1 50 18:24 04.01.2021
4101 Rain 25 1011 94 1000 2.6 80 17:44 04.01.2021
4102 Clouds 25 1011 94 1000 2.6 80 17:25 04.01.2021
4103 Clouds 26 1012 94 5000 2.1 70 16:47 04.01.2021
4104 Clouds 26 1012 94 5000 2.1 70 16:27 04.01.2021
4105 Clouds 26 1012 88 10000 2.1 80 15:49 04.01.2021
4106 Clouds 26 1012 88 10000 2.1 80 15:28 04.01.2021
4107 Clouds 26 1012 88 10000 1.5 60 14:42 04.01.2021
4108 Clouds 25 1012 94 10000 1 80 13:47 04.01.2021
4109 Clouds 25 1012 94 10000 1 80 13:24 04.01.2021
4110 Clouds 24 1011 100 10000 1 70 12:42 04.01.2021
4111 Clouds 24 1011 100 10000 1 70 11:58 04.01.2021
4112 Clouds 24 1010 94 10000 1.38 98 11:22 04.01.2021
4113 Clouds 24 1009 94 10000 1 270 10:49 04.01.2021
4114 Clouds 24 1009 94 10000 1 270 10:28 04.01.2021
4115 Clouds 24 1009 94 10000 1 270 09:53 04.01.2021
4116 Clouds 24 1009 94 10000 1 270 09:20 04.01.2021
4117 Clouds 24 1009 94 10000 1 50 08:45 04.01.2021
4118 Clouds 24 1009 94 10000 1 50 07:58 04.01.2021
4119 Clouds 24 1010 94 10000 1 60 07:37 04.01.2021
4120 Clouds 24 1011 94 10000 1.26 148 05:33 04.01.2021
4121 Clouds 23 1010 100 10000 1.5 80 03:40 04.01.2021
4122 Rain 24 1009 94 10000 1.5 30 00:47 04.01.2021
4123 Rain 24 1009 94 10000 2.1 10 23:49 03.01.2021
4124 Rain 24 1009 94 10000 2.1 10 23:49 03.01.2021
4125 Rain 24 1009 94 10000 2.1 10 23:21 03.01.2021
4126 Rain 24 1009 94 8000 1 30 22:52 03.01.2021
4127 Rain 24 1009 94 8000 1 30 22:30 03.01.2021
4128 Thunderstorm 24 1009 94 2000 4.1 30 21:48 03.01.2021
4129 Thunderstorm 24 1009 94 2000 4.1 30 21:26 03.01.2021
4130 Thunderstorm 24 1009 94 2000 4.1 30 21:26 03.01.2021
4131 Rain 26 1008 83 5000 5.1 20 20:45 03.01.2021
4132 Rain 26 1008 83 5000 5.1 20 20:26 03.01.2021
4133 Rain 26 1008 88 10000 2.1 310 19:55 03.01.2021
4134 Rain 26 1008 88 10000 1.5 50 19:34 03.01.2021
4135 Clouds 27 1008 83 10000 1 320 18:57 03.01.2021
4136 Clouds 26 1010 83 10000 6.7 10 18:38 03.01.2021
4137 Clouds 25 1010 83 10000 6.7 10 18:18 03.01.2021
4138 Clouds 29 1010 79 10000 4.1 260 17:41 03.01.2021
4139 Clouds 29 1010 79 10000 4.1 260 17:22 03.01.2021
4140 Clouds 29 1011 74 10000 1 30 16:42 03.01.2021
4141 Clouds 29 1011 74 10000 1 30 16:19 03.01.2021
4142 Clouds 28 1012 78 10000 1 340 15:46 03.01.2021
4143 Clouds 28 1012 78 10000 1 340 15:26 03.01.2021
4144 Rain 27 1012 83 10000 1.5 260 14:50 03.01.2021
4145 Rain 27 1012 83 10000 1.5 260 14:27 03.01.2021
4146 Rain 26 1012 88 10000 1.5 250 13:40 03.01.2021
4147 Clouds 26 1012 88 10000 1.5 250 13:21 03.01.2021
4148 Rain 25 1011 88 10000 1 350 12:24 03.01.2021
4149 Rain 25 1010 88 10000 1.5 350 11:40 03.01.2021
4150 Clouds 25 1010 88 10000 1.5 350 11:22 03.01.2021
4151 Clouds 25 1009 83 10000 2.1 330 10:34 03.01.2021
4152 Clouds 25 1009 83 10000 2.1 330 09:55 03.01.2021
4153 Rain 25 1009 83 10000 2.6 320 09:33 03.01.2021
4154 Clouds 25 1009 83 10000 2.1 320 08:34 03.01.2021
4155 Clouds 26 1010 83 10000 2.6 300 07:24 03.01.2021
4156 Clouds 26 1010 83 10000 2.6 340 05:42 03.01.2021
4157 Clouds 27 1009 78 10000 2.6 360 02:27 03.01.2021
4158 Rain 27 1007 83 10000 1.5 10 00:56 03.01.2021
4159 Clouds 29 1006 83 5000 6.7 40 23:53 02.01.2021
4160 Clouds 32 1005 62 10000 1.5 90 23:20 02.01.2021
4161 Clouds 32 1005 62 10000 1.5 90 22:49 02.01.2021
4162 Clouds 32 1005 62 10000 1.5 90 22:49 02.01.2021
4163 Clouds 32 1005 62 10000 1.5 90 22:31 02.01.2021
4164 Clouds 33 1006 59 10000 2.1 80 21:49 02.01.2021
4165 Clouds 33 1006 59 10000 2.1 80 21:29 02.01.2021
4166 Clouds 33 1007 59 10000 2.6 70 20:46 02.01.2021
4167 Clouds 33 1007 59 10000 2.6 70 20:26 02.01.2021
4168 Clouds 33 1009 59 10000 2.1 90 19:48 02.01.2021
4169 Clouds 33 1009 59 10000 2.1 90 19:20 02.01.2021
4170 Clouds 33 1010 59 10000 1.5 110 18:51 02.01.2021
4171 Clouds 33 1010 59 10000 1.5 110 18:32 02.01.2021
4172 Clouds 32 1011 62 10000 2.1 80 17:46 02.01.2021
4173 Clouds 32 1011 62 10000 2.1 80 17:28 02.01.2021
4174 Clouds 32 1012 66 10000 1.5 90 16:46 02.01.2021
4175 Clouds 32 1012 66 10000 1.5 90 16:21 02.01.2021
4176 Clouds 30 1012 74 10000 1.5 80 15:46 02.01.2021
4177 Clouds 30 1012 74 10000 1.5 80 15:27 02.01.2021
4178 Clear 30 1012 74 10000 2.6 60 14:47 02.01.2021
4179 Clear 30 1012 74 10000 2.6 60 14:23 02.01.2021
4180 Clear 29 1012 74 10000 1.5 60 13:43 02.01.2021
4181 Clear 29 1012 74 10000 1.5 60 12:54 02.01.2021
4182 Clear 26 1011 83 10000 2.1 60 12:32 02.01.2021
4183 Clear 26 1011 83 10000 2.1 60 11:59 02.01.2021
4184 Clear 25 1011 88 10000 1.5 30 11:26 02.01.2021
4185 Clear 25 1011 88 10000 1.5 30 10:58 02.01.2021
4186 Clear 25 1011 88 10000 1.5 30 10:34 02.01.2021
4187 Clear 25 1011 94 10000 1 30 09:59 02.01.2021
4188 Clear 25 1010 83 10000 2.6 70 09:39 02.01.2021
4189 Clear 25 1010 88 10000 1.5 60 09:18 02.01.2021
4190 Clear 25 1010 88 10000 1.5 60 08:41 02.01.2021
4191 Clear 25 1010 88 10000 1.5 60 07:55 02.01.2021
4192 Clear 25 1010 88 10000 2.1 60 07:22 02.01.2021
4193 Clear 25 1010 88 10000 2.1 60 06:56 02.01.2021
4194 Clear 26 1011 88 10000 2.1 70 05:54 02.01.2021
4195 Clear 28 1009 83 10000 1 80 00:59 02.01.2021
4196 Clear 28 1009 83 10000 1 80 00:37 02.01.2021
4197 Clear 28 1009 83 10000 1 80 00:37 02.01.2021
4198 Clear 28 1009 83 10000 1 80 23:57 01.01.2021
4199 Clear 30 1008 70 10000 1 80 23:23 01.01.2021
4200 Clouds 31 1008 66 10000 1.5 90 22:48 01.01.2021
4201 Clouds 31 1008 66 10000 1.5 90 22:26 01.01.2021
4202 Clouds 32 1008 59 10000 3.1 90 21:58 01.01.2021
4203 Clouds 32 1008 62 10000 1 80 21:39 01.01.2021
4204 Clouds 32 1008 62 10000 1 80 21:19 01.01.2021
4205 Clouds 32 1009 62 10000 2.1 70 20:43 01.01.2021
4206 Clouds 32 1009 62 10000 2.1 70 20:18 01.01.2021
4207 Clouds 32 1011 62 10000 2.1 80 19:41 01.01.2021
4208 Clouds 32 1011 62 10000 2.1 80 19:20 01.01.2021
4209 Clouds 31 1012 66 10000 2.1 80 18:42 01.01.2021
4210 Clouds 31 1012 66 10000 2.1 80 18:23 01.01.2021
4211 Clouds 30 1013 70 10000 2.6 90 17:44 01.01.2021
4212 Clouds 30 1013 70 10000 2.6 90 17:23 01.01.2021
4213 Clouds 30 1014 74 10000 2.6 80 16:45 01.01.2021
4214 Clouds 30 1014 74 10000 2.6 80 16:25 01.01.2021
4215 Clouds 29 1014 79 10000 1.5 70 15:39 01.01.2021
4216 Clouds 27 1014 88 10000 1 50 14:44 01.01.2021
4217 Clouds 27 1014 88 10000 1 50 14:25 01.01.2021
4218 Clouds 26 1014 94 10000 1 140 13:38 01.01.2021
4219 Clouds 25 1013 94 10000 1 70 12:51 01.01.2021
4220 Clouds 25 1013 94 10000 1 70 12:27 01.01.2021
4221 Clouds 25 1013 94 10000 0.5 180 11:42 01.01.2021
4222 Clouds 25 1012 94 10000 0.59 103 11:19 01.01.2021
4223 Clouds 25 1013 94 10000 1 70 10:56 01.01.2021
4224 Clouds 25 1012 94 10000 0.6 85 10:26 01.01.2021
4225 Clear 25 1011 94 10000 0.6 85 09:30 01.01.2021
4226 Clear 25 1011 88 10000 2.1 80 08:30 01.01.2021
4227 Rain 25 1010 88 10000 2.1 50 06:46 01.01.2021
4228 Clear 25 1011 100 10000 0.84 19 04:50 01.01.2021
4229 Clouds 28 1010 83 10000 2.1 80 01:43 01.01.2021
4230 Thunderstorm 27 1009 83 10000 1 80 00:32 01.01.2021
4231 Clouds 29 1009 74 10000 1.5 80 23:41 31.12.2020
4232 Clouds 30 1009 70 10000 1.5 80 23:21 31.12.2020
4233 Clouds 30 1009 70 10000 1.5 80 22:42 31.12.2020
4234 Clouds 30 1009 70 10000 1.5 80 22:23 31.12.2020
4235 Clouds 31 1009 70 10000 1.5 130 21:56 31.12.2020
4236 Clouds 32 1009 62 10000 1.5 70 21:36 31.12.2020
4237 Clouds 32 1009 66 10000 1.5 190 20:58 31.12.2020
4238 Clouds 31 1009 62 10000 1.5 100 20:30 31.12.2020
4239 Clouds 31 1009 62 10000 1.5 100 20:30 31.12.2020
4240 Clouds 31 1010 66 10000 2.1 80 19:51 31.12.2020
4241 Clouds 31 1010 66 10000 2.1 80 19:33 31.12.2020
4242 Clouds 31 1010 66 10000 2.1 80 18:55 31.12.2020
4243 Clouds 31 1011 62 10000 2.1 80 18:25 31.12.2020
4244 Clouds 29 1013 70 10000 2.6 70 17:48 31.12.2020
4245 Clouds 29 1013 70 10000 2.6 70 17:28 31.12.2020
4246 Clouds 29 1013 70 10000 2.6 70 16:57 31.12.2020
4247 Clouds 30 1013 70 10000 1.51 40 16:38 31.12.2020
4248 Clouds 28 1014 69 10000 2.6 60 16:19 31.12.2020
4249 Clouds 28 1014 69 10000 2.6 60 15:42 31.12.2020
4250 Clear 27 1014 74 10000 1.5 40 15:19 31.12.2020
4251 Clear 27 1014 74 10000 1.5 40 14:41 31.12.2020
4252 Clear 26 1013 78 10000 2.1 20 14:23 31.12.2020
4253 Clear 26 1014 78 10000 1.5 340 13:57 31.12.2020
4254 Clear 26 1013 78 10000 2.1 20 13:36 31.12.2020
4255 Clear 25 1013 78 10000 2.1 20 13:18 31.12.2020
4256 Clear 24 1012 83 10000 2.1 340 12:45 31.12.2020
4257 Clear 24 1012 83 10000 2.1 340 12:27 31.12.2020
4258 Clouds 24 1010 94 10000 1.5 100 11:47 31.12.2020
4259 Clouds 24 1010 94 10000 1.5 100 11:47 31.12.2020
4260 Clouds 24 1010 94 10000 1.5 100 11:47 31.12.2020
4261 Clouds 24 1010 94 10000 1.5 100 11:28 31.12.2020
4262 Clouds 24 1010 94 10000 1.5 100 11:28 31.12.2020
4263 Clouds 24 1009 94 10000 1 90 10:41 31.12.2020
4264 Clouds 24 1009 94 10000 1 90 10:23 31.12.2020
4265 Clouds 24 1009 88 10000 0.5 110 09:48 31.12.2020
4266 Clouds 24 1009 88 10000 0.5 110 09:24 31.12.2020
4267 Clear 24 1010 94 10000 1 100 08:47 31.12.2020
4268 Clear 24 1010 94 10000 1 100 08:29 31.12.2020
4269 Clear 24 1010 94 10000 1 100 07:54 31.12.2020
4270 Clear 24 1010 88 10000 1 90 07:24 31.12.2020
4271 Clear 25 1011 94 10000 0.5 170 05:30 31.12.2020
4272 Clear 25 1011 88 10000 2.6 40 03:33 31.12.2020
4273 Clear 25 1010 88 10000 2.1 40 02:36 31.12.2020
4274 Clear 25 1010 88 10000 2.1 40 01:56 31.12.2020
4275 Clear 25 1010 78 10000 2.1 30 01:37 31.12.2020
4276 Clear 26 1009 69 10000 2.6 20 00:57 31.12.2020
4277 Clear 26 1009 69 10000 2.6 20 00:26 31.12.2020
4278 Clear 28 1008 61 10000 3.6 360 23:36 30.12.2020
4279 Clouds 28 1008 62 10000 4.1 360 23:18 30.12.2020
4280 Clouds 29 1008 62 10000 4.1 360 22:35 30.12.2020
4281 Clouds 29 1009 62 10000 4.6 20 21:54 30.12.2020
4282 Clouds 29 1009 62 10000 4.6 20 21:54 30.12.2020
4283 Clouds 29 1009 62 10000 4.6 20 21:27 30.12.2020
4284 Clouds 29 1010 62 10000 4.6 10 20:53 30.12.2020
4285 Clouds 29 1010 62 10000 4.6 10 20:29 30.12.2020
4286 Clouds 29 1010 62 10000 4.6 10 19:58 30.12.2020
4287 Clouds 29 1010 62 10000 4.6 20 19:37 30.12.2020
4288 Clouds 29 1010 62 10000 4.6 20 19:37 30.12.2020
4289 Clouds 29 1011 62 10000 4.1 30 19:18 30.12.2020
4290 Clouds 29 1011 62 10000 4.1 30 18:39 30.12.2020
4291 Clouds 29 1011 62 10000 4.1 30 18:20 30.12.2020
4292 Clouds 29 1012 66 10000 2.6 20 17:43 30.12.2020
4293 Clouds 29 1012 66 10000 2.6 20 17:24 30.12.2020
4294 Clouds 28 1013 74 10000 2.6 70 16:44 30.12.2020
4295 Clouds 26 1013 83 10000 2.1 70 15:51 30.12.2020
4296 Rain 26 1013 83 10000 2.1 70 15:31 30.12.2020
4297 Rain 26 1013 83 10000 2.1 70 14:58 30.12.2020
4298 Rain 25 1013 88 10000 2.6 70 14:39 30.12.2020
4299 Clouds 25 1013 88 10000 2.6 70 14:19 30.12.2020
4300 Clouds 24 1013 88 10000 2.1 70 13:19 30.12.2020
4301 Rain 23 1012 94 10000 0.5 100 12:26 30.12.2020
4302 Rain 23 1011 94 10000 2.1 10 11:45 30.12.2020
4303 Rain 23 1011 94 10000 2.1 10 11:22 30.12.2020
4304 Rain 23 1011 94 10000 2.1 10 10:57 30.12.2020
4305 Rain 23 1010 94 10000 2.1 360 10:37 30.12.2020
4306 Rain 23 1010 94 10000 3.6 360 10:18 30.12.2020
4307 Rain 23 1010 94 10000 3.6 360 09:41 30.12.2020
4308 Rain 23 1010 94 10000 3.6 360 09:41 30.12.2020
4309 Rain 23 1010 94 10000 2.6 340 08:36 30.12.2020
4310 Rain 23 1011 100 8000 2.6 350 07:50 30.12.2020
4311 Rain 23 1011 100 8000 2.6 350 07:24 30.12.2020
4312 Rain 23 1012 100 4000 1 40 06:40 30.12.2020
4313 Rain 23 1012 100 3000 1.5 250 05:47 30.12.2020
4314 Rain 23 1012 100 3000 1.5 250 05:28 30.12.2020
4315 Rain 24 1012 94 3000 3.1 250 03:29 30.12.2020
4316 Rain 24 1011 94 3000 3.6 260 02:52 30.12.2020
4317 Rain 24 1011 94 3000 3.6 260 02:31 30.12.2020
4318 Rain 25 1010 88 10000 6.2 280 01:44 30.12.2020
4319 Rain 25 1010 88 10000 6.2 280 01:26 30.12.2020
4320 Clouds 24 1009 94 10000 7.2 260 00:40 30.12.2020
4321 Clouds 25 1008 88 10000 5.7 260 00:21 30.12.2020
4322 Clouds 25 1008 88 10000 5.7 260 23:42 29.12.2020
4323 Clouds 25 1008 88 10000 5.7 260 23:24 29.12.2020
4324 Clouds 27 1007 78 10000 3.6 270 22:46 29.12.2020
4325 Clouds 27 1007 78 10000 3.6 270 22:26 29.12.2020
4326 Clouds 27 1007 78 10000 3.6 270 21:54 29.12.2020
4327 Clouds 27 1006 78 10000 3.6 270 21:36 29.12.2020
4328 Clouds 27 1006 78 10000 3.6 270 20:55 29.12.2020
4329 Clouds 27 1007 78 10000 2.1 250 20:37 29.12.2020
4330 Clouds 27 1007 78 10000 2.1 250 20:19 29.12.2020
4331 Rain 29 1008 74 10000 1 140 19:40 29.12.2020
4332 Rain 29 1008 74 10000 1 140 19:20 29.12.2020
4333 Clouds 29 1009 66 10000 1.5 130 18:46 29.12.2020
4334 Clouds 29 1009 66 10000 1.5 130 18:27 29.12.2020
4335 Clouds 30 1010 74 10000 1.5 140 17:44 29.12.2020
4336 Clouds 28 1011 83 10000 1 160 17:20 29.12.2020
4337 Clouds 29 1011 83 10000 1 160 16:39 29.12.2020
4338 Clouds 28 1012 88 10000 1.5 70 16:18 29.12.2020
4339 Clouds 27 1012 88 10000 1.5 70 15:37 29.12.2020
4340 Clouds 28 1012 78 10000 3.6 60 14:59 29.12.2020
4341 Clouds 27 1012 83 10000 1.5 90 14:36 29.12.2020
4342 Clouds 27 1012 83 10000 1.5 90 14:18 29.12.2020
4343 Clouds 26 1011 88 10000 1 160 13:48 29.12.2020
4344 Clouds 26 1011 88 10000 1 160 13:21 29.12.2020
4345 Clouds 25 1010 100 10000 2.38 147 12:38 29.12.2020
4346 Clouds 25 1010 100 10000 2.07 145 12:19 29.12.2020
4347 Clouds 25 1009 94 10000 1.5 50 11:53 29.12.2020
4348 Clouds 25 1009 94 10000 1.5 50 11:31 29.12.2020
4349 Clouds 24 1009 100 10000 1.5 70 10:34 29.12.2020
4350 Clouds 25 1008 94 10000 1 80 09:49 29.12.2020
4351 Clouds 25 1008 94 10000 1 80 09:22 29.12.2020
4352 Clouds 25 1008 94 10000 1 80 08:54 29.12.2020
4353 Clouds 25 1009 94 10000 1.5 40 08:32 29.12.2020
4354 Clouds 25 1009 94 10000 2.1 60 07:26 29.12.2020
4355 Clouds 25 1010 94 10000 1.5 70 06:45 29.12.2020
4356 Clear 25 1010 88 10000 1.5 70 05:25 29.12.2020
4357 Rain 26 1009 88 10000 3.1 50 00:49 29.12.2020
4358 Rain 26 1009 88 10000 3.1 50 00:21 29.12.2020
4359 Clouds 26 1008 83 10000 4.1 70 23:36 28.12.2020
4360 Clouds 27 1007 78 10000 0.5 40 22:28 28.12.2020
4361 Clouds 27 1007 78 10000 0.5 40 22:28 28.12.2020
4362 Clouds 31 1006 70 10000 3.1 80 21:46 28.12.2020
4363 Clouds 31 1006 70 10000 3.1 80 21:27 28.12.2020
4364 Clouds 31 1007 70 10000 1.5 90 20:43 28.12.2020
4365 Clouds 31 1007 70 10000 1.5 90 20:23 28.12.2020
4366 Clouds 31 1008 74 10000 2.6 70 19:50 28.12.2020
4367 Clouds 31 1008 74 10000 2.6 70 19:25 28.12.2020
4368 Clouds 31 1008 62 10000 3.6 70 18:59 28.12.2020
4369 Clouds 30 1010 70 10000 2.6 110 18:28 28.12.2020
4370 Clouds 29 1011 74 10000 2.6 150 17:47 28.12.2020
4371 Clouds 29 1012 74 10000 1.5 90 17:29 28.12.2020
4372 Clouds 29 1012 74 10000 1.5 90 16:50 28.12.2020
4373 Clouds 29 1012 74 10000 1.5 90 16:28 28.12.2020
4374 Clouds 28 1012 79 10000 2.6 160 15:53 28.12.2020
4375 Clouds 27 1012 83 10000 2.1 160 15:33 28.12.2020
4376 Clouds 26 1012 88 10000 1.5 150 14:29 28.12.2020
4377 Clouds 26 1012 88 10000 2.1 160 13:39 28.12.2020
4378 Clouds 25 1011 94 10000 1 150 13:19 28.12.2020
4379 Clouds 25 1011 94 10000 1 150 12:26 28.12.2020
4380 Clouds 25 1010 94 10000 1.5 170 11:49 28.12.2020
4381 Clouds 25 1010 94 10000 1.5 170 11:30 28.12.2020
4382 Clouds 25 1010 94 10000 1.5 170 10:56 28.12.2020
4383 Clouds 25 1009 94 10000 1 170 10:29 28.12.2020
4384 Clouds 25 1009 94 10000 1.38 132 09:53 28.12.2020
4385 Clouds 25 1009 94 10000 1.37 136 09:25 28.12.2020
4386 Clouds 25 1009 94 10000 1.37 136 08:58 28.12.2020
4387 Clear 25 1010 94 10000 1.45 145 06:52 28.12.2020
4388 Clear 26 1010 88 10000 1 90 04:56 28.12.2020
4389 Clear 26 1010 88 10000 2.6 70 03:26 28.12.2020
4390 Clouds 27 1008 78 10000 2.1 80 01:52 28.12.2020
4391 Clouds 29 1007 74 10000 2.1 80 23:52 27.12.2020
4392 Clouds 29 1007 74 10000 2.1 80 23:20 27.12.2020
4393 Clouds 29 1006 70 10000 2.1 80 22:28 27.12.2020
4394 Clouds 30 1005 74 10000 2.1 80 21:47 27.12.2020
4395 Clouds 30 1005 74 10000 2.1 80 21:20 27.12.2020
4396 Clouds 30 1006 70 10000 5.1 60 19:59 27.12.2020
4397 Clouds 31 1007 70 10000 2.6 80 19:24 27.12.2020
4398 Clouds 31 1008 70 10000 4.1 70 18:49 27.12.2020
4399 Clouds 31 1008 70 10000 4.1 70 18:20 27.12.2020
4400 Clouds 31 1008 70 10000 4.1 70 17:56 27.12.2020
4401 Clouds 29 1010 79 10000 2.1 70 17:35 27.12.2020
4402 Clouds 28 1010 83 10000 3.1 80 16:55 27.12.2020
4403 Clouds 28 1010 83 10000 3.1 70 16:21 27.12.2020
4404 Clouds 28 1010 83 10000 3.1 70 15:31 27.12.2020
4405 Clouds 26 1010 88 10000 2.1 70 14:50 27.12.2020
4406 Clouds 26 1010 88 10000 2.1 70 14:31 27.12.2020
4407 Clouds 26 1009 88 10000 1.5 70 13:36 27.12.2020
4408 Clouds 26 1009 88 10000 1.5 70 13:36 27.12.2020
4409 Rain 26 1009 88 10000 2.6 50 12:55 27.12.2020
4410 Rain 25 1008 94 10000 1 80 12:24 27.12.2020
4411 Rain 24 1007 94 10000 1.5 80 11:42 27.12.2020
4412 Rain 24 1007 94 10000 1.5 80 11:19 27.12.2020
4413 Rain 24 1007 94 10000 1.5 70 10:40 27.12.2020
4414 Rain 24 1008 94 10000 2.6 60 10:19 27.12.2020
4415 Clouds 24 1008 94 10000 2.6 60 09:19 27.12.2020
4416 Rain 24 1008 94 10000 2.1 60 08:28 27.12.2020
4417 Rain 24 1009 94 10000 2.6 60 07:28 27.12.2020
4418 Rain 25 1009 88 10000 2.6 50 05:48 27.12.2020
4419 Rain 25 1009 88 10000 2.6 50 05:21 27.12.2020
4420 Rain 25 1009 88 10000 2.6 40 03:24 27.12.2020
4421 Clouds 25 1008 88 10000 1.5 60 01:52 27.12.2020
4422 Clouds 27 1006 78 10000 4.6 30 00:26 27.12.2020
4423 Clouds 27 1004 78 10000 3.6 360 23:42 26.12.2020
4424 Clouds 27 1004 78 10000 3.6 360 23:22 26.12.2020
4425 Clouds 28 1004 78 10000 5.1 10 22:41 26.12.2020
4426 Clouds 28 1004 78 10000 1.5 320 22:18 26.12.2020
4427 Clouds 28 1004 78 10000 1.5 320 21:52 26.12.2020
4428 Clouds 28 1004 78 10000 1.5 320 21:24 26.12.2020
4429 Clouds 25 1005 100 8000 3.1 50 20:44 26.12.2020
4430 Clouds 26 1005 88 500 6.7 30 20:21 26.12.2020
4431 Clouds 31 1005 70 10000 2.6 50 19:30 26.12.2020
4432 Clouds 31 1007 74 10000 2.1 60 18:54 26.12.2020
4433 Clouds 30 1007 74 10000 2.1 60 18:32 26.12.2020
4434 Clouds 29 1008 79 10000 1.5 80 17:46 26.12.2020
4435 Clouds 29 1008 79 10000 1.5 80 17:28 26.12.2020
4436 Clouds 28 1009 78 10000 2.1 80 16:38 26.12.2020
4437 Clouds 28 1009 78 10000 2.1 80 15:58 26.12.2020
4438 Clouds 29 1009 79 10000 1.5 70 15:20 26.12.2020
4439 Clouds 27 1009 78 10000 1.5 30 14:31 26.12.2020
4440 Clouds 27 1009 78 10000 1.5 30 13:57 26.12.2020
4441 Clouds 25 1009 88 10000 3.1 10 13:37 26.12.2020
4442 Clouds 25 1009 88 10000 3.1 10 12:57 26.12.2020
4443 Clouds 24 1008 88 10000 2.1 340 12:39 26.12.2020
4444 Clouds 24 1008 88 10000 2.1 340 11:59 26.12.2020
4445 Clouds 24 1008 94 10000 1.5 340 11:41 26.12.2020
4446 Clouds 24 1007 94 10000 1 10 11:20 26.12.2020
4447 Clouds 24 1007 94 10000 1 10 10:45 26.12.2020
4448 Clouds 24 1007 94 10000 1 10 10:24 26.12.2020
4449 Clouds 24 1007 94 10000 1 10 09:47 26.12.2020
4450 Clouds 24 1008 94 10000 1 40 08:55 26.12.2020
4451 Clouds 24 1008 94 10000 1 40 08:19 26.12.2020
4452 Clouds 24 1008 94 10000 1 10 07:21 26.12.2020
4453 Rain 24 1009 100 10000 3.1 350 04:39 26.12.2020
4454 Rain 24 1009 100 10000 2.1 70 02:34 26.12.2020
4455 Rain 24 1008 100 10000 3.1 80 00:34 26.12.2020
4456 Rain 25 1007 94 10000 2.6 80 23:49 25.12.2020
4457 Rain 25 1007 94 10000 2.6 80 23:28 25.12.2020
4458 Rain 25 1006 94 10000 2.6 40 22:51 25.12.2020
4459 Rain 25 1006 94 10000 2.6 40 22:26 25.12.2020
4460 Rain 26 1005 88 10000 3.6 20 21:42 25.12.2020
4461 Rain 26 1005 88 10000 3.6 20 21:24 25.12.2020
4462 Rain 26 1006 88 10000 4.6 290 20:44 25.12.2020
4463 Rain 26 1006 88 10000 4.6 290 20:26 25.12.2020
4464 Clouds 28 1006 70 10000 2.1 230 19:42 25.12.2020
4465 Clouds 32 1007 70 10000 1.5 160 18:43 25.12.2020
4466 Clouds 32 1007 70 10000 1.5 160 18:25 25.12.2020
4467 Clouds 30 1009 74 10000 1.5 190 17:35 25.12.2020
4468 Clouds 29 1010 74 10000 1 350 16:51 25.12.2020
4469 Clouds 28 1010 74 10000 1 350 16:21 25.12.2020
4470 Clouds 28 1010 79 10000 1 360 15:49 25.12.2020
4471 Clouds 28 1010 79 10000 1 360 15:25 25.12.2020
4472 Clouds 27 1010 83 10000 2.6 350 14:32 25.12.2020
4473 Clouds 26 1010 83 10000 2.1 320 13:48 25.12.2020
4474 Clouds 26 1010 83 10000 2.1 320 13:26 25.12.2020
4475 Clouds 26 1010 83 10000 2.1 320 12:56 25.12.2020
4476 Clouds 26 1009 83 10000 1.5 350 12:27 25.12.2020
4477 Rain 25 1008 88 10000 1.5 340 11:46 25.12.2020
4478 Clear 25 1008 88 10000 1.5 340 11:23 25.12.2020
4479 Clouds 26 1007 88 10000 1 350 10:40 25.12.2020
4480 Clouds 26 1007 88 10000 2.1 320 09:49 25.12.2020
4481 Clouds 26 1007 83 10000 2.1 340 08:53 25.12.2020
4482 Clouds 26 1007 83 10000 2.1 340 08:35 25.12.2020
4483 Clouds 26 1009 88 10000 1.33 326 06:51 25.12.2020
4484 Clouds 26 1010 88 10000 1.47 322 05:38 25.12.2020
4485 Rain 27 1009 83 10000 1 240 02:21 25.12.2020
4486 Rain 27 1007 83 10000 1.5 20 00:25 25.12.2020
4487 Rain 27 1006 83 10000 1.5 20 23:31 24.12.2020
4488 Rain 27 1006 83 10000 1.5 20 22:54 24.12.2020
4489 Rain 27 1006 83 10000 1.5 20 22:54 24.12.2020
4490 Rain 29 1006 79 10000 2.1 260 22:24 24.12.2020
4491 Rain 28 1006 83 10000 1.5 50 21:47 24.12.2020
4492 Rain 28 1006 83 10000 1.5 50 20:59 24.12.2020
4493 Thunderstorm 30 1008 79 10000 4.6 250 19:48 24.12.2020
4494 Clouds 30 1009 74 10000 4.1 260 18:21 24.12.2020
4495 Clouds 30 1011 74 10000 3.6 240 17:38 24.12.2020
4496 Clouds 30 1011 74 10000 3.6 240 17:20 24.12.2020
4497 Clouds 30 1011 74 10000 3.6 240 17:20 24.12.2020
4498 Clouds 28 1012 74 10000 1.5 250 16:25 24.12.2020
4499 Clouds 28 1012 74 10000 1.5 250 15:49 24.12.2020
4500 Clouds 28 1012 74 10000 1.5 250 15:25 24.12.2020
4501 Clouds 27 1012 83 10000 1.5 200 14:56 24.12.2020
4502 Clouds 27 1012 83 10000 1.5 200 14:37 24.12.2020
4503 Clouds 26 1011 88 10000 2.1 230 14:18 24.12.2020
4504 Clouds 26 1011 88 10000 2.1 230 13:38 24.12.2020
4505 Clouds 25 1010 88 10000 1 310 13:18 24.12.2020
4506 Rain 25 1010 88 10000 1 310 12:39 24.12.2020
4507 Rain 25 1010 88 10000 1 310 12:18 24.12.2020
4508 Rain 24 1009 94 10000 2.6 250 11:38 24.12.2020
4509 Rain 24 1009 94 10000 2.6 250 11:19 24.12.2020
4510 Clouds 24 1010 88 10000 2.6 250 10:43 24.12.2020
4511 Clouds 24 1010 88 10000 2.6 280 10:18 24.12.2020
4512 Rain 24 1010 88 10000 2.6 280 09:49 24.12.2020
4513 Clouds 24 1010 88 10000 2.1 340 08:50 24.12.2020
4514 Clouds 24 1010 88 10000 2.6 340 07:54 24.12.2020
4515 Clouds 24 1010 88 10000 2.6 340 07:35 24.12.2020
4516 Clear 25 1011 88 10000 2.1 350 06:23 24.12.2020
4517 Rain 25 1011 94 10000 3.1 20 03:29 24.12.2020
4518 Clouds 25 1009 94 10000 2.6 290 01:48 24.12.2020
4519 Rain 25 1009 88 5000 1 240 01:19 24.12.2020
4520 Rain 25 1009 88 5000 1 240 00:23 24.12.2020
4521 Rain 25 1009 88 5000 1 240 23:57 23.12.2020
4522 Thunderstorm 26 1007 83 4000 5.7 30 23:38 23.12.2020
4523 Clouds 26 1007 83 4000 5.7 30 23:19 23.12.2020
4524 Clouds 30 1007 59 10000 2.1 260 22:42 23.12.2020
4525 Clouds 33 1007 59 10000 2.1 260 22:21 23.12.2020
4526 Clouds 33 1006 59 10000 1.5 220 21:42 23.12.2020
4527 Clouds 33 1006 59 10000 1.5 220 21:21 23.12.2020
4528 Clouds 33 1007 59 10000 1.5 180 20:38 23.12.2020
4529 Clouds 33 1007 59 10000 1.5 180 20:19 23.12.2020
4530 Clouds 32 1007 62 10000 2.1 180 19:44 23.12.2020
4531 Clouds 32 1007 62 10000 2.1 180 19:23 23.12.2020
4532 Clouds 32 1007 62 10000 2.1 180 18:54 23.12.2020
4533 Clouds 33 1009 63 10000 1.5 190 18:35 23.12.2020
4534 Clouds 31 1010 70 10000 2.1 180 17:44 23.12.2020
4535 Clouds 31 1010 70 10000 2.1 180 17:22 23.12.2020
4536 Clouds 31 1010 70 10000 2.1 180 16:56 23.12.2020
4537 Clouds 31 1011 70 10000 2.1 170 16:36 23.12.2020
4538 Clouds 31 1011 70 10000 2.1 170 16:18 23.12.2020
4539 Clouds 29 1012 79 10000 2.1 190 15:39 23.12.2020
4540 Clouds 29 1012 79 10000 2.1 190 15:21 23.12.2020
4541 Clouds 28 1012 83 10000 1.5 160 14:46 23.12.2020
4542 Clouds 28 1012 83 10000 1.5 160 14:23 23.12.2020
4543 Clouds 27 1011 83 10000 2.1 170 13:46 23.12.2020
4544 Clouds 27 1011 83 10000 2.1 170 13:20 23.12.2020
4545 Clouds 27 1011 83 10000 2.1 170 12:58 23.12.2020
4546 Clouds 26 1010 88 10000 1.5 170 12:37 23.12.2020
4547 Clouds 26 1010 88 10000 1.5 170 12:18 23.12.2020
4548 Clouds 25 1009 94 10000 1 180 11:43 23.12.2020
4549 Clouds 25 1009 94 10000 1 180 10:57 23.12.2020
4550 Clouds 25 1009 94 10000 1 180 10:57 23.12.2020
4551 Clouds 25 1010 94 10000 1.21 172 10:39 23.12.2020
4552 Clouds 25 1009 94 10000 1 120 09:45 23.12.2020
4553 Clouds 25 1009 94 10000 1 120 09:25 23.12.2020
4554 Clear 25 1009 94 10000 0.88 155 08:42 23.12.2020
4555 Clear 26 1010 94 10000 0.5 100 07:51 23.12.2020
4556 Clear 26 1010 94 10000 0.5 100 06:59 23.12.2020
4557 Clear 26 1010 94 10000 0.93 169 06:37 23.12.2020
4558 Clear 26 1011 94 10000 0.5 170 05:25 23.12.2020
4559 Clear 26 1010 94 10000 0.75 151 03:56 23.12.2020
4560 Clouds 28 1008 83 10000 1 70 00:33 23.12.2020
4561 Clouds 29 1007 79 10000 1.5 80 23:45 22.12.2020
4562 Clouds 29 1007 79 10000 1.5 80 23:25 22.12.2020
4563 Clouds 30 1007 74 10000 1 80 22:43 22.12.2020
4564 Clouds 30 1007 74 10000 1 80 22:25 22.12.2020
4565 Clouds 30 1007 70 10000 1 140 21:54 22.12.2020
4566 Rain 30 1007 70 10000 1 140 21:21 22.12.2020
4567 Rain 30 1007 70 10000 1 140 20:55 22.12.2020
4568 Rain 32 1007 62 10000 1.5 150 20:37 22.12.2020
4569 Thunderstorm 32 1008 66 10000 1.5 160 20:18 22.12.2020
4570 Clouds 32 1008 66 10000 1.5 180 19:41 22.12.2020
4571 Clouds 31 1010 70 10000 2.1 170 19:20 22.12.2020
4572 Clouds 31 1010 70 10000 2.1 170 18:47 22.12.2020
4573 Clouds 31 1010 70 10000 2.1 170 18:27 22.12.2020
4574 Clouds 31 1011 70 10000 1 190 17:41 22.12.2020
4575 Clouds 31 1011 70 10000 1 190 17:18 22.12.2020
4576 Clouds 31 1011 70 10000 1 190 17:18 22.12.2020
4577 Clouds 30 1012 74 10000 2.1 220 16:47 22.12.2020
4578 Clouds 30 1012 74 10000 2.1 220 16:21 22.12.2020
4579 Clouds 28 1012 78 10000 1.5 220 15:48 22.12.2020
4580 Clouds 28 1012 78 10000 1.5 220 15:48 22.12.2020
4581 Clouds 28 1012 78 10000 1.5 220 15:29 22.12.2020
4582 Clouds 27 1012 83 10000 1 220 14:58 22.12.2020
4583 Clouds 27 1012 83 10000 1 220 14:39 22.12.2020
4584 Clouds 27 1012 83 10000 1 220 14:20 22.12.2020
4585 Clouds 27 1012 83 10000 1.5 250 13:44 22.12.2020
4586 Clouds 25 1012 94 10000 1.5 230 13:19 22.12.2020
4587 Clouds 24 1011 100 10000 2.6 260 12:46 22.12.2020
4588 Clouds 24 1011 100 10000 2.6 260 12:27 22.12.2020
4589 Clouds 24 1011 100 10000 2.6 260 11:57 22.12.2020
4590 Clouds 25 1011 94 10000 2.1 250 11:39 22.12.2020
4591 Clouds 24 1011 94 10000 1.5 240 11:19 22.12.2020
4592 Clouds 25 1011 94 10000 1 130 10:51 22.12.2020
4593 Clouds 25 1011 94 10000 1 130 10:24 22.12.2020
4594 Clouds 25 1011 94 10000 1 130 09:56 22.12.2020
4595 Clouds 25 1011 94 10000 1 140 09:23 22.12.2020
4596 Clouds 25 1011 94 10000 1 150 08:53 22.12.2020
4597 Clouds 25 1011 94 10000 1 150 08:29 22.12.2020
4598 Thunderstorm 25 1011 94 10000 1 160 07:48 22.12.2020
4599 Rain 25 1012 88 10000 1.5 10 06:48 22.12.2020
4600 Thunderstorm 26 1012 83 10000 1.5 300 05:44 22.12.2020
4601 Clouds 26 1012 88 10000 1.5 10 03:33 22.12.2020
4602 Clouds 26 1009 94 10000 1 80 00:46 22.12.2020
4603 Clouds 27 1009 88 10000 0.5 130 23:52 21.12.2020
4604 Clouds 27 1009 88 10000 0.5 130 23:31 21.12.2020
4605 Clouds 27 1008 83 10000 2.1 40 22:38 21.12.2020
4606 Clouds 27 1008 83 10000 2.1 40 22:19 21.12.2020
4607 Clouds 27 1008 83 10000 2.1 40 21:57 21.12.2020
4608 Clouds 27 1009 83 10000 1 320 21:39 21.12.2020
4609 Clouds 27 1009 83 10000 1 320 21:18 21.12.2020
4610 Clouds 27 1008 83 10000 2.1 70 20:27 21.12.2020
4611 Clouds 26 1008 83 10000 2.1 70 19:58 21.12.2020
4612 Rain 26 1010 83 10000 4.6 50 19:39 21.12.2020
4613 Rain 27 1010 74 10000 2.6 70 19:18 21.12.2020
4614 Rain 28 1010 74 10000 2.6 70 18:50 21.12.2020
4615 Rain 28 1010 74 10000 2.6 70 18:32 21.12.2020
4616 Thunderstorm 31 1010 70 10000 1.5 120 17:43 21.12.2020
4617 Thunderstorm 31 1010 70 10000 1.5 120 17:24 21.12.2020
4618 Thunderstorm 30 1011 74 10000 1.5 110 16:47 21.12.2020
4619 Clouds 29 1012 83 10000 1.5 170 16:26 21.12.2020
4620 Clouds 29 1012 83 10000 1.5 170 15:45 21.12.2020
4621 Clouds 29 1012 83 10000 1.5 170 15:27 21.12.2020
4622 Clouds 28 1012 88 10000 1 110 14:56 21.12.2020
4623 Clouds 28 1012 94 10000 0.5 140 14:21 21.12.2020
4624 Clouds 27 1012 94 10000 0.5 140 13:42 21.12.2020
4625 Clouds 26 1011 100 10000 0.5 100 13:24 21.12.2020
4626 Clouds 26 1011 100 10000 0.5 100 12:43 21.12.2020
4627 Clouds 26 1011 100 10000 0.5 100 12:24 21.12.2020
4628 Clouds 26 1011 100 10000 0.5 100 11:55 21.12.2020
4629 Clouds 25 1010 94 10000 0.93 133 11:37 21.12.2020
4630 Clouds 25 1009 100 10000 0.86 111 11:18 21.12.2020
4631 Clouds 25 1009 100 10000 0.86 111 10:40 21.12.2020
4632 Clouds 25 1009 100 10000 0.49 70 10:21 21.12.2020
4633 Clear 25 1009 88 10000 1 20 09:43 21.12.2020
4634 Clear 25 1009 88 10000 1 20 09:24 21.12.2020
4635 Clear 26 1009 88 10000 0.35 70 08:47 21.12.2020
4636 Clear 26 1010 94 10000 0.31 84 07:48 21.12.2020
4637 Clear 26 1010 94 10000 0.56 335 06:22 21.12.2020
4638 Clouds 26 1011 94 10000 1 220 04:32 21.12.2020
4639 Thunderstorm 27 1009 83 10000 1.5 90 01:22 21.12.2020
4640 Thunderstorm 27 1009 83 10000 1.5 90 00:31 21.12.2020
4641 Clouds 27 1007 83 10000 0.5 70 23:34 20.12.2020
4642 Rain 27 1007 83 10000 0.5 70 22:58 20.12.2020
4643 Rain 28 1007 78 10000 3.1 70 22:39 20.12.2020
4644 Rain 28 1007 78 10000 3.1 70 22:21 20.12.2020
4645 Rain 31 1007 70 10000 3.1 10 21:39 20.12.2020
4646 Clouds 31 1007 70 10000 3.1 10 21:20 20.12.2020
4647 Clouds 31 1007 70 10000 1 170 20:48 20.12.2020
4648 Clouds 31 1007 70 10000 1 170 20:23 20.12.2020
4649 Clouds 31 1009 70 10000 1 240 19:46 20.12.2020
4650 Clouds 31 1009 70 10000 1 240 19:26 20.12.2020
4651 Clouds 30 1010 70 10000 1.5 100 18:56 20.12.2020
4652 Clouds 30 1010 70 10000 1.5 100 18:38 20.12.2020
4653 Clouds 29 1010 70 10000 1.5 100 18:19 20.12.2020
4654 Clouds 28 1011 74 10000 1.5 30 17:42 20.12.2020
4655 Clouds 28 1012 78 10000 2.6 40 17:18 20.12.2020
4656 Clouds 28 1012 78 10000 2.6 40 16:44 20.12.2020
4657 Clouds 28 1013 78 10000 2.1 30 16:24 20.12.2020
4658 Clouds 28 1013 78 10000 2.1 30 15:41 20.12.2020
4659 Clouds 27 1013 83 10000 1.5 40 15:23 20.12.2020
4660 Clouds 27 1013 83 10000 1.5 40 14:49 20.12.2020
4661 Clouds 27 1013 83 10000 1.5 40 14:29 20.12.2020
4662 Clouds 26 1012 88 10000 0.7 38 13:46 20.12.2020
4663 Clouds 25 1011 94 10000 1 50 13:23 20.12.2020
4664 Clouds 25 1011 94 10000 1 50 12:54 20.12.2020
4665 Clouds 25 1011 94 10000 1 50 12:27 20.12.2020
4666 Clouds 25 1011 94 10000 1 50 11:57 20.12.2020
4667 Clouds 24 1010 94 10000 0.23 249 11:38 20.12.2020
4668 Clouds 24 1010 94 10000 0.3 271 10:50 20.12.2020
4669 Clouds 24 1010 94 10000 0.28 260 10:23 20.12.2020
4670 Clouds 24 1010 94 10000 0.28 260 09:57 20.12.2020
4671 Clouds 24 1009 100 10000 1 20 09:39 20.12.2020
4672 Clouds 24 1009 100 10000 1 20 09:20 20.12.2020
4673 Clear 23 1008 100 10000 0.17 207 08:48 20.12.2020
4674 Clouds 24 1009 100 10000 1.5 20 08:30 20.12.2020
4675 Clouds 24 1009 100 10000 1.5 20 07:22 20.12.2020
4676 Clouds 25 1010 94 10000 1.5 350 05:33 20.12.2020
4677 Clouds 24 1010 100 10000 0.5 60 01:32 20.12.2020
4678 Rain 24 1009 94 10000 1.5 60 00:22 20.12.2020
4679 Rain 25 1008 94 10000 2.6 50 23:18 19.12.2020
4680 Rain 25 1008 94 10000 2.6 50 22:45 19.12.2020
4681 Rain 25 1008 94 10000 2.6 50 22:25 19.12.2020
4682 Rain 25 1008 94 10000 4.1 360 21:59 19.12.2020
4683 Rain 25 1008 94 10000 4.1 360 21:40 19.12.2020
4684 Rain 25 1008 88 10000 6.2 10 21:21 19.12.2020
4685 Rain 25 1008 88 10000 6.2 10 20:40 19.12.2020
4686 Rain 25 1008 83 10000 6.7 360 20:18 19.12.2020
4687 Rain 25 1008 83 10000 6.7 360 19:50 19.12.2020
4688 Rain 25 1008 83 10000 6.7 360 19:29 19.12.2020
4689 Clouds 30 1009 74 10000 3.1 230 18:37 19.12.2020
4690 Clouds 30 1009 74 10000 3.1 230 18:19 19.12.2020
4691 Clouds 31 1010 74 10000 2.6 210 17:44 19.12.2020
4692 Clouds 30 1011 70 10000 2.6 170 17:22 19.12.2020
4693 Clouds 30 1011 70 10000 2.6 170 16:43 19.12.2020
4694 Clouds 30 1011 70 10000 2.6 170 16:25 19.12.2020
4695 Clouds 29 1011 74 10000 3.1 240 15:55 19.12.2020
4696 Clouds 28 1012 78 10000 2.1 240 15:33 19.12.2020
4697 Clouds 28 1012 78 10000 2.1 250 14:40 19.12.2020
4698 Clouds 26 1011 88 10000 1.5 220 14:21 19.12.2020
4699 Clouds 26 1011 88 10000 1.5 220 13:41 19.12.2020
4700 Clouds 26 1011 88 10000 1.5 220 13:19 19.12.2020
4701 Clouds 25 1011 94 10000 1 210 12:43 19.12.2020
4702 Clouds 25 1011 94 10000 1 210 12:25 19.12.2020
4703 Clouds 25 1011 94 10000 1 210 11:56 19.12.2020
4704 Clouds 24 1010 94 10000 1 270 11:35 19.12.2020
4705 Clouds 24 1009 94 10000 1 330 10:43 19.12.2020
4706 Clouds 24 1009 94 10000 1 330 10:23 19.12.2020
4707 Clouds 24 1009 88 10000 2.1 320 09:45 19.12.2020
4708 Clouds 24 1009 88 10000 2.1 320 09:27 19.12.2020
4709 Clouds 24 1009 88 10000 1 340 08:25 19.12.2020
4710 Clear 24 1009 88 10000 1.5 270 07:24 19.12.2020
4711 Clear 25 1010 83 10000 1 350 06:51 19.12.2020
4712 Clear 25 1010 83 10000 1 350 06:18 19.12.2020
4713 Clear 24 1010 88 10000 2.1 20 05:18 19.12.2020
4714 Clear 25 1010 94 10000 2.1 360 02:55 19.12.2020
4715 Clouds 25 1008 83 10000 2.6 360 00:36 19.12.2020
4716 Clouds 25 1008 83 10000 2.6 360 00:18 19.12.2020
4717 Clouds 26 1007 83 10000 2.1 360 23:45 18.12.2020
4718 Clouds 26 1007 83 10000 2.1 360 23:23 18.12.2020
4719 Clouds 26 1006 78 10000 2.6 20 22:45 18.12.2020
4720 Clouds 27 1006 78 10000 2.6 20 22:21 18.12.2020
4721 Clouds 27 1007 78 10000 2.6 50 21:50 18.12.2020
4722 Clouds 27 1007 78 10000 2.6 50 21:31 18.12.2020
4723 Clouds 26 1008 83 10000 4.1 30 20:40 18.12.2020
4724 Clouds 26 1008 83 10000 4.1 30 20:20 18.12.2020
4725 Clouds 26 1010 94 10000 4.1 30 19:42 18.12.2020
4726 Clouds 26 1010 94 10000 4.1 30 19:20 18.12.2020
4727 Rain 25 1011 94 10000 4.1 30 18:41 18.12.2020
4728 Rain 25 1011 94 10000 4.1 30 18:23 18.12.2020
4729 Clouds 27 1011 83 500 5.1 40 17:24 18.12.2020
4730 Clouds 29 1012 74 10000 3.6 40 16:53 18.12.2020
4731 Clouds 28 1012 83 10000 3.1 80 16:27 18.12.2020
4732 Clouds 27 1012 88 10000 3.1 340 15:59 18.12.2020
4733 Clouds 27 1012 83 10000 3.1 80 15:41 18.12.2020
4734 Clouds 28 1012 83 10000 3.1 80 15:22 18.12.2020
4735 Clouds 28 1012 88 10000 2.6 70 14:54 18.12.2020
4736 Clouds 28 1012 88 10000 2.6 70 14:21 18.12.2020
4737 Clouds 28 1012 88 10000 2.6 70 14:21 18.12.2020
4738 Clouds 27 1012 100 10000 1 70 13:49 18.12.2020
4739 Clouds 27 1011 94 10000 1 80 13:25 18.12.2020
4740 Clouds 25 1011 94 10000 1 80 12:46 18.12.2020
4741 Clouds 24 1009 100 10000 1.5 80 11:51 18.12.2020
4742 Clouds 24 1009 100 10000 1.5 80 11:22 18.12.2020
4743 Clouds 24 1009 100 10000 0.02 202 10:39 18.12.2020
4744 Clouds 25 1010 94 10000 1 110 10:20 18.12.2020
4745 Clouds 25 1010 94 10000 1 110 09:39 18.12.2020
4746 Clear 24 1009 94 10000 0.5 330 09:21 18.12.2020
4747 Clear 24 1009 94 10000 0.5 330 08:53 18.12.2020
4748 Clouds 25 1010 94 10000 1 150 08:29 18.12.2020
4749 Clouds 25 1010 94 10000 1 150 07:39 18.12.2020
4750 Clouds 25 1010 94 10000 1 150 07:18 18.12.2020
4751 Clouds 25 1011 100 10000 1.49 44 06:46 18.12.2020
4752 Clouds 25 1011 100 10000 1.04 54 05:41 18.12.2020
4753 Clear 26 1011 88 10000 0.5 80 04:51 18.12.2020
4754 Rain 27 1010 88 10000 1 160 01:58 18.12.2020
4755 Thunderstorm 27 1009 88 10000 0.5 160 01:39 18.12.2020
4756 Rain 27 1009 83 10000 0.5 160 23:58 17.12.2020
4757 Rain 27 1008 88 10000 1 160 23:25 17.12.2020
4758 Rain 28 1008 74 10000 2.6 20 22:54 17.12.2020
4759 Clouds 28 1008 74 10000 2.6 20 22:29 17.12.2020
4760 Clouds 28 1008 74 10000 2.6 20 21:57 17.12.2020
4761 Clouds 29 1008 70 10000 1.5 110 21:37 17.12.2020
4762 Clouds 29 1008 70 10000 1.5 110 21:19 17.12.2020
4763 Clouds 31 1009 70 10000 2.6 170 20:41 17.12.2020
4764 Clouds 30 1009 70 10000 2.6 170 20:19 17.12.2020
4765 Clouds 30 1010 70 10000 1.5 140 19:48 17.12.2020
4766 Clouds 30 1010 70 10000 1.5 140 19:24 17.12.2020
4767 Clouds 31 1011 62 10000 2.6 80 18:42 17.12.2020
4768 Clouds 31 1011 62 10000 2.6 80 18:23 17.12.2020
4769 Clouds 31 1011 62 10000 2.6 80 18:23 17.12.2020
4770 Clouds 31 1012 70 10000 2.1 90 17:54 17.12.2020
4771 Clouds 31 1012 70 10000 2.1 90 17:32 17.12.2020
4772 Clouds 29 1013 74 10000 1.5 130 16:46 17.12.2020
4773 Clouds 28 1013 83 10000 1.5 80 16:27 17.12.2020
4774 Clouds 29 1013 66 10000 1.5 190 15:56 17.12.2020
4775 Clouds 27 1013 83 10000 1.5 80 15:34 17.12.2020
4776 Clouds 27 1014 78 10000 4.1 30 14:55 17.12.2020
4777 Clouds 27 1014 78 10000 4.1 30 14:35 17.12.2020
4778 Clouds 27 1014 74 10000 2.1 340 13:58 17.12.2020
4779 Clouds 26 1013 83 10000 3.6 30 13:39 17.12.2020
4780 Clouds 25 1012 83 10000 3.1 10 12:49 17.12.2020
4781 Clouds 25 1012 83 10000 3.1 10 12:27 17.12.2020
4782 Clouds 24 1012 88 10000 1 50 11:46 17.12.2020
4783 Clouds 24 1012 88 10000 1 50 11:26 17.12.2020
4784 Clouds 25 1009 83 10000 1 50 10:56 17.12.2020
4785 Clouds 25 1009 83 10000 1 50 10:30 17.12.2020
4786 Clouds 25 1008 83 10000 1.5 60 09:35 17.12.2020
4787 Clouds 25 1009 83 10000 1.5 50 08:37 17.12.2020
4788 Clouds 25 1009 83 10000 1.5 50 07:40 17.12.2020
4789 Clouds 25 1009 83 10000 1.5 50 07:18 17.12.2020
4790 Clear 25 1010 83 10000 1.5 30 06:44 17.12.2020
4791 Clear 25 1010 83 10000 1.5 30 06:26 17.12.2020
4792 Clouds 27 1010 74 10000 2.1 70 01:40 17.12.2020
4793 Clouds 27 1009 74 10000 5.1 70 23:57 16.12.2020
4794 Clouds 28 1009 74 10000 2.1 80 23:23 16.12.2020
4795 Clouds 28 1009 74 10000 2.1 80 22:58 16.12.2020
4796 Clouds 30 1008 70 10000 2.1 80 22:36 16.12.2020
4797 Clouds 30 1008 70 10000 2.6 60 21:54 16.12.2020
4798 Clouds 30 1008 70 10000 2.6 60 21:36 16.12.2020
4799 Clouds 30 1008 70 10000 2.6 60 20:59 16.12.2020
4800 Clouds 30 1009 74 10000 2.6 70 20:41 16.12.2020
4801 Clouds 30 1009 74 10000 2.6 70 20:19 16.12.2020
4802 Clouds 30 1010 74 10000 2.6 80 19:20 16.12.2020
4803 Clouds 29 1012 79 10000 2.6 70 18:56 16.12.2020
4804 Clouds 29 1012 79 10000 2.6 70 18:31 16.12.2020
4805 Clouds 30 1013 70 10000 2.6 90 17:51 16.12.2020
4806 Clouds 30 1013 70 10000 2.6 90 17:29 16.12.2020
4807 Clouds 30 1013 74 10000 2.1 180 16:40 16.12.2020
4808 Clouds 30 1013 74 10000 2.1 180 16:22 16.12.2020
4809 Clouds 27 1014 83 10000 1 150 15:51 16.12.2020
4810 Clouds 27 1014 83 10000 1 150 15:28 16.12.2020
4811 Clouds 26 1014 83 10000 1 90 14:48 16.12.2020
4812 Clouds 26 1014 83 10000 1 90 14:29 16.12.2020
4813 Clouds 25 1013 94 10000 1 80 13:50 16.12.2020
4814 Clouds 25 1013 94 10000 1 80 13:31 16.12.2020
4815 Clouds 25 1013 94 10000 1 80 12:56 16.12.2020
4816 Clouds 24 1012 94 10000 0.5 20 12:36 16.12.2020
4817 Clouds 24 1010 94 10000 1.5 140 11:41 16.12.2020
4818 Clouds 24 1010 94 10000 1.5 140 11:22 16.12.2020
4819 Clouds 24 1009 100 10000 1 120 10:49 16.12.2020
4820 Clouds 24 1009 100 10000 1 120 10:27 16.12.2020
4821 Clouds 23 1009 100 10000 1.5 100 09:48 16.12.2020
4822 Clouds 23 1009 100 10000 1 40 09:18 16.12.2020
4823 Clouds 23 1009 94 10000 1.5 80 07:59 16.12.2020
4824 Clouds 23 1009 94 10000 1.5 80 07:39 16.12.2020
4825 Clouds 23 1009 94 10000 1.5 80 06:57 16.12.2020
4826 Clouds 24 1009 88 10000 1 20 03:28 16.12.2020
4827 Clouds 25 1009 83 10000 2.1 70 01:27 16.12.2020
4828 Clouds 25 1008 88 10000 0.5 100 23:46 15.12.2020
4829 Rain 25 1008 83 10000 0.5 130 22:49 15.12.2020
4830 Rain 25 1008 83 10000 0.5 130 22:25 15.12.2020
4831 Rain 25 1008 83 10000 0.5 130 21:58 15.12.2020
4832 Rain 26 1009 83 10000 0.5 120 21:40 15.12.2020
4833 Rain 26 1009 83 10000 0.5 120 21:21 15.12.2020
4834 Rain 26 1010 78 10000 1.5 80 20:44 15.12.2020
4835 Rain 26 1010 78 10000 1.5 80 20:26 15.12.2020
4836 Rain 26 1011 78 10000 2.6 60 19:52 15.12.2020
4837 Rain 26 1012 74 10000 3.6 50 19:26 15.12.2020
4838 Rain 26 1012 74 10000 3.6 50 18:39 15.12.2020
4839 Rain 26 1012 74 10000 3.6 50 18:21 15.12.2020
4840 Rain 25 1013 78 10000 3.1 40 17:44 15.12.2020
4841 Rain 25 1013 78 10000 3.1 40 17:25 15.12.2020
4842 Clouds 26 1013 74 10000 4.1 50 16:43 15.12.2020
4843 Rain 26 1013 74 10000 4.1 50 16:25 15.12.2020
4844 Rain 25 1013 83 10000 4.6 40 15:38 15.12.2020
4845 Rain 25 1013 83 10000 4.6 40 15:18 15.12.2020
4846 Rain 23 1014 94 8000 5.1 60 14:42 15.12.2020
4847 Rain 23 1014 94 8000 5.1 60 14:20 15.12.2020
4848 Rain 22 1014 94 3000 4.1 60 13:49 15.12.2020
4849 Rain 22 1014 94 3000 4.1 60 13:25 15.12.2020
4850 Rain 23 1014 94 3000 4.6 60 12:46 15.12.2020
4851 Rain 23 1013 94 10000 2.6 10 12:19 15.12.2020
4852 Rain 22 1011 100 10000 1 40 11:52 15.12.2020
4853 Rain 22 1010 100 10000 2.1 90 11:24 15.12.2020
4854 Rain 22 1010 100 10000 2.1 90 10:49 15.12.2020
4855 Rain 23 1010 94 6000 1 130 10:20 15.12.2020
4856 Rain 23 1010 94 6000 1 130 09:44 15.12.2020
4857 Rain 23 1010 94 6000 1 130 09:26 15.12.2020
4858 Thunderstorm 22 1011 100 10000 2.1 350 08:46 15.12.2020
4859 Rain 22 1011 100 10000 2.1 350 08:24 15.12.2020
4860 Rain 23 1010 94 8000 2.6 170 07:47 15.12.2020
4861 Clouds 25 1010 88 10000 2.1 180 07:18 15.12.2020
4862 Clouds 25 1010 88 10000 2.1 180 05:55 15.12.2020
4863 Rain 26 1008 88 10000 1 140 00:54 15.12.2020
4864 Rain 26 1008 88 10000 1 140 23:54 14.12.2020
4865 Rain 26 1007 88 10000 0.5 20 23:21 14.12.2020
4866 Rain 26 1007 88 10000 0.5 20 22:44 14.12.2020
4867 Rain 26 1007 88 10000 1.5 110 22:22 14.12.2020
4868 Rain 26 1007 88 10000 1.5 110 21:41 14.12.2020
4869 Rain 25 1007 88 10000 3.1 70 21:18 14.12.2020
4870 Rain 25 1007 88 10000 3.1 70 20:48 14.12.2020
4871 Rain 25 1007 88 10000 3.1 70 20:27 14.12.2020
4872 Clouds 30 1008 70 10000 2.1 80 19:44 14.12.2020
4873 Rain 30 1009 70 10000 2.1 80 19:25 14.12.2020
4874 Clouds 30 1009 79 8000 1.5 80 18:44 14.12.2020
4875 Clouds 30 1010 70 10000 2.6 60 18:24 14.12.2020
4876 Clouds 32 1011 66 10000 1.5 110 17:45 14.12.2020
4877 Clouds 32 1011 66 10000 1.5 110 17:21 14.12.2020
4878 Clouds 30 1012 74 10000 1.5 100 16:42 14.12.2020
4879 Clouds 30 1012 74 10000 1.5 100 16:23 14.12.2020
4880 Clouds 29 1012 79 10000 2.6 60 15:33 14.12.2020
4881 Clouds 28 1012 78 10000 1.5 80 14:51 14.12.2020
4882 Clouds 28 1012 78 10000 1.5 80 14:32 14.12.2020
4883 Rain 28 1012 74 10000 2.6 30 13:57 14.12.2020
4884 Rain 27 1012 88 10000 2.1 70 13:35 14.12.2020
4885 Clouds 27 1012 88 10000 2.1 70 12:56 14.12.2020
4886 Clouds 26 1011 94 10000 1 70 12:34 14.12.2020
4887 Clouds 25 1011 94 10000 0.5 350 11:58 14.12.2020
4888 Rain 25 1010 100 10000 1 70 11:25 14.12.2020
4889 Clouds 25 1010 100 10000 1.28 107 10:28 14.12.2020
4890 Clouds 25 1010 100 10000 1.28 107 09:53 14.12.2020
4891 Clouds 25 1010 94 10000 1 120 09:25 14.12.2020
4892 Clouds 24 1010 94 10000 1.5 100 08:45 14.12.2020
4893 Clouds 24 1010 94 10000 1.5 100 08:25 14.12.2020
4894 Clouds 25 1011 94 10000 1 100 07:22 14.12.2020
4895 Thunderstorm 25 1011 88 10000 1 80 06:44 14.12.2020
4896 Clouds 26 1012 88 10000 1 70 04:19 14.12.2020
4897 Clouds 28 1019 94 10000 1.72 50 02:25 14.12.2020
4898 Clouds 28 1009 83 10000 1 70 00:51 14.12.2020
4899 Clouds 28 1009 83 10000 1 70 00:29 14.12.2020
4900 Clouds 29 1009 79 10000 1.5 70 23:44 13.12.2020
4901 Clouds 30 1008 74 10000 2.1 80 23:18 13.12.2020
4902 Clouds 31 1008 74 10000 2.1 80 22:43 13.12.2020
4903 Clouds 31 1008 74 10000 2.1 80 22:18 13.12.2020
4904 Clouds 32 1008 70 10000 2.6 80 21:42 13.12.2020
4905 Clouds 32 1008 62 10000 3.1 70 20:57 13.12.2020
4906 Clouds 32 1008 62 10000 3.1 70 20:32 13.12.2020
4907 Clouds 32 1010 66 10000 2.1 70 19:49 13.12.2020
4908 Clouds 32 1010 66 10000 2.1 70 19:25 13.12.2020
4909 Clouds 32 1011 66 10000 1.5 100 18:57 13.12.2020
4910 Clouds 32 1011 66 10000 1.5 100 18:38 13.12.2020
4911 Clouds 32 1011 66 10000 1.5 100 18:18 13.12.2020
4912 Clouds 31 1012 70 10000 1.5 100 17:45 13.12.2020
4913 Clouds 31 1012 70 10000 1.5 100 17:18 13.12.2020
4914 Clouds 32 1012 66 10000 2.1 70 16:50 13.12.2020
4915 Clouds 32 1012 66 10000 2.1 70 16:31 13.12.2020
4916 Clouds 31 1013 70 10000 1.5 80 15:48 13.12.2020
4917 Clouds 31 1013 70 10000 1.5 80 15:27 13.12.2020
4918 Clouds 30 1013 70 10000 1 120 14:48 13.12.2020
4919 Clouds 30 1013 70 10000 1 120 14:29 13.12.2020
4920 Clouds 30 1013 70 10000 1 120 13:56 13.12.2020
4921 Clouds 28 1013 78 10000 1.5 90 13:36 13.12.2020
4922 Clouds 26 1013 78 10000 1.5 90 12:59 13.12.2020
4923 Clear 25 1012 83 10000 2.1 30 12:26 13.12.2020
4924 Clear 25 1011 94 10000 1 320 11:59 13.12.2020
4925 Clear 25 1010 83 10000 1 30 11:33 13.12.2020
4926 Clear 25 1010 88 10000 0.5 30 10:45 13.12.2020
4927 Clear 25 1009 88 10000 1 100 10:21 13.12.2020
4928 Clear 25 1009 88 10000 1 100 09:47 13.12.2020
4929 Clear 25 1009 88 10000 1 100 08:52 13.12.2020
4930 Clear 25 1009 88 10000 1 100 08:52 13.12.2020
4931 Clear 25 1009 88 10000 0.99 135 08:30 13.12.2020
4932 Clear 26 1009 83 10000 1 100 07:26 13.12.2020
4933 Clear 26 1011 78 10000 1.5 80 03:26 13.12.2020
4934 Clear 27 1010 74 10000 1.5 80 02:32 13.12.2020
4935 Clouds 29 1008 74 10000 1.5 80 01:37 13.12.2020
4936 Clouds 29 1008 74 10000 1.5 80 00:45 13.12.2020
4937 Clouds 30 1007 66 10000 2.6 70 23:45 12.12.2020
4938 Clouds 30 1007 66 10000 2.6 70 23:26 12.12.2020
4939 Clouds 31 1007 62 10000 2.1 70 22:36 12.12.2020
4940 Clouds 32 1008 59 10000 2.1 80 21:47 12.12.2020
4941 Clouds 32 1008 59 10000 2.1 80 21:20 12.12.2020
4942 Clouds 33 1009 55 10000 2.1 80 20:46 12.12.2020
4943 Clouds 33 1009 55 10000 2.1 80 20:21 12.12.2020
4944 Clouds 33 1010 59 10000 2.6 100 19:53 12.12.2020
4945 Clouds 33 1010 59 10000 2.6 100 19:34 12.12.2020
4946 Clouds 32 1010 62 10000 2.1 80 18:56 12.12.2020
4947 Clouds 32 1010 62 10000 2.1 80 18:38 12.12.2020
4948 Clouds 32 1010 62 10000 2.1 80 18:20 12.12.2020
4949 Clouds 32 1011 62 10000 3.6 60 17:41 12.12.2020
4950 Clouds 30 1012 74 10000 3.6 70 16:44 12.12.2020
4951 Clouds 30 1012 74 10000 3.6 70 15:58 12.12.2020
4952 Clouds 30 1012 74 10000 3.6 70 15:58 12.12.2020
4953 Clouds 30 1012 74 10000 3.6 70 15:58 12.12.2020
4954 Clouds 30 1013 74 10000 2.1 80 15:39 12.12.2020
4955 Clouds 29 1013 79 10000 1 110 14:54 12.12.2020
4956 Clouds 27 1012 88 10000 1.5 60 14:22 12.12.2020
4957 Clouds 27 1012 88 10000 1.5 60 13:44 12.12.2020
4958 Clouds 27 1012 88 10000 1.5 60 13:25 12.12.2020
4959 Clouds 25 1011 94 10000 1.5 80 12:37 12.12.2020
4960 Clouds 23 1011 100 10000 0.5 90 11:28 12.12.2020
4961 Clouds 24 1009 94 10000 1.31 101 10:46 12.12.2020
4962 Clouds 24 1009 94 10000 1 120 09:24 12.12.2020
4963 Clear 24 1009 94 10000 1.5 90 08:25 12.12.2020
4964 Clear 26 1009 83 10000 1.5 50 01:41 12.12.2020
4965 Clouds 27 1008 78 10000 1.5 80 23:30 11.12.2020
4966 Clouds 29 1008 70 10000 3.6 70 20:57 11.12.2020
4967 Clouds 29 1009 70 10000 4.1 70 19:42 11.12.2020
4968 Clouds 25 1013 88 10000 2.1 70 16:52 11.12.2020
4969 Rain 26 1013 88 8000 3.1 80 14:37 11.12.2020
4970 Rain 26 1013 88 8000 3.1 80 14:37 11.12.2020
4971 Clouds 26 1012 88 10000 2.1 170 13:45 11.12.2020
4972 Clouds 25 1011 94 10000 1.5 180 12:23 11.12.2020
4973 Clouds 25 1011 94 10000 1.5 180 11:54 11.12.2020
4974 Clouds 24 1011 100 10000 1.5 170 11:35 11.12.2020
4975 Clouds 24 1010 100 10000 1.5 220 10:40 11.12.2020
4976 Rain 25 1011 100 10000 1.5 180 07:42 11.12.2020
4977 Rain 25 1012 100 10000 2.6 240 05:36 11.12.2020
4978 Rain 26 1012 94 10000 2.6 250 04:47 11.12.2020
4979 Rain 26 1009 88 10000 1 120 00:48 11.12.2020
4980 Clouds 27 1008 83 10000 1 80 23:27 10.12.2020
4981 Clouds 29 1007 79 10000 2.1 70 21:37 10.12.2020
4982 Clouds 29 1008 74 10000 2.6 70 20:51 10.12.2020
4983 Clouds 29 1008 74 10000 2.6 70 20:26 10.12.2020
4984 Clouds 26 1009 88 10000 4.1 70 19:29 10.12.2020
4985 Clouds 31 1010 66 10000 2.6 80 18:47 10.12.2020
4986 Rain 29 1013 74 10000 4.1 60 17:26 10.12.2020
4987 Clouds 29 1013 74 10000 4.1 60 15:58 10.12.2020
4988 Clouds 27 1013 88 10000 2.1 80 15:21 10.12.2020
4989 Clouds 25 1013 94 7000 1 90 14:43 10.12.2020
4990 Clouds 25 1013 94 8000 1.5 80 13:26 10.12.2020
4991 Clouds 25 1012 94 10000 0.5 50 11:54 10.12.2020
4992 Clouds 24 1010 100 10000 0.5 120 10:46 10.12.2020
4993 Rain 25 1010 94 10000 1 60 08:20 10.12.2020
4994 Clouds 25 1011 94 10000 0.86 86 06:59 10.12.2020
4995 Rain 25 1012 94 10000 1 92 05:26 10.12.2020
4996 Rain 25 1012 94 10000 1.01 112 02:31 10.12.2020
4997 Clouds 25 1011 94 10000 0.5 120 01:25 10.12.2020
4998 Rain 27 1010 78 10000 1 50 23:37 09.12.2020
4999 Clouds 27 1008 78 10000 4.6 360 20:37 09.12.2020
5000 Clouds 27 1010 88 3500 5.7 20 19:40 09.12.2020
5001 Clouds 29 1010 66 10000 4.1 310 18:21 09.12.2020
5002 Clouds 31 1013 62 10000 2.1 70 16:57 09.12.2020
5003 Clouds 31 1015 70 10000 1 90 16:25 09.12.2020
5004 Clouds 31 1015 70 10000 1 90 15:41 09.12.2020
5005 Clouds 30 1015 74 10000 1 40 14:49 09.12.2020
5006 Clouds 30 1015 74 10000 1 40 14:25 09.12.2020
5007 Clouds 27 1013 83 10000 1 40 13:19 09.12.2020
5008 Clear 27 1014 83 10000 1 10 12:57 09.12.2020
5009 Clouds 26 1013 83 10000 1 40 12:22 09.12.2020
5010 Clouds 25 1012 88 10000 1.5 20 11:32 09.12.2020
5011 Clouds 24 1011 94 10000 1 50 09:50 09.12.2020
5012 Clouds 24 1011 94 10000 1.5 50 08:27 09.12.2020
5013 Clouds 25 1012 94 10000 1.5 30 06:18 09.12.2020
5014 Clouds 25 1013 88 10000 1.5 10 04:46 09.12.2020
5015 Clouds 26 1012 94 10000 1.5 300 02:22 09.12.2020
5016 Clouds 25 1010 100 7000 2.6 280 23:49 08.12.2020
5017 Clouds 27 1010 94 800 3.1 280 23:23 08.12.2020
5018 Clouds 30 1010 66 10000 1 130 21:35 08.12.2020
5019 Clouds 28 1012 70 10000 1.5 80 19:46 08.12.2020
5020 Clouds 28 1013 70 10000 2.1 150 19:25 08.12.2020
5021 Clouds 31 1013 70 10000 2.1 150 18:27 08.12.2020
5022 Clouds 29 1015 79 10000 1.5 110 15:54 08.12.2020
5023 Clouds 27 1015 83 10000 0.5 170 14:34 08.12.2020
5024 Clouds 25 1014 94 10000 1 10 13:40 08.12.2020
5025 Clouds 23 1013 94 10000 1 30 12:35 08.12.2020
5026 Clouds 23 1013 94 10000 2.1 10 11:52 08.12.2020
5027 Clouds 23 1012 94 10000 1 350 10:50 08.12.2020
5028 Clouds 23 1012 94 10000 1 350 10:31 08.12.2020
5029 Clouds 23 1011 94 10000 1 10 08:57 08.12.2020
5030 Clouds 24 1011 94 10000 0.59 177 07:25 08.12.2020
5031 Clouds 24 1013 94 10000 1.08 115 03:43 08.12.2020
5032 Clouds 24 1011 94 10000 1.62 127 00:48 08.12.2020
5033 Clouds 24 1011 94 10000 1.94 131 00:25 08.12.2020
5034 Rain 25 1010 88 10000 1 80 22:48 07.12.2020
5035 Rain 25 1010 88 10000 1 80 21:58 07.12.2020
5036 Rain 25 1011 88 10000 1 140 20:32 07.12.2020
5037 Rain 25 1013 88 10000 2.1 180 18:47 07.12.2020
5038 Clouds 24 1014 94 10000 1.5 180 17:29 07.12.2020
5039 Clouds 24 1014 94 9000 2.1 200 16:55 07.12.2020
5040 Rain 24 1015 94 4000 1.5 160 15:47 07.12.2020
5041 Rain 24 1015 94 4000 1.5 160 15:19 07.12.2020
5042 Rain 23 1015 100 8000 2.6 170 14:19 07.12.2020
5043 Rain 23 1013 94 8000 2.6 220 13:23 07.12.2020
5044 Rain 23 1012 100 5000 3.1 230 11:44 07.12.2020
5045 Rain 23 1011 100 8000 3.1 270 11:19 07.12.2020
5046 Rain 23 1012 94 4000 2.6 290 09:56 07.12.2020
5047 Clouds 24 1010 94 10000 2.1 230 08:26 07.12.2020
5048 Clear 25 1011 88 10000 1.5 100 06:36 07.12.2020
5049 Clouds 26 1011 88 10000 1.5 190 04:50 07.12.2020
5050 Clouds 28 1011 83 10000 1.6 118 01:55 07.12.2020
5051 Thunderstorm 28 1008 74 10000 2.1 300 00:27 07.12.2020
5052 Clouds 29 1007 79 10000 3.1 260 22:25 06.12.2020
5053 Thunderstorm 32 1007 70 9000 5.1 330 20:58 06.12.2020
5054 Clouds 33 1007 63 10000 1 200 20:34 06.12.2020
5055 Clouds 33 1008 63 10000 1 300 19:55 06.12.2020
5056 Thunderstorm 30 1010 70 10000 5.1 310 18:33 06.12.2020
5057 Clouds 31 1012 74 10000 2.1 280 16:52 06.12.2020
5058 Clouds 29 1013 79 10000 1.5 190 14:58 06.12.2020
5059 Clouds 28 1013 83 10000 0.5 120 13:45 06.12.2020
5060 Clear 26 1012 94 10000 1.2 173 12:52 06.12.2020
5061 Clear 26 1012 94 10000 0.79 159 11:59 06.12.2020
5062 Clear 25 1010 94 10000 1.5 170 11:34 06.12.2020
5063 Clear 25 1010 94 10000 1 150 10:47 06.12.2020
5064 Clear 25 1009 100 10000 1.5 90 09:57 06.12.2020
5065 Clear 26 1010 94 10000 1.5 140 08:29 06.12.2020
5066 Clear 26 1011 88 10000 1.5 170 06:37 06.12.2020
5067 Clouds 28 1009 70 10000 1 100 00:58 06.12.2020
5068 Clouds 28 1009 70 10000 1 100 00:39 06.12.2020
5069 Clouds 30 1008 62 10000 2.6 40 00:21 06.12.2020
5070 Clouds 32 1008 59 10000 3.1 70 22:43 05.12.2020
5071 Clouds 33 1008 55 10000 2.6 70 22:20 05.12.2020
5072 Clouds 33 1008 55 10000 2.6 70 21:47 05.12.2020
5073 Clouds 33 1008 55 10000 2.6 70 21:23 05.12.2020
5074 Clouds 33 1010 63 10000 1.5 80 19:21 05.12.2020
5075 Clouds 32 1012 62 10000 2.6 80 18:39 05.12.2020
5076 Clouds 31 1013 70 10000 2.6 70 17:20 05.12.2020
5077 Clouds 31 1013 70 10000 2.6 70 16:29 05.12.2020
5078 Clouds 31 1013 70 10000 1.5 90 15:37 05.12.2020
5079 Clouds 29 1013 79 10000 1 150 14:24 05.12.2020
5080 Clear 25 1011 94 10000 1 160 11:52 05.12.2020
5081 Clear 24 1011 94 10000 1 160 11:30 05.12.2020
5082 Clear 25 1010 100 10000 1.01 136 10:29 05.12.2020
5083 Clear 25 1010 88 10000 0.84 119 07:48 05.12.2020
5084 Clear 26 1011 83 10000 1.5 70 06:22 05.12.2020
5085 Clear 26 1011 88 10000 1.5 70 03:39 05.12.2020
5086 Clouds 27 1009 78 10000 2.1 80 23:48 04.12.2020
5087 Clouds 31 1008 66 10000 1.5 100 22:23 04.12.2020
5088 Clouds 28 1009 66 10000 3.6 80 20:19 04.12.2020
5089 Clouds 32 1011 70 10000 2.1 80 18:52 04.12.2020
5090 Clouds 32 1011 70 10000 2.1 80 18:18 04.12.2020
5091 Clouds 31 1013 74 10000 1.5 90 17:24 04.12.2020
5092 Clouds 30 1013 79 10000 1.5 210 15:35 04.12.2020
5093 Clouds 26 1013 94 10000 1.5 180 13:39 04.12.2020
5094 Clouds 26 1012 94 10000 1.5 180 13:21 04.12.2020
5095 Clouds 26 1012 94 10000 1.5 180 12:49 04.12.2020
5096 Clouds 24 1010 94 10000 1.5 230 10:39 04.12.2020
5097 Clouds 24 1010 94 10000 1.5 210 09:41 04.12.2020
5098 Clear 25 1010 88 10000 1 190 06:41 04.12.2020
5099 Clear 25 1010 88 10000 1 180 05:40 04.12.2020
5100 Rain 26 1009 83 10000 1 180 01:54 04.12.2020
5101 Rain 26 1007 83 10000 2.1 80 22:52 03.12.2020
5102 Rain 27 1007 78 10000 3.6 40 22:18 03.12.2020
5103 Clouds 29 1007 78 10000 1 170 20:47 03.12.2020
5104 Clouds 30 1008 74 10000 2.6 60 19:26 03.12.2020
5105 Clouds 30 1009 66 10000 3.1 50 18:49 03.12.2020
5106 Clouds 30 1011 70 10000 2.1 80 17:22 03.12.2020
5107 Rain 30 1010 79 10000 1.5 170 16:59 03.12.2020
5108 Clouds 31 1012 70 10000 2.1 90 15:39 03.12.2020
5109 Clouds 29 1012 83 10000 1.5 170 15:21 03.12.2020
5110 Clouds 28 1012 83 10000 1.5 170 14:25 03.12.2020
5111 Clouds 26 1010 94 10000 1.5 200 12:55 03.12.2020
5112 Clouds 26 1010 94 10000 1.5 200 12:25 03.12.2020
5113 Clear 25 1009 88 10000 0.5 340 11:22 03.12.2020
5114 Rain 26 1008 83 10000 1.5 340 08:49 03.12.2020
5115 Clear 27 1011 83 10000 1 340 04:44 03.12.2020
5116 Thunderstorm 27 1010 78 10000 1.5 350 02:22 03.12.2020
5117 Clouds 28 1008 74 10000 2.1 40 00:42 03.12.2020
5118 Rain 28 1007 83 10000 2.6 350 22:47 02.12.2020
5119 Rain 29 1006 83 10000 7.2 300 21:58 02.12.2020
5120 Clouds 33 1006 63 10000 3.1 40 20:52 02.12.2020
5121 Clouds 33 1006 63 10000 3.1 40 20:34 02.12.2020
5122 Clouds 32 1007 66 10000 4.6 60 19:58 02.12.2020
5123 Clouds 33 1010 63 10000 2.1 90 17:54 02.12.2020
5124 Clouds 33 1010 63 10000 2.1 90 17:35 02.12.2020
5125 Clouds 32 1010 55 10000 2.1 10 16:59 02.12.2020
5126 Clouds 29 1012 79 10000 1 210 14:47 02.12.2020
5127 Clouds 25 1009 94 10000 1 190 11:34 02.12.2020
5128 Clouds 25 1010 94 10000 1.02 53 10:28 02.12.2020
5129 Clouds 25 1009 94 10000 1.3 34 08:29 02.12.2020
5130 Clouds 26 1009 94 10000 0.5 180 01:39 02.12.2020
5131 Clouds 30 1007 79 10000 2.6 180 22:21 01.12.2020
5132 Clouds 29 1008 83 10000 1 280 20:46 01.12.2020
5133 Clouds 31 1011 70 10000 2.1 100 19:34 01.12.2020
5134 Clouds 30 1011 74 10000 2.6 70 17:34 01.12.2020
5135 Clouds 28 1013 83 10000 1.5 160 15:40 01.12.2020
5136 Clouds 26 1013 83 10000 1 160 13:37 01.12.2020
5137 Clouds 23 1011 94 10000 1 310 11:44 01.12.2020
5138 Clouds 23 1011 94 10000 1 310 11:26 01.12.2020
5139 Clouds 23 1011 94 10000 1.5 270 10:37 01.12.2020
5140 Clouds 23 1011 94 10000 0.5 300 08:20 01.12.2020
5141 Clouds 23 1012 94 10000 1.08 125 06:47 01.12.2020
5142 Clouds 23 1010 94 8000 2.1 350 01:52 01.12.2020
5143 Clouds 23 1009 100 10000 2.1 20 00:52 01.12.2020
5144 Clouds 23 1008 94 10000 2.6 180 23:21 30.11.2020
5145 Clouds 23 1008 94 10000 2.6 180 22:43 30.11.2020
5146 Rain 23 1008 94 10000 2.6 180 22:25 30.11.2020
5147 Thunderstorm 22 1010 100 8000 2.1 70 20:47 30.11.2020
5148 Rain 22 1012 94 5000 4.1 60 19:42 30.11.2020
5149 Rain 22 1012 94 5000 4.1 60 19:42 30.11.2020
5150 Rain 22 1012 94 5000 4.1 60 19:42 30.11.2020
5151 Thunderstorm 23 1013 94 2000 5.7 50 18:23 30.11.2020
5152 Clouds 24 1013 94 700 5.1 70 17:47 30.11.2020
5153 Clouds 28 1013 79 10000 2.6 160 16:55 30.11.2020
5154 Clouds 28 1014 78 10000 1.5 310 15:59 30.11.2020
5155 Clouds 26 1014 88 10000 1 160 14:31 30.11.2020
5156 Clouds 25 1013 94 10000 1 40 13:42 30.11.2020
5157 Clouds 24 1013 94 10000 1.23 330 12:26 30.11.2020
5158 Mist 24 1013 94 4000 1.5 320 11:57 30.11.2020
5159 Clouds 24 1011 94 10000 1 240 10:26 30.11.2020
5160 Clouds 24 1010 94 10000 2.1 300 09:45 30.11.2020
5161 Clouds 24 1011 94 10000 1 340 07:18 30.11.2020
5162 Thunderstorm 24 1011 94 8000 0.5 260 23:39 29.11.2020
5163 Rain 24 1010 94 8000 2.6 230 21:49 29.11.2020
5164 Rain 24 1010 94 8000 2.6 230 21:28 29.11.2020
5165 Rain 24 1010 94 10000 1 240 19:46 29.11.2020
5166 Rain 28 1012 83 10000 5.7 280 17:47 29.11.2020
5167 Rain 28 1013 83 10000 1 220 14:54 29.11.2020
5168 Rain 27 1012 83 10000 0.61 148 12:58 29.11.2020
5169 Clouds 26 1010 78 10000 1.5 340 11:41 29.11.2020
5170 Clear 25 1009 94 10000 1.5 110 09:26 29.11.2020
5171 Clouds 25 1009 94 10000 1.5 110 08:37 29.11.2020
5172 Clear 27 1011 78 10000 1 100 04:21 29.11.2020
5173 Clouds 30 1007 70 10000 1 80 23:19 28.11.2020
5174 Clouds 30 1007 70 10000 1.5 50 22:55 28.11.2020
5175 Clouds 32 1008 62 10000 1.5 100 20:27 28.11.2020
5176 Clouds 32 1009 62 10000 2.1 110 19:31 28.11.2020
5177 Clouds 31 1009 59 10000 3.1 40 18:59 28.11.2020
5178 Rain 31 1011 74 10000 2.1 70 18:23 28.11.2020
5179 Clouds 31 1012 66 10000 3.1 70 17:33 28.11.2020
5180 Clouds 29 1013 74 10000 3.1 70 15:56 28.11.2020
5181 Clouds 27 1012 83 10000 2.1 80 13:57 28.11.2020
5182 Clouds 24 1010 94 10000 1 60 11:29 28.11.2020
5183 Clouds 24 1010 94 10000 0.84 148 09:27 28.11.2020
5184 Clouds 26 1011 88 10000 2.1 20 03:48 28.11.2020
5185 Thunderstorm 26 1009 88 10000 1 190 01:54 28.11.2020
5186 Clouds 26 1008 83 10000 2.6 210 23:22 27.11.2020
5187 Clouds 26 1008 83 10000 2.6 210 22:38 27.11.2020
5188 Clouds 28 1008 70 10000 1.5 60 20:40 27.11.2020
5189 Rain 29 1008 74 10000 1.5 80 19:34 27.11.2020
5190 Clouds 29 1009 83 10000 1 300 18:57 27.11.2020
5191 Clouds 31 1011 62 10000 3.6 70 16:55 27.11.2020
5192 Clouds 31 1011 62 10000 3.6 70 16:55 27.11.2020
5193 Clouds 31 1011 62 10000 3.6 70 16:55 27.11.2020
5194 Clouds 28 1013 78 10000 2.1 80 14:45 27.11.2020
5195 Clouds 26 1012 88 10000 1.5 50 13:20 27.11.2020
5196 Clouds 26 1012 88 10000 1.5 50 12:47 27.11.2020
5197 Clouds 25 1011 94 10000 1 100 11:34 27.11.2020
5198 Clear 25 1009 94 10000 1 80 10:44 27.11.2020
5199 Clear 25 1009 94 10000 1 60 09:53 27.11.2020
5200 Clouds 27 1007 78 10000 2.1 20 23:50 26.11.2020
5201 Rain 27 1007 78 10000 2.1 40 22:25 26.11.2020
5202 Rain 27 1007 83 10000 3.1 60 21:46 26.11.2020
5203 Rain 29 1007 74 10000 4.6 30 20:43 26.11.2020
5204 Clouds 32 1009 66 10000 1.5 130 18:37 26.11.2020
5205 Clouds 31 1010 74 10000 2.6 70 17:31 26.11.2020
5206 Clouds 26 1012 83 10000 2.6 80 13:58 26.11.2020
5207 Clouds 26 1012 83 10000 3.6 60 12:58 26.11.2020
5208 Clouds 25 1011 94 10000 1.5 70 12:39 26.11.2020
5209 Clouds 25 1010 94 10000 1.5 60 10:50 26.11.2020
5210 Clouds 25 1010 94 10000 1.5 60 10:23 26.11.2020
5211 Clouds 24 1010 94 10000 1.5 50 09:37 26.11.2020
5212 Clouds 24 1010 94 10000 1 70 08:58 26.11.2020
5213 Clouds 24 1010 94 10000 1 70 08:34 26.11.2020
5214 Clouds 26 1009 94 10000 2.1 80 02:19 26.11.2020
5215 Clouds 28 1008 78 10000 1.5 70 22:20 25.11.2020
5216 Clouds 29 1009 74 10000 3.6 50 20:37 25.11.2020
5217 Clouds 28 1012 83 10000 3.1 70 19:18 25.11.2020
5218 Clouds 27 1013 83 10000 2.6 50 17:29 25.11.2020
5219 Rain 26 1014 88 10000 3.1 20 15:46 25.11.2020
5220 Rain 25 1014 94 10000 2.1 10 14:58 25.11.2020
5221 Rain 23 1013 100 1500 3.1 40 13:46 25.11.2020
5222 Rain 23 1012 100 1500 4.1 40 12:57 25.11.2020
5223 Clouds 24 1012 94 500 5.7 70 11:26 25.11.2020
5224 Clouds 25 1010 94 8000 1.5 50 09:22 25.11.2020
5225 Clouds 25 1009 94 10000 1 70 08:50 25.11.2020
5226 Clouds 25 1009 100 10000 1 40 07:45 25.11.2020
5227 Rain 25 1012 100 10000 1.12 294 03:52 25.11.2020
5228 Rain 26 1010 88 10000 1.5 310 01:49 25.11.2020
5229 Rain 26 1008 94 10000 2.6 320 00:21 25.11.2020
5230 Rain 26 1008 94 10000 2.6 320 23:35 24.11.2020
5231 Rain 26 1008 94 10000 2.1 250 22:41 24.11.2020
5232 Rain 26 1009 94 10000 1 210 21:44 24.11.2020
5233 Rain 26 1009 94 10000 1 210 21:26 24.11.2020
5234 Rain 26 1009 88 7000 2.1 340 19:48 24.11.2020
5235 Rain 25 1011 83 10000 5.7 330 17:41 24.11.2020
5236 Rain 26 1012 88 10000 4.6 320 17:22 24.11.2020
5237 Rain 26 1012 94 5000 3.6 330 16:38 24.11.2020
5238 Rain 26 1012 94 4000 3.1 350 15:56 24.11.2020
5239 Clouds 27 1012 88 10000 2.1 30 15:20 24.11.2020
5240 Clouds 27 1012 88 10000 2.1 30 14:45 24.11.2020
5241 Clouds 25 1011 100 10000 2.6 60 13:38 24.11.2020
5242 Rain 24 1010 100 7000 1.5 90 12:39 24.11.2020
5243 Clouds 24 1010 100 4000 1 180 12:18 24.11.2020
5244 Rain 24 1010 100 4000 2.1 80 11:25 24.11.2020
5245 Clouds 24 1009 100 10000 1.5 170 10:25 24.11.2020
5246 Clouds 24 1009 100 10000 1.5 170 09:40 24.11.2020
5247 Clouds 25 1008 100 10000 3.1 60 08:59 24.11.2020
5248 Thunderstorm 24 1011 100 2000 5.1 60 06:20 24.11.2020
5249 Clouds 27 1008 83 10000 2.1 230 01:00 24.11.2020
5250 Thunderstorm 28 1007 88 10000 2.1 220 22:24 23.11.2020
5251 Rain 30 1007 74 10000 1.5 200 21:32 23.11.2020
5252 Rain 31 1007 70 10000 1 160 20:31 23.11.2020
5253 Clouds 30 1007 62 10000 1.5 300 19:59 23.11.2020
5254 Clouds 30 1010 74 10000 1 60 17:57 23.11.2020
5255 Clouds 30 1010 74 10000 1 60 16:56 23.11.2020
5256 Clouds 29 1011 79 10000 2.6 20 15:18 23.11.2020
5257 Clouds 29 1011 79 10000 2.6 20 14:37 23.11.2020
5258 Clouds 26 1011 88 10000 1 40 12:41 23.11.2020
5259 Clouds 26 1011 88 10000 1 40 12:18 23.11.2020
5260 Clouds 26 1011 83 10000 1.5 40 11:41 23.11.2020
5261 Clear 26 1010 88 10000 1.5 10 10:19 23.11.2020
5262 Clear 26 1010 88 10000 2.1 20 08:59 23.11.2020
5263 Clear 26 1010 88 10000 1 70 08:18 23.11.2020
5264 Clear 26 1011 83 10000 1.5 50 05:22 23.11.2020
5265 Clouds 28 1008 78 10000 1 80 23:59 22.11.2020
5266 Clouds 30 1007 70 10000 1 100 22:40 22.11.2020
5267 Clouds 29 1009 74 10000 2.1 230 21:26 22.11.2020
5268 Clouds 29 1009 74 10000 2.1 230 20:35 22.11.2020
5269 Clouds 29 1010 79 10000 2.1 200 19:36 22.11.2020
5270 Clouds 30 1011 70 10000 1.5 180 18:39 22.11.2020
5271 Clouds 29 1012 74 10000 1 190 16:36 22.11.2020
5272 Clouds 26 1013 83 10000 2.1 250 15:28 22.11.2020
5273 Clouds 25 1012 83 10000 2.1 250 13:44 22.11.2020
5274 Clouds 25 1011 83 10000 1.5 230 12:43 22.11.2020
5275 Clouds 25 1011 88 10000 1 200 11:55 22.11.2020
5276 Clouds 25 1010 88 10000 1.5 240 10:54 22.11.2020
5277 Clouds 25 1010 88 10000 1.5 240 10:36 22.11.2020
5278 Clouds 25 1009 94 10000 2.1 250 07:43 22.11.2020
5279 Thunderstorm 26 1011 83 10000 2.1 300 01:47 22.11.2020
5280 Clouds 28 1008 74 10000 2.1 330 22:42 21.11.2020
5281 Clouds 28 1008 74 10000 1.5 340 21:32 21.11.2020
5282 Clouds 28 1008 74 10000 1.5 340 21:32 21.11.2020
5283 Clouds 28 1008 78 10000 2.1 360 20:53 21.11.2020
5284 Rain 28 1008 78 10000 2.1 360 20:21 21.11.2020
5285 Rain 27 1009 83 10000 2.1 290 19:49 21.11.2020
5286 Rain 27 1010 83 10000 2.1 260 19:18 21.11.2020
5287 Rain 26 1012 88 10000 1 190 17:32 21.11.2020
5288 Rain 26 1012 88 10000 1 190 16:45 21.11.2020
5289 Rain 25 1012 94 8000 1.5 260 15:42 21.11.2020
5290 Rain 25 1012 94 8000 1.5 260 15:20 21.11.2020
5291 Rain 25 1013 94 5000 2.6 260 14:42 21.11.2020
5292 Rain 25 1011 94 10000 1.5 330 12:59 21.11.2020
5293 Rain 25 1011 94 10000 1.5 330 12:23 21.11.2020
5294 Rain 25 1010 94 10000 1.5 320 11:49 21.11.2020
5295 Rain 25 1009 94 10000 1 310 10:28 21.11.2020
5296 Rain 25 1009 94 8000 1 20 08:52 21.11.2020
5297 Rain 25 1009 94 8000 1 20 08:52 21.11.2020
5298 Rain 25 1009 94 8000 1 20 08:34 21.11.2020
5299 Rain 25 1010 94 2000 2.6 190 05:42 21.11.2020
5300 Thunderstorm 27 1009 83 10000 1.35 54 02:52 21.11.2020
5301 Thunderstorm 29 1007 83 10000 0.29 308 00:22 21.11.2020
5302 Clouds 33 1006 59 10000 0.5 190 22:45 20.11.2020
5303 Thunderstorm 32 1006 59 10000 4.6 330 21:45 20.11.2020
5304 Thunderstorm 34 1006 52 10000 2.1 230 21:21 20.11.2020
5305 Clouds 33 1007 56 10000 1.5 110 19:55 20.11.2020
5306 Clouds 33 1009 59 10000 2.6 80 18:54 20.11.2020
5307 Clouds 33 1010 63 10000 2.1 110 17:59 20.11.2020
5308 Clouds 33 1010 63 10000 2.1 110 17:29 20.11.2020
5309 Clouds 32 1011 62 10000 2.6 70 16:47 20.11.2020
5310 Clouds 32 1011 59 10000 3.1 40 15:59 20.11.2020
5311 Clouds 31 1011 66 10000 2.1 80 15:34 20.11.2020
5312 Clear 29 1011 74 10000 2.6 70 13:49 20.11.2020
5313 Clear 27 1010 78 10000 2.6 50 13:19 20.11.2020
5314 Clear 27 1010 78 10000 2.6 50 12:39 20.11.2020
5315 Clear 25 1009 88 10000 3.6 50 11:48 20.11.2020
5316 Clear 25 1009 88 10000 1 120 11:21 20.11.2020
5317 Clear 25 1008 88 10000 1.5 90 09:45 20.11.2020
5318 Clear 26 1009 83 10000 1.5 100 08:27 20.11.2020
5319 Clear 26 1009 83 10000 1 90 07:34 20.11.2020
5320 Clouds 28 1011 78 10000 2.1 80 03:45 20.11.2020
5321 Clouds 29 1007 79 10000 1.82 18 23:25 19.11.2020
5322 Clouds 31 1007 70 10000 1 70 22:27 19.11.2020
5323 Clouds 31 1007 66 10000 1 90 21:49 19.11.2020
5324 Clouds 31 1008 66 10000 1.5 90 20:36 19.11.2020
5325 Clouds 31 1009 70 10000 2.1 90 20:18 19.11.2020
5326 Clouds 31 1009 70 10000 2.1 90 19:25 19.11.2020
5327 Rain 29 1011 79 10000 2.6 80 17:50 19.11.2020
5328 Clouds 29 1011 70 10000 2.6 340 16:59 19.11.2020
5329 Clouds 29 1012 74 10000 3.1 350 15:59 19.11.2020
5330 Clouds 29 1012 79 10000 2.1 50 15:28 19.11.2020
5331 Rain 26 1012 94 10000 1.5 170 13:46 19.11.2020
5332 Clouds 26 1012 94 10000 1.5 170 13:24 19.11.2020
5333 Clouds 25 1011 100 10000 1 170 12:44 19.11.2020
5334 Clouds 25 1011 100 10000 1 170 12:24 19.11.2020
5335 Clouds 25 1010 94 10000 1.01 72 11:39 19.11.2020
5336 Clouds 25 1010 94 10000 1.02 42 10:54 19.11.2020
5337 Clouds 25 1010 94 10000 1.1 52 10:27 19.11.2020
5338 Clouds 25 1009 94 10000 1.1 52 09:44 19.11.2020
5339 Rain 25 1009 94 10000 1.12 69 09:24 19.11.2020
5340 Rain 25 1009 94 10000 1.12 69 09:24 19.11.2020
5341 Rain 25 1010 94 10000 0.84 63 08:19 19.11.2020
5342 Clouds 26 1010 88 10000 1.5 60 06:20 19.11.2020
5343 Rain 27 1009 88 10000 2.6 50 01:45 19.11.2020
5344 Rain 27 1007 88 10000 1.5 80 23:53 18.11.2020
5345 Rain 27 1007 88 10000 1.5 80 23:25 18.11.2020
5346 Rain 28 1007 83 10000 1.74 174 22:36 18.11.2020
5347 Rain 29 1008 79 10000 1.17 171 22:18 18.11.2020
5348 Rain 29 1008 79 10000 1.17 171 21:38 18.11.2020
5349 Rain 29 1008 74 10000 1 80 21:19 18.11.2020
5350 Clouds 29 1009 74 10000 1.5 70 19:47 18.11.2020
5351 Rain 29 1009 74 10000 1.5 70 19:27 18.11.2020
5352 Clouds 29 1011 74 10000 1 80 18:49 18.11.2020
5353 Clouds 29 1011 74 10000 1 80 17:59 18.11.2020
5354 Clouds 28 1012 74 10000 2.1 80 17:35 18.11.2020
5355 Rain 28 1012 74 10000 1.5 180 16:23 18.11.2020
5356 Clouds 27 1012 78 10000 1 80 15:36 18.11.2020
5357 Rain 27 1012 78 10000 1.5 70 14:40 18.11.2020
5358 Clouds 26 1012 88 10000 1 100 13:43 18.11.2020
5359 Clouds 26 1011 94 10000 0.5 70 12:54 18.11.2020
5360 Clouds 25 1011 94 10000 0.5 70 12:29 18.11.2020
5361 Clouds 25 1010 94 10000 1 160 11:28 18.11.2020
5362 Clouds 25 1010 94 10000 0.5 190 10:31 18.11.2020
5363 Clouds 25 1009 94 10000 1 200 09:52 18.11.2020
5364 Rain 25 1009 94 10000 2.6 240 07:40 18.11.2020
5365 Rain 26 1009 88 10000 3.6 260 06:30 18.11.2020
5366 Thunderstorm 26 1008 88 10000 2.6 310 00:23 18.11.2020
5367 Rain 26 1007 88 10000 1.5 320 23:31 17.11.2020
5368 Clouds 26 1007 83 10000 2.1 350 22:46 17.11.2020
5369 Clouds 26 1007 83 10000 2.1 350 22:46 17.11.2020
5370 Rain 26 1007 83 10000 2.1 350 22:28 17.11.2020
5371 Rain 26 1007 83 10000 3.6 330 21:49 17.11.2020
5372 Rain 26 1007 83 10000 3.6 330 21:30 17.11.2020
5373 Thunderstorm 27 1006 83 10000 4.1 300 20:44 17.11.2020
5374 Rain 27 1006 83 10000 4.1 300 20:24 17.11.2020
5375 Rain 29 1007 70 10000 3.1 160 19:50 17.11.2020
5376 Clouds 30 1009 74 10000 2.1 190 18:24 17.11.2020
5377 Clouds 30 1009 74 10000 1.5 90 17:33 17.11.2020
5378 Clouds 30 1010 74 10000 1.5 60 16:49 17.11.2020
5379 Clouds 29 1011 79 10000 1 150 16:18 17.11.2020
5380 Clouds 29 1011 79 10000 1 150 15:38 17.11.2020
5381 Clouds 28 1011 78 10000 2.1 170 15:20 17.11.2020
5382 Clouds 27 1011 83 10000 2.1 160 14:30 17.11.2020
5383 Clouds 26 1010 88 10000 2.1 160 13:45 17.11.2020
5384 Clouds 26 1010 88 10000 2.1 160 13:22 17.11.2020
5385 Clouds 25 1010 94 10000 1 160 12:42 17.11.2020
5386 Clouds 25 1009 94 10000 1 150 11:45 17.11.2020
5387 Clouds 25 1009 94 10000 2.6 160 11:21 17.11.2020
5388 Clouds 25 1009 94 10000 2.6 160 10:39 17.11.2020
5389 Thunderstorm 26 1008 94 10000 1.5 160 09:53 17.11.2020
5390 Thunderstorm 26 1008 94 10000 1.5 160 09:34 17.11.2020
5391 Thunderstorm 25 1009 94 10000 1 160 08:26 17.11.2020
5392 Rain 25 1009 100 10000 1 170 07:57 17.11.2020
5393 Clear 25 1009 100 10000 1 170 07:28 17.11.2020
5394 Clear 26 1010 88 10000 0.55 296 04:29 17.11.2020
5395 Clear 26 1010 88 10000 1 200 03:22 17.11.2020
5396 Clear 26 1010 88 10000 1 200 02:28 17.11.2020
5397 Clouds 27 1007 74 10000 1 50 00:56 17.11.2020
5398 Clouds 28 1007 74 10000 1.5 60 23:52 16.11.2020
5399 Clouds 28 1007 74 10000 1.5 60 23:29 16.11.2020
5400 Clouds 28 1006 78 10000 1.5 90 22:48 16.11.2020
5401 Clouds 29 1006 79 10000 1 70 22:21 16.11.2020
5402 Clouds 29 1006 79 10000 1 70 21:49 16.11.2020
5403 Rain 29 1006 79 10000 1 70 21:25 16.11.2020
5404 Rain 31 1006 74 10000 1.5 80 20:58 16.11.2020
5405 Rain 31 1006 74 10000 1.5 80 20:25 16.11.2020
5406 Rain 32 1008 70 10000 2.6 80 19:42 16.11.2020
5407 Clouds 32 1008 70 10000 2.6 80 19:24 16.11.2020
5408 Clouds 32 1009 70 10000 2.6 70 18:42 16.11.2020
5409 Clouds 32 1011 70 10000 2.1 50 17:53 16.11.2020
5410 Clouds 32 1011 70 10000 2.1 50 17:25 16.11.2020
5411 Clouds 32 1011 70 10000 2.1 50 16:56 16.11.2020
5412 Clouds 31 1011 74 10000 1.5 130 16:36 16.11.2020
5413 Clouds 30 1012 79 10000 1.5 160 16:18 16.11.2020
5414 Clouds 30 1012 79 10000 1.5 160 15:41 16.11.2020
5415 Clouds 28 1012 88 10000 1.5 200 15:21 16.11.2020
5416 Clouds 28 1012 88 10000 1.5 200 14:39 16.11.2020
5417 Clouds 28 1011 83 10000 1.5 220 13:34 16.11.2020
5418 Clouds 26 1010 94 10000 0.5 120 12:34 16.11.2020
5419 Clouds 26 1009 94 10000 1 210 11:54 16.11.2020
5420 Clouds 26 1009 94 10000 1 210 11:36 16.11.2020
5421 Clouds 25 1009 94 10000 1.5 10 11:18 16.11.2020
5422 Clouds 25 1009 94 10000 1.5 10 10:39 16.11.2020
5423 Clouds 25 1008 94 10000 2.1 20 10:20 16.11.2020
5424 Clouds 25 1008 94 10000 2.1 20 09:41 16.11.2020
5425 Clouds 25 1009 94 10000 1 290 08:53 16.11.2020
5426 Clouds 25 1009 94 10000 1 290 08:34 16.11.2020
5427 Clouds 25 1009 88 10000 1.5 10 07:43 16.11.2020
5428 Clouds 25 1009 88 10000 1.5 10 07:43 16.11.2020
5429 Clouds 26 1010 88 10000 2.6 30 06:47 16.11.2020
5430 Clouds 26 1010 94 10000 1.5 330 05:53 16.11.2020
5431 Clear 26 1010 88 10000 0.5 300 04:36 16.11.2020
5432 Clear 27 1008 83 10000 2.1 330 01:48 16.11.2020
5433 Clouds 27 1007 83 10000 2.1 310 01:21 16.11.2020
5434 Clouds 28 1007 83 10000 3.1 310 23:48 15.11.2020
5435 Rain 29 1006 74 10000 0.5 90 23:21 15.11.2020
5436 Clouds 29 1006 74 10000 0.5 90 22:39 15.11.2020
5437 Clouds 31 1006 74 10000 2.1 240 22:18 15.11.2020
5438 Clouds 31 1006 74 10000 2.1 240 21:41 15.11.2020
5439 Clouds 30 1007 74 10000 3.1 240 21:20 15.11.2020
5440 Clouds 30 1007 74 10000 3.1 240 20:41 15.11.2020
5441 Clouds 30 1009 79 10000 3.1 270 20:18 15.11.2020
5442 Clouds 30 1009 79 10000 3.1 270 19:43 15.11.2020
5443 Clouds 30 1009 79 10000 3.1 270 19:22 15.11.2020
5444 Clouds 30 1009 74 10000 1.5 250 18:55 15.11.2020
5445 Clouds 30 1011 79 10000 2.6 250 18:37 15.11.2020
5446 Clouds 29 1012 79 10000 0.5 180 18:18 15.11.2020
5447 Clouds 29 1012 79 10000 0.5 180 17:42 15.11.2020
5448 Clouds 28 1012 79 10000 2.1 20 17:22 15.11.2020
5449 Clouds 28 1012 79 10000 2.1 20 16:44 15.11.2020
5450 Clouds 28 1012 79 10000 2.1 20 16:44 15.11.2020
5451 Clouds 27 1012 88 10000 1 20 16:19 15.11.2020
5452 Clouds 27 1012 88 10000 1 20 15:44 15.11.2020
5453 Clouds 27 1012 88 10000 1 20 15:25 15.11.2020
5454 Clouds 26 1012 88 10000 2.1 10 14:54 15.11.2020
5455 Clouds 26 1012 88 10000 2.1 10 14:54 15.11.2020
5456 Clouds 26 1012 88 10000 2.1 10 14:27 15.11.2020
5457 Rain 26 1012 83 10000 1.5 40 13:44 15.11.2020
5458 Clouds 26 1012 83 10000 1.5 40 13:25 15.11.2020
5459 Clouds 24 1010 94 10000 1 100 12:47 15.11.2020
5460 Clouds 24 1010 94 10000 1 170 12:19 15.11.2020
5461 Rain 24 1010 94 10000 1 170 11:44 15.11.2020
5462 Rain 24 1009 94 10000 2.1 80 11:19 15.11.2020
5463 Rain 24 1009 94 10000 2.1 80 10:53 15.11.2020
5464 Rain 24 1009 94 10000 2.1 80 10:31 15.11.2020
5465 Rain 24 1008 94 10000 2.1 80 09:55 15.11.2020
5466 Rain 24 1008 94 10000 2.1 80 09:32 15.11.2020
5467 Rain 24 1009 94 10000 1.5 170 08:56 15.11.2020
5468 Rain 24 1009 94 10000 1.5 170 08:38 15.11.2020
5469 Rain 24 1008 94 7000 3.6 350 07:45 15.11.2020
5470 Rain 26 1009 88 10000 1 70 06:42 15.11.2020
5471 Thunderstorm 27 1010 94 10000 0.5 130 04:53 15.11.2020
5472 Clouds 28 1008 74 10000 1 20 01:54 15.11.2020
5473 Thunderstorm 29 1006 70 10000 1.5 350 00:30 15.11.2020
5474 Thunderstorm 30 1006 74 10000 1.5 40 23:49 14.11.2020
5475 Thunderstorm 30 1006 74 10000 1.5 40 22:55 14.11.2020
5476 Thunderstorm 30 1006 74 10000 1.5 40 22:55 14.11.2020
5477 Clouds 32 1006 66 10000 1.5 80 22:37 14.11.2020
5478 Clouds 32 1006 66 10000 1.5 90 22:18 14.11.2020
5479 Clouds 32 1006 66 10000 1.5 90 21:39 14.11.2020
5480 Clouds 32 1006 66 10000 2.1 80 21:20 14.11.2020
5481 Clouds 32 1006 66 10000 2.1 80 20:42 14.11.2020
5482 Clouds 32 1006 66 10000 2.1 80 20:23 14.11.2020
5483 Clouds 31 1008 74 10000 2.6 80 19:36 14.11.2020
5484 Clouds 32 1008 66 10000 2.6 20 18:58 14.11.2020
5485 Clouds 31 1009 74 10000 1.5 70 18:39 14.11.2020
5486 Clouds 31 1009 74 10000 1.5 70 18:21 14.11.2020
5487 Rain 30 1011 79 10000 1.5 80 17:44 14.11.2020
5488 Rain 30 1011 79 10000 1.5 80 17:25 14.11.2020
5489 Clouds 30 1012 83 10000 1.5 80 16:52 14.11.2020
5490 Clouds 29 1012 83 10000 1.5 80 16:31 14.11.2020
5491 Clouds 30 1012 83 10000 2.1 150 15:53 14.11.2020
5492 Clouds 30 1012 83 10000 2.1 150 15:53 14.11.2020
5493 Clouds 30 1012 83 10000 2.1 150 15:30 14.11.2020
5494 Clouds 29 1012 88 10000 1.5 160 14:50 14.11.2020
5495 Clouds 28 1012 83 10000 1.5 180 14:28 14.11.2020
5496 Clouds 27 1012 88 10000 1.5 210 13:50 14.11.2020
5497 Clouds 27 1012 88 10000 1.5 210 13:27 14.11.2020
5498 Clouds 26 1011 100 10000 1 180 12:49 14.11.2020
5499 Clouds 26 1011 100 10000 1 180 12:30 14.11.2020
5500 Clouds 26 1010 94 6000 0.5 160 11:49 14.11.2020
5501 Clouds 26 1010 94 6000 0.5 160 11:30 14.11.2020
5502 Mist 25 1009 100 5000 1 230 10:51 14.11.2020
5503 Mist 25 1009 100 5000 1 230 10:27 14.11.2020
5504 Mist 26 1009 94 1500 2.1 240 09:58 14.11.2020
5505 Mist 26 1009 94 1500 2.1 240 09:39 14.11.2020
5506 Mist 26 1010 94 3000 1 170 09:21 14.11.2020
5507 Mist 26 1010 94 3000 1 170 08:40 14.11.2020
5508 Mist 26 1009 94 4000 1 210 07:55 14.11.2020
5509 Mist 26 1009 94 4000 1 210 07:36 14.11.2020
5510 Clouds 26 1010 94 10000 1.5 160 06:37 14.11.2020
5511 Clouds 26 1011 100 9000 0.31 29 06:19 14.11.2020
5512 Clouds 26 1011 88 10000 0.07 169 04:30 14.11.2020
5513 Clouds 27 1009 83 10000 1 70 01:25 14.11.2020
5514 Clouds 28 1007 83 10000 1.2 136 23:50 13.11.2020
5515 Clouds 28 1007 83 10000 1.03 135 23:29 13.11.2020
5516 Clouds 29 1007 83 10000 1 300 22:55 13.11.2020
5517 Clouds 29 1007 83 10000 1 300 22:55 13.11.2020
5518 Clouds 29 1007 79 10000 0.5 100 22:29 13.11.2020
5519 Clouds 30 1007 74 10000 1 60 21:59 13.11.2020
5520 Clouds 30 1007 74 10000 1 60 21:41 13.11.2020
5521 Clouds 31 1008 70 10000 1 70 21:22 13.11.2020
5522 Clouds 31 1008 70 10000 1 70 20:44 13.11.2020
5523 Clouds 31 1008 70 10000 1 70 20:23 13.11.2020
5524 Clouds 30 1009 74 10000 2.1 90 19:47 13.11.2020
5525 Clouds 30 1009 74 10000 2.1 90 19:24 13.11.2020
5526 Clouds 31 1009 66 10000 3.6 30 18:58 13.11.2020
5527 Clouds 30 1011 74 10000 1.5 230 18:26 13.11.2020
5528 Clouds 29 1012 79 10000 3.1 230 17:43 13.11.2020
5529 Clouds 29 1012 79 10000 3.1 230 17:43 13.11.2020
5530 Clouds 29 1012 79 10000 3.1 230 17:19 13.11.2020
5531 Clouds 30 1013 66 10000 0.5 40 16:50 13.11.2020
5532 Clouds 30 1013 66 10000 0.5 40 16:24 13.11.2020
5533 Clouds 28 1014 70 10000 1.5 340 15:52 13.11.2020
5534 Clouds 28 1014 70 10000 1.5 340 15:32 13.11.2020
5535 Clouds 27 1014 70 10000 1 270 14:50 13.11.2020
5536 Clouds 27 1014 70 10000 1 270 14:27 13.11.2020
5537 Clouds 25 1012 74 10000 1.5 360 13:53 13.11.2020
5538 Rain 25 1012 74 10000 1.5 360 13:27 13.11.2020
5539 Rain 24 1011 83 10000 3.1 20 12:48 13.11.2020
5540 Rain 24 1011 83 10000 3.1 20 12:25 13.11.2020
5541 Rain 24 1010 88 10000 3.1 40 11:50 13.11.2020
5542 Rain 24 1010 88 10000 3.1 40 11:32 13.11.2020
5543 Rain 26 1010 88 10000 0.85 67 10:58 13.11.2020
5544 Rain 26 1010 88 10000 0.85 67 10:39 13.11.2020
5545 Rain 26 1010 88 10000 1 280 10:21 13.11.2020
5546 Clear 26 1010 88 10000 1 280 09:42 13.11.2020
5547 Clear 26 1010 88 10000 1 10 09:20 13.11.2020
5548 Clear 26 1010 88 10000 1 10 08:50 13.11.2020
5549 Clear 26 1010 88 10000 0.5 350 08:20 13.11.2020
5550 Clear 26 1010 88 10000 0.5 350 07:44 13.11.2020
5551 Clear 26 1010 88 10000 0.5 350 07:26 13.11.2020
5552 Clear 26 1010 83 10000 0.5 30 06:49 13.11.2020
5553 Clear 27 1011 78 10000 2.1 360 05:43 13.11.2020
5554 Clear 26 1011 83 10000 1 60 05:23 13.11.2020
5555 Clear 27 1008 78 10000 1.5 350 01:45 13.11.2020
5556 Clear 28 1007 74 10000 2.1 10 00:51 13.11.2020
5557 Clear 28 1007 74 10000 2.1 10 00:32 13.11.2020
5558 Rain 29 1006 79 10000 1 60 23:38 12.11.2020
5559 Rain 29 1006 70 10000 1.5 20 23:19 12.11.2020
5560 Rain 29 1006 70 10000 1.5 20 23:19 12.11.2020
5561 Rain 30 1006 70 10000 1.5 20 22:50 12.11.2020
5562 Clouds 30 1006 70 10000 1.5 20 22:30 12.11.2020
5563 Rain 29 1006 83 10000 1.5 60 21:43 12.11.2020
5564 Rain 29 1006 83 10000 1.5 60 21:24 12.11.2020
5565 Clouds 30 1007 83 9000 1.5 80 20:58 12.11.2020
5566 Clouds 30 1007 79 10000 1.5 200 20:39 12.11.2020
5567 Rain 31 1009 70 10000 1 60 20:21 12.11.2020
5568 Rain 31 1009 70 10000 1 60 20:21 12.11.2020
5569 Clouds 31 1009 70 10000 1 60 19:45 12.11.2020
5570 Clouds 31 1009 70 10000 1 60 19:45 12.11.2020
5571 Rain 31 1009 70 10000 1 60 19:27 12.11.2020
5572 Rain 32 1010 63 10000 2.6 70 18:49 12.11.2020
5573 Clouds 32 1010 63 10000 2.6 70 18:24 12.11.2020
5574 Clouds 32 1011 66 10000 3.1 60 17:46 12.11.2020
5575 Clouds 32 1011 66 10000 3.1 60 17:27 12.11.2020
5576 Clouds 31 1012 66 10000 3.6 80 16:47 12.11.2020
5577 Clouds 31 1012 66 10000 3.6 80 16:27 12.11.2020
5578 Clouds 31 1012 70 10000 2.1 200 15:59 12.11.2020
5579 Clouds 31 1012 70 10000 2.1 200 15:40 12.11.2020
5580 Clouds 30 1012 83 10000 2.6 240 15:20 12.11.2020
5581 Clouds 29 1012 83 10000 2.6 240 14:46 12.11.2020
5582 Clouds 29 1012 83 10000 2.6 240 14:25 12.11.2020
5583 Clear 29 1012 79 10000 0.5 100 13:49 12.11.2020
5584 Clear 27 1011 88 10000 1 40 13:21 12.11.2020
5585 Clouds 28 1012 78 10000 1.31 99 12:59 12.11.2020
5586 Clear 26 1011 88 10000 1 40 12:39 12.11.2020
5587 Clear 25 1010 94 10000 1 20 12:18 12.11.2020
5588 Clear 24 1010 94 10000 1 20 11:45 12.11.2020
5589 Clouds 25 1009 94 10000 0.64 120 11:22 12.11.2020
5590 Clouds 25 1009 94 10000 0.64 120 10:41 12.11.2020
5591 Clouds 25 1009 94 10000 0.66 144 10:23 12.11.2020
5592 Clouds 24 1009 94 10000 1.5 60 09:42 12.11.2020
5593 Clear 24 1009 94 10000 1 40 09:22 12.11.2020
5594 Clear 25 1009 94 10000 1 40 08:41 12.11.2020
5595 Clear 25 1009 94 10000 1.5 20 08:22 12.11.2020
5596 Clear 25 1009 94 10000 1.5 20 08:22 12.11.2020
5597 Clear 25 1009 94 10000 1.5 20 07:59 12.11.2020
5598 Clear 25 1009 94 10000 1.5 20 07:40 12.11.2020
5599 Clear 25 1010 94 10000 0.43 83 06:58 12.11.2020
5600 Clear 25 1010 94 10000 0.43 83 06:40 12.11.2020
5601 Clear 25 1010 88 10000 2.1 70 04:39 12.11.2020
5602 Clear 27 1010 83 10000 2.1 70 03:20 12.11.2020
5603 Clear 26 1008 83 10000 1 30 00:54 12.11.2020
5604 Clouds 27 1008 83 10000 1 90 23:47 11.11.2020
5605 Clouds 27 1008 88 10000 0.91 186 23:25 11.11.2020
5606 Clouds 27 1008 88 10000 0.91 186 22:57 11.11.2020
5607 Clouds 27 1008 88 10000 0.91 186 22:38 11.11.2020
5608 Clouds 27 1007 83 10000 1 110 22:18 11.11.2020
5609 Clouds 27 1007 83 10000 1 110 21:41 11.11.2020
5610 Rain 27 1009 83 10000 1.5 70 21:23 11.11.2020
5611 Rain 27 1009 83 10000 1.5 70 20:55 11.11.2020
5612 Thunderstorm 27 1009 83 10000 1.5 70 20:37 11.11.2020
5613 Rain 29 1009 79 10000 1.5 10 20:18 11.11.2020
5614 Rain 29 1009 79 10000 1.5 10 19:46 11.11.2020
5615 Rain 29 1009 79 10000 1.5 10 19:28 11.11.2020
5616 Clouds 33 1010 59 10000 1.5 100 18:47 11.11.2020
5617 Clouds 33 1010 59 10000 1.5 100 18:27 11.11.2020
5618 Clouds 33 1011 59 10000 1.5 80 17:41 11.11.2020
5619 Clouds 32 1013 70 10000 1.5 150 17:22 11.11.2020
5620 Clouds 32 1013 70 10000 1.5 150 16:47 11.11.2020
5621 Clouds 32 1013 70 10000 1.5 150 16:28 11.11.2020
5622 Clouds 31 1014 74 10000 1 120 15:47 11.11.2020
5623 Clouds 31 1014 74 10000 1 120 15:26 11.11.2020
5624 Clouds 30 1014 79 10000 1.5 100 14:52 11.11.2020
5625 Clouds 29 1014 79 10000 1.5 100 14:33 11.11.2020
5626 Clear 29 1013 74 10000 1.5 80 13:55 11.11.2020
5627 Clouds 27 1013 88 10000 1 90 13:33 11.11.2020
5628 Clear 26 1012 94 10000 1.58 112 12:41 11.11.2020
5629 Clear 25 1012 94 10000 1.57 120 12:20 11.11.2020
5630 Clear 25 1011 94 10000 1.57 120 11:49 11.11.2020
5631 Clear 25 1011 94 10000 1.66 133 11:29 11.11.2020
5632 Clear 25 1010 94 10000 1.66 133 10:41 11.11.2020
5633 Clear 25 1009 94 10000 1 130 10:21 11.11.2020
5634 Clear 25 1009 94 10000 1 130 09:45 11.11.2020
5635 Clear 25 1009 94 10000 1 130 09:26 11.11.2020
5636 Clear 26 1009 94 10000 1 170 08:46 11.11.2020
5637 Clear 26 1009 94 10000 1 170 08:27 11.11.2020
5638 Clear 26 1010 94 10000 0.6 103 07:49 11.11.2020
5639 Rain 26 1010 94 10000 0.26 122 07:18 11.11.2020
5640 Clear 26 1010 94 10000 0.5 125 06:26 11.11.2020
5641 Clear 27 1011 83 10000 0.5 130 03:57 11.11.2020
5642 Clouds 28 1010 83 10000 1.5 190 01:31 11.11.2020
5643 Thunderstorm 28 1009 79 10000 2.1 270 00:28 11.11.2020
5644 Rain 29 1008 70 10000 2.1 80 23:49 10.11.2020
5645 Rain 29 1008 70 10000 2.1 80 23:24 10.11.2020
5646 Rain 30 1007 70 10000 5.1 70 22:57 10.11.2020
5647 Rain 30 1007 70 10000 5.1 70 22:27 10.11.2020
5648 Rain 32 1007 62 10000 1 150 21:44 10.11.2020
5649 Rain 32 1007 62 10000 1 150 21:25 10.11.2020
5650 Rain 32 1008 62 10000 2.6 60 20:59 10.11.2020
5651 Rain 32 1008 62 10000 2.6 60 20:41 10.11.2020
5652 Rain 32 1008 62 10000 2.6 60 20:22 10.11.2020
5653 Clouds 33 1009 63 10000 2.1 150 19:49 10.11.2020
5654 Clouds 33 1009 63 10000 2.1 150 19:30 10.11.2020
5655 Clouds 33 1010 59 10000 1.5 150 18:59 10.11.2020
5656 Clouds 33 1010 59 10000 1.5 150 18:40 10.11.2020
5657 Clouds 33 1010 59 10000 1.5 150 18:19 10.11.2020
5658 Clouds 33 1011 59 10000 1.5 90 17:43 10.11.2020
5659 Clouds 33 1011 59 10000 1.5 90 17:25 10.11.2020
5660 Clouds 33 1012 59 10000 3.1 70 16:44 10.11.2020
5661 Clouds 33 1012 59 10000 3.1 70 16:24 10.11.2020
5662 Clouds 32 1012 59 10000 3.6 10 15:56 10.11.2020
5663 Clouds 32 1013 66 10000 2.6 70 15:37 10.11.2020
5664 Clouds 32 1013 66 10000 2.6 70 15:19 10.11.2020
5665 Clear 30 1013 74 10000 1.5 80 14:41 10.11.2020
5666 Clear 29 1012 83 10000 1.5 80 14:21 10.11.2020
5667 Clear 28 1012 83 10000 1.5 80 13:41 10.11.2020
5668 Clouds 27 1012 88 10000 1 80 13:23 10.11.2020
5669 Clouds 27 1012 88 10000 1 80 12:58 10.11.2020
5670 Clouds 27 1012 88 10000 1 80 12:38 10.11.2020
5671 Clouds 27 1012 88 10000 1 80 12:20 10.11.2020
5672 Clouds 25 1011 88 10000 0.5 100 11:38 10.11.2020
5673 Clouds 25 1011 88 10000 0.5 100 11:19 10.11.2020
5674 Thunderstorm 26 1010 88 10000 1.5 240 10:42 10.11.2020
5675 Thunderstorm 26 1010 88 10000 1.5 240 10:24 10.11.2020
5676 Clouds 26 1009 88 10000 1.5 210 09:49 10.11.2020
5677 Clouds 26 1009 88 10000 1.5 210 09:26 10.11.2020
5678 Clouds 26 1009 88 10000 1.5 210 08:57 10.11.2020
5679 Clouds 26 1009 88 10000 1.5 210 08:30 10.11.2020
5680 Clouds 26 1010 88 10000 1.5 210 07:47 10.11.2020
5681 Clouds 26 1010 88 10000 1.5 210 07:27 10.11.2020
5682 Thunderstorm 26 1010 88 10000 1.5 230 06:58 10.11.2020
5683 Thunderstorm 26 1010 88 10000 1.5 230 06:37 10.11.2020
5684 Thunderstorm 26 1011 88 10000 1.5 250 05:27 10.11.2020
5685 Clouds 27 1011 88 10000 0.5 280 02:57 10.11.2020
5686 Clouds 28 1009 88 10000 1.5 260 01:38 10.11.2020
5687 Clouds 28 1009 83 10000 2.1 260 00:24 10.11.2020
5688 Clouds 29 1008 79 10000 1 340 23:42 09.11.2020
5689 Clouds 29 1007 83 10000 1.5 90 22:57 09.11.2020
5690 Clouds 29 1007 83 10000 1.5 90 22:38 09.11.2020
5691 Clouds 30 1008 79 10000 1 70 22:19 09.11.2020
5692 Clouds 30 1008 79 10000 1 70 22:19 09.11.2020
5693 Clouds 30 1008 79 10000 1 70 21:40 09.11.2020
5694 Clouds 31 1009 70 10000 1 120 21:20 09.11.2020
5695 Clouds 31 1009 70 10000 1 120 20:41 09.11.2020
5696 Clouds 31 1010 74 10000 1 130 20:21 09.11.2020
5697 Rain 31 1010 74 10000 1 130 19:43 09.11.2020
5698 Rain 31 1010 74 10000 1 130 19:23 09.11.2020
5699 Rain 30 1011 79 10000 1.5 180 18:56 09.11.2020
5700 Rain 30 1011 79 10000 1.5 180 18:56 09.11.2020
5701 Rain 30 1011 79 10000 1.5 180 18:37 09.11.2020
5702 Rain 30 1011 79 10000 1.5 180 18:18 09.11.2020
5703 Clouds 30 1012 74 10000 2.6 230 17:42 09.11.2020
5704 Clouds 30 1012 74 10000 2.6 230 17:24 09.11.2020
5705 Clouds 29 1013 79 10000 4.6 260 16:41 09.11.2020
5706 Clouds 29 1013 83 10000 3.6 260 16:20 09.11.2020
5707 Clouds 28 1013 83 10000 3.6 260 15:42 09.11.2020
5708 Clouds 28 1013 78 10000 3.6 260 15:24 09.11.2020
5709 Clouds 28 1013 78 10000 3.6 260 14:46 09.11.2020
5710 Clouds 28 1013 78 10000 3.6 260 14:27 09.11.2020
5711 Clouds 26 1013 88 10000 3.1 250 13:52 09.11.2020
5712 Rain 25 1013 88 10000 1 280 13:21 09.11.2020
5713 Rain 25 1013 88 10000 1 280 12:50 09.11.2020
5714 Rain 25 1013 88 10000 1 280 12:26 09.11.2020
5715 Rain 25 1011 94 10000 2.1 270 11:59 09.11.2020
5716 Rain 25 1011 94 10000 2.1 270 11:41 09.11.2020
5717 Rain 24 1011 100 9000 1.5 20 11:22 09.11.2020
5718 Rain 24 1011 100 9000 1.5 20 10:43 09.11.2020
5719 Rain 24 1011 100 9000 1.5 20 10:24 09.11.2020
5720 Rain 24 1011 100 6000 3.6 340 09:51 09.11.2020
5721 Rain 26 1010 88 10000 2.1 360 09:25 09.11.2020
5722 Clouds 26 1010 94 10000 2.1 250 08:44 09.11.2020
5723 Clouds 26 1011 88 10000 0.5 210 08:21 09.11.2020
5724 Clouds 26 1011 88 10000 0.5 210 07:41 09.11.2020
5725 Clouds 26 1011 88 10000 1 20 07:21 09.11.2020
5726 Clouds 26 1011 88 10000 1 20 06:37 09.11.2020
5727 Thunderstorm 27 1012 74 10000 2.1 360 03:31 09.11.2020
5728 Thunderstorm 28 1010 74 10000 2.1 10 01:44 09.11.2020
5729 Clouds 28 1010 79 10000 2.1 30 00:59 09.11.2020
5730 Clouds 29 1009 79 10000 2.6 280 23:53 08.11.2020
5731 Clouds 29 1009 79 10000 2.6 280 23:53 08.11.2020
5732 Clouds 29 1009 79 10000 2.6 280 23:30 08.11.2020
5733 Clouds 30 1008 74 10000 1 100 22:55 08.11.2020
5734 Clouds 30 1008 74 10000 1 100 22:36 08.11.2020
5735 Clouds 31 1007 70 10000 1 90 22:18 08.11.2020
5736 Clouds 31 1007 70 10000 1 90 21:38 08.11.2020
5737 Clouds 32 1008 70 10000 1 40 21:19 08.11.2020
5738 Clouds 32 1008 70 10000 1 40 20:39 08.11.2020
5739 Clouds 32 1008 70 10000 1 40 20:39 08.11.2020
5740 Clouds 30 1010 74 10000 1.5 50 20:21 08.11.2020
5741 Clouds 30 1010 74 10000 1.5 50 20:21 08.11.2020
5742 Clouds 30 1010 74 10000 1.5 50 19:57 08.11.2020
5743 Clouds 30 1010 74 10000 1.5 50 19:39 08.11.2020
5744 Clouds 30 1011 70 10000 2.6 40 19:20 08.11.2020
5745 Clouds 30 1011 70 10000 2.6 40 18:47 08.11.2020
5746 Clouds 30 1011 70 10000 2.6 40 18:21 08.11.2020
5747 Clouds 30 1011 70 10000 2.6 40 17:57 08.11.2020
5748 Rain 29 1012 74 10000 3.1 80 17:37 08.11.2020
5749 Rain 28 1013 78 10000 4.1 30 17:19 08.11.2020
5750 Rain 28 1013 78 10000 4.1 30 16:47 08.11.2020
5751 Rain 27 1014 83 10000 3.1 30 16:21 08.11.2020
5752 Rain 27 1014 83 10000 3.1 30 15:56 08.11.2020
5753 Rain 27 1014 83 10000 3.1 30 15:38 08.11.2020
5754 Rain 26 1014 88 10000 3.1 10 15:19 08.11.2020
5755 Rain 26 1014 88 10000 3.1 10 14:38 08.11.2020
5756 Rain 26 1013 88 10000 3.1 30 14:20 08.11.2020
5757 Rain 26 1013 88 10000 3.1 30 13:45 08.11.2020
5758 Rain 26 1013 88 10000 3.1 30 13:45 08.11.2020
5759 Rain 25 1012 94 10000 3.1 20 13:21 08.11.2020
5760 Rain 25 1012 94 10000 3.1 20 12:42 08.11.2020
5761 Rain 25 1012 94 10000 3.1 20 12:24 08.11.2020
5762 Rain 25 1012 100 10000 1.5 330 11:57 08.11.2020
5763 Rain 25 1011 94 10000 1.5 30 11:38 08.11.2020
5764 Rain 25 1011 94 10000 1.5 30 11:38 08.11.2020
5765 Rain 26 1009 78 10000 2.1 230 11:20 08.11.2020
5766 Rain 26 1009 78 10000 2.1 230 10:49 08.11.2020
5767 Rain 26 1010 78 10000 3.1 240 10:18 08.11.2020
5768 Rain 26 1010 78 10000 3.1 240 09:42 08.11.2020
5769 Rain 26 1010 78 10000 3.1 240 09:24 08.11.2020
5770 Rain 26 1010 78 10000 2.6 240 08:49 08.11.2020
5771 Rain 26 1010 78 10000 2.6 240 08:30 08.11.2020
5772 Rain 26 1010 78 10000 2.6 240 07:53 08.11.2020
5773 Rain 27 1010 78 10000 2.6 240 07:33 08.11.2020
5774 Rain 25 1010 88 6000 1.5 180 06:50 08.11.2020
5775 Rain 28 1011 79 10000 2.6 280 05:55 08.11.2020
5776 Rain 28 1011 79 10000 2.6 280 05:26 08.11.2020
5777 Rain 27 1011 88 10000 1.5 250 03:39 08.11.2020
5778 Thunderstorm 28 1009 83 10000 0.5 250 01:49 08.11.2020
5779 Thunderstorm 28 1009 83 10000 0.5 250 01:49 08.11.2020
5780 Rain 28 1008 83 10000 1 170 01:18 08.11.2020
5781 Thunderstorm 28 1008 83 10000 1 170 00:23 08.11.2020
5782 Rain 29 1008 79 10000 1 130 23:43 07.11.2020
5783 Rain 29 1008 79 10000 1 130 23:24 07.11.2020
5784 Rain 31 1006 70 10000 2.6 70 22:41 07.11.2020
5785 Clouds 32 1007 66 10000 1 80 22:21 07.11.2020
5786 Clouds 32 1007 66 10000 1 80 21:45 07.11.2020
5787 Clouds 33 1007 59 10000 2.6 70 21:21 07.11.2020
5788 Clouds 33 1007 59 10000 2.6 70 20:50 07.11.2020
5789 Clouds 33 1007 59 10000 2.6 70 20:31 07.11.2020
5790 Clouds 33 1009 59 10000 3.6 70 19:51 07.11.2020
5791 Clouds 33 1009 59 10000 3.6 70 19:29 07.11.2020
5792 Clouds 33 1009 55 10000 3.1 30 18:58 07.11.2020
5793 Clouds 32 1010 70 10000 2.6 80 18:38 07.11.2020
5794 Clouds 32 1010 70 10000 2.6 80 18:19 07.11.2020
5795 Clouds 31 1011 70 10000 3.6 70 17:40 07.11.2020
5796 Clouds 31 1011 70 10000 3.6 70 17:22 07.11.2020
5797 Clouds 31 1012 70 10000 5.1 60 16:42 07.11.2020
5798 Clouds 31 1012 70 10000 5.1 60 16:23 07.11.2020
5799 Clouds 30 1012 74 10000 3.6 80 15:43 07.11.2020
5800 Clouds 29 1013 79 10000 5.1 60 15:23 07.11.2020
5801 Clouds 29 1013 79 10000 5.1 60 14:48 07.11.2020
5802 Clouds 29 1013 79 10000 5.1 60 14:30 07.11.2020
5803 Clouds 29 1013 79 10000 5.1 60 14:30 07.11.2020
5804 Clouds 29 1012 74 10000 5.1 30 13:59 07.11.2020
5805 Clouds 28 1012 83 10000 4.1 60 13:31 07.11.2020
5806 Clouds 28 1012 83 10000 4.1 60 12:58 07.11.2020
5807 Clouds 26 1011 94 10000 3.1 60 12:30 07.11.2020
5808 Clouds 25 1010 100 10000 3.1 70 11:45 07.11.2020
5809 Clouds 25 1010 100 10000 3.1 70 11:24 07.11.2020
5810 Clear 25 1009 94 10000 2.6 80 10:46 07.11.2020
5811 Clear 25 1009 94 10000 2.6 80 10:28 07.11.2020
5812 Clear 26 1008 88 10000 2.6 80 09:58 07.11.2020
5813 Clear 26 1008 88 10000 2.6 80 09:37 07.11.2020
5814 Clear 26 1008 88 10000 2.6 80 08:58 07.11.2020
5815 Clear 26 1008 88 10000 2.6 80 08:37 07.11.2020
5816 Clear 26 1009 88 10000 2.1 70 08:18 07.11.2020
5817 Clear 26 1009 88 10000 2.1 70 07:37 07.11.2020
5818 Clear 26 1009 88 10000 2.1 80 06:48 07.11.2020
5819 Clear 26 1010 88 10000 2.6 70 05:37 07.11.2020
5820 Clouds 27 1010 88 10000 1.5 80 03:25 07.11.2020
5821 Clouds 27 1008 88 10000 0.5 90 01:45 07.11.2020
5822 Clouds 27 1008 88 10000 0.5 90 01:25 07.11.2020
5823 Clouds 28 1007 83 10000 1 160 00:27 07.11.2020
5824 Clouds 29 1006 74 10000 0.5 70 23:25 06.11.2020
5825 Clouds 31 1007 66 10000 1.5 180 22:45 06.11.2020
5826 Clouds 31 1007 66 10000 1.5 180 22:20 06.11.2020
5827 Clouds 31 1007 66 10000 1.5 180 21:58 06.11.2020
5828 Clouds 32 1006 62 10000 1.5 190 21:40 06.11.2020
5829 Clouds 31 1007 66 10000 2.6 230 21:18 06.11.2020
5830 Clouds 31 1007 66 10000 2.6 230 20:43 06.11.2020
5831 Clouds 31 1008 62 10000 2.1 180 20:19 06.11.2020
5832 Clouds 31 1008 62 10000 2.1 180 19:45 06.11.2020
5833 Clouds 31 1008 62 10000 2.1 180 19:26 06.11.2020
5834 Clouds 31 1010 66 10000 2.1 200 18:47 06.11.2020
5835 Clouds 31 1010 66 10000 2.1 200 18:47 06.11.2020
5836 Clouds 31 1010 66 10000 2.1 200 18:26 06.11.2020
5837 Clouds 31 1010 66 10000 2.1 200 17:52 06.11.2020
5838 Clouds 30 1011 66 10000 1 150 17:31 06.11.2020
5839 Clouds 30 1011 66 10000 1.5 110 16:58 06.11.2020
5840 Clouds 30 1012 70 10000 1 160 16:33 06.11.2020
5841 Clouds 29 1012 70 10000 1 90 15:55 06.11.2020
5842 Clouds 29 1012 70 10000 1 90 15:33 06.11.2020
5843 Clouds 28 1012 74 10000 1.5 40 14:54 06.11.2020
5844 Clouds 28 1012 74 10000 1.5 40 14:28 06.11.2020
5845 Clouds 26 1011 78 10000 1.5 30 13:50 06.11.2020
5846 Clouds 26 1011 78 10000 1.5 30 13:26 06.11.2020
5847 Clouds 25 1010 94 10000 1.31 72 12:55 06.11.2020
5848 Clouds 25 1010 94 10000 1.31 72 12:36 06.11.2020
5849 Clouds 25 1010 94 10000 0.69 79 12:18 06.11.2020
5850 Rain 24 1009 94 10000 1 10 11:36 06.11.2020
5851 Clouds 24 1010 94 10000 2.1 310 10:52 06.11.2020
5852 Clouds 24 1010 94 10000 2.1 310 10:52 06.11.2020
5853 Clouds 24 1010 94 10000 2.1 310 10:32 06.11.2020
5854 Clouds 24 1009 94 10000 1.5 290 09:50 06.11.2020
5855 Clouds 24 1009 94 10000 1.5 290 09:28 06.11.2020
5856 Clouds 24 1009 100 10000 2.6 280 08:58 06.11.2020
5857 Clouds 24 1009 100 10000 2.6 280 08:40 06.11.2020
5858 Clouds 24 1010 94 10000 1.5 300 08:18 06.11.2020
5859 Clouds 24 1010 94 10000 1.5 300 07:40 06.11.2020
5860 Clouds 25 1010 88 10000 2.1 290 07:18 06.11.2020
5861 Clouds 25 1010 88 10000 2.1 290 07:18 06.11.2020
5862 Clouds 25 1010 88 10000 2.1 290 06:40 06.11.2020
5863 Rain 25 1010 88 10000 3.1 250 05:37 06.11.2020
5864 Thunderstorm 26 1010 94 10000 3.6 270 01:56 06.11.2020
5865 Thunderstorm 27 1009 88 10000 3.1 240 00:24 06.11.2020
5866 Clouds 28 1008 83 10000 4.1 270 23:50 05.11.2020
5867 Clouds 28 1007 79 10000 3.1 280 23:20 05.11.2020
5868 Clouds 29 1007 79 10000 3.1 280 22:44 05.11.2020
5869 Clouds 28 1006 88 10000 4.1 280 22:25 05.11.2020
5870 Clouds 28 1006 88 10000 4.1 280 21:56 05.11.2020
5871 Clouds 28 1006 88 10000 4.1 280 21:38 05.11.2020
5872 Rain 29 1006 79 10000 4.1 250 21:18 05.11.2020
5873 Rain 29 1006 79 10000 4.1 250 20:42 05.11.2020
5874 Clouds 30 1007 70 10000 3.1 320 20:21 05.11.2020
5875 Clouds 30 1007 70 10000 3.1 320 19:44 05.11.2020
5876 Clouds 30 1008 70 10000 2.6 360 19:25 05.11.2020
5877 Clouds 30 1008 70 10000 2.6 360 18:55 05.11.2020
5878 Clouds 30 1008 70 10000 2.6 360 18:37 05.11.2020
5879 Clouds 29 1010 74 10000 2.1 10 18:18 05.11.2020
5880 Clouds 29 1010 74 10000 2.1 10 17:41 05.11.2020
5881 Rain 28 1012 74 10000 2.1 60 17:23 05.11.2020
5882 Rain 27 1012 74 10000 2.1 60 16:45 05.11.2020
5883 Rain 27 1012 74 10000 2.1 60 16:24 05.11.2020
5884 Rain 26 1013 83 10000 3.1 70 15:50 05.11.2020
5885 Rain 26 1013 83 10000 3.1 70 15:26 05.11.2020
5886 Clouds 27 1012 83 10000 1 70 14:50 05.11.2020
5887 Clouds 27 1012 83 10000 1 70 14:31 05.11.2020
5888 Clouds 27 1011 78 10000 3.1 20 13:51 05.11.2020
5889 Clouds 27 1011 78 10000 3.1 20 13:33 05.11.2020
5890 Clouds 26 1010 88 10000 2.6 30 12:54 05.11.2020
5891 Clouds 25 1010 88 10000 2.6 30 12:30 05.11.2020
5892 Clouds 25 1010 94 10000 2.1 350 11:58 05.11.2020
5893 Clouds 25 1010 88 10000 2.6 10 11:39 05.11.2020
5894 Clouds 25 1011 88 10000 2.1 80 11:21 05.11.2020
5895 Clouds 25 1011 88 10000 2.1 80 10:47 05.11.2020
5896 Clouds 25 1011 88 10000 2.1 80 10:26 05.11.2020
5897 Clouds 25 1009 88 10000 2.1 60 09:48 05.11.2020
5898 Clouds 25 1009 88 10000 2.1 60 09:24 05.11.2020
5899 Clouds 25 1009 88 10000 2.1 60 09:24 05.11.2020
5900 Clouds 25 1011 83 10000 2.6 40 08:48 05.11.2020
5901 Clouds 25 1011 83 10000 2.6 40 08:29 05.11.2020
5902 Clouds 25 1010 83 10000 2.6 40 07:42 05.11.2020
5903 Clouds 25 1010 83 10000 2.6 40 07:23 05.11.2020
5904 Clouds 25 1010 83 10000 2.6 30 06:42 05.11.2020
5905 Clouds 25 1010 83 10000 2.6 30 06:42 05.11.2020
5906 Clouds 25 1011 83 10000 2.6 20 05:54 05.11.2020
5907 Clear 26 1010 78 10000 1.5 50 01:39 05.11.2020
5908 Clear 26 1009 83 10000 1.5 30 00:34 05.11.2020
5909 Clouds 27 1008 78 10000 1 90 23:46 04.11.2020
5910 Clouds 30 1008 66 10000 1 100 23:26 04.11.2020
5911 Clouds 30 1008 66 10000 1 100 22:54 04.11.2020
5912 Clouds 30 1008 66 10000 1 100 22:36 04.11.2020
5913 Clouds 30 1008 66 10000 1 190 22:18 04.11.2020
5914 Clouds 30 1008 66 10000 1 190 21:42 04.11.2020
5915 Clouds 30 1009 66 10000 1 150 21:24 04.11.2020
5916 Clouds 30 1009 66 10000 1 150 20:45 04.11.2020
5917 Clouds 30 1009 66 10000 1 150 20:27 04.11.2020
5918 Clouds 29 1010 74 10000 1.5 180 19:50 04.11.2020
5919 Clouds 29 1010 74 10000 1.5 180 19:30 04.11.2020
5920 Clouds 29 1010 70 10000 1.5 175 18:56 04.11.2020
5921 Clouds 28 1011 74 10000 0.5 150 18:38 04.11.2020
5922 Clouds 28 1011 74 10000 0.5 150 18:20 04.11.2020
5923 Clouds 27 1012 78 10000 1 120 17:41 04.11.2020
5924 Clouds 27 1012 78 10000 1 120 17:41 04.11.2020
5925 Clouds 27 1012 78 10000 1 120 17:23 04.11.2020
5926 Clouds 26 1012 83 10000 2.6 360 16:42 04.11.2020
5927 Clouds 25 1013 88 10000 2.1 40 16:24 04.11.2020
5928 Clouds 25 1013 88 10000 2.1 40 15:49 04.11.2020
5929 Rain 25 1013 88 10000 2.1 40 15:26 04.11.2020
5930 Rain 24 1012 94 10000 1.5 100 14:59 04.11.2020
5931 Rain 24 1012 94 10000 1.5 100 14:41 04.11.2020
5932 Rain 24 1012 94 10000 2.1 270 14:21 04.11.2020
5933 Rain 24 1012 94 10000 2.1 270 13:47 04.11.2020
5934 Rain 24 1013 94 6000 1.5 260 13:20 04.11.2020
5935 Rain 24 1013 94 6000 1.5 260 12:54 04.11.2020
5936 Rain 24 1013 94 6000 1.5 260 12:36 04.11.2020
5937 Rain 24 1013 94 3000 2.1 190 11:59 04.11.2020
5938 Rain 24 1013 94 3000 2.1 190 11:40 04.11.2020
5939 Rain 23 1012 100 4000 2.6 200 11:20 04.11.2020
5940 Rain 24 1011 94 3000 3.6 210 10:46 04.11.2020
5941 Rain 24 1011 94 3000 3.6 210 10:22 04.11.2020
5942 Rain 25 1011 88 4000 3.6 200 09:53 04.11.2020
5943 Rain 25 1011 88 10000 4.1 190 09:23 04.11.2020
5944 Rain 27 1009 74 10000 1 230 08:46 04.11.2020
5945 Rain 27 1009 74 10000 1 360 08:20 04.11.2020
5946 Thunderstorm 27 1009 74 10000 1 360 07:50 04.11.2020
5947 Thunderstorm 27 1009 74 10000 1 360 07:27 04.11.2020
5948 Thunderstorm 27 1009 78 10000 1 90 06:46 04.11.2020
5949 Thunderstorm 27 1009 78 10000 1 90 06:27 04.11.2020
5950 Clouds 29 1010 70 10000 1 20 03:46 04.11.2020
5951 Clouds 29 1009 70 10000 1 80 02:20 04.11.2020
5952 Clouds 30 1007 70 10000 1 60 00:43 04.11.2020
5953 Clouds 31 1006 66 10000 1 110 23:44 03.11.2020
5954 Clouds 33 1006 59 10000 1.5 190 23:21 03.11.2020
5955 Clouds 33 1006 59 10000 1.5 190 22:41 03.11.2020
5956 Clouds 34 1006 56 10000 1.5 220 22:21 03.11.2020
5957 Clouds 34 1005 55 10000 2.6 210 21:56 03.11.2020
5958 Clouds 34 1006 56 10000 1.5 220 21:37 03.11.2020
5959 Clouds 34 1007 52 10000 2.1 180 21:19 03.11.2020
5960 Clouds 34 1007 52 10000 2.1 180 20:43 03.11.2020
5961 Clouds 34 1007 52 10000 2.1 180 20:22 03.11.2020
5962 Clouds 34 1008 52 10000 1.5 140 19:43 03.11.2020
5963 Clouds 34 1008 52 10000 1.5 140 19:22 03.11.2020
5964 Clouds 34 1010 56 10000 2.1 190 18:45 03.11.2020
5965 Clouds 34 1010 56 10000 2.1 190 18:21 03.11.2020
5966 Clouds 34 1010 56 10000 2.1 190 17:58 03.11.2020
5967 Clouds 33 1011 55 10000 1.5 160 17:40 03.11.2020
5968 Clouds 33 1011 55 10000 1.5 160 17:21 03.11.2020
5969 Clouds 32 1012 62 10000 2.1 210 16:44 03.11.2020
5970 Clouds 32 1012 62 10000 2.1 210 16:22 03.11.2020
5971 Clouds 31 1012 70 10000 1.5 210 15:43 03.11.2020
5972 Clouds 31 1012 70 10000 1.5 210 15:24 03.11.2020
5973 Clouds 31 1012 70 10000 1.5 210 14:49 03.11.2020
5974 Clear 31 1012 66 10000 1 300 14:30 03.11.2020
5975 Clear 29 1011 70 10000 2.1 100 13:46 03.11.2020
5976 Clear 29 1011 70 10000 2.1 100 13:23 03.11.2020
5977 Clear 27 1010 74 10000 2.1 10 12:59 03.11.2020
5978 Clear 27 1010 74 10000 2.1 10 12:37 03.11.2020
5979 Clear 27 1010 74 10000 2.1 10 12:18 03.11.2020
5980 Clouds 25 1009 78 10000 2.1 280 11:41 03.11.2020
5981 Clouds 26 1011 78 10000 1 280 11:20 03.11.2020
5982 Clouds 26 1011 78 10000 1 280 11:20 03.11.2020
5983 Clouds 26 1011 78 10000 1 280 10:39 03.11.2020
5984 Clouds 26 1011 78 10000 1.5 280 10:21 03.11.2020
5985 Clouds 26 1011 78 10000 1.5 280 09:51 03.11.2020
5986 Clouds 26 1011 78 10000 1.5 280 09:33 03.11.2020
5987 Clouds 26 1011 78 10000 1.5 280 09:33 03.11.2020
5988 Clear 26 1011 78 10000 1.5 280 08:55 03.11.2020
5989 Clear 26 1011 78 10000 1.5 280 08:35 03.11.2020
5990 Clear 26 1011 78 10000 2.1 290 07:49 03.11.2020
5991 Clear 27 1010 78 10000 2.1 270 07:22 03.11.2020
5992 Clear 27 1010 78 10000 2.1 270 06:46 03.11.2020
5993 Clear 27 1010 78 10000 1.5 270 05:38 03.11.2020
5994 Clouds 27 1008 74 10000 1 230 02:20 03.11.2020
5995 Clouds 29 1007 62 10000 1.5 230 00:41 03.11.2020
5996 Clouds 30 1007 62 10000 1.5 230 23:51 02.11.2020
5997 Clouds 30 1006 62 10000 2.1 230 23:33 02.11.2020
5998 Clouds 32 1006 59 10000 3.1 270 22:50 02.11.2020
5999 Clouds 32 1006 59 10000 3.1 270 22:30 02.11.2020
6000 Clouds 32 1007 59 10000 3.1 260 21:59 02.11.2020
6001 Clouds 32 1007 59 10000 3.1 260 21:37 02.11.2020
6002 Clouds 32 1007 62 10000 3.6 260 21:19 02.11.2020
6003 Clouds 32 1007 62 10000 3.6 260 20:39 02.11.2020
6004 Clouds 32 1009 62 10000 3.1 260 20:20 02.11.2020
6005 Clouds 32 1009 62 10000 3.1 260 19:45 02.11.2020
6006 Clouds 32 1009 62 10000 3.1 260 19:27 02.11.2020
6007 Clouds 32 1009 55 10000 3.1 220 18:55 02.11.2020
6008 Clouds 31 1009 62 10000 2.6 260 18:37 02.11.2020
6009 Clouds 31 1009 62 10000 2.6 260 18:19 02.11.2020
6010 Clouds 31 1011 66 10000 2.1 240 17:41 02.11.2020
6011 Clouds 30 1012 70 10000 2.6 270 17:23 02.11.2020
6012 Clouds 30 1012 70 10000 2.6 270 16:49 02.11.2020
6013 Clouds 30 1012 70 10000 2.6 270 16:28 02.11.2020
6014 Clouds 30 1012 70 10000 3.1 160 15:55 02.11.2020
6015 Clouds 30 1012 70 10000 3.1 160 15:37 02.11.2020
6016 Clouds 28 1012 78 10000 3.6 280 15:19 02.11.2020
6017 Clouds 28 1012 78 10000 3.6 280 14:42 02.11.2020
6018 Clouds 27 1012 83 10000 2.6 250 14:19 02.11.2020
6019 Clouds 27 1012 83 10000 2.6 250 13:47 02.11.2020
6020 Clouds 25 1011 88 10000 3.1 300 13:22 02.11.2020
6021 Clouds 25 1011 88 10000 3.1 300 12:50 02.11.2020
6022 Clouds 25 1011 88 10000 3.1 300 12:26 02.11.2020
6023 Clouds 25 1010 88 10000 3.6 310 11:45 02.11.2020
6024 Clouds 25 1010 88 10000 1.8 260 11:20 02.11.2020
6025 Clouds 25 1010 88 10000 1.8 260 10:46 02.11.2020
6026 Clouds 25 1010 88 10000 1.51 266 10:24 02.11.2020
6027 Clouds 24 1009 94 10000 2.1 250 09:55 02.11.2020
6028 Clouds 24 1009 94 10000 2.1 250 09:27 02.11.2020
6029 Clouds 24 1009 94 10000 1.46 267 08:57 02.11.2020
6030 Clouds 24 1009 94 10000 1.46 267 08:36 02.11.2020
6031 Clouds 24 1010 94 10000 1 310 08:18 02.11.2020
6032 Clouds 24 1010 94 10000 1 310 07:38 02.11.2020
6033 Clouds 25 1010 88 10000 1.5 320 06:44 02.11.2020
6034 Clouds 26 1011 88 10000 1.5 310 05:19 02.11.2020
6035 Rain 27 1010 74 10000 2.1 320 01:27 02.11.2020
6036 Rain 27 1010 74 10000 2.1 320 01:27 02.11.2020
6037 Rain 27 1010 74 10000 2.1 320 01:27 02.11.2020
6038 Rain 27 1010 74 10000 2.1 320 01:27 02.11.2020
6039 Clouds 27 1009 74 10000 2.1 290 00:37 02.11.2020
6040 Clouds 27 1009 83 10000 1 240 23:57 01.11.2020
6041 Clouds 28 1009 69 10000 3.6 290 23:38 01.11.2020
6042 Clouds 29 1009 70 10000 4.1 290 23:19 01.11.2020
6043 Clouds 29 1009 70 10000 4.1 290 22:41 01.11.2020
6044 Clouds 29 1009 70 10000 5.1 260 22:21 01.11.2020
6045 Clouds 29 1009 70 10000 5.1 260 21:43 01.11.2020
6046 Clouds 29 1009 70 10000 5.1 260 21:23 01.11.2020
6047 Clouds 29 1009 70 10000 4.1 270 20:47 01.11.2020
6048 Clouds 29 1009 70 10000 4.1 270 20:26 01.11.2020
6049 Clouds 29 1010 70 10000 4.1 270 19:48 01.11.2020
6050 Clouds 29 1010 70 10000 4.1 270 19:29 01.11.2020
6051 Clouds 29 1011 70 10000 5.1 270 18:58 01.11.2020
6052 Clouds 29 1011 70 10000 5.1 270 18:38 01.11.2020
6053 Clouds 27 1012 78 10000 5.1 260 18:19 01.11.2020
6054 Clouds 27 1012 78 10000 5.1 260 17:45 01.11.2020
6055 Clouds 27 1012 78 10000 5.1 260 17:27 01.11.2020
6056 Clouds 27 1013 78 10000 2.6 300 16:45 01.11.2020
6057 Clouds 27 1013 78 10000 2.6 300 16:27 01.11.2020
6058 Clouds 25 1014 88 10000 2.1 320 15:58 01.11.2020
6059 Clouds 25 1014 88 10000 2.1 320 15:38 01.11.2020
6060 Clouds 25 1014 83 10000 3.1 300 15:19 01.11.2020
6061 Clouds 25 1014 83 10000 3.1 300 14:46 01.11.2020
6062 Clouds 25 1014 83 10000 3.1 300 14:22 01.11.2020
6063 Clouds 24 1013 88 10000 3.6 310 13:57 01.11.2020
6064 Rain 24 1013 88 10000 3.6 310 13:39 01.11.2020
6065 Rain 24 1012 88 10000 3.6 310 13:20 01.11.2020
6066 Rain 24 1012 88 10000 3.6 310 12:40 01.11.2020
6067 Clouds 24 1011 88 10000 4.1 340 12:18 01.11.2020
6068 Clouds 24 1011 88 10000 4.1 340 11:48 01.11.2020
6069 Clouds 24 1011 94 10000 4.1 310 11:18 01.11.2020
6070 Clouds 24 1011 94 10000 4.1 310 10:42 01.11.2020
6071 Clouds 24 1011 94 10000 4.1 310 10:24 01.11.2020
6072 Clouds 24 1010 94 10000 3.1 280 09:49 01.11.2020
6073 Clouds 24 1010 94 10000 3.1 280 09:24 01.11.2020
6074 Clouds 24 1010 94 10000 4.1 240 08:40 01.11.2020
6075 Rain 25 1010 94 10000 3.6 230 07:54 01.11.2020
6076 Thunderstorm 25 1010 88 10000 2.6 240 06:48 01.11.2020
6077 Clouds 29 1010 79 10000 1 130 02:31 01.11.2020
6078 Clouds 29 1010 79 10000 1 180 01:38 01.11.2020
6079 Clouds 30 1008 74 10000 0.5 80 23:56 31.10.2020
6080 Clouds 30 1008 74 10000 0.5 80 23:23 31.10.2020
6081 Clouds 32 1008 62 10000 0.5 110 22:45 31.10.2020
6082 Clouds 32 1008 62 10000 0.5 110 22:24 31.10.2020
6083 Clouds 32 1008 62 10000 0.5 110 22:24 31.10.2020
6084 Clouds 33 1008 59 10000 1.5 150 21:46 31.10.2020
6085 Clouds 33 1008 59 10000 1.5 150 21:22 31.10.2020
6086 Clouds 32 1008 59 10000 2.1 160 20:44 31.10.2020
6087 Clouds 32 1009 62 10000 2.6 170 20:20 31.10.2020
6088 Clouds 32 1009 62 10000 2.6 170 19:58 31.10.2020
6089 Clouds 32 1009 62 10000 2.6 170 19:37 31.10.2020
6090 Clouds 31 1010 66 10000 2.6 160 19:18 31.10.2020
6091 Clouds 31 1010 66 10000 2.6 160 18:42 31.10.2020
6092 Clouds 31 1011 66 10000 2.1 160 17:47 31.10.2020
6093 Clouds 31 1011 66 10000 2.1 160 17:29 31.10.2020
6094 Clouds 30 1012 70 10000 1.5 110 16:59 31.10.2020
6095 Clouds 30 1012 70 10000 1.5 110 16:39 31.10.2020
6096 Clouds 29 1012 74 10000 1.5 80 15:57 31.10.2020
6097 Clouds 29 1012 74 10000 1.5 80 15:36 31.10.2020
6098 Clouds 28 1012 78 10000 1.5 130 15:18 31.10.2020
6099 Clouds 28 1012 78 10000 1.5 130 14:46 31.10.2020
6100 Clouds 28 1012 78 10000 1.5 130 14:26 31.10.2020
6101 Clouds 27 1012 88 10000 1 120 13:49 31.10.2020
6102 Clouds 26 1011 88 10000 1 90 13:21 31.10.2020
6103 Clouds 26 1011 88 10000 1 90 12:32 31.10.2020
6104 Clouds 24 1010 100 10000 1 60 11:47 31.10.2020
6105 Clouds 24 1010 100 10000 1 60 11:28 31.10.2020
6106 Clouds 25 1010 88 10000 1.5 80 10:54 31.10.2020
6107 Clouds 25 1010 88 10000 1.5 80 10:33 31.10.2020
6108 Clouds 25 1010 88 10000 1.5 50 09:42 31.10.2020
6109 Clouds 25 1010 88 10000 1.5 50 09:21 31.10.2020
6110 Clouds 25 1010 88 10000 1.5 50 08:30 31.10.2020
6111 Clouds 25 1009 88 10000 1.5 50 07:49 31.10.2020
6112 Clouds 25 1009 88 10000 1.5 50 07:26 31.10.2020
6113 Clear 25 1009 88 10000 1.5 70 06:38 31.10.2020
6114 Clear 26 1011 83 10000 2.1 70 03:50 31.10.2020
6115 Clear 26 1011 83 10000 1.5 80 03:22 31.10.2020
6116 Clouds 27 1010 83 10000 1.5 90 01:29 31.10.2020
6117 Clouds 27 1008 83 10000 2.1 70 00:46 31.10.2020
6118 Clouds 28 1008 78 10000 2.1 80 23:50 30.10.2020
6119 Clouds 28 1008 78 10000 2.1 80 23:24 30.10.2020
6120 Clouds 29 1008 74 10000 2.1 50 22:45 30.10.2020
6121 Clouds 29 1008 74 10000 2.1 50 22:24 30.10.2020
6122 Clouds 30 1007 70 10000 1.5 70 21:52 30.10.2020
6123 Clouds 30 1007 70 10000 1.5 70 21:30 30.10.2020
6124 Clouds 29 1008 74 10000 1.5 70 20:59 30.10.2020
6125 Clouds 29 1008 74 10000 1.5 70 20:37 30.10.2020
6126 Clouds 29 1010 79 10000 2.1 60 20:19 30.10.2020
6127 Clouds 29 1010 79 10000 2.1 60 19:44 30.10.2020
6128 Clouds 28 1011 78 10000 3.6 80 19:18 30.10.2020
6129 Rain 28 1011 78 10000 3.6 80 18:49 30.10.2020
6130 Rain 28 1011 78 10000 3.6 80 18:27 30.10.2020
6131 Rain 28 1012 83 10000 3.6 80 17:49 30.10.2020
6132 Rain 28 1012 74 10000 2.6 50 17:22 30.10.2020
6133 Rain 28 1012 74 10000 2.6 50 17:22 30.10.2020
6134 Rain 28 1012 74 10000 2.6 50 16:57 30.10.2020
6135 Rain 28 1012 74 10000 2.6 50 16:36 30.10.2020
6136 Rain 28 1012 74 10000 2.6 50 16:36 30.10.2020
6137 Rain 27 1013 78 10000 4.1 70 16:18 30.10.2020
6138 Rain 27 1013 78 10000 4.1 70 15:40 30.10.2020
6139 Clouds 26 1012 88 10000 4.6 70 15:19 30.10.2020
6140 Clouds 26 1012 88 10000 4.6 70 14:44 30.10.2020
6141 Clouds 26 1012 88 10000 4.6 70 14:25 30.10.2020
6142 Clouds 26 1012 94 10000 2.1 70 13:45 30.10.2020
6143 Clouds 25 1010 100 8000 1 70 13:21 30.10.2020
6144 Clouds 25 1010 100 8000 1 70 12:52 30.10.2020
6145 Clouds 25 1010 100 8000 1 70 12:22 30.10.2020
6146 Clouds 25 1010 100 8000 1 70 11:56 30.10.2020
6147 Clouds 25 1009 94 10000 1.5 340 11:23 30.10.2020
6148 Clouds 25 1009 94 10000 1.5 340 10:52 30.10.2020
6149 Clouds 25 1008 100 10000 1.5 300 10:26 30.10.2020
6150 Clouds 25 1007 94 10000 1 300 09:57 30.10.2020
6151 Clouds 25 1007 94 10000 1 300 09:38 30.10.2020
6152 Clouds 25 1008 94 10000 1.31 221 09:19 30.10.2020
6153 Clouds 25 1008 94 10000 1.31 221 09:19 30.10.2020
6154 Clouds 25 1008 94 10000 1.19 190 08:32 30.10.2020
6155 Clouds 25 1008 94 10000 2.6 70 07:54 30.10.2020
6156 Rain 25 1008 94 10000 2.6 70 07:36 30.10.2020
6157 Rain 25 1008 94 10000 2.6 70 07:18 30.10.2020
6158 Clouds 25 1008 94 10000 2.1 70 05:59 30.10.2020
6159 Clouds 25 1010 94 10000 2.6 30 03:47 30.10.2020
6160 Rain 25 1009 94 10000 1 200 01:24 30.10.2020
6161 Rain 26 1008 88 10000 1 170 23:59 29.10.2020
6162 Thunderstorm 26 1007 83 10000 3.1 50 23:41 29.10.2020
6163 Rain 26 1007 83 10000 3.1 50 23:23 29.10.2020
6164 Rain 26 1005 83 10000 4.6 150 22:44 29.10.2020
6165 Rain 26 1005 83 10000 4.6 150 22:25 29.10.2020
6166 Rain 27 1006 83 10000 3.1 180 21:49 29.10.2020
6167 Rain 27 1006 83 10000 3.1 180 21:24 29.10.2020
6168 Clouds 33 1005 66 10000 3.1 70 20:43 29.10.2020
6169 Clouds 33 1005 66 10000 3.1 70 20:24 29.10.2020
6170 Clouds 34 1005 63 10000 4.1 50 19:56 29.10.2020
6171 Clouds 34 1005 63 10000 4.1 50 19:38 29.10.2020
6172 Clouds 33 1007 70 10000 3.1 70 19:18 29.10.2020
6173 Clouds 32 1007 70 10000 3.1 70 18:45 29.10.2020
6174 Clouds 32 1007 70 10000 3.1 70 18:25 29.10.2020
6175 Clouds 32 1009 70 10000 1.5 80 17:42 29.10.2020
6176 Rain 31 1010 74 10000 1.5 110 17:22 29.10.2020
6177 Rain 31 1010 74 10000 1.5 110 17:22 29.10.2020
6178 Rain 31 1010 74 10000 1.5 110 16:52 29.10.2020
6179 Rain 30 1010 79 10000 2.1 100 16:23 29.10.2020
6180 Rain 31 1010 79 10000 2.1 100 15:58 29.10.2020
6181 Clouds 30 1010 79 10000 2.1 100 15:40 29.10.2020
6182 Clouds 30 1010 74 10000 1.5 80 15:21 29.10.2020
6183 Clouds 30 1010 74 10000 1.5 80 14:46 29.10.2020
6184 Clouds 29 1010 83 10000 1 70 14:24 29.10.2020
6185 Clear 29 1010 70 10000 2.1 50 13:59 29.10.2020
6186 Clouds 28 1010 83 10000 1 70 13:39 29.10.2020
6187 Clouds 28 1010 83 10000 1 70 13:21 29.10.2020
6188 Clouds 26 1009 88 10000 1 20 12:40 29.10.2020
6189 Clouds 26 1009 88 10000 1 20 12:19 29.10.2020
6190 Clouds 26 1008 88 10000 1 30 11:45 29.10.2020
6191 Clouds 26 1008 88 10000 1 30 11:24 29.10.2020
6192 Clouds 25 1009 94 10000 1 10 10:38 29.10.2020
6193 Clouds 25 1009 88 10000 2.1 360 10:19 29.10.2020
6194 Clouds 25 1009 88 10000 2.1 360 09:53 29.10.2020
6195 Clouds 25 1009 88 10000 2.1 360 09:28 29.10.2020
6196 Clouds 25 1009 94 10000 1.5 330 08:55 29.10.2020
6197 Clouds 25 1009 94 10000 1.5 330 08:33 29.10.2020
6198 Clouds 25 1008 94 10000 2.1 360 07:54 29.10.2020
6199 Clouds 25 1008 94 10000 2.1 360 07:35 29.10.2020
6200 Clouds 26 1008 88 10000 2.6 20 06:57 29.10.2020
6201 Clouds 26 1008 88 10000 1.5 20 04:52 29.10.2020
6202 Clouds 27 1009 78 10000 1.5 90 03:58 29.10.2020
6203 Rain 26 1007 86 10000 2.78 318 01:22 29.10.2020
6204 Clouds 26 1007 86 10000 2.78 318 00:31 29.10.2020
6205 Clouds 26 1006 88 10000 0.8 9 23:46 28.10.2020
6206 Rain 27 1004 88 10000 1.45 358 23:21 28.10.2020
6207 Clouds 27 1004 88 10000 1.45 358 22:45 28.10.2020
6208 Rain 32 1004 66 10000 1 110 22:26 28.10.2020
6209 Rain 32 1004 66 10000 1 110 21:58 28.10.2020
6210 Rain 32 1004 66 10000 1 110 21:40 28.10.2020
6211 Clouds 33 1005 63 10000 1.5 90 21:19 28.10.2020
6212 Clouds 33 1005 63 10000 1.5 90 20:41 28.10.2020
6213 Clouds 32 1005 66 10000 3.1 70 20:22 28.10.2020
6214 Clouds 32 1005 66 10000 3.1 70 19:50 28.10.2020
6215 Clouds 32 1005 66 10000 3.1 70 19:28 28.10.2020
6216 Clouds 32 1017 70 10000 2.1 90 18:47 28.10.2020
6217 Clouds 32 1017 70 10000 2.1 90 18:21 28.10.2020
6218 Clouds 31 1009 70 10000 2.6 70 17:44 28.10.2020
6219 Clouds 29 1010 79 10000 1.5 90 17:25 28.10.2020
6220 Clouds 29 1010 79 10000 1.5 90 16:56 28.10.2020
6221 Clouds 29 1010 79 10000 1.5 90 16:38 28.10.2020
6222 Clouds 28 1010 83 10000 2.6 80 16:19 28.10.2020
6223 Clouds 28 1010 83 10000 2.6 80 15:37 28.10.2020
6224 Clouds 32 1008 57 10000 1.1 81 15:18 28.10.2020
6225 Clouds 32 1008 57 10000 1.1 81 14:42 28.10.2020
6226 Clouds 30 1009 67 10000 1.53 76 14:22 28.10.2020
6227 Clouds 27 1008 79 10000 1.46 64 12:41 28.10.2020
6228 Clouds 25 1007 85 10000 1.03 54 12:22 28.10.2020
6229 Clouds 25 1007 85 10000 1.03 54 11:55 28.10.2020
6230 Clouds 24 1007 94 10000 1 210 11:36 28.10.2020
6231 Clouds 24 1006 90 10000 0.54 110 11:18 28.10.2020
6232 Clouds 24 1006 90 10000 0.54 110 10:42 28.10.2020
6233 Clouds 24 1007 94 10000 1.5 180 10:24 28.10.2020
6234 Clouds 24 1007 94 10000 1.5 180 09:43 28.10.2020
6235 Clouds 24 1007 94 10000 1.5 180 09:22 28.10.2020
6236 Clouds 24 1006 100 10000 1 180 08:49 28.10.2020
6237 Clouds 24 1006 100 10000 1 180 08:28 28.10.2020
6238 Clouds 24 1007 94 10000 1.5 200 07:50 28.10.2020
6239 Clouds 24 1007 94 10000 1.5 200 07:30 28.10.2020
6240 Rain 24 1007 94 10000 1.5 180 06:42 28.10.2020
6241 Rain 24 1008 94 10000 1.5 180 05:53 28.10.2020
6242 Rain 25 1008 94 10000 0.5 180 05:21 28.10.2020
6243 Rain 25 1008 94 10000 0.5 180 04:26 28.10.2020
6244 Rain 25 1007 94 10000 0.5 110 02:26 28.10.2020
6245 Rain 25 1007 94 10000 0.5 30 01:51 28.10.2020
6246 Rain 25 1006 94 10000 1 180 00:22 28.10.2020
6247 Clouds 25 1006 94 10000 1 180 23:45 27.10.2020
6248 Clouds 25 1006 94 10000 1 150 23:20 27.10.2020
6249 Rain 25 1006 94 10000 1 150 22:44 27.10.2020
6250 Rain 25 1006 94 10000 1 120 22:19 27.10.2020
6251 Rain 25 1006 94 10000 1 120 22:19 27.10.2020
6252 Rain 25 1006 94 10000 1 120 21:56 27.10.2020
6253 Rain 25 1006 94 10000 1 120 21:37 27.10.2020
6254 Rain 25 1006 94 10000 1 120 21:37 27.10.2020
6255 Rain 25 1007 94 8000 1 80 21:19 27.10.2020
6256 Rain 25 1007 94 8000 1 80 20:45 27.10.2020
6257 Rain 24 1007 94 8000 2.1 90 20:23 27.10.2020
6258 Rain 24 1007 94 8000 2.1 90 19:55 27.10.2020
6259 Rain 24 1007 94 8000 2.1 90 19:36 27.10.2020
6260 Rain 25 1009 78 9000 3.1 360 19:18 27.10.2020
6261 Rain 25 1009 78 9000 3.1 360 18:44 27.10.2020
6262 Rain 25 1009 78 9000 3.1 360 18:21 27.10.2020
6263 Rain 25 1010 83 10000 6.7 60 17:44 27.10.2020
6264 Rain 27 1010 79 10000 5.1 60 17:22 27.10.2020
6265 Rain 27 1010 79 10000 5.1 60 16:57 27.10.2020
6266 Rain 31 1010 74 10000 2.1 190 16:39 27.10.2020
6267 Clouds 30 1011 79 10000 1.5 220 16:21 27.10.2020
6268 Clouds 29 1011 79 10000 1.5 220 15:41 27.10.2020
6269 Clouds 28 1011 83 10000 2.1 210 15:23 27.10.2020
6270 Clouds 28 1011 83 10000 2.1 210 14:48 27.10.2020
6271 Clouds 28 1011 83 10000 2.1 210 14:29 27.10.2020
6272 Clouds 28 1011 83 10000 1.5 200 13:56 27.10.2020
6273 Clouds 28 1011 83 10000 1.5 200 13:56 27.10.2020
6274 Clouds 28 1011 83 10000 1.5 200 13:25 27.10.2020
6275 Clouds 27 1010 83 10000 1.5 230 12:43 27.10.2020
6276 Clouds 27 1010 83 10000 1.5 230 12:24 27.10.2020
6277 Clouds 26 1009 88 10000 1.5 230 11:45 27.10.2020
6278 Clouds 26 1009 88 10000 1.5 230 11:26 27.10.2020
6279 Clouds 25 1010 94 10000 0.92 358 10:54 27.10.2020
6280 Clouds 25 1010 94 10000 0.92 358 10:36 27.10.2020
6281 Clouds 25 1009 94 10000 0.5 210 10:18 27.10.2020
6282 Clouds 25 1009 94 10000 0.5 210 09:28 27.10.2020
6283 Clear 26 1009 83 10000 0.68 272 08:56 27.10.2020
6284 Clear 26 1009 83 10000 0.61 291 08:27 27.10.2020
6285 Clear 26 1009 83 10000 1.5 260 07:52 27.10.2020
6286 Clear 26 1009 83 10000 1.5 260 07:33 27.10.2020
6287 Rain 26 1009 88 10000 1 280 06:49 27.10.2020
6288 Clear 26 1009 88 10000 1 280 06:19 27.10.2020
6289 Clear 26 1009 88 10000 1 280 06:19 27.10.2020
6290 Clear 27 1010 88 10000 2.1 300 05:44 27.10.2020
6291 Rain 27 1010 88 10000 2.1 300 04:57 27.10.2020
6292 Rain 28 1009 79 10000 2.6 280 02:40 27.10.2020
6293 Rain 28 1008 79 10000 1.5 350 01:18 27.10.2020
6294 Rain 29 1007 79 10000 2.1 340 23:59 26.10.2020
6295 Rain 29 1007 79 10000 2.1 340 23:36 26.10.2020
6296 Clouds 29 1007 78 10000 2.1 30 22:56 26.10.2020
6297 Clouds 29 1007 79 8000 2.6 320 22:30 26.10.2020
6298 Rain 30 1006 74 10000 1.5 300 21:56 26.10.2020
6299 Rain 30 1006 74 10000 1.5 300 21:36 26.10.2020
6300 Clouds 28 1007 78 9000 3.1 280 21:18 26.10.2020
6301 Clouds 30 1007 78 9000 3.1 280 20:46 26.10.2020
6302 Rain 29 1007 88 3000 7.7 290 20:26 26.10.2020
6303 Clouds 33 1007 66 10000 1.5 220 19:49 26.10.2020
6304 Clouds 33 1007 66 10000 1.5 220 19:28 26.10.2020
6305 Clouds 34 1007 52 10000 2.6 360 18:57 26.10.2020
6306 Clouds 34 1009 59 10000 1.5 100 18:36 26.10.2020
6307 Clouds 33 1010 70 10000 1.5 120 18:18 26.10.2020
6308 Clouds 33 1010 70 10000 1.5 120 17:40 26.10.2020
6309 Clouds 32 1011 70 10000 2.1 170 17:22 26.10.2020
6310 Clouds 32 1011 70 10000 2.1 170 16:44 26.10.2020
6311 Clouds 30 1011 74 10000 2.1 210 16:22 26.10.2020
6312 Clouds 30 1011 74 10000 2.1 210 15:44 26.10.2020
6313 Clouds 30 1011 74 10000 2.1 210 15:25 26.10.2020
6314 Clear 30 1012 83 10000 2.1 230 14:54 26.10.2020
6315 Clear 29 1012 83 10000 2.1 230 14:35 26.10.2020
6316 Clear 28 1011 83 10000 1.5 290 13:46 26.10.2020
6317 Clear 28 1011 83 10000 1.5 290 13:28 26.10.2020
6318 Clear 27 1011 83 10000 1.5 240 12:58 26.10.2020
6319 Clouds 26 1010 94 10000 1 250 12:36 26.10.2020
6320 Clouds 26 1010 94 10000 1 250 12:18 26.10.2020
6321 Clouds 24 1010 100 10000 2.1 250 11:45 26.10.2020
6322 Clear 24 1009 94 10000 0.56 30 11:23 26.10.2020
6323 Clear 24 1009 94 10000 0.56 30 10:57 26.10.2020
6324 Clear 24 1009 94 10000 0.56 30 10:38 26.10.2020
6325 Clear 24 1009 94 10000 0.52 356 10:18 26.10.2020
6326 Clear 24 1009 94 10000 0.52 356 09:32 26.10.2020
6327 Clear 25 1009 88 10000 1 260 08:58 26.10.2020
6328 Clear 25 1009 88 10000 1 260 08:26 26.10.2020
6329 Clear 25 1009 83 10000 2.1 300 07:48 26.10.2020
6330 Clear 25 1009 83 10000 2.1 300 07:29 26.10.2020
6331 Clouds 26 1011 78 10000 3.1 310 05:46 26.10.2020
6332 Clouds 27 1011 74 10000 2.1 310 04:20 26.10.2020
6333 Clouds 28 1010 70 10000 2.6 340 03:21 26.10.2020
6334 Clouds 28 1010 70 10000 2.6 340 03:21 26.10.2020
6335 Clouds 28 1010 70 10000 2.6 340 03:21 26.10.2020
6336 Clouds 29 1009 79 10000 2.1 10 01:34 26.10.2020
6337 Clouds 29 1008 79 10000 1.5 70 00:39 26.10.2020
6338 Clouds 29 1008 79 10000 1.5 70 00:20 26.10.2020
6339 Clouds 29 1008 74 10000 1.5 80 23:37 25.10.2020
6340 Clouds 31 1008 70 10000 1 90 22:50 25.10.2020
6341 Clouds 31 1008 70 10000 1 90 22:30 25.10.2020
6342 Clouds 31 1008 66 10000 1 100 21:57 25.10.2020
6343 Clouds 31 1008 66 10000 1 100 21:39 25.10.2020
6344 Clouds 32 1008 66 10000 2.1 160 21:19 25.10.2020
6345 Clouds 32 1008 66 10000 2.1 160 20:43 25.10.2020
6346 Clouds 32 1008 66 10000 2.1 160 20:24 25.10.2020
6347 Clouds 31 1009 70 10000 1.5 140 19:56 25.10.2020
6348 Clouds 31 1009 70 10000 1.5 140 19:37 25.10.2020
6349 Clouds 31 1011 70 10000 2.1 170 19:19 25.10.2020
6350 Clouds 31 1011 70 10000 2.1 170 18:41 25.10.2020
6351 Clouds 31 1011 70 10000 2.1 170 18:22 25.10.2020
6352 Clouds 31 1011 70 10000 2.1 170 18:22 25.10.2020
6353 Clouds 31 1011 70 10000 2.1 170 17:56 25.10.2020
6354 Clouds 29 1012 74 10000 2.6 280 17:38 25.10.2020
6355 Clouds 28 1013 83 10000 1.5 130 17:19 25.10.2020
6356 Clouds 28 1013 83 10000 1.5 130 16:44 25.10.2020
6357 Clouds 28 1013 83 10000 1.5 130 16:25 25.10.2020
6358 Clouds 27 1014 83 10000 1.5 160 15:47 25.10.2020
6359 Clouds 27 1014 83 10000 1.5 160 15:27 25.10.2020
6360 Clouds 26 1014 88 10000 1.5 170 14:54 25.10.2020
6361 Clouds 26 1014 88 10000 1.5 170 14:30 25.10.2020
6362 Clouds 25 1013 94 10000 1.5 160 13:45 25.10.2020
6363 Clouds 25 1013 94 10000 1.5 160 13:25 25.10.2020
6364 Clouds 25 1012 94 10000 2.1 150 12:57 25.10.2020
6365 Clouds 25 1012 94 10000 2.1 150 12:39 25.10.2020
6366 Clouds 25 1012 94 10000 2.1 150 12:21 25.10.2020
6367 Clouds 25 1011 94 10000 0.89 132 11:42 25.10.2020
6368 Clouds 24 1010 94 10000 1.5 120 11:20 25.10.2020
6369 Clouds 24 1010 94 10000 1.5 120 10:47 25.10.2020
6370 Clouds 24 1010 94 10000 1.5 120 10:26 25.10.2020
6371 Clouds 24 1010 94 10000 1.5 140 09:52 25.10.2020
6372 Clouds 24 1010 94 10000 1.5 140 09:23 25.10.2020
6373 Clouds 24 1010 88 10000 1 150 08:59 25.10.2020
6374 Clouds 24 1010 88 10000 1 150 08:40 25.10.2020
6375 Clouds 24 1010 88 10000 1 150 08:22 25.10.2020
6376 Clouds 24 1009 94 10000 1 160 07:44 25.10.2020
6377 Clouds 24 1009 94 10000 1 130 06:53 25.10.2020
6378 Clouds 24 1009 94 10000 1 130 06:28 25.10.2020
6379 Clear 25 1010 94 10000 1.44 248 05:20 25.10.2020
6380 Clear 25 1010 94 10000 1.44 248 04:50 25.10.2020
6381 Clouds 26 1009 88 10000 1.5 80 02:30 25.10.2020
6382 Clouds 26 1008 94 10000 1 80 00:54 25.10.2020
6383 Clouds 26 1009 94 10000 1 80 00:28 25.10.2020
6384 Clouds 27 1008 83 10000 2.1 80 23:55 24.10.2020
6385 Clouds 27 1008 83 10000 2.1 80 23:35 24.10.2020
6386 Rain 28 1008 78 10000 2.1 80 22:59 24.10.2020
6387 Rain 28 1008 78 10000 2.1 80 22:40 24.10.2020
6388 Rain 29 1009 83 10000 1.5 70 22:21 24.10.2020
6389 Clouds 29 1009 83 10000 1.5 70 21:54 24.10.2020
6390 Clouds 29 1009 83 10000 1.5 70 21:36 24.10.2020
6391 Clouds 28 1010 83 10000 3.1 80 21:18 24.10.2020
6392 Clouds 28 1010 83 10000 3.1 80 20:42 24.10.2020
6393 Clouds 28 1010 83 10000 3.1 80 20:20 24.10.2020
6394 Clouds 27 1011 88 10000 1 110 19:40 24.10.2020
6395 Clouds 27 1011 88 10000 1 110 19:22 24.10.2020
6396 Clouds 25 1012 94 10000 2.1 20 18:51 24.10.2020
6397 Clouds 25 1012 94 10000 2.1 20 18:30 24.10.2020
6398 Rain 24 1013 94 9000 2.1 80 17:44 24.10.2020
6399 Rain 24 1013 94 9000 2.1 80 17:25 24.10.2020
6400 Rain 23 1014 100 9000 1.5 320 16:53 24.10.2020
6401 Rain 23 1014 100 9000 1.5 320 16:35 24.10.2020
6402 Rain 24 1015 100 800 3.6 80 15:57 24.10.2020
6403 Rain 24 1015 94 3000 5.1 80 15:37 24.10.2020
6404 Clouds 26 1013 94 10000 2.6 20 15:18 24.10.2020
6405 Clouds 26 1013 94 10000 2.6 20 14:30 24.10.2020
6406 Clouds 26 1011 94 10000 2.6 240 13:55 24.10.2020
6407 Clouds 26 1011 94 10000 2.6 240 13:36 24.10.2020
6408 Clouds 25 1011 100 10000 1.5 230 13:18 24.10.2020
6409 Clouds 25 1011 100 10000 1.5 230 12:37 24.10.2020
6410 Clouds 25 1010 100 10000 3.1 200 12:19 24.10.2020
6411 Clouds 25 1010 100 10000 3.1 200 11:45 24.10.2020
6412 Clouds 25 1010 100 10000 3.1 200 11:19 24.10.2020
6413 Clouds 25 1009 100 10000 2.1 210 10:42 24.10.2020
6414 Clouds 25 1009 100 10000 2.1 210 10:24 24.10.2020
6415 Clouds 25 1009 100 10000 1.5 200 09:44 24.10.2020
6416 Clouds 25 1009 100 10000 1.5 200 09:25 24.10.2020
6417 Clouds 26 1010 94 10000 2.1 270 08:54 24.10.2020
6418 Clouds 26 1010 94 10000 1.5 310 08:18 24.10.2020
6419 Clouds 26 1010 94 10000 1.5 310 08:18 24.10.2020
6420 Clouds 26 1010 94 10000 1.5 310 07:49 24.10.2020
6421 Clouds 26 1010 94 10000 1.5 310 07:20 24.10.2020
6422 Clouds 26 1011 88 10000 2.6 320 06:49 24.10.2020
6423 Clear 26 1011 88 10000 2.1 300 04:59 24.10.2020
6424 Clouds 27 1009 83 10000 2.6 300 02:20 24.10.2020
6425 Clouds 28 1008 83 10000 2.6 260 00:44 24.10.2020
6426 Clouds 28 1008 78 10000 2.6 270 00:23 24.10.2020
6427 Clouds 28 1008 78 10000 2.6 270 23:59 23.10.2020
6428 Clouds 28 1008 78 10000 2.6 270 23:38 23.10.2020
6429 Clouds 28 1008 78 10000 2.6 270 23:19 23.10.2020
6430 Clouds 29 1008 74 10000 2.6 260 22:42 23.10.2020
6431 Clouds 29 1008 74 10000 2.6 260 22:21 23.10.2020
6432 Clouds 29 1009 79 10000 2.6 260 21:53 23.10.2020
6433 Clouds 29 1009 79 10000 2.6 260 21:29 23.10.2020
6434 Clouds 28 1010 83 10000 3.1 250 20:44 23.10.2020
6435 Clouds 28 1010 83 10000 3.1 250 20:25 23.10.2020
6436 Clouds 28 1010 78 10000 2.1 220 19:59 23.10.2020
6437 Clouds 28 1010 78 10000 2.1 310 19:37 23.10.2020
6438 Clouds 28 1010 78 10000 2.1 310 19:18 23.10.2020
6439 Clouds 26 1011 83 10000 2.1 30 18:39 23.10.2020
6440 Clouds 25 1013 94 10000 2.1 50 18:20 23.10.2020
6441 Rain 24 1013 94 10000 2.1 50 17:44 23.10.2020
6442 Rain 23 1014 94 8000 1.5 70 17:21 23.10.2020
6443 Rain 24 1013 94 10000 2.1 50 17:21 23.10.2020
6444 Rain 23 1014 94 8000 1.5 70 16:47 23.10.2020
6445 Rain 23 1014 94 8000 1.5 70 16:26 23.10.2020
6446 Rain 23 1014 100 7000 3.1 80 15:47 23.10.2020
6447 Rain 23 1014 100 7000 3.1 80 15:25 23.10.2020
6448 Clouds 23 1014 94 4000 2.1 40 14:58 23.10.2020
6449 Thunderstorm 23 1014 94 4000 2.1 40 14:40 23.10.2020
6450 Rain 26 1014 83 3500 2.1 80 14:21 23.10.2020
6451 Clouds 26 1012 83 10000 1 170 13:38 23.10.2020
6452 Clouds 26 1012 83 10000 1 170 13:20 23.10.2020
6453 Clouds 26 1011 88 10000 0.95 264 12:47 23.10.2020
6454 Clouds 26 1011 88 10000 1.05 283 12:27 23.10.2020
6455 Clouds 26 1010 88 10000 1.5 160 11:47 23.10.2020
6456 Clouds 26 1010 88 10000 1.5 160 11:22 23.10.2020
6457 Clouds 26 1010 83 10000 1.5 200 10:46 23.10.2020
6458 Clouds 26 1010 83 10000 1.5 200 10:25 23.10.2020
6459 Clouds 26 1010 83 10000 1.5 200 10:25 23.10.2020
6460 Clouds 26 1010 83 10000 2.6 240 09:46 23.10.2020
6461 Clouds 26 1010 83 10000 2.6 240 09:27 23.10.2020
6462 Clouds 26 1010 83 10000 2.6 260 08:53 23.10.2020
6463 Clouds 26 1010 83 10000 2.6 260 08:33 23.10.2020
6464 Clouds 27 1010 83 10000 2.6 280 07:46 23.10.2020
6465 Clouds 27 1012 78 10000 1 190 07:22 23.10.2020
6466 Clouds 27 1012 78 10000 1 190 06:20 23.10.2020
6467 Clear 27 1012 83 10000 1 210 05:36 23.10.2020
6468 Clear 28 1010 70 10000 1 330 02:32 23.10.2020
6469 Clouds 29 1009 70 10000 3.1 20 01:30 23.10.2020
6470 Clouds 31 1008 70 10000 1 120 00:47 23.10.2020
6471 Clouds 33 1008 59 10000 1 150 23:48 22.10.2020
6472 Clouds 33 1008 59 10000 1 150 23:26 22.10.2020
6473 Clouds 33 1008 59 10000 1 190 22:49 22.10.2020
6474 Clouds 33 1008 59 10000 1 190 22:27 22.10.2020
6475 Clouds 33 1009 56 10000 1.5 190 21:59 22.10.2020
6476 Clouds 33 1009 56 10000 1.5 190 21:41 22.10.2020
6477 Clouds 32 1009 62 10000 2.6 190 21:21 22.10.2020
6478 Clouds 32 1009 62 10000 2.6 190 20:45 22.10.2020
6479 Clouds 32 1009 62 10000 2.6 190 20:26 22.10.2020
6480 Clouds 33 1011 59 10000 2.1 110 19:58 22.10.2020
6481 Clouds 33 1011 59 10000 2.1 110 19:39 22.10.2020
6482 Clouds 32 1011 59 10000 2.1 110 19:18 22.10.2020
6483 Clouds 32 1012 62 10000 2.1 170 18:42 22.10.2020
6484 Clouds 31 1013 70 10000 1.5 190 18:19 22.10.2020
6485 Clouds 31 1013 70 10000 1.5 190 17:45 22.10.2020
6486 Clouds 30 1014 70 10000 1.5 170 17:22 22.10.2020
6487 Clouds 30 1014 70 10000 1.5 170 16:46 22.10.2020
6488 Clouds 28 1014 78 10000 1 200 16:25 22.10.2020
6489 Clouds 28 1014 78 10000 1 200 15:56 22.10.2020
6490 Clouds 28 1014 78 10000 1 200 15:38 22.10.2020
6491 Clouds 27 1013 83 10000 1 190 15:19 22.10.2020
6492 Clouds 27 1013 83 10000 1 190 14:42 22.10.2020
6493 Clouds 27 1013 83 10000 1 190 14:23 22.10.2020
6494 Clouds 26 1013 88 10000 1 200 13:45 22.10.2020
6495 Clouds 26 1013 88 10000 1 200 13:23 22.10.2020
6496 Clouds 25 1012 94 10000 1.5 200 12:44 22.10.2020
6497 Rain 23 1010 94 10000 1 160 12:22 22.10.2020
6498 Clouds 23 1010 94 10000 1 160 11:47 22.10.2020
6499 Clouds 23 1010 94 10000 1 150 11:19 22.10.2020
6500 Clouds 23 1010 94 10000 1 150 10:49 22.10.2020
6501 Clouds 24 1010 94 10000 1 150 10:26 22.10.2020
6502 Clouds 24 1009 94 10000 1 130 09:46 22.10.2020
6503 Clouds 24 1009 94 10000 1 130 09:25 22.10.2020
6504 Clouds 24 1010 94 10000 1 180 08:47 22.10.2020
6505 Clouds 24 1010 94 10000 1 180 08:27 22.10.2020
6506 Rain 24 1011 94 10000 1 150 07:48 22.10.2020
6507 Clouds 24 1011 94 10000 1 150 07:29 22.10.2020
6508 Clouds 26 1011 94 10000 1.5 190 06:46 22.10.2020
6509 Clouds 26 1011 94 10000 1.5 190 06:24 22.10.2020
6510 Clouds 26 1012 88 10000 1.5 200 05:39 22.10.2020
6511 Rain 26 1011 83 10000 2.6 250 03:26 22.10.2020
6512 Rain 26 1010 83 10000 3.1 340 01:34 22.10.2020
6513 Rain 26 1010 83 10000 3.1 340 01:34 22.10.2020
6514 Clouds 27 1009 78 10000 2.6 320 00:24 22.10.2020
6515 Clouds 28 1009 79 10000 2.6 290 23:44 21.10.2020
6516 Clouds 29 1009 74 8000 3.6 280 23:22 21.10.2020
6517 Clouds 29 1009 74 8000 3.6 280 22:39 21.10.2020
6518 Clouds 30 1009 74 9000 2.1 220 22:19 21.10.2020
6519 Clouds 30 1009 74 9000 2.1 220 21:46 21.10.2020
6520 Clouds 30 1010 74 9000 2.1 40 21:20 21.10.2020
6521 Clouds 30 1010 74 9000 2.1 40 20:59 21.10.2020
6522 Rain 30 1010 74 9000 2.1 40 20:41 21.10.2020
6523 Rain 28 1011 79 10000 2.6 60 20:18 21.10.2020
6524 Rain 28 1011 79 10000 2.6 60 19:41 21.10.2020
6525 Rain 28 1011 79 10000 2.6 60 19:23 21.10.2020
6526 Rain 29 1011 79 10000 2.6 60 18:53 21.10.2020
6527 Rain 30 1012 74 10000 1 90 18:30 21.10.2020
6528 Clouds 30 1013 74 10000 1 100 17:51 21.10.2020
6529 Clouds 30 1014 74 10000 1 100 17:22 21.10.2020
6530 Rain 30 1014 74 10000 1 100 16:59 21.10.2020
6531 Clouds 30 1014 74 10000 1 100 16:39 21.10.2020
6532 Rain 30 1014 74 10000 1 100 16:20 21.10.2020
6533 Rain 28 1014 78 10000 1.5 70 15:46 21.10.2020
6534 Rain 28 1014 78 10000 1.5 70 15:22 21.10.2020
6535 Clouds 27 1013 83 10000 0.5 80 14:49 21.10.2020
6536 Clouds 27 1013 83 10000 0.5 80 14:29 21.10.2020
6537 Clouds 26 1012 83 10000 1.5 60 13:58 21.10.2020
6538 Clouds 26 1012 83 10000 1.5 60 13:40 21.10.2020
6539 Clouds 26 1012 83 10000 1.5 60 13:20 21.10.2020
6540 Clouds 25 1011 83 10000 1 210 12:40 21.10.2020
6541 Clouds 25 1010 88 10000 1 190 12:20 21.10.2020
6542 Clouds 25 1010 88 10000 1 190 11:46 21.10.2020
6543 Clouds 25 1010 88 10000 1 190 11:20 21.10.2020
6544 Clouds 24 1009 88 10000 1.5 190 10:49 21.10.2020
6545 Clouds 24 1009 88 10000 1.5 190 10:26 21.10.2020
6546 Clouds 24 1010 94 10000 1 120 09:57 21.10.2020
6547 Clouds 24 1010 94 10000 1 120 09:35 21.10.2020
6548 Clouds 25 1009 94 10000 1 150 08:57 21.10.2020
6549 Clouds 25 1009 94 10000 1 150 08:39 21.10.2020
6550 Clouds 25 1009 94 10000 1 150 08:21 21.10.2020
6551 Clouds 25 1009 88 10000 1.5 80 07:38 21.10.2020
6552 Clouds 25 1009 88 10000 1 60 06:55 21.10.2020
6553 Clouds 25 1009 88 10000 1 60 06:32 21.10.2020
6554 Clouds 27 1010 69 10000 2.6 10 04:47 21.10.2020
6555 Clouds 28 1009 79 10000 2.6 20 02:27 21.10.2020
6556 Clouds 31 1007 66 10000 1.5 80 23:55 20.10.2020
6557 Clouds 31 1007 66 10000 1.5 80 23:20 20.10.2020
6558 Clouds 33 1007 63 10000 1.5 80 22:36 20.10.2020
6559 Clouds 33 1007 63 10000 1.5 80 22:18 20.10.2020
6560 Clouds 33 1008 63 10000 1 90 21:45 20.10.2020
6561 Clouds 33 1008 63 10000 1 90 21:18 20.10.2020
6562 Clouds 32 1009 66 10000 1 110 20:42 20.10.2020
6563 Clouds 32 1009 66 10000 1 110 20:23 20.10.2020
6564 Rain 31 1011 66 10000 1 120 19:44 20.10.2020
6565 Clouds 31 1011 66 10000 1 120 19:22 20.10.2020
6566 Clouds 31 1011 66 10000 1 120 18:56 20.10.2020
6567 Clouds 29 1012 74 10000 1.5 60 18:37 20.10.2020
6568 Rain 29 1013 70 10000 1 90 17:50 20.10.2020
6569 Rain 29 1013 70 10000 1 90 17:32 20.10.2020
6570 Clouds 29 1013 74 10000 1.5 180 16:56 20.10.2020
6571 Rain 29 1013 74 10000 1.5 180 16:38 20.10.2020
6572 Clouds 29 1013 74 10000 1.5 180 16:20 20.10.2020
6573 Clouds 29 1013 79 10000 1.5 220 15:41 20.10.2020
6574 Clouds 29 1013 79 10000 1.5 220 15:22 20.10.2020
6575 Clouds 27 1012 88 7000 1 250 14:44 20.10.2020
6576 Clouds 27 1012 88 7000 1 250 14:24 20.10.2020
6577 Mist 25 1012 94 5000 1 220 13:57 20.10.2020
6578 Mist 25 1011 94 5000 1.5 240 13:38 20.10.2020
6579 Mist 25 1011 94 5000 1.5 240 13:19 20.10.2020
6580 Clouds 25 1010 94 10000 1.5 260 12:46 20.10.2020
6581 Clouds 25 1010 94 10000 1.5 260 12:28 20.10.2020
6582 Clouds 24 1010 88 10000 1 120 11:46 20.10.2020
6583 Clouds 24 1010 88 10000 1 120 11:27 20.10.2020
6584 Clouds 25 1009 88 10000 1 90 10:40 20.10.2020
6585 Clouds 25 1009 88 10000 1 90 10:22 20.10.2020
6586 Clouds 24 1009 88 10000 2.1 120 09:44 20.10.2020
6587 Rain 24 1009 88 10000 2.1 120 09:19 20.10.2020
6588 Rain 24 1009 88 10000 1 120 08:39 20.10.2020
6589 Clouds 25 1010 78 10000 2.1 80 07:54 20.10.2020
6590 Clouds 25 1010 78 10000 2.1 80 07:26 20.10.2020
6591 Clouds 25 1010 78 10000 1.5 70 06:55 20.10.2020
6592 Clouds 25 1010 78 10000 2.1 70 06:18 20.10.2020
6593 Clouds 27 1009 74 10000 1 60 03:59 20.10.2020
6594 Clouds 27 1008 78 10000 2.1 50 02:30 20.10.2020
6595 Thunderstorm 28 1007 78 10000 3.1 70 01:21 20.10.2020
6596 Clouds 29 1007 74 10000 1.5 90 00:50 20.10.2020
6597 Clouds 29 1007 74 10000 1.5 90 00:23 20.10.2020
6598 Clouds 30 1006 70 10000 1 80 23:48 19.10.2020
6599 Clouds 30 1006 70 10000 1 80 23:48 19.10.2020
6600 Clouds 30 1006 70 10000 1 80 23:24 19.10.2020
6601 Rain 30 1006 74 10000 1 70 22:47 19.10.2020
6602 Rain 30 1006 74 10000 1 70 22:25 19.10.2020
6603 Rain 30 1006 74 10000 1 70 22:25 19.10.2020
6604 Clouds 30 1007 66 10000 1 120 21:49 19.10.2020
6605 Clouds 30 1007 66 10000 1 120 21:23 19.10.2020
6606 Clouds 30 1008 70 10000 1 140 20:52 19.10.2020
6607 Rain 30 1008 70 10000 1 140 20:33 19.10.2020
6608 Clouds 31 1008 62 10000 2.1 120 19:56 19.10.2020
6609 Clouds 31 1008 62 10000 2.1 120 19:38 19.10.2020
6610 Clouds 31 1008 62 10000 2.1 120 19:18 19.10.2020
6611 Clouds 31 1010 66 10000 2.1 70 18:42 19.10.2020
6612 Clouds 29 1012 74 10000 1.5 100 18:19 19.10.2020
6613 Clouds 29 1012 74 10000 1.5 100 17:45 19.10.2020
6614 Clouds 29 1012 74 10000 1.5 100 17:25 19.10.2020
6615 Clouds 26 1012 83 10000 2.1 70 16:48 19.10.2020
6616 Clouds 26 1012 83 10000 2.1 70 16:28 19.10.2020
6617 Clouds 33 1010 52 10000 0.95 65 15:44 19.10.2020
6618 Clouds 31 1010 61 10000 0.82 77 15:25 19.10.2020
6619 Clouds 31 1010 61 10000 0.82 77 14:52 19.10.2020
6620 Clouds 28 1010 72 10000 0.65 86 14:27 19.10.2020
6621 Clouds 28 1010 72 10000 0.65 86 13:54 19.10.2020
6622 Clouds 28 1010 72 10000 0.65 86 13:34 19.10.2020
6623 Clouds 26 1009 83 10000 0.55 134 12:59 19.10.2020
6624 Clouds 26 1009 83 10000 0.55 134 12:40 19.10.2020
6625 Clouds 25 1008 87 10000 0.07 108 12:22 19.10.2020
6626 Clouds 25 1008 87 10000 0.07 108 11:40 19.10.2020
6627 Clouds 25 1008 94 10000 1 10 11:19 19.10.2020
6628 Clouds 25 1008 94 10000 1 10 10:43 19.10.2020
6629 Clouds 25 1008 94 10000 1.24 282 10:21 19.10.2020
6630 Clouds 25 1008 94 10000 1.24 282 09:50 19.10.2020
6631 Clouds 25 1008 94 10000 1 350 09:22 19.10.2020
6632 Clouds 25 1008 94 10000 1 350 08:49 19.10.2020
6633 Clouds 25 1008 94 10000 1 350 08:23 19.10.2020
6634 Clouds 26 1008 94 10000 1 330 07:52 19.10.2020
6635 Clouds 26 1008 94 10000 1 330 07:19 19.10.2020
6636 Clouds 26 1009 88 10000 0.5 310 06:19 19.10.2020
6637 Clouds 26 1009 88 10000 0.5 310 06:19 19.10.2020
6638 Clouds 26 1009 88 10000 1 180 04:29 19.10.2020
6639 Rain 27 1008 78 10000 0.5 320 03:42 19.10.2020
6640 Rain 27 1006 78 10000 1 340 00:59 19.10.2020
6641 Rain 28 1006 74 10000 3.6 320 00:25 19.10.2020
6642 Rain 29 1006 70 10000 2.6 340 23:48 18.10.2020
6643 Rain 29 1006 70 10000 2.6 340 23:25 18.10.2020
6644 Rain 29 1006 74 10000 3.6 340 22:52 18.10.2020
6645 Rain 29 1006 74 10000 3.6 340 22:22 18.10.2020
6646 Rain 30 1006 66 10000 3.6 340 21:56 18.10.2020
6647 Rain 30 1006 66 10000 3.6 340 21:37 18.10.2020
6648 Rain 30 1006 66 10000 3.6 340 21:18 18.10.2020
6649 Rain 30 1007 66 10000 2.6 340 20:40 18.10.2020
6650 Rain 30 1007 66 10000 2.6 340 20:19 18.10.2020
6651 Thunderstorm 31 1008 63 10000 1.5 100 19:43 18.10.2020
6652 Thunderstorm 31 1008 63 10000 1.5 100 19:25 18.10.2020
6653 Clouds 29 1010 70 10000 1.5 140 18:48 18.10.2020
6654 Clouds 29 1010 70 10000 1.5 140 18:27 18.10.2020
6655 Clouds 31 1011 66 10000 1.5 190 17:44 18.10.2020
6656 Clouds 31 1011 66 10000 1.5 190 17:25 18.10.2020
6657 Clouds 31 1012 70 10000 2.1 180 16:46 18.10.2020
6658 Clouds 31 1012 70 10000 2.1 180 16:2